<?xml version="1.0" encoding="UTF-8" standalone="no" ?>
<gpx xmlns="http://www.topografix.com/GPX/1/1" xmlns:xsi="http://www.w3.org/2001/XMLSchema-instance" xsi:schemaLocation="http://www.topografix.com/GPX/1/1 http://www.topografix.com/GPX/1/1/gpx.xsd" version="1.1" creator="VisuGPX - https://www.visugpx.com">
  <metadata>
    <name>trace 5</name>
  </metadata>
  <trk>
    <name><![CDATA[trace 5_1]]></name>
    <trkseg>
      <trkpt lat="48.64691" lon="-2.42142">
        <ele>71</ele>
        <time>2016-02-21T13:24:20.1Z</time>
      </trkpt>
      <trkpt lat="48.64691" lon="-2.42142">
        <ele>71</ele>
        <time>2016-02-21T13:24:20.1Z</time>
      </trkpt>
      <trkpt lat="48.64692" lon="-2.42145">
        <ele>71</ele>
        <time>2016-02-21T13:24:22.1Z</time>
      </trkpt>
      <trkpt lat="48.64693" lon="-2.42148">
        <ele>70</ele>
        <time>2016-02-21T13:24:25.1Z</time>
      </trkpt>
      <trkpt lat="48.64695" lon="-2.4215">
        <ele>70</ele>
        <time>2016-02-21T13:24:28.1Z</time>
      </trkpt>
      <trkpt lat="48.64697" lon="-2.4215">
        <ele>70</ele>
        <time>2016-02-21T13:24:30.1Z</time>
      </trkpt>
      <trkpt lat="48.64699" lon="-2.4215">
        <ele>70</ele>
        <time>2016-02-21T13:24:32.1Z</time>
      </trkpt>
      <trkpt lat="48.64701" lon="-2.4215">
        <ele>70</ele>
        <time>2016-02-21T13:24:35.1Z</time>
      </trkpt>
      <trkpt lat="48.64703" lon="-2.42153">
        <ele>70</ele>
        <time>2016-02-21T13:24:38.1Z</time>
      </trkpt>
      <trkpt lat="48.64705" lon="-2.42156">
        <ele>70</ele>
        <time>2016-02-21T13:24:41.1Z</time>
      </trkpt>
      <trkpt lat="48.64706" lon="-2.4216">
        <ele>70</ele>
        <time>2016-02-21T13:24:44.1Z</time>
      </trkpt>
      <trkpt lat="48.64708" lon="-2.42162">
        <ele>70</ele>
        <time>2016-02-21T13:24:46.1Z</time>
      </trkpt>
      <trkpt lat="48.6471" lon="-2.42165">
        <ele>70</ele>
        <time>2016-02-21T13:24:49.1Z</time>
      </trkpt>
      <trkpt lat="48.64712" lon="-2.42168">
        <ele>70</ele>
        <time>2016-02-21T13:24:52.1Z</time>
      </trkpt>
      <trkpt lat="48.64713" lon="-2.42172">
        <ele>70</ele>
        <time>2016-02-21T13:24:55.1Z</time>
      </trkpt>
      <trkpt lat="48.64715" lon="-2.42174">
        <ele>71</ele>
        <time>2016-02-21T13:24:57.1Z</time>
      </trkpt>
      <trkpt lat="48.64716" lon="-2.42176">
        <ele>71</ele>
        <time>2016-02-21T13:24:59.1Z</time>
      </trkpt>
      <trkpt lat="48.64717" lon="-2.42179">
        <ele>71</ele>
        <time>2016-02-21T13:25:01.1Z</time>
      </trkpt>
      <trkpt lat="48.6472" lon="-2.42181">
        <ele>71</ele>
        <time>2016-02-21T13:25:04.1Z</time>
      </trkpt>
      <trkpt lat="48.64722" lon="-2.42183">
        <ele>71</ele>
        <time>2016-02-21T13:25:06.1Z</time>
      </trkpt>
      <trkpt lat="48.64723" lon="-2.42184">
        <ele>71</ele>
        <time>2016-02-21T13:25:09.1Z</time>
      </trkpt>
      <trkpt lat="48.64724" lon="-2.42184">
        <ele>71</ele>
        <time>2016-02-21T13:25:11.1Z</time>
      </trkpt>
      <trkpt lat="48.64724" lon="-2.42184">
        <ele>71</ele>
        <time>2016-02-21T13:25:14.1Z</time>
      </trkpt>
      <trkpt lat="48.64724" lon="-2.42185">
        <ele>72</ele>
        <time>2016-02-21T13:25:17.1Z</time>
      </trkpt>
      <trkpt lat="48.64724" lon="-2.42186">
        <ele>72</ele>
        <time>2016-02-21T13:25:19.1Z</time>
      </trkpt>
      <trkpt lat="48.64725" lon="-2.4219">
        <ele>72</ele>
        <time>2016-02-21T13:25:21.1Z</time>
      </trkpt>
      <trkpt lat="48.64727" lon="-2.42194">
        <ele>72</ele>
        <time>2016-02-21T13:25:24.1Z</time>
      </trkpt>
      <trkpt lat="48.64729" lon="-2.42196">
        <ele>71</ele>
        <time>2016-02-21T13:25:26.1Z</time>
      </trkpt>
      <trkpt lat="48.6473" lon="-2.42197">
        <ele>71</ele>
        <time>2016-02-21T13:25:28.1Z</time>
      </trkpt>
      <trkpt lat="48.6473" lon="-2.42197">
        <ele>71</ele>
        <time>2016-02-21T13:25:31.1Z</time>
      </trkpt>
      <trkpt lat="48.6473" lon="-2.42198">
        <ele>71</ele>
        <time>2016-02-21T13:25:33.1Z</time>
      </trkpt>
      <trkpt lat="48.64732" lon="-2.422">
        <ele>71</ele>
        <time>2016-02-21T13:25:35.1Z</time>
      </trkpt>
      <trkpt lat="48.64734" lon="-2.42203">
        <ele>70</ele>
        <time>2016-02-21T13:25:38.1Z</time>
      </trkpt>
      <trkpt lat="48.64734" lon="-2.42205">
        <ele>70</ele>
        <time>2016-02-21T13:25:41.1Z</time>
      </trkpt>
      <trkpt lat="48.64734" lon="-2.42208">
        <ele>69</ele>
        <time>2016-02-21T13:25:43.1Z</time>
      </trkpt>
      <trkpt lat="48.64735" lon="-2.42212">
        <ele>69</ele>
        <time>2016-02-21T13:25:46.1Z</time>
      </trkpt>
      <trkpt lat="48.64735" lon="-2.42217">
        <ele>69</ele>
        <time>2016-02-21T13:25:49.1Z</time>
      </trkpt>
      <trkpt lat="48.64736" lon="-2.4222">
        <ele>69</ele>
        <time>2016-02-21T13:25:51.1Z</time>
      </trkpt>
      <trkpt lat="48.64738" lon="-2.42222">
        <ele>69</ele>
        <time>2016-02-21T13:25:53.1Z</time>
      </trkpt>
      <trkpt lat="48.64738" lon="-2.42226">
        <ele>69</ele>
        <time>2016-02-21T13:25:56.1Z</time>
      </trkpt>
      <trkpt lat="48.64739" lon="-2.42227">
        <ele>69</ele>
        <time>2016-02-21T13:25:59.1Z</time>
      </trkpt>
      <trkpt lat="48.64741" lon="-2.4223">
        <ele>69</ele>
        <time>2016-02-21T13:26:01.1Z</time>
      </trkpt>
      <trkpt lat="48.64743" lon="-2.42233">
        <ele>69</ele>
        <time>2016-02-21T13:26:04.1Z</time>
      </trkpt>
      <trkpt lat="48.64746" lon="-2.42237">
        <ele>69</ele>
        <time>2016-02-21T13:26:07.1Z</time>
      </trkpt>
      <trkpt lat="48.64747" lon="-2.42241">
        <ele>69</ele>
        <time>2016-02-21T13:26:09.1Z</time>
      </trkpt>
      <trkpt lat="48.64748" lon="-2.42245">
        <ele>68</ele>
        <time>2016-02-21T13:26:12.1Z</time>
      </trkpt>
      <trkpt lat="48.64751" lon="-2.4225">
        <ele>68</ele>
        <time>2016-02-21T13:26:15.1Z</time>
      </trkpt>
      <trkpt lat="48.64753" lon="-2.42253">
        <ele>68</ele>
        <time>2016-02-21T13:26:17.1Z</time>
      </trkpt>
      <trkpt lat="48.64754" lon="-2.42256">
        <ele>68</ele>
        <time>2016-02-21T13:26:19.1Z</time>
      </trkpt>
      <trkpt lat="48.64756" lon="-2.4226">
        <ele>68</ele>
        <time>2016-02-21T13:26:22.1Z</time>
      </trkpt>
      <trkpt lat="48.64758" lon="-2.42263">
        <ele>68</ele>
        <time>2016-02-21T13:26:24.1Z</time>
      </trkpt>
      <trkpt lat="48.64758" lon="-2.42268">
        <ele>68</ele>
        <time>2016-02-21T13:26:27.1Z</time>
      </trkpt>
      <trkpt lat="48.64759" lon="-2.42272">
        <ele>68</ele>
        <time>2016-02-21T13:26:29.1Z</time>
      </trkpt>
      <trkpt lat="48.6476" lon="-2.42276">
        <ele>68</ele>
        <time>2016-02-21T13:26:32.1Z</time>
      </trkpt>
      <trkpt lat="48.64762" lon="-2.42281">
        <ele>68</ele>
        <time>2016-02-21T13:26:35.1Z</time>
      </trkpt>
      <trkpt lat="48.64763" lon="-2.42284">
        <ele>68</ele>
        <time>2016-02-21T13:26:37.1Z</time>
      </trkpt>
      <trkpt lat="48.64763" lon="-2.42289">
        <ele>68</ele>
        <time>2016-02-21T13:26:40.1Z</time>
      </trkpt>
      <trkpt lat="48.64764" lon="-2.42292">
        <ele>68</ele>
        <time>2016-02-21T13:26:42.1Z</time>
      </trkpt>
      <trkpt lat="48.64766" lon="-2.42297">
        <ele>68</ele>
        <time>2016-02-21T13:26:45.1Z</time>
      </trkpt>
      <trkpt lat="48.64767" lon="-2.42302">
        <ele>68</ele>
        <time>2016-02-21T13:26:48.1Z</time>
      </trkpt>
      <trkpt lat="48.64768" lon="-2.42305">
        <ele>68</ele>
        <time>2016-02-21T13:26:50.1Z</time>
      </trkpt>
      <trkpt lat="48.64769" lon="-2.4231">
        <ele>68</ele>
        <time>2016-02-21T13:26:53.1Z</time>
      </trkpt>
      <trkpt lat="48.64771" lon="-2.42312">
        <ele>68</ele>
        <time>2016-02-21T13:26:55.1Z</time>
      </trkpt>
      <trkpt lat="48.64772" lon="-2.42317">
        <ele>68</ele>
        <time>2016-02-21T13:26:58.1Z</time>
      </trkpt>
      <trkpt lat="48.64772" lon="-2.42321">
        <ele>68</ele>
        <time>2016-02-21T13:27:00.1Z</time>
      </trkpt>
      <trkpt lat="48.64773" lon="-2.42323">
        <ele>68</ele>
        <time>2016-02-21T13:27:02.1Z</time>
      </trkpt>
      <trkpt lat="48.64774" lon="-2.42328">
        <ele>68</ele>
        <time>2016-02-21T13:27:05.1Z</time>
      </trkpt>
      <trkpt lat="48.64775" lon="-2.42334">
        <ele>69</ele>
        <time>2016-02-21T13:27:08.1Z</time>
      </trkpt>
      <trkpt lat="48.64777" lon="-2.42338">
        <ele>69</ele>
        <time>2016-02-21T13:27:11.1Z</time>
      </trkpt>
      <trkpt lat="48.64777" lon="-2.42342">
        <ele>69</ele>
        <time>2016-02-21T13:27:13.1Z</time>
      </trkpt>
      <trkpt lat="48.64778" lon="-2.42345">
        <ele>69</ele>
        <time>2016-02-21T13:27:15.1Z</time>
      </trkpt>
      <trkpt lat="48.64779" lon="-2.4235">
        <ele>69</ele>
        <time>2016-02-21T13:27:18.1Z</time>
      </trkpt>
      <trkpt lat="48.64779" lon="-2.42355">
        <ele>69</ele>
        <time>2016-02-21T13:27:21.1Z</time>
      </trkpt>
      <trkpt lat="48.6478" lon="-2.4236">
        <ele>69</ele>
        <time>2016-02-21T13:27:24.1Z</time>
      </trkpt>
      <trkpt lat="48.6478" lon="-2.42364">
        <ele>69</ele>
        <time>2016-02-21T13:27:26.1Z</time>
      </trkpt>
      <trkpt lat="48.64781" lon="-2.42367">
        <ele>69</ele>
        <time>2016-02-21T13:27:28.1Z</time>
      </trkpt>
      <trkpt lat="48.64782" lon="-2.42372">
        <ele>69</ele>
        <time>2016-02-21T13:27:31.1Z</time>
      </trkpt>
      <trkpt lat="48.64783" lon="-2.42377">
        <ele>69</ele>
        <time>2016-02-21T13:27:34.1Z</time>
      </trkpt>
      <trkpt lat="48.64783" lon="-2.42383">
        <ele>69</ele>
        <time>2016-02-21T13:27:37.1Z</time>
      </trkpt>
      <trkpt lat="48.64784" lon="-2.42386">
        <ele>69</ele>
        <time>2016-02-21T13:27:39.1Z</time>
      </trkpt>
      <trkpt lat="48.64784" lon="-2.4239">
        <ele>69</ele>
        <time>2016-02-21T13:27:41.1Z</time>
      </trkpt>
      <trkpt lat="48.64785" lon="-2.42395">
        <ele>69</ele>
        <time>2016-02-21T13:27:44.1Z</time>
      </trkpt>
      <trkpt lat="48.64786" lon="-2.424">
        <ele>69</ele>
        <time>2016-02-21T13:27:47.1Z</time>
      </trkpt>
      <trkpt lat="48.64787" lon="-2.42405">
        <ele>69</ele>
        <time>2016-02-21T13:27:50.1Z</time>
      </trkpt>
      <trkpt lat="48.64788" lon="-2.42408">
        <ele>69</ele>
        <time>2016-02-21T13:27:52.1Z</time>
      </trkpt>
      <trkpt lat="48.64788" lon="-2.42411">
        <ele>69</ele>
        <time>2016-02-21T13:27:54.1Z</time>
      </trkpt>
      <trkpt lat="48.6479" lon="-2.42416">
        <ele>69</ele>
        <time>2016-02-21T13:27:57.1Z</time>
      </trkpt>
      <trkpt lat="48.64791" lon="-2.4242">
        <ele>70</ele>
        <time>2016-02-21T13:28:00.1Z</time>
      </trkpt>
      <trkpt lat="48.64792" lon="-2.42423">
        <ele>70</ele>
        <time>2016-02-21T13:28:02.1Z</time>
      </trkpt>
      <trkpt lat="48.64793" lon="-2.42428">
        <ele>70</ele>
        <time>2016-02-21T13:28:05.1Z</time>
      </trkpt>
      <trkpt lat="48.64795" lon="-2.42431">
        <ele>70</ele>
        <time>2016-02-21T13:28:07.1Z</time>
      </trkpt>
      <trkpt lat="48.64796" lon="-2.42435">
        <ele>69</ele>
        <time>2016-02-21T13:28:10.1Z</time>
      </trkpt>
      <trkpt lat="48.64797" lon="-2.4244">
        <ele>70</ele>
        <time>2016-02-21T13:28:13.1Z</time>
      </trkpt>
      <trkpt lat="48.64798" lon="-2.42442">
        <ele>69</ele>
        <time>2016-02-21T13:28:15.1Z</time>
      </trkpt>
      <trkpt lat="48.64799" lon="-2.42447">
        <ele>70</ele>
        <time>2016-02-21T13:28:18.1Z</time>
      </trkpt>
      <trkpt lat="48.64801" lon="-2.4245">
        <ele>69</ele>
        <time>2016-02-21T13:28:20.1Z</time>
      </trkpt>
      <trkpt lat="48.64802" lon="-2.42455">
        <ele>69</ele>
        <time>2016-02-21T13:28:23.1Z</time>
      </trkpt>
      <trkpt lat="48.64803" lon="-2.42458">
        <ele>70</ele>
        <time>2016-02-21T13:28:25.1Z</time>
      </trkpt>
      <trkpt lat="48.64804" lon="-2.42463">
        <ele>70</ele>
        <time>2016-02-21T13:28:28.1Z</time>
      </trkpt>
      <trkpt lat="48.64805" lon="-2.42466">
        <ele>70</ele>
        <time>2016-02-21T13:28:30.1Z</time>
      </trkpt>
      <trkpt lat="48.64806" lon="-2.42471">
        <ele>70</ele>
        <time>2016-02-21T13:28:33.1Z</time>
      </trkpt>
      <trkpt lat="48.64808" lon="-2.42475">
        <ele>70</ele>
        <time>2016-02-21T13:28:36.1Z</time>
      </trkpt>
      <trkpt lat="48.64809" lon="-2.42479">
        <ele>70</ele>
        <time>2016-02-21T13:28:39.1Z</time>
      </trkpt>
      <trkpt lat="48.64809" lon="-2.42482">
        <ele>70</ele>
        <time>2016-02-21T13:28:42.1Z</time>
      </trkpt>
      <trkpt lat="48.6481" lon="-2.42485">
        <ele>69</ele>
        <time>2016-02-21T13:28:44.1Z</time>
      </trkpt>
      <trkpt lat="48.64811" lon="-2.42488">
        <ele>70</ele>
        <time>2016-02-21T13:28:46.1Z</time>
      </trkpt>
      <trkpt lat="48.64812" lon="-2.42493">
        <ele>70</ele>
        <time>2016-02-21T13:28:49.1Z</time>
      </trkpt>
      <trkpt lat="48.64813" lon="-2.42498">
        <ele>70</ele>
        <time>2016-02-21T13:28:52.1Z</time>
      </trkpt>
      <trkpt lat="48.64814" lon="-2.42501">
        <ele>70</ele>
        <time>2016-02-21T13:28:54.1Z</time>
      </trkpt>
      <trkpt lat="48.64815" lon="-2.42505">
        <ele>70</ele>
        <time>2016-02-21T13:28:57.1Z</time>
      </trkpt>
      <trkpt lat="48.64816" lon="-2.42508">
        <ele>70</ele>
        <time>2016-02-21T13:28:59.1Z</time>
      </trkpt>
      <trkpt lat="48.64817" lon="-2.42513">
        <ele>70</ele>
        <time>2016-02-21T13:29:02.1Z</time>
      </trkpt>
      <trkpt lat="48.64817" lon="-2.42516">
        <ele>70</ele>
        <time>2016-02-21T13:29:04.1Z</time>
      </trkpt>
      <trkpt lat="48.64819" lon="-2.42521">
        <ele>70</ele>
        <time>2016-02-21T13:29:07.1Z</time>
      </trkpt>
      <trkpt lat="48.6482" lon="-2.42526">
        <ele>70</ele>
        <time>2016-02-21T13:29:10.1Z</time>
      </trkpt>
      <trkpt lat="48.64821" lon="-2.42529">
        <ele>70</ele>
        <time>2016-02-21T13:29:12.1Z</time>
      </trkpt>
      <trkpt lat="48.64822" lon="-2.42534">
        <ele>70</ele>
        <time>2016-02-21T13:29:15.1Z</time>
      </trkpt>
      <trkpt lat="48.64822" lon="-2.42538">
        <ele>70</ele>
        <time>2016-02-21T13:29:17.1Z</time>
      </trkpt>
      <trkpt lat="48.64822" lon="-2.42544">
        <ele>70</ele>
        <time>2016-02-21T13:29:20.1Z</time>
      </trkpt>
      <trkpt lat="48.64823" lon="-2.42549">
        <ele>70</ele>
        <time>2016-02-21T13:29:23.1Z</time>
      </trkpt>
      <trkpt lat="48.64823" lon="-2.42553">
        <ele>70</ele>
        <time>2016-02-21T13:29:25.1Z</time>
      </trkpt>
      <trkpt lat="48.64824" lon="-2.42559">
        <ele>70</ele>
        <time>2016-02-21T13:29:28.1Z</time>
      </trkpt>
      <trkpt lat="48.64824" lon="-2.42564">
        <ele>70</ele>
        <time>2016-02-21T13:29:31.1Z</time>
      </trkpt>
      <trkpt lat="48.64825" lon="-2.42567">
        <ele>70</ele>
        <time>2016-02-21T13:29:33.1Z</time>
      </trkpt>
      <trkpt lat="48.64825" lon="-2.42572">
        <ele>70</ele>
        <time>2016-02-21T13:29:36.1Z</time>
      </trkpt>
      <trkpt lat="48.64826" lon="-2.42576">
        <ele>70</ele>
        <time>2016-02-21T13:29:38.1Z</time>
      </trkpt>
      <trkpt lat="48.64827" lon="-2.42581">
        <ele>70</ele>
        <time>2016-02-21T13:29:41.1Z</time>
      </trkpt>
      <trkpt lat="48.64827" lon="-2.42585">
        <ele>70</ele>
        <time>2016-02-21T13:29:43.1Z</time>
      </trkpt>
      <trkpt lat="48.64828" lon="-2.4259">
        <ele>70</ele>
        <time>2016-02-21T13:29:46.1Z</time>
      </trkpt>
      <trkpt lat="48.64828" lon="-2.42593">
        <ele>70</ele>
        <time>2016-02-21T13:29:48.1Z</time>
      </trkpt>
      <trkpt lat="48.64829" lon="-2.42597">
        <ele>70</ele>
        <time>2016-02-21T13:29:50.1Z</time>
      </trkpt>
      <trkpt lat="48.6483" lon="-2.42602">
        <ele>70</ele>
        <time>2016-02-21T13:29:53.1Z</time>
      </trkpt>
      <trkpt lat="48.64831" lon="-2.42606">
        <ele>70</ele>
        <time>2016-02-21T13:29:56.1Z</time>
      </trkpt>
      <trkpt lat="48.64833" lon="-2.4261">
        <ele>70</ele>
        <time>2016-02-21T13:29:58.1Z</time>
      </trkpt>
      <trkpt lat="48.64834" lon="-2.42614">
        <ele>70</ele>
        <time>2016-02-21T13:30:01.1Z</time>
      </trkpt>
      <trkpt lat="48.64835" lon="-2.42617">
        <ele>70</ele>
        <time>2016-02-21T13:30:03.1Z</time>
      </trkpt>
      <trkpt lat="48.64836" lon="-2.42622">
        <ele>70</ele>
        <time>2016-02-21T13:30:06.1Z</time>
      </trkpt>
      <trkpt lat="48.64837" lon="-2.42627">
        <ele>70</ele>
        <time>2016-02-21T13:30:09.1Z</time>
      </trkpt>
      <trkpt lat="48.64836" lon="-2.42632">
        <ele>70</ele>
        <time>2016-02-21T13:30:12.1Z</time>
      </trkpt>
      <trkpt lat="48.64835" lon="-2.42638">
        <ele>70</ele>
        <time>2016-02-21T13:30:15.1Z</time>
      </trkpt>
      <trkpt lat="48.64834" lon="-2.42641">
        <ele>70</ele>
        <time>2016-02-21T13:30:17.1Z</time>
      </trkpt>
      <trkpt lat="48.64833" lon="-2.42645">
        <ele>70</ele>
        <time>2016-02-21T13:30:20.1Z</time>
      </trkpt>
      <trkpt lat="48.64833" lon="-2.42649">
        <ele>70</ele>
        <time>2016-02-21T13:30:22.1Z</time>
      </trkpt>
      <trkpt lat="48.64833" lon="-2.42653">
        <ele>70</ele>
        <time>2016-02-21T13:30:25.1Z</time>
      </trkpt>
      <trkpt lat="48.64833" lon="-2.42656">
        <ele>70</ele>
        <time>2016-02-21T13:30:27.1Z</time>
      </trkpt>
      <trkpt lat="48.64833" lon="-2.42661">
        <ele>69</ele>
        <time>2016-02-21T13:30:30.1Z</time>
      </trkpt>
      <trkpt lat="48.64834" lon="-2.42666">
        <ele>69</ele>
        <time>2016-02-21T13:30:33.1Z</time>
      </trkpt>
      <trkpt lat="48.64835" lon="-2.4267">
        <ele>69</ele>
        <time>2016-02-21T13:30:36.1Z</time>
      </trkpt>
      <trkpt lat="48.64836" lon="-2.42674">
        <ele>70</ele>
        <time>2016-02-21T13:30:38.1Z</time>
      </trkpt>
      <trkpt lat="48.64837" lon="-2.42678">
        <ele>70</ele>
        <time>2016-02-21T13:30:41.1Z</time>
      </trkpt>
      <trkpt lat="48.64838" lon="-2.42682">
        <ele>70</ele>
        <time>2016-02-21T13:30:43.1Z</time>
      </trkpt>
      <trkpt lat="48.6484" lon="-2.42687">
        <ele>69</ele>
        <time>2016-02-21T13:30:46.1Z</time>
      </trkpt>
      <trkpt lat="48.64841" lon="-2.42689">
        <ele>69</ele>
        <time>2016-02-21T13:30:48.1Z</time>
      </trkpt>
      <trkpt lat="48.64842" lon="-2.42692">
        <ele>69</ele>
        <time>2016-02-21T13:30:50.1Z</time>
      </trkpt>
      <trkpt lat="48.64845" lon="-2.42697">
        <ele>70</ele>
        <time>2016-02-21T13:30:53.1Z</time>
      </trkpt>
      <trkpt lat="48.64847" lon="-2.42701">
        <ele>70</ele>
        <time>2016-02-21T13:30:56.1Z</time>
      </trkpt>
      <trkpt lat="48.64848" lon="-2.42704">
        <ele>70</ele>
        <time>2016-02-21T13:30:58.1Z</time>
      </trkpt>
      <trkpt lat="48.6485" lon="-2.42708">
        <ele>70</ele>
        <time>2016-02-21T13:31:01.1Z</time>
      </trkpt>
      <trkpt lat="48.64852" lon="-2.42711">
        <ele>70</ele>
        <time>2016-02-21T13:31:03.1Z</time>
      </trkpt>
      <trkpt lat="48.64853" lon="-2.42713">
        <ele>70</ele>
        <time>2016-02-21T13:31:05.1Z</time>
      </trkpt>
      <trkpt lat="48.64855" lon="-2.42718">
        <ele>69</ele>
        <time>2016-02-21T13:31:08.1Z</time>
      </trkpt>
      <trkpt lat="48.64857" lon="-2.42723">
        <ele>69</ele>
        <time>2016-02-21T13:31:11.1Z</time>
      </trkpt>
      <trkpt lat="48.64858" lon="-2.42726">
        <ele>69</ele>
        <time>2016-02-21T13:31:13.1Z</time>
      </trkpt>
      <trkpt lat="48.64859" lon="-2.42731">
        <ele>69</ele>
        <time>2016-02-21T13:31:16.1Z</time>
      </trkpt>
      <trkpt lat="48.64862" lon="-2.42735">
        <ele>69</ele>
        <time>2016-02-21T13:31:19.1Z</time>
      </trkpt>
      <trkpt lat="48.64863" lon="-2.42737">
        <ele>69</ele>
        <time>2016-02-21T13:31:21.1Z</time>
      </trkpt>
      <trkpt lat="48.64865" lon="-2.42742">
        <ele>68</ele>
        <time>2016-02-21T13:31:24.1Z</time>
      </trkpt>
      <trkpt lat="48.64866" lon="-2.42745">
        <ele>68</ele>
        <time>2016-02-21T13:31:26.1Z</time>
      </trkpt>
      <trkpt lat="48.64867" lon="-2.42747">
        <ele>68</ele>
        <time>2016-02-21T13:31:28.1Z</time>
      </trkpt>
      <trkpt lat="48.64869" lon="-2.42752">
        <ele>68</ele>
        <time>2016-02-21T13:31:31.1Z</time>
      </trkpt>
      <trkpt lat="48.6487" lon="-2.42755">
        <ele>69</ele>
        <time>2016-02-21T13:31:34.1Z</time>
      </trkpt>
      <trkpt lat="48.64871" lon="-2.42759">
        <ele>69</ele>
        <time>2016-02-21T13:31:37.1Z</time>
      </trkpt>
      <trkpt lat="48.64871" lon="-2.42762">
        <ele>69</ele>
        <time>2016-02-21T13:31:39.1Z</time>
      </trkpt>
      <trkpt lat="48.64871" lon="-2.42765">
        <ele>70</ele>
        <time>2016-02-21T13:31:41.1Z</time>
      </trkpt>
      <trkpt lat="48.64871" lon="-2.4277">
        <ele>70</ele>
        <time>2016-02-21T13:31:44.1Z</time>
      </trkpt>
      <trkpt lat="48.6487" lon="-2.42774">
        <ele>70</ele>
        <time>2016-02-21T13:31:46.1Z</time>
      </trkpt>
      <trkpt lat="48.6487" lon="-2.42778">
        <ele>70</ele>
        <time>2016-02-21T13:31:48.1Z</time>
      </trkpt>
      <trkpt lat="48.6487" lon="-2.42783">
        <ele>70</ele>
        <time>2016-02-21T13:31:51.1Z</time>
      </trkpt>
      <trkpt lat="48.6487" lon="-2.42786">
        <ele>70</ele>
        <time>2016-02-21T13:31:53.1Z</time>
      </trkpt>
      <trkpt lat="48.6487" lon="-2.42792">
        <ele>70</ele>
        <time>2016-02-21T13:31:56.1Z</time>
      </trkpt>
      <trkpt lat="48.64869" lon="-2.42795">
        <ele>69</ele>
        <time>2016-02-21T13:31:58.1Z</time>
      </trkpt>
      <trkpt lat="48.64869" lon="-2.42799">
        <ele>70</ele>
        <time>2016-02-21T13:32:01.1Z</time>
      </trkpt>
      <trkpt lat="48.64868" lon="-2.42802">
        <ele>70</ele>
        <time>2016-02-21T13:32:03.1Z</time>
      </trkpt>
      <trkpt lat="48.64867" lon="-2.42805">
        <ele>70</ele>
        <time>2016-02-21T13:32:05.1Z</time>
      </trkpt>
      <trkpt lat="48.64867" lon="-2.4281">
        <ele>70</ele>
        <time>2016-02-21T13:32:08.1Z</time>
      </trkpt>
      <trkpt lat="48.64867" lon="-2.42813">
        <ele>69</ele>
        <time>2016-02-21T13:32:10.1Z</time>
      </trkpt>
      <trkpt lat="48.64867" lon="-2.42816">
        <ele>69</ele>
        <time>2016-02-21T13:32:12.1Z</time>
      </trkpt>
      <trkpt lat="48.64869" lon="-2.42821">
        <ele>69</ele>
        <time>2016-02-21T13:32:15.1Z</time>
      </trkpt>
      <trkpt lat="48.6487" lon="-2.42823">
        <ele>69</ele>
        <time>2016-02-21T13:32:17.1Z</time>
      </trkpt>
      <trkpt lat="48.64871" lon="-2.42828">
        <ele>70</ele>
        <time>2016-02-21T13:32:20.1Z</time>
      </trkpt>
      <trkpt lat="48.64872" lon="-2.42832">
        <ele>69</ele>
        <time>2016-02-21T13:32:22.1Z</time>
      </trkpt>
      <trkpt lat="48.64872" lon="-2.42837">
        <ele>69</ele>
        <time>2016-02-21T13:32:25.1Z</time>
      </trkpt>
      <trkpt lat="48.64872" lon="-2.42841">
        <ele>69</ele>
        <time>2016-02-21T13:32:28.1Z</time>
      </trkpt>
      <trkpt lat="48.6487" lon="-2.42844">
        <ele>70</ele>
        <time>2016-02-21T13:32:31.1Z</time>
      </trkpt>
      <trkpt lat="48.64866" lon="-2.42844">
        <ele>70</ele>
        <time>2016-02-21T13:32:34.1Z</time>
      </trkpt>
      <trkpt lat="48.64863" lon="-2.42843">
        <ele>70</ele>
        <time>2016-02-21T13:32:37.1Z</time>
      </trkpt>
      <trkpt lat="48.6486" lon="-2.42841">
        <ele>70</ele>
        <time>2016-02-21T13:32:40.1Z</time>
      </trkpt>
      <trkpt lat="48.64857" lon="-2.42839">
        <ele>70</ele>
        <time>2016-02-21T13:32:42.1Z</time>
      </trkpt>
      <trkpt lat="48.64854" lon="-2.42836">
        <ele>70</ele>
        <time>2016-02-21T13:32:45.1Z</time>
      </trkpt>
      <trkpt lat="48.64853" lon="-2.42834">
        <ele>70</ele>
        <time>2016-02-21T13:32:47.1Z</time>
      </trkpt>
      <trkpt lat="48.64851" lon="-2.42831">
        <ele>71</ele>
        <time>2016-02-21T13:32:49.1Z</time>
      </trkpt>
      <trkpt lat="48.64849" lon="-2.42828">
        <ele>71</ele>
        <time>2016-02-21T13:32:52.1Z</time>
      </trkpt>
      <trkpt lat="48.64847" lon="-2.42824">
        <ele>72</ele>
        <time>2016-02-21T13:32:55.1Z</time>
      </trkpt>
      <trkpt lat="48.64845" lon="-2.42821">
        <ele>72</ele>
        <time>2016-02-21T13:32:58.1Z</time>
      </trkpt>
      <trkpt lat="48.64843" lon="-2.42818">
        <ele>72</ele>
        <time>2016-02-21T13:33:00.1Z</time>
      </trkpt>
      <trkpt lat="48.6484" lon="-2.42815">
        <ele>72</ele>
        <time>2016-02-21T13:33:03.1Z</time>
      </trkpt>
      <trkpt lat="48.64838" lon="-2.42813">
        <ele>72</ele>
        <time>2016-02-21T13:33:05.1Z</time>
      </trkpt>
      <trkpt lat="48.64835" lon="-2.4281">
        <ele>73</ele>
        <time>2016-02-21T13:33:08.1Z</time>
      </trkpt>
      <trkpt lat="48.64833" lon="-2.42809">
        <ele>73</ele>
        <time>2016-02-21T13:33:10.1Z</time>
      </trkpt>
      <trkpt lat="48.64829" lon="-2.42808">
        <ele>73</ele>
        <time>2016-02-21T13:33:13.1Z</time>
      </trkpt>
      <trkpt lat="48.64826" lon="-2.42808">
        <ele>73</ele>
        <time>2016-02-21T13:33:16.1Z</time>
      </trkpt>
      <trkpt lat="48.64823" lon="-2.42809">
        <ele>73</ele>
        <time>2016-02-21T13:33:19.1Z</time>
      </trkpt>
      <trkpt lat="48.6482" lon="-2.4281">
        <ele>73</ele>
        <time>2016-02-21T13:33:21.1Z</time>
      </trkpt>
      <trkpt lat="48.64817" lon="-2.42811">
        <ele>74</ele>
        <time>2016-02-21T13:33:24.1Z</time>
      </trkpt>
      <trkpt lat="48.64815" lon="-2.42812">
        <ele>74</ele>
        <time>2016-02-21T13:33:26.1Z</time>
      </trkpt>
      <trkpt lat="48.64812" lon="-2.42813">
        <ele>74</ele>
        <time>2016-02-21T13:33:29.1Z</time>
      </trkpt>
      <trkpt lat="48.6481" lon="-2.42814">
        <ele>75</ele>
        <time>2016-02-21T13:33:31.1Z</time>
      </trkpt>
      <trkpt lat="48.64808" lon="-2.42816">
        <ele>76</ele>
        <time>2016-02-21T13:33:34.1Z</time>
      </trkpt>
      <trkpt lat="48.64806" lon="-2.42817">
        <ele>76</ele>
        <time>2016-02-21T13:33:36.1Z</time>
      </trkpt>
      <trkpt lat="48.64803" lon="-2.42818">
        <ele>77</ele>
        <time>2016-02-21T13:33:39.1Z</time>
      </trkpt>
      <trkpt lat="48.64801" lon="-2.42819">
        <ele>77</ele>
        <time>2016-02-21T13:33:42.1Z</time>
      </trkpt>
      <trkpt lat="48.64799" lon="-2.4282">
        <ele>77</ele>
        <time>2016-02-21T13:33:44.1Z</time>
      </trkpt>
      <trkpt lat="48.64797" lon="-2.42821">
        <ele>78</ele>
        <time>2016-02-21T13:33:47.1Z</time>
      </trkpt>
      <trkpt lat="48.64795" lon="-2.42822">
        <ele>78</ele>
        <time>2016-02-21T13:33:49.1Z</time>
      </trkpt>
      <trkpt lat="48.64793" lon="-2.42824">
        <ele>79</ele>
        <time>2016-02-21T13:33:52.1Z</time>
      </trkpt>
      <trkpt lat="48.6479" lon="-2.42825">
        <ele>79</ele>
        <time>2016-02-21T13:33:55.1Z</time>
      </trkpt>
      <trkpt lat="48.64789" lon="-2.42826">
        <ele>79</ele>
        <time>2016-02-21T13:33:57.1Z</time>
      </trkpt>
      <trkpt lat="48.64787" lon="-2.42827">
        <ele>80</ele>
        <time>2016-02-21T13:34:00.1Z</time>
      </trkpt>
      <trkpt lat="48.64785" lon="-2.42828">
        <ele>80</ele>
        <time>2016-02-21T13:34:02.1Z</time>
      </trkpt>
      <trkpt lat="48.64784" lon="-2.42828">
        <ele>80</ele>
        <time>2016-02-21T13:34:04.1Z</time>
      </trkpt>
      <trkpt lat="48.64782" lon="-2.42828">
        <ele>81</ele>
        <time>2016-02-21T13:34:06.1Z</time>
      </trkpt>
      <trkpt lat="48.6478" lon="-2.42829">
        <ele>81</ele>
        <time>2016-02-21T13:34:09.1Z</time>
      </trkpt>
      <trkpt lat="48.64778" lon="-2.42829">
        <ele>82</ele>
        <time>2016-02-21T13:34:12.1Z</time>
      </trkpt>
      <trkpt lat="48.64776" lon="-2.4283">
        <ele>83</ele>
        <time>2016-02-21T13:34:15.1Z</time>
      </trkpt>
      <trkpt lat="48.64774" lon="-2.4283">
        <ele>83</ele>
        <time>2016-02-21T13:34:17.1Z</time>
      </trkpt>
      <trkpt lat="48.64772" lon="-2.4283">
        <ele>84</ele>
        <time>2016-02-21T13:34:19.1Z</time>
      </trkpt>
      <trkpt lat="48.6477" lon="-2.42829">
        <ele>84</ele>
        <time>2016-02-21T13:34:22.1Z</time>
      </trkpt>
      <trkpt lat="48.64768" lon="-2.42829">
        <ele>85</ele>
        <time>2016-02-21T13:34:25.1Z</time>
      </trkpt>
      <trkpt lat="48.64765" lon="-2.42828">
        <ele>85</ele>
        <time>2016-02-21T13:34:28.1Z</time>
      </trkpt>
      <trkpt lat="48.64763" lon="-2.42828">
        <ele>85</ele>
        <time>2016-02-21T13:34:31.1Z</time>
      </trkpt>
      <trkpt lat="48.6476" lon="-2.42828">
        <ele>86</ele>
        <time>2016-02-21T13:34:34.1Z</time>
      </trkpt>
      <trkpt lat="48.64759" lon="-2.42828">
        <ele>87</ele>
        <time>2016-02-21T13:34:36.1Z</time>
      </trkpt>
      <trkpt lat="48.64756" lon="-2.42828">
        <ele>87</ele>
        <time>2016-02-21T13:34:39.1Z</time>
      </trkpt>
      <trkpt lat="48.64754" lon="-2.42828">
        <ele>88</ele>
        <time>2016-02-21T13:34:41.1Z</time>
      </trkpt>
      <trkpt lat="48.64751" lon="-2.42828">
        <ele>88</ele>
        <time>2016-02-21T13:34:44.1Z</time>
      </trkpt>
      <trkpt lat="48.64749" lon="-2.42829">
        <ele>88</ele>
        <time>2016-02-21T13:34:47.1Z</time>
      </trkpt>
      <trkpt lat="48.64747" lon="-2.42829">
        <ele>89</ele>
        <time>2016-02-21T13:34:49.1Z</time>
      </trkpt>
      <trkpt lat="48.64744" lon="-2.42828">
        <ele>89</ele>
        <time>2016-02-21T13:34:52.1Z</time>
      </trkpt>
      <trkpt lat="48.64742" lon="-2.42828">
        <ele>89</ele>
        <time>2016-02-21T13:34:54.1Z</time>
      </trkpt>
      <trkpt lat="48.6474" lon="-2.42828">
        <ele>89</ele>
        <time>2016-02-21T13:34:56.1Z</time>
      </trkpt>
      <trkpt lat="48.64737" lon="-2.42827">
        <ele>90</ele>
        <time>2016-02-21T13:34:59.1Z</time>
      </trkpt>
      <trkpt lat="48.64735" lon="-2.42826">
        <ele>90</ele>
        <time>2016-02-21T13:35:01.1Z</time>
      </trkpt>
      <trkpt lat="48.64733" lon="-2.42825">
        <ele>91</ele>
        <time>2016-02-21T13:35:03.1Z</time>
      </trkpt>
      <trkpt lat="48.64731" lon="-2.42824">
        <ele>91</ele>
        <time>2016-02-21T13:35:06.1Z</time>
      </trkpt>
      <trkpt lat="48.64728" lon="-2.42823">
        <ele>91</ele>
        <time>2016-02-21T13:35:09.1Z</time>
      </trkpt>
      <trkpt lat="48.64724" lon="-2.42822">
        <ele>92</ele>
        <time>2016-02-21T13:35:11.1Z</time>
      </trkpt>
      <trkpt lat="48.64719" lon="-2.42821">
        <ele>93</ele>
        <time>2016-02-21T13:35:14.1Z</time>
      </trkpt>
      <trkpt lat="48.64716" lon="-2.4282">
        <ele>94</ele>
        <time>2016-02-21T13:35:16.1Z</time>
      </trkpt>
      <trkpt lat="48.64712" lon="-2.42819">
        <ele>94</ele>
        <time>2016-02-21T13:35:19.1Z</time>
      </trkpt>
      <trkpt lat="48.64708" lon="-2.42819">
        <ele>94</ele>
        <time>2016-02-21T13:35:21.1Z</time>
      </trkpt>
      <trkpt lat="48.64705" lon="-2.42816">
        <ele>95</ele>
        <time>2016-02-21T13:35:24.1Z</time>
      </trkpt>
      <trkpt lat="48.64703" lon="-2.42816">
        <ele>95</ele>
        <time>2016-02-21T13:35:26.1Z</time>
      </trkpt>
      <trkpt lat="48.647" lon="-2.42816">
        <ele>95</ele>
        <time>2016-02-21T13:35:28.1Z</time>
      </trkpt>
      <trkpt lat="48.64698" lon="-2.42815">
        <ele>95</ele>
        <time>2016-02-21T13:35:31.1Z</time>
      </trkpt>
      <trkpt lat="48.64696" lon="-2.42816">
        <ele>95</ele>
        <time>2016-02-21T13:35:33.1Z</time>
      </trkpt>
      <trkpt lat="48.64696" lon="-2.42816">
        <ele>96</ele>
        <time>2016-02-21T13:35:36.1Z</time>
      </trkpt>
      <trkpt lat="48.64696" lon="-2.42816">
        <ele>96</ele>
        <time>2016-02-21T13:35:38.1Z</time>
      </trkpt>
      <trkpt lat="48.64694" lon="-2.42815">
        <ele>96</ele>
        <time>2016-02-21T13:35:40.1Z</time>
      </trkpt>
      <trkpt lat="48.64692" lon="-2.42815">
        <ele>96</ele>
        <time>2016-02-21T13:35:42.1Z</time>
      </trkpt>
      <trkpt lat="48.64689" lon="-2.42813">
        <ele>96</ele>
        <time>2016-02-21T13:35:45.1Z</time>
      </trkpt>
      <trkpt lat="48.64686" lon="-2.42813">
        <ele>96</ele>
        <time>2016-02-21T13:35:47.1Z</time>
      </trkpt>
      <trkpt lat="48.64683" lon="-2.42812">
        <ele>96</ele>
        <time>2016-02-21T13:35:50.1Z</time>
      </trkpt>
      <trkpt lat="48.64679" lon="-2.42811">
        <ele>96</ele>
        <time>2016-02-21T13:35:53.1Z</time>
      </trkpt>
      <trkpt lat="48.64677" lon="-2.4281">
        <ele>96</ele>
        <time>2016-02-21T13:35:55.1Z</time>
      </trkpt>
      <trkpt lat="48.64677" lon="-2.42809">
        <ele>97</ele>
        <time>2016-02-21T13:35:58.1Z</time>
      </trkpt>
      <trkpt lat="48.64676" lon="-2.42809">
        <ele>97</ele>
        <time>2016-02-21T13:36:02.1Z</time>
      </trkpt>
      <trkpt lat="48.64672" lon="-2.42808">
        <ele>97</ele>
        <time>2016-02-21T13:36:05.1Z</time>
      </trkpt>
      <trkpt lat="48.6467" lon="-2.42807">
        <ele>96</ele>
        <time>2016-02-21T13:36:07.1Z</time>
      </trkpt>
      <trkpt lat="48.64667" lon="-2.42807">
        <ele>96</ele>
        <time>2016-02-21T13:36:10.1Z</time>
      </trkpt>
      <trkpt lat="48.64665" lon="-2.42806">
        <ele>97</ele>
        <time>2016-02-21T13:36:12.1Z</time>
      </trkpt>
      <trkpt lat="48.64663" lon="-2.42806">
        <ele>97</ele>
        <time>2016-02-21T13:36:14.1Z</time>
      </trkpt>
      <trkpt lat="48.6466" lon="-2.42804">
        <ele>98</ele>
        <time>2016-02-21T13:36:17.1Z</time>
      </trkpt>
      <trkpt lat="48.64658" lon="-2.42802">
        <ele>98</ele>
        <time>2016-02-21T13:36:20.1Z</time>
      </trkpt>
      <trkpt lat="48.64655" lon="-2.42801">
        <ele>99</ele>
        <time>2016-02-21T13:36:22.1Z</time>
      </trkpt>
      <trkpt lat="48.64653" lon="-2.428">
        <ele>99</ele>
        <time>2016-02-21T13:36:24.1Z</time>
      </trkpt>
      <trkpt lat="48.6465" lon="-2.42799">
        <ele>100</ele>
        <time>2016-02-21T13:36:27.1Z</time>
      </trkpt>
      <trkpt lat="48.64648" lon="-2.42798">
        <ele>100</ele>
        <time>2016-02-21T13:36:29.1Z</time>
      </trkpt>
      <trkpt lat="48.64646" lon="-2.42797">
        <ele>100</ele>
        <time>2016-02-21T13:36:31.1Z</time>
      </trkpt>
      <trkpt lat="48.64643" lon="-2.42795">
        <ele>100</ele>
        <time>2016-02-21T13:36:34.1Z</time>
      </trkpt>
      <trkpt lat="48.6464" lon="-2.42795">
        <ele>100</ele>
        <time>2016-02-21T13:36:37.1Z</time>
      </trkpt>
      <trkpt lat="48.64637" lon="-2.42794">
        <ele>100</ele>
        <time>2016-02-21T13:36:40.1Z</time>
      </trkpt>
      <trkpt lat="48.64634" lon="-2.42793">
        <ele>101</ele>
        <time>2016-02-21T13:36:43.1Z</time>
      </trkpt>
      <trkpt lat="48.64632" lon="-2.42793">
        <ele>101</ele>
        <time>2016-02-21T13:36:45.1Z</time>
      </trkpt>
      <trkpt lat="48.64628" lon="-2.42794">
        <ele>101</ele>
        <time>2016-02-21T13:36:48.1Z</time>
      </trkpt>
      <trkpt lat="48.64626" lon="-2.42794">
        <ele>101</ele>
        <time>2016-02-21T13:36:50.1Z</time>
      </trkpt>
      <trkpt lat="48.64623" lon="-2.42795">
        <ele>102</ele>
        <time>2016-02-21T13:36:53.1Z</time>
      </trkpt>
      <trkpt lat="48.64621" lon="-2.42795">
        <ele>102</ele>
        <time>2016-02-21T13:36:55.1Z</time>
      </trkpt>
      <trkpt lat="48.64619" lon="-2.42795">
        <ele>102</ele>
        <time>2016-02-21T13:36:57.1Z</time>
      </trkpt>
      <trkpt lat="48.64615" lon="-2.42795">
        <ele>102</ele>
        <time>2016-02-21T13:37:00.1Z</time>
      </trkpt>
      <trkpt lat="48.64613" lon="-2.42795">
        <ele>103</ele>
        <time>2016-02-21T13:37:02.1Z</time>
      </trkpt>
      <trkpt lat="48.64611" lon="-2.42796">
        <ele>103</ele>
        <time>2016-02-21T13:37:05.1Z</time>
      </trkpt>
      <trkpt lat="48.6461" lon="-2.42797">
        <ele>104</ele>
        <time>2016-02-21T13:37:08.1Z</time>
      </trkpt>
      <trkpt lat="48.64609" lon="-2.42797">
        <ele>104</ele>
        <time>2016-02-21T13:37:10.1Z</time>
      </trkpt>
      <trkpt lat="48.64606" lon="-2.42797">
        <ele>104</ele>
        <time>2016-02-21T13:37:13.1Z</time>
      </trkpt>
      <trkpt lat="48.64603" lon="-2.42798">
        <ele>104</ele>
        <time>2016-02-21T13:37:16.1Z</time>
      </trkpt>
      <trkpt lat="48.64601" lon="-2.42799">
        <ele>104</ele>
        <time>2016-02-21T13:37:18.1Z</time>
      </trkpt>
      <trkpt lat="48.64597" lon="-2.42799">
        <ele>104</ele>
        <time>2016-02-21T13:37:21.1Z</time>
      </trkpt>
      <trkpt lat="48.64595" lon="-2.42799">
        <ele>104</ele>
        <time>2016-02-21T13:37:23.1Z</time>
      </trkpt>
      <trkpt lat="48.64592" lon="-2.42798">
        <ele>104</ele>
        <time>2016-02-21T13:37:26.1Z</time>
      </trkpt>
      <trkpt lat="48.64588" lon="-2.42798">
        <ele>105</ele>
        <time>2016-02-21T13:37:29.1Z</time>
      </trkpt>
      <trkpt lat="48.64585" lon="-2.42798">
        <ele>105</ele>
        <time>2016-02-21T13:37:32.1Z</time>
      </trkpt>
      <trkpt lat="48.64583" lon="-2.42798">
        <ele>105</ele>
        <time>2016-02-21T13:37:34.1Z</time>
      </trkpt>
      <trkpt lat="48.64581" lon="-2.42798">
        <ele>105</ele>
        <time>2016-02-21T13:37:36.1Z</time>
      </trkpt>
      <trkpt lat="48.64578" lon="-2.42799">
        <ele>105</ele>
        <time>2016-02-21T13:37:39.1Z</time>
      </trkpt>
      <trkpt lat="48.64576" lon="-2.42799">
        <ele>105</ele>
        <time>2016-02-21T13:37:41.1Z</time>
      </trkpt>
      <trkpt lat="48.64572" lon="-2.42799">
        <ele>106</ele>
        <time>2016-02-21T13:37:44.1Z</time>
      </trkpt>
      <trkpt lat="48.6457" lon="-2.42799">
        <ele>106</ele>
        <time>2016-02-21T13:37:46.1Z</time>
      </trkpt>
      <trkpt lat="48.64568" lon="-2.42799">
        <ele>106</ele>
        <time>2016-02-21T13:37:48.1Z</time>
      </trkpt>
      <trkpt lat="48.64564" lon="-2.428">
        <ele>107</ele>
        <time>2016-02-21T13:37:51.1Z</time>
      </trkpt>
      <trkpt lat="48.64562" lon="-2.42801">
        <ele>107</ele>
        <time>2016-02-21T13:37:53.1Z</time>
      </trkpt>
      <trkpt lat="48.64559" lon="-2.42801">
        <ele>108</ele>
        <time>2016-02-21T13:37:56.1Z</time>
      </trkpt>
      <trkpt lat="48.64557" lon="-2.42802">
        <ele>108</ele>
        <time>2016-02-21T13:37:58.1Z</time>
      </trkpt>
      <trkpt lat="48.64554" lon="-2.42803">
        <ele>108</ele>
        <time>2016-02-21T13:38:01.1Z</time>
      </trkpt>
      <trkpt lat="48.64551" lon="-2.42804">
        <ele>108</ele>
        <time>2016-02-21T13:38:04.1Z</time>
      </trkpt>
      <trkpt lat="48.64549" lon="-2.42804">
        <ele>109</ele>
        <time>2016-02-21T13:38:06.1Z</time>
      </trkpt>
      <trkpt lat="48.64547" lon="-2.42804">
        <ele>109</ele>
        <time>2016-02-21T13:38:08.1Z</time>
      </trkpt>
      <trkpt lat="48.64544" lon="-2.42805">
        <ele>109</ele>
        <time>2016-02-21T13:38:11.1Z</time>
      </trkpt>
      <trkpt lat="48.64543" lon="-2.42806">
        <ele>109</ele>
        <time>2016-02-21T13:38:13.1Z</time>
      </trkpt>
      <trkpt lat="48.64541" lon="-2.42808">
        <ele>109</ele>
        <time>2016-02-21T13:38:15.1Z</time>
      </trkpt>
      <trkpt lat="48.64539" lon="-2.42811">
        <ele>109</ele>
        <time>2016-02-21T13:38:18.1Z</time>
      </trkpt>
      <trkpt lat="48.64538" lon="-2.42813">
        <ele>110</ele>
        <time>2016-02-21T13:38:20.1Z</time>
      </trkpt>
      <trkpt lat="48.64537" lon="-2.42817">
        <ele>110</ele>
        <time>2016-02-21T13:38:23.1Z</time>
      </trkpt>
      <trkpt lat="48.64535" lon="-2.42821">
        <ele>110</ele>
        <time>2016-02-21T13:38:26.1Z</time>
      </trkpt>
      <trkpt lat="48.64534" lon="-2.42825">
        <ele>110</ele>
        <time>2016-02-21T13:38:29.1Z</time>
      </trkpt>
      <trkpt lat="48.64532" lon="-2.42829">
        <ele>110</ele>
        <time>2016-02-21T13:38:32.1Z</time>
      </trkpt>
      <trkpt lat="48.64532" lon="-2.42828">
        <ele>110</ele>
        <time>2016-02-21T13:38:34.1Z</time>
      </trkpt>
      <trkpt lat="48.64533" lon="-2.42825">
        <ele>110</ele>
        <time>2016-02-21T13:38:36.1Z</time>
      </trkpt>
      <trkpt lat="48.64533" lon="-2.42821">
        <ele>111</ele>
        <time>2016-02-21T13:38:39.1Z</time>
      </trkpt>
      <trkpt lat="48.64534" lon="-2.4282">
        <ele>111</ele>
        <time>2016-02-21T13:38:42.1Z</time>
      </trkpt>
      <trkpt lat="48.64536" lon="-2.42818">
        <ele>111</ele>
        <time>2016-02-21T13:38:44.1Z</time>
      </trkpt>
      <trkpt lat="48.64537" lon="-2.42815">
        <ele>111</ele>
        <time>2016-02-21T13:38:47.1Z</time>
      </trkpt>
      <trkpt lat="48.64537" lon="-2.42815">
        <ele>111</ele>
        <time>2016-02-21T13:38:50.1Z</time>
      </trkpt>
      <trkpt lat="48.64537" lon="-2.42816">
        <ele>111</ele>
        <time>2016-02-21T13:38:53.1Z</time>
      </trkpt>
      <trkpt lat="48.64537" lon="-2.42819">
        <ele>111</ele>
        <time>2016-02-21T13:38:55.1Z</time>
      </trkpt>
      <trkpt lat="48.64536" lon="-2.42824">
        <ele>110</ele>
        <time>2016-02-21T13:38:58.1Z</time>
      </trkpt>
      <trkpt lat="48.64535" lon="-2.42828">
        <ele>110</ele>
        <time>2016-02-21T13:39:00.1Z</time>
      </trkpt>
      <trkpt lat="48.64534" lon="-2.42832">
        <ele>110</ele>
        <time>2016-02-21T13:39:03.1Z</time>
      </trkpt>
      <trkpt lat="48.64532" lon="-2.42835">
        <ele>111</ele>
        <time>2016-02-21T13:39:05.1Z</time>
      </trkpt>
      <trkpt lat="48.64532" lon="-2.42839">
        <ele>111</ele>
        <time>2016-02-21T13:39:07.1Z</time>
      </trkpt>
      <trkpt lat="48.6453" lon="-2.42844">
        <ele>111</ele>
        <time>2016-02-21T13:39:10.1Z</time>
      </trkpt>
      <trkpt lat="48.64529" lon="-2.42847">
        <ele>111</ele>
        <time>2016-02-21T13:39:12.1Z</time>
      </trkpt>
      <trkpt lat="48.64527" lon="-2.42851">
        <ele>111</ele>
        <time>2016-02-21T13:39:14.1Z</time>
      </trkpt>
      <trkpt lat="48.64526" lon="-2.42856">
        <ele>111</ele>
        <time>2016-02-21T13:39:17.1Z</time>
      </trkpt>
      <trkpt lat="48.64524" lon="-2.42861">
        <ele>110</ele>
        <time>2016-02-21T13:39:20.1Z</time>
      </trkpt>
      <trkpt lat="48.64523" lon="-2.42865">
        <ele>110</ele>
        <time>2016-02-21T13:39:22.1Z</time>
      </trkpt>
      <trkpt lat="48.64522" lon="-2.42868">
        <ele>111</ele>
        <time>2016-02-21T13:39:24.1Z</time>
      </trkpt>
      <trkpt lat="48.64521" lon="-2.42874">
        <ele>111</ele>
        <time>2016-02-21T13:39:27.1Z</time>
      </trkpt>
      <trkpt lat="48.6452" lon="-2.42878">
        <ele>111</ele>
        <time>2016-02-21T13:39:29.1Z</time>
      </trkpt>
      <trkpt lat="48.64519" lon="-2.42883">
        <ele>111</ele>
        <time>2016-02-21T13:39:32.1Z</time>
      </trkpt>
      <trkpt lat="48.64518" lon="-2.42886">
        <ele>111</ele>
        <time>2016-02-21T13:39:34.1Z</time>
      </trkpt>
      <trkpt lat="48.64517" lon="-2.4289">
        <ele>111</ele>
        <time>2016-02-21T13:39:36.1Z</time>
      </trkpt>
      <trkpt lat="48.64516" lon="-2.42895">
        <ele>111</ele>
        <time>2016-02-21T13:39:39.1Z</time>
      </trkpt>
      <trkpt lat="48.64515" lon="-2.429">
        <ele>111</ele>
        <time>2016-02-21T13:39:42.1Z</time>
      </trkpt>
      <trkpt lat="48.64514" lon="-2.42902">
        <ele>111</ele>
        <time>2016-02-21T13:39:44.1Z</time>
      </trkpt>
      <trkpt lat="48.64512" lon="-2.42907">
        <ele>111</ele>
        <time>2016-02-21T13:39:47.1Z</time>
      </trkpt>
      <trkpt lat="48.64511" lon="-2.4291">
        <ele>111</ele>
        <time>2016-02-21T13:39:49.1Z</time>
      </trkpt>
      <trkpt lat="48.64509" lon="-2.42912">
        <ele>111</ele>
        <time>2016-02-21T13:39:51.1Z</time>
      </trkpt>
      <trkpt lat="48.64507" lon="-2.42916">
        <ele>111</ele>
        <time>2016-02-21T13:39:54.1Z</time>
      </trkpt>
      <trkpt lat="48.64505" lon="-2.4292">
        <ele>111</ele>
        <time>2016-02-21T13:39:57.1Z</time>
      </trkpt>
      <trkpt lat="48.64504" lon="-2.42923">
        <ele>111</ele>
        <time>2016-02-21T13:39:59.1Z</time>
      </trkpt>
      <trkpt lat="48.64501" lon="-2.42928">
        <ele>112</ele>
        <time>2016-02-21T13:40:02.1Z</time>
      </trkpt>
      <trkpt lat="48.645" lon="-2.42931">
        <ele>112</ele>
        <time>2016-02-21T13:40:04.1Z</time>
      </trkpt>
      <trkpt lat="48.64499" lon="-2.42933">
        <ele>112</ele>
        <time>2016-02-21T13:40:06.1Z</time>
      </trkpt>
      <trkpt lat="48.64497" lon="-2.42938">
        <ele>111</ele>
        <time>2016-02-21T13:40:09.1Z</time>
      </trkpt>
      <trkpt lat="48.64495" lon="-2.42942">
        <ele>111</ele>
        <time>2016-02-21T13:40:12.1Z</time>
      </trkpt>
      <trkpt lat="48.64493" lon="-2.42945">
        <ele>111</ele>
        <time>2016-02-21T13:40:14.1Z</time>
      </trkpt>
      <trkpt lat="48.64491" lon="-2.42949">
        <ele>111</ele>
        <time>2016-02-21T13:40:17.1Z</time>
      </trkpt>
      <trkpt lat="48.64488" lon="-2.42952">
        <ele>111</ele>
        <time>2016-02-21T13:40:20.1Z</time>
      </trkpt>
      <trkpt lat="48.64486" lon="-2.42956">
        <ele>111</ele>
        <time>2016-02-21T13:40:23.1Z</time>
      </trkpt>
      <trkpt lat="48.64483" lon="-2.42959">
        <ele>111</ele>
        <time>2016-02-21T13:40:26.1Z</time>
      </trkpt>
      <trkpt lat="48.6448" lon="-2.42961">
        <ele>111</ele>
        <time>2016-02-21T13:40:29.1Z</time>
      </trkpt>
      <trkpt lat="48.64477" lon="-2.42964">
        <ele>111</ele>
        <time>2016-02-21T13:40:32.1Z</time>
      </trkpt>
      <trkpt lat="48.64474" lon="-2.42966">
        <ele>111</ele>
        <time>2016-02-21T13:40:35.1Z</time>
      </trkpt>
      <trkpt lat="48.6447" lon="-2.42966">
        <ele>111</ele>
        <time>2016-02-21T13:40:38.1Z</time>
      </trkpt>
      <trkpt lat="48.64468" lon="-2.42965">
        <ele>111</ele>
        <time>2016-02-21T13:40:40.1Z</time>
      </trkpt>
      <trkpt lat="48.64465" lon="-2.42963">
        <ele>111</ele>
        <time>2016-02-21T13:40:43.1Z</time>
      </trkpt>
      <trkpt lat="48.64463" lon="-2.42962">
        <ele>111</ele>
        <time>2016-02-21T13:40:45.1Z</time>
      </trkpt>
      <trkpt lat="48.6446" lon="-2.4296">
        <ele>110</ele>
        <time>2016-02-21T13:40:48.1Z</time>
      </trkpt>
      <trkpt lat="48.64458" lon="-2.42958">
        <ele>110</ele>
        <time>2016-02-21T13:40:50.1Z</time>
      </trkpt>
      <trkpt lat="48.64457" lon="-2.42957">
        <ele>110</ele>
        <time>2016-02-21T13:40:52.1Z</time>
      </trkpt>
      <trkpt lat="48.64455" lon="-2.42954">
        <ele>110</ele>
        <time>2016-02-21T13:40:55.1Z</time>
      </trkpt>
      <trkpt lat="48.64454" lon="-2.42952">
        <ele>110</ele>
        <time>2016-02-21T13:40:57.1Z</time>
      </trkpt>
      <trkpt lat="48.64453" lon="-2.4295">
        <ele>110</ele>
        <time>2016-02-21T13:40:59.1Z</time>
      </trkpt>
      <trkpt lat="48.6445" lon="-2.42947">
        <ele>110</ele>
        <time>2016-02-21T13:41:02.1Z</time>
      </trkpt>
      <trkpt lat="48.64448" lon="-2.42944">
        <ele>110</ele>
        <time>2016-02-21T13:41:05.1Z</time>
      </trkpt>
      <trkpt lat="48.64446" lon="-2.42941">
        <ele>110</ele>
        <time>2016-02-21T13:41:07.1Z</time>
      </trkpt>
      <trkpt lat="48.64444" lon="-2.42939">
        <ele>110</ele>
        <time>2016-02-21T13:41:09.1Z</time>
      </trkpt>
      <trkpt lat="48.64442" lon="-2.42936">
        <ele>110</ele>
        <time>2016-02-21T13:41:12.1Z</time>
      </trkpt>
      <trkpt lat="48.64441" lon="-2.42933">
        <ele>110</ele>
        <time>2016-02-21T13:41:14.1Z</time>
      </trkpt>
      <trkpt lat="48.64439" lon="-2.42929">
        <ele>110</ele>
        <time>2016-02-21T13:41:17.1Z</time>
      </trkpt>
      <trkpt lat="48.64437" lon="-2.42927">
        <ele>109</ele>
        <time>2016-02-21T13:41:19.1Z</time>
      </trkpt>
      <trkpt lat="48.64435" lon="-2.42923">
        <ele>109</ele>
        <time>2016-02-21T13:41:22.1Z</time>
      </trkpt>
      <trkpt lat="48.64433" lon="-2.42921">
        <ele>109</ele>
        <time>2016-02-21T13:41:25.1Z</time>
      </trkpt>
      <trkpt lat="48.6443" lon="-2.42922">
        <ele>110</ele>
        <time>2016-02-21T13:41:28.1Z</time>
      </trkpt>
      <trkpt lat="48.64428" lon="-2.4292">
        <ele>110</ele>
        <time>2016-02-21T13:41:31.1Z</time>
      </trkpt>
      <trkpt lat="48.64425" lon="-2.42917">
        <ele>110</ele>
        <time>2016-02-21T13:41:34.1Z</time>
      </trkpt>
      <trkpt lat="48.64423" lon="-2.42914">
        <ele>110</ele>
        <time>2016-02-21T13:41:37.1Z</time>
      </trkpt>
      <trkpt lat="48.6442" lon="-2.42909">
        <ele>110</ele>
        <time>2016-02-21T13:41:40.1Z</time>
      </trkpt>
      <trkpt lat="48.64419" lon="-2.42908">
        <ele>110</ele>
        <time>2016-02-21T13:41:42.1Z</time>
      </trkpt>
      <trkpt lat="48.64417" lon="-2.42904">
        <ele>110</ele>
        <time>2016-02-21T13:41:45.1Z</time>
      </trkpt>
      <trkpt lat="48.64415" lon="-2.42901">
        <ele>109</ele>
        <time>2016-02-21T13:41:47.1Z</time>
      </trkpt>
      <trkpt lat="48.64413" lon="-2.42899">
        <ele>109</ele>
        <time>2016-02-21T13:41:49.1Z</time>
      </trkpt>
      <trkpt lat="48.6441" lon="-2.42897">
        <ele>110</ele>
        <time>2016-02-21T13:41:52.1Z</time>
      </trkpt>
      <trkpt lat="48.64408" lon="-2.42893">
        <ele>110</ele>
        <time>2016-02-21T13:41:55.1Z</time>
      </trkpt>
      <trkpt lat="48.64406" lon="-2.4289">
        <ele>110</ele>
        <time>2016-02-21T13:41:57.1Z</time>
      </trkpt>
      <trkpt lat="48.64404" lon="-2.42886">
        <ele>110</ele>
        <time>2016-02-21T13:42:00.1Z</time>
      </trkpt>
      <trkpt lat="48.64403" lon="-2.42884">
        <ele>110</ele>
        <time>2016-02-21T13:42:02.1Z</time>
      </trkpt>
      <trkpt lat="48.64401" lon="-2.4288">
        <ele>111</ele>
        <time>2016-02-21T13:42:05.1Z</time>
      </trkpt>
      <trkpt lat="48.64399" lon="-2.42877">
        <ele>110</ele>
        <time>2016-02-21T13:42:07.1Z</time>
      </trkpt>
      <trkpt lat="48.64398" lon="-2.42874">
        <ele>110</ele>
        <time>2016-02-21T13:42:09.1Z</time>
      </trkpt>
      <trkpt lat="48.64396" lon="-2.42871">
        <ele>110</ele>
        <time>2016-02-21T13:42:11.1Z</time>
      </trkpt>
      <trkpt lat="48.64394" lon="-2.42866">
        <ele>110</ele>
        <time>2016-02-21T13:42:14.1Z</time>
      </trkpt>
      <trkpt lat="48.64392" lon="-2.42862">
        <ele>110</ele>
        <time>2016-02-21T13:42:17.1Z</time>
      </trkpt>
      <trkpt lat="48.6439" lon="-2.42858">
        <ele>110</ele>
        <time>2016-02-21T13:42:20.1Z</time>
      </trkpt>
      <trkpt lat="48.64388" lon="-2.42855">
        <ele>110</ele>
        <time>2016-02-21T13:42:22.1Z</time>
      </trkpt>
      <trkpt lat="48.64387" lon="-2.42852">
        <ele>110</ele>
        <time>2016-02-21T13:42:24.1Z</time>
      </trkpt>
      <trkpt lat="48.64385" lon="-2.42847">
        <ele>111</ele>
        <time>2016-02-21T13:42:27.1Z</time>
      </trkpt>
      <trkpt lat="48.64384" lon="-2.42845">
        <ele>111</ele>
        <time>2016-02-21T13:42:29.1Z</time>
      </trkpt>
      <trkpt lat="48.64383" lon="-2.42842">
        <ele>110</ele>
        <time>2016-02-21T13:42:31.1Z</time>
      </trkpt>
      <trkpt lat="48.64381" lon="-2.42838">
        <ele>110</ele>
        <time>2016-02-21T13:42:34.1Z</time>
      </trkpt>
      <trkpt lat="48.64379" lon="-2.42834">
        <ele>111</ele>
        <time>2016-02-21T13:42:37.1Z</time>
      </trkpt>
      <trkpt lat="48.64378" lon="-2.42831">
        <ele>110</ele>
        <time>2016-02-21T13:42:39.1Z</time>
      </trkpt>
      <trkpt lat="48.64376" lon="-2.42827">
        <ele>111</ele>
        <time>2016-02-21T13:42:42.1Z</time>
      </trkpt>
      <trkpt lat="48.64375" lon="-2.42822">
        <ele>111</ele>
        <time>2016-02-21T13:42:45.1Z</time>
      </trkpt>
      <trkpt lat="48.64374" lon="-2.42819">
        <ele>111</ele>
        <time>2016-02-21T13:42:47.1Z</time>
      </trkpt>
      <trkpt lat="48.64372" lon="-2.42817">
        <ele>110</ele>
        <time>2016-02-21T13:42:49.1Z</time>
      </trkpt>
      <trkpt lat="48.6437" lon="-2.42813">
        <ele>110</ele>
        <time>2016-02-21T13:42:52.1Z</time>
      </trkpt>
      <trkpt lat="48.64368" lon="-2.4281">
        <ele>110</ele>
        <time>2016-02-21T13:42:55.1Z</time>
      </trkpt>
      <trkpt lat="48.64367" lon="-2.42809">
        <ele>110</ele>
        <time>2016-02-21T13:42:57.1Z</time>
      </trkpt>
      <trkpt lat="48.64366" lon="-2.42808">
        <ele>111</ele>
        <time>2016-02-21T13:43:00.1Z</time>
      </trkpt>
      <trkpt lat="48.64364" lon="-2.42807">
        <ele>110</ele>
        <time>2016-02-21T13:43:03.1Z</time>
      </trkpt>
      <trkpt lat="48.64361" lon="-2.42807">
        <ele>110</ele>
        <time>2016-02-21T13:43:06.1Z</time>
      </trkpt>
      <trkpt lat="48.64358" lon="-2.42806">
        <ele>110</ele>
        <time>2016-02-21T13:43:09.1Z</time>
      </trkpt>
      <trkpt lat="48.64355" lon="-2.42806">
        <ele>110</ele>
        <time>2016-02-21T13:43:11.1Z</time>
      </trkpt>
      <trkpt lat="48.64352" lon="-2.42805">
        <ele>110</ele>
        <time>2016-02-21T13:43:14.1Z</time>
      </trkpt>
      <trkpt lat="48.64349" lon="-2.42804">
        <ele>110</ele>
        <time>2016-02-21T13:43:16.1Z</time>
      </trkpt>
      <trkpt lat="48.64346" lon="-2.42804">
        <ele>110</ele>
        <time>2016-02-21T13:43:19.1Z</time>
      </trkpt>
      <trkpt lat="48.64343" lon="-2.42803">
        <ele>110</ele>
        <time>2016-02-21T13:43:22.1Z</time>
      </trkpt>
      <trkpt lat="48.64341" lon="-2.42803">
        <ele>110</ele>
        <time>2016-02-21T13:43:24.1Z</time>
      </trkpt>
      <trkpt lat="48.6434" lon="-2.42802">
        <ele>110</ele>
        <time>2016-02-21T13:43:26.1Z</time>
      </trkpt>
      <trkpt lat="48.64337" lon="-2.42802">
        <ele>110</ele>
        <time>2016-02-21T13:43:29.1Z</time>
      </trkpt>
      <trkpt lat="48.64334" lon="-2.42802">
        <ele>110</ele>
        <time>2016-02-21T13:43:31.1Z</time>
      </trkpt>
      <trkpt lat="48.64332" lon="-2.42801">
        <ele>110</ele>
        <time>2016-02-21T13:43:33.1Z</time>
      </trkpt>
      <trkpt lat="48.64329" lon="-2.42801">
        <ele>110</ele>
        <time>2016-02-21T13:43:36.1Z</time>
      </trkpt>
      <trkpt lat="48.64327" lon="-2.428">
        <ele>110</ele>
        <time>2016-02-21T13:43:38.1Z</time>
      </trkpt>
      <trkpt lat="48.64323" lon="-2.42799">
        <ele>110</ele>
        <time>2016-02-21T13:43:41.1Z</time>
      </trkpt>
      <trkpt lat="48.6432" lon="-2.42798">
        <ele>110</ele>
        <time>2016-02-21T13:43:44.1Z</time>
      </trkpt>
      <trkpt lat="48.64316" lon="-2.42797">
        <ele>110</ele>
        <time>2016-02-21T13:43:47.1Z</time>
      </trkpt>
      <trkpt lat="48.64313" lon="-2.42796">
        <ele>110</ele>
        <time>2016-02-21T13:43:50.1Z</time>
      </trkpt>
      <trkpt lat="48.6431" lon="-2.42796">
        <ele>110</ele>
        <time>2016-02-21T13:43:52.1Z</time>
      </trkpt>
      <trkpt lat="48.64307" lon="-2.42796">
        <ele>110</ele>
        <time>2016-02-21T13:43:55.1Z</time>
      </trkpt>
      <trkpt lat="48.64304" lon="-2.42796">
        <ele>110</ele>
        <time>2016-02-21T13:43:58.1Z</time>
      </trkpt>
      <trkpt lat="48.64302" lon="-2.42797">
        <ele>110</ele>
        <time>2016-02-21T13:44:00.1Z</time>
      </trkpt>
      <trkpt lat="48.64301" lon="-2.42797">
        <ele>110</ele>
        <time>2016-02-21T13:44:03.1Z</time>
      </trkpt>
      <trkpt lat="48.64298" lon="-2.42795">
        <ele>110</ele>
        <time>2016-02-21T13:44:06.1Z</time>
      </trkpt>
      <trkpt lat="48.64295" lon="-2.42794">
        <ele>110</ele>
        <time>2016-02-21T13:44:08.1Z</time>
      </trkpt>
      <trkpt lat="48.64292" lon="-2.42794">
        <ele>110</ele>
        <time>2016-02-21T13:44:11.1Z</time>
      </trkpt>
      <trkpt lat="48.64288" lon="-2.42793">
        <ele>110</ele>
        <time>2016-02-21T13:44:14.1Z</time>
      </trkpt>
      <trkpt lat="48.64285" lon="-2.42793">
        <ele>110</ele>
        <time>2016-02-21T13:44:17.1Z</time>
      </trkpt>
      <trkpt lat="48.64282" lon="-2.42792">
        <ele>110</ele>
        <time>2016-02-21T13:44:19.1Z</time>
      </trkpt>
      <trkpt lat="48.64279" lon="-2.42791">
        <ele>110</ele>
        <time>2016-02-21T13:44:22.1Z</time>
      </trkpt>
      <trkpt lat="48.64276" lon="-2.42791">
        <ele>110</ele>
        <time>2016-02-21T13:44:25.1Z</time>
      </trkpt>
      <trkpt lat="48.64273" lon="-2.42791">
        <ele>110</ele>
        <time>2016-02-21T13:44:27.1Z</time>
      </trkpt>
      <trkpt lat="48.64269" lon="-2.4279">
        <ele>110</ele>
        <time>2016-02-21T13:44:30.1Z</time>
      </trkpt>
      <trkpt lat="48.64267" lon="-2.42788">
        <ele>109</ele>
        <time>2016-02-21T13:44:32.1Z</time>
      </trkpt>
      <trkpt lat="48.64263" lon="-2.42787">
        <ele>110</ele>
        <time>2016-02-21T13:44:35.1Z</time>
      </trkpt>
      <trkpt lat="48.6426" lon="-2.42787">
        <ele>110</ele>
        <time>2016-02-21T13:44:38.1Z</time>
      </trkpt>
      <trkpt lat="48.64256" lon="-2.42786">
        <ele>110</ele>
        <time>2016-02-21T13:44:41.1Z</time>
      </trkpt>
      <trkpt lat="48.64253" lon="-2.42785">
        <ele>110</ele>
        <time>2016-02-21T13:44:44.1Z</time>
      </trkpt>
      <trkpt lat="48.6425" lon="-2.42783">
        <ele>110</ele>
        <time>2016-02-21T13:44:47.1Z</time>
      </trkpt>
      <trkpt lat="48.64246" lon="-2.42783">
        <ele>110</ele>
        <time>2016-02-21T13:44:50.1Z</time>
      </trkpt>
      <trkpt lat="48.64244" lon="-2.42782">
        <ele>110</ele>
        <time>2016-02-21T13:44:52.1Z</time>
      </trkpt>
      <trkpt lat="48.64242" lon="-2.42782">
        <ele>110</ele>
        <time>2016-02-21T13:44:54.1Z</time>
      </trkpt>
      <trkpt lat="48.64239" lon="-2.42781">
        <ele>110</ele>
        <time>2016-02-21T13:44:57.1Z</time>
      </trkpt>
      <trkpt lat="48.64237" lon="-2.4278">
        <ele>110</ele>
        <time>2016-02-21T13:44:59.1Z</time>
      </trkpt>
      <trkpt lat="48.64234" lon="-2.42779">
        <ele>110</ele>
        <time>2016-02-21T13:45:02.1Z</time>
      </trkpt>
      <trkpt lat="48.64232" lon="-2.42778">
        <ele>110</ele>
        <time>2016-02-21T13:45:04.1Z</time>
      </trkpt>
      <trkpt lat="48.64229" lon="-2.42776">
        <ele>110</ele>
        <time>2016-02-21T13:45:07.1Z</time>
      </trkpt>
      <trkpt lat="48.64227" lon="-2.42774">
        <ele>110</ele>
        <time>2016-02-21T13:45:09.1Z</time>
      </trkpt>
      <trkpt lat="48.64225" lon="-2.42771">
        <ele>110</ele>
        <time>2016-02-21T13:45:12.1Z</time>
      </trkpt>
      <trkpt lat="48.64224" lon="-2.42768">
        <ele>110</ele>
        <time>2016-02-21T13:45:14.1Z</time>
      </trkpt>
      <trkpt lat="48.64223" lon="-2.42764">
        <ele>110</ele>
        <time>2016-02-21T13:45:17.1Z</time>
      </trkpt>
      <trkpt lat="48.64223" lon="-2.42759">
        <ele>110</ele>
        <time>2016-02-21T13:45:20.1Z</time>
      </trkpt>
      <trkpt lat="48.64224" lon="-2.42757">
        <ele>110</ele>
        <time>2016-02-21T13:45:22.1Z</time>
      </trkpt>
      <trkpt lat="48.64226" lon="-2.42752">
        <ele>109</ele>
        <time>2016-02-21T13:45:25.1Z</time>
      </trkpt>
      <trkpt lat="48.64227" lon="-2.4275">
        <ele>109</ele>
        <time>2016-02-21T13:45:27.1Z</time>
      </trkpt>
      <trkpt lat="48.64228" lon="-2.42745">
        <ele>109</ele>
        <time>2016-02-21T13:45:30.1Z</time>
      </trkpt>
      <trkpt lat="48.64229" lon="-2.4274">
        <ele>109</ele>
        <time>2016-02-21T13:45:33.1Z</time>
      </trkpt>
      <trkpt lat="48.6423" lon="-2.42737">
        <ele>109</ele>
        <time>2016-02-21T13:45:35.1Z</time>
      </trkpt>
      <trkpt lat="48.64231" lon="-2.42732">
        <ele>109</ele>
        <time>2016-02-21T13:45:38.1Z</time>
      </trkpt>
      <trkpt lat="48.64231" lon="-2.42728">
        <ele>109</ele>
        <time>2016-02-21T13:45:40.1Z</time>
      </trkpt>
      <trkpt lat="48.64232" lon="-2.42724">
        <ele>109</ele>
        <time>2016-02-21T13:45:43.1Z</time>
      </trkpt>
      <trkpt lat="48.64233" lon="-2.42719">
        <ele>109</ele>
        <time>2016-02-21T13:45:46.1Z</time>
      </trkpt>
      <trkpt lat="48.64233" lon="-2.42715">
        <ele>109</ele>
        <time>2016-02-21T13:45:48.1Z</time>
      </trkpt>
      <trkpt lat="48.64233" lon="-2.4271">
        <ele>108</ele>
        <time>2016-02-21T13:45:51.1Z</time>
      </trkpt>
      <trkpt lat="48.64233" lon="-2.42707">
        <ele>108</ele>
        <time>2016-02-21T13:45:53.1Z</time>
      </trkpt>
      <trkpt lat="48.64233" lon="-2.42704">
        <ele>109</ele>
        <time>2016-02-21T13:45:56.1Z</time>
      </trkpt>
      <trkpt lat="48.64233" lon="-2.42699">
        <ele>109</ele>
        <time>2016-02-21T13:45:59.1Z</time>
      </trkpt>
      <trkpt lat="48.64234" lon="-2.42696">
        <ele>109</ele>
        <time>2016-02-21T13:46:01.1Z</time>
      </trkpt>
      <trkpt lat="48.64234" lon="-2.42691">
        <ele>108</ele>
        <time>2016-02-21T13:46:04.1Z</time>
      </trkpt>
      <trkpt lat="48.64234" lon="-2.42687">
        <ele>108</ele>
        <time>2016-02-21T13:46:07.1Z</time>
      </trkpt>
      <trkpt lat="48.64234" lon="-2.42683">
        <ele>109</ele>
        <time>2016-02-21T13:46:09.1Z</time>
      </trkpt>
      <trkpt lat="48.64235" lon="-2.42678">
        <ele>108</ele>
        <time>2016-02-21T13:46:12.1Z</time>
      </trkpt>
      <trkpt lat="48.64235" lon="-2.42675">
        <ele>109</ele>
        <time>2016-02-21T13:46:14.1Z</time>
      </trkpt>
      <trkpt lat="48.64236" lon="-2.42671">
        <ele>108</ele>
        <time>2016-02-21T13:46:16.1Z</time>
      </trkpt>
      <trkpt lat="48.64237" lon="-2.42667">
        <ele>108</ele>
        <time>2016-02-21T13:46:19.1Z</time>
      </trkpt>
      <trkpt lat="48.64238" lon="-2.42664">
        <ele>108</ele>
        <time>2016-02-21T13:46:21.1Z</time>
      </trkpt>
      <trkpt lat="48.64238" lon="-2.42659">
        <ele>108</ele>
        <time>2016-02-21T13:46:24.1Z</time>
      </trkpt>
      <trkpt lat="48.64239" lon="-2.42655">
        <ele>108</ele>
        <time>2016-02-21T13:46:27.1Z</time>
      </trkpt>
      <trkpt lat="48.6424" lon="-2.42651">
        <ele>109</ele>
        <time>2016-02-21T13:46:30.1Z</time>
      </trkpt>
      <trkpt lat="48.6424" lon="-2.42649">
        <ele>108</ele>
        <time>2016-02-21T13:46:32.1Z</time>
      </trkpt>
      <trkpt lat="48.64241" lon="-2.42645">
        <ele>108</ele>
        <time>2016-02-21T13:46:35.1Z</time>
      </trkpt>
      <trkpt lat="48.64242" lon="-2.42641">
        <ele>108</ele>
        <time>2016-02-21T13:46:38.1Z</time>
      </trkpt>
      <trkpt lat="48.64243" lon="-2.42637">
        <ele>108</ele>
        <time>2016-02-21T13:46:41.1Z</time>
      </trkpt>
      <trkpt lat="48.64245" lon="-2.42633">
        <ele>108</ele>
        <time>2016-02-21T13:46:43.1Z</time>
      </trkpt>
      <trkpt lat="48.64246" lon="-2.42628">
        <ele>108</ele>
        <time>2016-02-21T13:46:46.1Z</time>
      </trkpt>
      <trkpt lat="48.64247" lon="-2.42625">
        <ele>108</ele>
        <time>2016-02-21T13:46:48.1Z</time>
      </trkpt>
      <trkpt lat="48.64248" lon="-2.4262">
        <ele>108</ele>
        <time>2016-02-21T13:46:51.1Z</time>
      </trkpt>
      <trkpt lat="48.6425" lon="-2.42616">
        <ele>108</ele>
        <time>2016-02-21T13:46:54.1Z</time>
      </trkpt>
      <trkpt lat="48.64251" lon="-2.42613">
        <ele>108</ele>
        <time>2016-02-21T13:46:56.1Z</time>
      </trkpt>
      <trkpt lat="48.64252" lon="-2.42608">
        <ele>108</ele>
        <time>2016-02-21T13:46:59.1Z</time>
      </trkpt>
      <trkpt lat="48.64253" lon="-2.42603">
        <ele>108</ele>
        <time>2016-02-21T13:47:02.1Z</time>
      </trkpt>
      <trkpt lat="48.64254" lon="-2.42598">
        <ele>108</ele>
        <time>2016-02-21T13:47:05.1Z</time>
      </trkpt>
      <trkpt lat="48.64256" lon="-2.42593">
        <ele>108</ele>
        <time>2016-02-21T13:47:08.1Z</time>
      </trkpt>
      <trkpt lat="48.64256" lon="-2.42588">
        <ele>108</ele>
        <time>2016-02-21T13:47:11.1Z</time>
      </trkpt>
      <trkpt lat="48.64257" lon="-2.42585">
        <ele>108</ele>
        <time>2016-02-21T13:47:13.1Z</time>
      </trkpt>
      <trkpt lat="48.64257" lon="-2.42584">
        <ele>108</ele>
        <time>2016-02-21T13:47:17.1Z</time>
      </trkpt>
      <trkpt lat="48.64256" lon="-2.42584">
        <ele>108</ele>
        <time>2016-02-21T13:47:19.1Z</time>
      </trkpt>
      <trkpt lat="48.64256" lon="-2.42583">
        <ele>108</ele>
        <time>2016-02-21T13:47:22.1Z</time>
      </trkpt>
      <trkpt lat="48.64256" lon="-2.42583">
        <ele>107</ele>
        <time>2016-02-21T13:47:24.1Z</time>
      </trkpt>
      <trkpt lat="48.64256" lon="-2.42583">
        <ele>107</ele>
        <time>2016-02-21T13:47:27.1Z</time>
      </trkpt>
      <trkpt lat="48.64256" lon="-2.42582">
        <ele>107</ele>
        <time>2016-02-21T13:47:29.1Z</time>
      </trkpt>
      <trkpt lat="48.64254" lon="-2.42581">
        <ele>107</ele>
        <time>2016-02-21T13:47:32.1Z</time>
      </trkpt>
      <trkpt lat="48.64254" lon="-2.4258">
        <ele>107</ele>
        <time>2016-02-21T13:47:35.1Z</time>
      </trkpt>
      <trkpt lat="48.64253" lon="-2.4258">
        <ele>107</ele>
        <time>2016-02-21T13:47:37.1Z</time>
      </trkpt>
      <trkpt lat="48.64253" lon="-2.4258">
        <ele>107</ele>
        <time>2016-02-21T13:47:40.1Z</time>
      </trkpt>
      <trkpt lat="48.64252" lon="-2.4258">
        <ele>107</ele>
        <time>2016-02-21T13:47:43.1Z</time>
      </trkpt>
      <trkpt lat="48.64252" lon="-2.4258">
        <ele>107</ele>
        <time>2016-02-21T13:47:47.1Z</time>
      </trkpt>
      <trkpt lat="48.64252" lon="-2.4258">
        <ele>107</ele>
        <time>2016-02-21T13:47:50.1Z</time>
      </trkpt>
      <trkpt lat="48.64252" lon="-2.42579">
        <ele>108</ele>
        <time>2016-02-21T13:47:53.1Z</time>
      </trkpt>
      <trkpt lat="48.64252" lon="-2.42579">
        <ele>108</ele>
        <time>2016-02-21T13:47:55.1Z</time>
      </trkpt>
      <trkpt lat="48.64251" lon="-2.4258">
        <ele>108</ele>
        <time>2016-02-21T13:47:57.1Z</time>
      </trkpt>
      <trkpt lat="48.64251" lon="-2.42582">
        <ele>108</ele>
        <time>2016-02-21T13:48:00.1Z</time>
      </trkpt>
      <trkpt lat="48.64251" lon="-2.42582">
        <ele>108</ele>
        <time>2016-02-21T13:48:02.1Z</time>
      </trkpt>
      <trkpt lat="48.64249" lon="-2.42585">
        <ele>108</ele>
        <time>2016-02-21T13:48:05.1Z</time>
      </trkpt>
      <trkpt lat="48.64248" lon="-2.42588">
        <ele>108</ele>
        <time>2016-02-21T13:48:07.1Z</time>
      </trkpt>
      <trkpt lat="48.64248" lon="-2.42592">
        <ele>108</ele>
        <time>2016-02-21T13:48:10.1Z</time>
      </trkpt>
      <trkpt lat="48.64246" lon="-2.42594">
        <ele>108</ele>
        <time>2016-02-21T13:48:12.1Z</time>
      </trkpt>
      <trkpt lat="48.64245" lon="-2.42599">
        <ele>108</ele>
        <time>2016-02-21T13:48:15.1Z</time>
      </trkpt>
      <trkpt lat="48.64244" lon="-2.42602">
        <ele>108</ele>
        <time>2016-02-21T13:48:17.1Z</time>
      </trkpt>
      <trkpt lat="48.64243" lon="-2.42606">
        <ele>108</ele>
        <time>2016-02-21T13:48:20.1Z</time>
      </trkpt>
      <trkpt lat="48.64241" lon="-2.42611">
        <ele>108</ele>
        <time>2016-02-21T13:48:23.1Z</time>
      </trkpt>
      <trkpt lat="48.64241" lon="-2.42614">
        <ele>108</ele>
        <time>2016-02-21T13:48:25.1Z</time>
      </trkpt>
      <trkpt lat="48.64239" lon="-2.42618">
        <ele>108</ele>
        <time>2016-02-21T13:48:28.1Z</time>
      </trkpt>
      <trkpt lat="48.64238" lon="-2.42621">
        <ele>108</ele>
        <time>2016-02-21T13:48:30.1Z</time>
      </trkpt>
      <trkpt lat="48.64236" lon="-2.42625">
        <ele>108</ele>
        <time>2016-02-21T13:48:33.1Z</time>
      </trkpt>
      <trkpt lat="48.64235" lon="-2.42629">
        <ele>108</ele>
        <time>2016-02-21T13:48:35.1Z</time>
      </trkpt>
      <trkpt lat="48.64235" lon="-2.42633">
        <ele>108</ele>
        <time>2016-02-21T13:48:38.1Z</time>
      </trkpt>
      <trkpt lat="48.64234" lon="-2.42636">
        <ele>108</ele>
        <time>2016-02-21T13:48:40.1Z</time>
      </trkpt>
      <trkpt lat="48.64233" lon="-2.42641">
        <ele>108</ele>
        <time>2016-02-21T13:48:43.1Z</time>
      </trkpt>
      <trkpt lat="48.64232" lon="-2.42645">
        <ele>108</ele>
        <time>2016-02-21T13:48:45.1Z</time>
      </trkpt>
      <trkpt lat="48.64232" lon="-2.42648">
        <ele>108</ele>
        <time>2016-02-21T13:48:47.1Z</time>
      </trkpt>
      <trkpt lat="48.64231" lon="-2.42653">
        <ele>108</ele>
        <time>2016-02-21T13:48:50.1Z</time>
      </trkpt>
      <trkpt lat="48.6423" lon="-2.42657">
        <ele>108</ele>
        <time>2016-02-21T13:48:53.1Z</time>
      </trkpt>
      <trkpt lat="48.6423" lon="-2.42661">
        <ele>108</ele>
        <time>2016-02-21T13:48:55.1Z</time>
      </trkpt>
      <trkpt lat="48.6423" lon="-2.42666">
        <ele>108</ele>
        <time>2016-02-21T13:48:58.1Z</time>
      </trkpt>
      <trkpt lat="48.6423" lon="-2.4267">
        <ele>108</ele>
        <time>2016-02-21T13:49:00.1Z</time>
      </trkpt>
      <trkpt lat="48.6423" lon="-2.42673">
        <ele>108</ele>
        <time>2016-02-21T13:49:02.1Z</time>
      </trkpt>
      <trkpt lat="48.64229" lon="-2.42678">
        <ele>109</ele>
        <time>2016-02-21T13:49:05.1Z</time>
      </trkpt>
      <trkpt lat="48.64229" lon="-2.42683">
        <ele>108</ele>
        <time>2016-02-21T13:49:08.1Z</time>
      </trkpt>
      <trkpt lat="48.64229" lon="-2.42686">
        <ele>108</ele>
        <time>2016-02-21T13:49:10.1Z</time>
      </trkpt>
      <trkpt lat="48.64228" lon="-2.42691">
        <ele>108</ele>
        <time>2016-02-21T13:49:13.1Z</time>
      </trkpt>
      <trkpt lat="48.64228" lon="-2.42694">
        <ele>108</ele>
        <time>2016-02-21T13:49:15.1Z</time>
      </trkpt>
      <trkpt lat="48.64228" lon="-2.427">
        <ele>108</ele>
        <time>2016-02-21T13:49:18.1Z</time>
      </trkpt>
      <trkpt lat="48.64228" lon="-2.42705">
        <ele>108</ele>
        <time>2016-02-21T13:49:21.1Z</time>
      </trkpt>
      <trkpt lat="48.64228" lon="-2.42709">
        <ele>108</ele>
        <time>2016-02-21T13:49:23.1Z</time>
      </trkpt>
      <trkpt lat="48.64228" lon="-2.42713">
        <ele>108</ele>
        <time>2016-02-21T13:49:26.1Z</time>
      </trkpt>
      <trkpt lat="48.64227" lon="-2.42716">
        <ele>108</ele>
        <time>2016-02-21T13:49:28.1Z</time>
      </trkpt>
      <trkpt lat="48.64227" lon="-2.42719">
        <ele>108</ele>
        <time>2016-02-21T13:49:30.1Z</time>
      </trkpt>
      <trkpt lat="48.64226" lon="-2.42724">
        <ele>108</ele>
        <time>2016-02-21T13:49:33.1Z</time>
      </trkpt>
      <trkpt lat="48.64225" lon="-2.42729">
        <ele>109</ele>
        <time>2016-02-21T13:49:36.1Z</time>
      </trkpt>
      <trkpt lat="48.64225" lon="-2.42732">
        <ele>109</ele>
        <time>2016-02-21T13:49:38.1Z</time>
      </trkpt>
      <trkpt lat="48.64223" lon="-2.42737">
        <ele>109</ele>
        <time>2016-02-21T13:49:41.1Z</time>
      </trkpt>
      <trkpt lat="48.64222" lon="-2.42741">
        <ele>109</ele>
        <time>2016-02-21T13:49:43.1Z</time>
      </trkpt>
      <trkpt lat="48.6422" lon="-2.42745">
        <ele>109</ele>
        <time>2016-02-21T13:49:46.1Z</time>
      </trkpt>
      <trkpt lat="48.64219" lon="-2.42748">
        <ele>109</ele>
        <time>2016-02-21T13:49:48.1Z</time>
      </trkpt>
      <trkpt lat="48.64217" lon="-2.42751">
        <ele>109</ele>
        <time>2016-02-21T13:49:51.1Z</time>
      </trkpt>
      <trkpt lat="48.64215" lon="-2.42753">
        <ele>110</ele>
        <time>2016-02-21T13:49:54.1Z</time>
      </trkpt>
      <trkpt lat="48.64212" lon="-2.42753">
        <ele>110</ele>
        <time>2016-02-21T13:49:57.1Z</time>
      </trkpt>
      <trkpt lat="48.64208" lon="-2.42754">
        <ele>110</ele>
        <time>2016-02-21T13:50:00.1Z</time>
      </trkpt>
      <trkpt lat="48.64205" lon="-2.42753">
        <ele>110</ele>
        <time>2016-02-21T13:50:03.1Z</time>
      </trkpt>
      <trkpt lat="48.64202" lon="-2.42751">
        <ele>110</ele>
        <time>2016-02-21T13:50:06.1Z</time>
      </trkpt>
      <trkpt lat="48.642" lon="-2.42749">
        <ele>110</ele>
        <time>2016-02-21T13:50:08.1Z</time>
      </trkpt>
      <trkpt lat="48.64198" lon="-2.42746">
        <ele>110</ele>
        <time>2016-02-21T13:50:11.1Z</time>
      </trkpt>
      <trkpt lat="48.64196" lon="-2.42745">
        <ele>110</ele>
        <time>2016-02-21T13:50:14.1Z</time>
      </trkpt>
      <trkpt lat="48.64193" lon="-2.42742">
        <ele>110</ele>
        <time>2016-02-21T13:50:17.1Z</time>
      </trkpt>
      <trkpt lat="48.6419" lon="-2.4274">
        <ele>110</ele>
        <time>2016-02-21T13:50:20.1Z</time>
      </trkpt>
      <trkpt lat="48.64188" lon="-2.42738">
        <ele>110</ele>
        <time>2016-02-21T13:50:22.1Z</time>
      </trkpt>
      <trkpt lat="48.64187" lon="-2.42736">
        <ele>110</ele>
        <time>2016-02-21T13:50:24.1Z</time>
      </trkpt>
      <trkpt lat="48.64184" lon="-2.42734">
        <ele>111</ele>
        <time>2016-02-21T13:50:27.1Z</time>
      </trkpt>
      <trkpt lat="48.64182" lon="-2.42732">
        <ele>111</ele>
        <time>2016-02-21T13:50:29.1Z</time>
      </trkpt>
      <trkpt lat="48.6418" lon="-2.42729">
        <ele>110</ele>
        <time>2016-02-21T13:50:32.1Z</time>
      </trkpt>
      <trkpt lat="48.64177" lon="-2.42726">
        <ele>110</ele>
        <time>2016-02-21T13:50:35.1Z</time>
      </trkpt>
      <trkpt lat="48.64175" lon="-2.42725">
        <ele>110</ele>
        <time>2016-02-21T13:50:37.1Z</time>
      </trkpt>
      <trkpt lat="48.64174" lon="-2.42723">
        <ele>110</ele>
        <time>2016-02-21T13:50:39.1Z</time>
      </trkpt>
      <trkpt lat="48.64171" lon="-2.42721">
        <ele>111</ele>
        <time>2016-02-21T13:50:42.1Z</time>
      </trkpt>
      <trkpt lat="48.64168" lon="-2.42718">
        <ele>110</ele>
        <time>2016-02-21T13:50:45.1Z</time>
      </trkpt>
      <trkpt lat="48.64166" lon="-2.42717">
        <ele>111</ele>
        <time>2016-02-21T13:50:47.1Z</time>
      </trkpt>
      <trkpt lat="48.64163" lon="-2.42716">
        <ele>111</ele>
        <time>2016-02-21T13:50:50.1Z</time>
      </trkpt>
      <trkpt lat="48.64159" lon="-2.42714">
        <ele>111</ele>
        <time>2016-02-21T13:50:53.1Z</time>
      </trkpt>
      <trkpt lat="48.64157" lon="-2.42714">
        <ele>111</ele>
        <time>2016-02-21T13:50:55.1Z</time>
      </trkpt>
      <trkpt lat="48.64154" lon="-2.42712">
        <ele>111</ele>
        <time>2016-02-21T13:50:58.1Z</time>
      </trkpt>
      <trkpt lat="48.6415" lon="-2.42711">
        <ele>111</ele>
        <time>2016-02-21T13:51:01.1Z</time>
      </trkpt>
      <trkpt lat="48.64148" lon="-2.42711">
        <ele>111</ele>
        <time>2016-02-21T13:51:03.1Z</time>
      </trkpt>
      <trkpt lat="48.64144" lon="-2.4271">
        <ele>111</ele>
        <time>2016-02-21T13:51:06.1Z</time>
      </trkpt>
      <trkpt lat="48.64141" lon="-2.42708">
        <ele>111</ele>
        <time>2016-02-21T13:51:09.1Z</time>
      </trkpt>
      <trkpt lat="48.64137" lon="-2.42706">
        <ele>112</ele>
        <time>2016-02-21T13:51:12.1Z</time>
      </trkpt>
      <trkpt lat="48.64135" lon="-2.42705">
        <ele>111</ele>
        <time>2016-02-21T13:51:14.1Z</time>
      </trkpt>
      <trkpt lat="48.64132" lon="-2.42704">
        <ele>111</ele>
        <time>2016-02-21T13:51:17.1Z</time>
      </trkpt>
      <trkpt lat="48.64129" lon="-2.42704">
        <ele>111</ele>
        <time>2016-02-21T13:51:19.1Z</time>
      </trkpt>
      <trkpt lat="48.64126" lon="-2.42703">
        <ele>112</ele>
        <time>2016-02-21T13:51:22.1Z</time>
      </trkpt>
      <trkpt lat="48.64123" lon="-2.42702">
        <ele>112</ele>
        <time>2016-02-21T13:51:25.1Z</time>
      </trkpt>
      <trkpt lat="48.64121" lon="-2.42702">
        <ele>112</ele>
        <time>2016-02-21T13:51:27.1Z</time>
      </trkpt>
      <trkpt lat="48.64118" lon="-2.427">
        <ele>112</ele>
        <time>2016-02-21T13:51:30.1Z</time>
      </trkpt>
      <trkpt lat="48.64116" lon="-2.42699">
        <ele>112</ele>
        <time>2016-02-21T13:51:32.1Z</time>
      </trkpt>
      <trkpt lat="48.64114" lon="-2.42698">
        <ele>113</ele>
        <time>2016-02-21T13:51:34.1Z</time>
      </trkpt>
      <trkpt lat="48.64111" lon="-2.42697">
        <ele>113</ele>
        <time>2016-02-21T13:51:37.1Z</time>
      </trkpt>
      <trkpt lat="48.64109" lon="-2.42696">
        <ele>112</ele>
        <time>2016-02-21T13:51:39.1Z</time>
      </trkpt>
      <trkpt lat="48.64106" lon="-2.42695">
        <ele>113</ele>
        <time>2016-02-21T13:51:42.1Z</time>
      </trkpt>
      <trkpt lat="48.64104" lon="-2.42694">
        <ele>113</ele>
        <time>2016-02-21T13:51:44.1Z</time>
      </trkpt>
      <trkpt lat="48.64102" lon="-2.42693">
        <ele>113</ele>
        <time>2016-02-21T13:51:46.1Z</time>
      </trkpt>
      <trkpt lat="48.64099" lon="-2.42691">
        <ele>113</ele>
        <time>2016-02-21T13:51:49.1Z</time>
      </trkpt>
      <trkpt lat="48.64096" lon="-2.4269">
        <ele>113</ele>
        <time>2016-02-21T13:51:52.1Z</time>
      </trkpt>
      <trkpt lat="48.64094" lon="-2.42689">
        <ele>113</ele>
        <time>2016-02-21T13:51:54.1Z</time>
      </trkpt>
      <trkpt lat="48.64091" lon="-2.42687">
        <ele>113</ele>
        <time>2016-02-21T13:51:57.1Z</time>
      </trkpt>
      <trkpt lat="48.64089" lon="-2.42686">
        <ele>113</ele>
        <time>2016-02-21T13:51:59.1Z</time>
      </trkpt>
      <trkpt lat="48.64087" lon="-2.42683">
        <ele>114</ele>
        <time>2016-02-21T13:52:02.1Z</time>
      </trkpt>
      <trkpt lat="48.64085" lon="-2.42681">
        <ele>114</ele>
        <time>2016-02-21T13:52:04.1Z</time>
      </trkpt>
      <trkpt lat="48.64084" lon="-2.42678">
        <ele>114</ele>
        <time>2016-02-21T13:52:07.1Z</time>
      </trkpt>
      <trkpt lat="48.64082" lon="-2.42674">
        <ele>113</ele>
        <time>2016-02-21T13:52:10.1Z</time>
      </trkpt>
      <trkpt lat="48.64081" lon="-2.42671">
        <ele>114</ele>
        <time>2016-02-21T13:52:12.1Z</time>
      </trkpt>
      <trkpt lat="48.6408" lon="-2.42667">
        <ele>114</ele>
        <time>2016-02-21T13:52:15.1Z</time>
      </trkpt>
      <trkpt lat="48.64079" lon="-2.42664">
        <ele>114</ele>
        <time>2016-02-21T13:52:17.1Z</time>
      </trkpt>
      <trkpt lat="48.64076" lon="-2.4266">
        <ele>114</ele>
        <time>2016-02-21T13:52:20.1Z</time>
      </trkpt>
      <trkpt lat="48.64074" lon="-2.42656">
        <ele>114</ele>
        <time>2016-02-21T13:52:23.1Z</time>
      </trkpt>
      <trkpt lat="48.64071" lon="-2.42653">
        <ele>114</ele>
        <time>2016-02-21T13:52:26.1Z</time>
      </trkpt>
      <trkpt lat="48.64068" lon="-2.42649">
        <ele>114</ele>
        <time>2016-02-21T13:52:29.1Z</time>
      </trkpt>
      <trkpt lat="48.64066" lon="-2.42645">
        <ele>114</ele>
        <time>2016-02-21T13:52:32.1Z</time>
      </trkpt>
      <trkpt lat="48.64064" lon="-2.42643">
        <ele>114</ele>
        <time>2016-02-21T13:52:34.1Z</time>
      </trkpt>
      <trkpt lat="48.64062" lon="-2.42642">
        <ele>114</ele>
        <time>2016-02-21T13:52:36.1Z</time>
      </trkpt>
      <trkpt lat="48.64059" lon="-2.42639">
        <ele>114</ele>
        <time>2016-02-21T13:52:39.1Z</time>
      </trkpt>
      <trkpt lat="48.64057" lon="-2.42638">
        <ele>114</ele>
        <time>2016-02-21T13:52:41.1Z</time>
      </trkpt>
      <trkpt lat="48.64055" lon="-2.42637">
        <ele>114</ele>
        <time>2016-02-21T13:52:43.1Z</time>
      </trkpt>
      <trkpt lat="48.64052" lon="-2.42635">
        <ele>114</ele>
        <time>2016-02-21T13:52:46.1Z</time>
      </trkpt>
      <trkpt lat="48.64048" lon="-2.42634">
        <ele>114</ele>
        <time>2016-02-21T13:52:49.1Z</time>
      </trkpt>
      <trkpt lat="48.64046" lon="-2.42633">
        <ele>114</ele>
        <time>2016-02-21T13:52:51.1Z</time>
      </trkpt>
      <trkpt lat="48.64044" lon="-2.42632">
        <ele>114</ele>
        <time>2016-02-21T13:52:53.1Z</time>
      </trkpt>
      <trkpt lat="48.6404" lon="-2.4263">
        <ele>114</ele>
        <time>2016-02-21T13:52:56.1Z</time>
      </trkpt>
      <trkpt lat="48.64037" lon="-2.42629">
        <ele>115</ele>
        <time>2016-02-21T13:52:59.1Z</time>
      </trkpt>
      <trkpt lat="48.64035" lon="-2.42628">
        <ele>114</ele>
        <time>2016-02-21T13:53:01.1Z</time>
      </trkpt>
      <trkpt lat="48.64032" lon="-2.42627">
        <ele>115</ele>
        <time>2016-02-21T13:53:04.1Z</time>
      </trkpt>
      <trkpt lat="48.6403" lon="-2.42627">
        <ele>115</ele>
        <time>2016-02-21T13:53:06.1Z</time>
      </trkpt>
      <trkpt lat="48.64027" lon="-2.42626">
        <ele>115</ele>
        <time>2016-02-21T13:53:09.1Z</time>
      </trkpt>
      <trkpt lat="48.64023" lon="-2.42624">
        <ele>115</ele>
        <time>2016-02-21T13:53:12.1Z</time>
      </trkpt>
      <trkpt lat="48.6402" lon="-2.42623">
        <ele>116</ele>
        <time>2016-02-21T13:53:14.1Z</time>
      </trkpt>
      <trkpt lat="48.64018" lon="-2.42622">
        <ele>116</ele>
        <time>2016-02-21T13:53:16.1Z</time>
      </trkpt>
      <trkpt lat="48.64015" lon="-2.42622">
        <ele>116</ele>
        <time>2016-02-21T13:53:19.1Z</time>
      </trkpt>
      <trkpt lat="48.64013" lon="-2.42622">
        <ele>116</ele>
        <time>2016-02-21T13:53:21.1Z</time>
      </trkpt>
      <trkpt lat="48.64009" lon="-2.42622">
        <ele>116</ele>
        <time>2016-02-21T13:53:24.1Z</time>
      </trkpt>
      <trkpt lat="48.64006" lon="-2.42621">
        <ele>116</ele>
        <time>2016-02-21T13:53:27.1Z</time>
      </trkpt>
      <trkpt lat="48.64004" lon="-2.42621">
        <ele>116</ele>
        <time>2016-02-21T13:53:29.1Z</time>
      </trkpt>
      <trkpt lat="48.64" lon="-2.42619">
        <ele>116</ele>
        <time>2016-02-21T13:53:32.1Z</time>
      </trkpt>
      <trkpt lat="48.63998" lon="-2.42619">
        <ele>117</ele>
        <time>2016-02-21T13:53:34.1Z</time>
      </trkpt>
      <trkpt lat="48.63995" lon="-2.42619">
        <ele>116</ele>
        <time>2016-02-21T13:53:37.1Z</time>
      </trkpt>
      <trkpt lat="48.63992" lon="-2.42618">
        <ele>116</ele>
        <time>2016-02-21T13:53:39.1Z</time>
      </trkpt>
      <trkpt lat="48.6399" lon="-2.42618">
        <ele>116</ele>
        <time>2016-02-21T13:53:41.1Z</time>
      </trkpt>
      <trkpt lat="48.63987" lon="-2.42618">
        <ele>116</ele>
        <time>2016-02-21T13:53:44.1Z</time>
      </trkpt>
      <trkpt lat="48.63984" lon="-2.42618">
        <ele>116</ele>
        <time>2016-02-21T13:53:47.1Z</time>
      </trkpt>
      <trkpt lat="48.63982" lon="-2.42618">
        <ele>117</ele>
        <time>2016-02-21T13:53:49.1Z</time>
      </trkpt>
      <trkpt lat="48.63979" lon="-2.42618">
        <ele>117</ele>
        <time>2016-02-21T13:53:51.1Z</time>
      </trkpt>
      <trkpt lat="48.63976" lon="-2.42618">
        <ele>117</ele>
        <time>2016-02-21T13:53:54.1Z</time>
      </trkpt>
      <trkpt lat="48.63973" lon="-2.42618">
        <ele>117</ele>
        <time>2016-02-21T13:53:57.1Z</time>
      </trkpt>
      <trkpt lat="48.63969" lon="-2.42618">
        <ele>117</ele>
        <time>2016-02-21T13:54:00.1Z</time>
      </trkpt>
      <trkpt lat="48.63967" lon="-2.42618">
        <ele>118</ele>
        <time>2016-02-21T13:54:02.1Z</time>
      </trkpt>
      <trkpt lat="48.63963" lon="-2.42619">
        <ele>118</ele>
        <time>2016-02-21T13:54:05.1Z</time>
      </trkpt>
      <trkpt lat="48.6396" lon="-2.42619">
        <ele>118</ele>
        <time>2016-02-21T13:54:08.1Z</time>
      </trkpt>
      <trkpt lat="48.63957" lon="-2.42618">
        <ele>118</ele>
        <time>2016-02-21T13:54:11.1Z</time>
      </trkpt>
      <trkpt lat="48.63954" lon="-2.42618">
        <ele>118</ele>
        <time>2016-02-21T13:54:14.1Z</time>
      </trkpt>
      <trkpt lat="48.63951" lon="-2.42617">
        <ele>118</ele>
        <time>2016-02-21T13:54:17.1Z</time>
      </trkpt>
      <trkpt lat="48.6395" lon="-2.42616">
        <ele>118</ele>
        <time>2016-02-21T13:54:19.1Z</time>
      </trkpt>
      <trkpt lat="48.63948" lon="-2.42616">
        <ele>118</ele>
        <time>2016-02-21T13:54:22.1Z</time>
      </trkpt>
      <trkpt lat="48.63946" lon="-2.42614">
        <ele>118</ele>
        <time>2016-02-21T13:54:25.1Z</time>
      </trkpt>
      <trkpt lat="48.63945" lon="-2.42613">
        <ele>119</ele>
        <time>2016-02-21T13:54:27.1Z</time>
      </trkpt>
      <trkpt lat="48.63943" lon="-2.42609">
        <ele>119</ele>
        <time>2016-02-21T13:54:30.1Z</time>
      </trkpt>
      <trkpt lat="48.63942" lon="-2.42607">
        <ele>119</ele>
        <time>2016-02-21T13:54:32.1Z</time>
      </trkpt>
      <trkpt lat="48.6394" lon="-2.42603">
        <ele>119</ele>
        <time>2016-02-21T13:54:35.1Z</time>
      </trkpt>
      <trkpt lat="48.6394" lon="-2.426">
        <ele>119</ele>
        <time>2016-02-21T13:54:37.1Z</time>
      </trkpt>
      <trkpt lat="48.6394" lon="-2.42596">
        <ele>119</ele>
        <time>2016-02-21T13:54:40.1Z</time>
      </trkpt>
      <trkpt lat="48.6394" lon="-2.42593">
        <ele>119</ele>
        <time>2016-02-21T13:54:42.1Z</time>
      </trkpt>
      <trkpt lat="48.6394" lon="-2.42589">
        <ele>119</ele>
        <time>2016-02-21T13:54:44.1Z</time>
      </trkpt>
      <trkpt lat="48.63941" lon="-2.42585">
        <ele>119</ele>
        <time>2016-02-21T13:54:47.1Z</time>
      </trkpt>
      <trkpt lat="48.6394" lon="-2.42579">
        <ele>119</ele>
        <time>2016-02-21T13:54:50.1Z</time>
      </trkpt>
      <trkpt lat="48.6394" lon="-2.42576">
        <ele>119</ele>
        <time>2016-02-21T13:54:52.1Z</time>
      </trkpt>
      <trkpt lat="48.6394" lon="-2.42571">
        <ele>119</ele>
        <time>2016-02-21T13:54:55.1Z</time>
      </trkpt>
      <trkpt lat="48.6394" lon="-2.42568">
        <ele>119</ele>
        <time>2016-02-21T13:54:57.1Z</time>
      </trkpt>
      <trkpt lat="48.6394" lon="-2.42562">
        <ele>119</ele>
        <time>2016-02-21T13:55:00.1Z</time>
      </trkpt>
      <trkpt lat="48.6394" lon="-2.42559">
        <ele>119</ele>
        <time>2016-02-21T13:55:02.1Z</time>
      </trkpt>
      <trkpt lat="48.63939" lon="-2.42555">
        <ele>119</ele>
        <time>2016-02-21T13:55:05.1Z</time>
      </trkpt>
      <trkpt lat="48.63939" lon="-2.42549">
        <ele>119</ele>
        <time>2016-02-21T13:55:08.1Z</time>
      </trkpt>
      <trkpt lat="48.63939" lon="-2.42544">
        <ele>119</ele>
        <time>2016-02-21T13:55:11.1Z</time>
      </trkpt>
      <trkpt lat="48.6394" lon="-2.42538">
        <ele>119</ele>
        <time>2016-02-21T13:55:14.1Z</time>
      </trkpt>
      <trkpt lat="48.63939" lon="-2.42535">
        <ele>119</ele>
        <time>2016-02-21T13:55:16.1Z</time>
      </trkpt>
      <trkpt lat="48.63939" lon="-2.42529">
        <ele>119</ele>
        <time>2016-02-21T13:55:19.1Z</time>
      </trkpt>
      <trkpt lat="48.63939" lon="-2.42525">
        <ele>119</ele>
        <time>2016-02-21T13:55:21.1Z</time>
      </trkpt>
      <trkpt lat="48.63939" lon="-2.4252">
        <ele>118</ele>
        <time>2016-02-21T13:55:24.1Z</time>
      </trkpt>
      <trkpt lat="48.63939" lon="-2.42515">
        <ele>119</ele>
        <time>2016-02-21T13:55:27.1Z</time>
      </trkpt>
      <trkpt lat="48.63938" lon="-2.42511">
        <ele>118</ele>
        <time>2016-02-21T13:55:30.1Z</time>
      </trkpt>
      <trkpt lat="48.63938" lon="-2.42506">
        <ele>119</ele>
        <time>2016-02-21T13:55:33.1Z</time>
      </trkpt>
      <trkpt lat="48.63939" lon="-2.42501">
        <ele>119</ele>
        <time>2016-02-21T13:55:36.1Z</time>
      </trkpt>
      <trkpt lat="48.63938" lon="-2.42497">
        <ele>119</ele>
        <time>2016-02-21T13:55:38.1Z</time>
      </trkpt>
      <trkpt lat="48.63937" lon="-2.42492">
        <ele>119</ele>
        <time>2016-02-21T13:55:41.1Z</time>
      </trkpt>
      <trkpt lat="48.63937" lon="-2.42489">
        <ele>119</ele>
        <time>2016-02-21T13:55:43.1Z</time>
      </trkpt>
      <trkpt lat="48.63936" lon="-2.42485">
        <ele>119</ele>
        <time>2016-02-21T13:55:46.1Z</time>
      </trkpt>
      <trkpt lat="48.63936" lon="-2.42482">
        <ele>119</ele>
        <time>2016-02-21T13:55:48.1Z</time>
      </trkpt>
      <trkpt lat="48.63935" lon="-2.42478">
        <ele>119</ele>
        <time>2016-02-21T13:55:51.1Z</time>
      </trkpt>
      <trkpt lat="48.63935" lon="-2.42476">
        <ele>119</ele>
        <time>2016-02-21T13:55:54.1Z</time>
      </trkpt>
      <trkpt lat="48.63935" lon="-2.42475">
        <ele>119</ele>
        <time>2016-02-21T13:55:57.1Z</time>
      </trkpt>
      <trkpt lat="48.63935" lon="-2.42475">
        <ele>119</ele>
        <time>2016-02-21T13:56:00.1Z</time>
      </trkpt>
      <trkpt lat="48.63935" lon="-2.42475">
        <ele>119</ele>
        <time>2016-02-21T13:56:02.1Z</time>
      </trkpt>
      <trkpt lat="48.63935" lon="-2.42474">
        <ele>119</ele>
        <time>2016-02-21T13:56:05.1Z</time>
      </trkpt>
      <trkpt lat="48.63935" lon="-2.42471">
        <ele>119</ele>
        <time>2016-02-21T13:56:07.1Z</time>
      </trkpt>
      <trkpt lat="48.63935" lon="-2.42464">
        <ele>118</ele>
        <time>2016-02-21T13:56:10.1Z</time>
      </trkpt>
      <trkpt lat="48.63935" lon="-2.42458">
        <ele>118</ele>
        <time>2016-02-21T13:56:13.1Z</time>
      </trkpt>
      <trkpt lat="48.63934" lon="-2.42454">
        <ele>118</ele>
        <time>2016-02-21T13:56:15.1Z</time>
      </trkpt>
      <trkpt lat="48.63934" lon="-2.42448">
        <ele>118</ele>
        <time>2016-02-21T13:56:18.1Z</time>
      </trkpt>
      <trkpt lat="48.63933" lon="-2.42444">
        <ele>118</ele>
        <time>2016-02-21T13:56:21.1Z</time>
      </trkpt>
      <trkpt lat="48.63932" lon="-2.4244">
        <ele>118</ele>
        <time>2016-02-21T13:56:23.1Z</time>
      </trkpt>
      <trkpt lat="48.63931" lon="-2.42438">
        <ele>119</ele>
        <time>2016-02-21T13:56:26.1Z</time>
      </trkpt>
      <trkpt lat="48.63932" lon="-2.42437">
        <ele>119</ele>
        <time>2016-02-21T13:56:28.1Z</time>
      </trkpt>
      <trkpt lat="48.63934" lon="-2.42435">
        <ele>119</ele>
        <time>2016-02-21T13:56:31.1Z</time>
      </trkpt>
      <trkpt lat="48.63934" lon="-2.42428">
        <ele>119</ele>
        <time>2016-02-21T13:56:34.1Z</time>
      </trkpt>
      <trkpt lat="48.63934" lon="-2.42424">
        <ele>119</ele>
        <time>2016-02-21T13:56:36.1Z</time>
      </trkpt>
      <trkpt lat="48.63934" lon="-2.4242">
        <ele>118</ele>
        <time>2016-02-21T13:56:38.1Z</time>
      </trkpt>
      <trkpt lat="48.63934" lon="-2.42416">
        <ele>118</ele>
        <time>2016-02-21T13:56:40.1Z</time>
      </trkpt>
      <trkpt lat="48.63934" lon="-2.42411">
        <ele>118</ele>
        <time>2016-02-21T13:56:43.1Z</time>
      </trkpt>
      <trkpt lat="48.63934" lon="-2.4241">
        <ele>118</ele>
        <time>2016-02-21T13:56:45.1Z</time>
      </trkpt>
      <trkpt lat="48.63934" lon="-2.4241">
        <ele>118</ele>
        <time>2016-02-21T13:56:48.1Z</time>
      </trkpt>
      <trkpt lat="48.63935" lon="-2.42409">
        <ele>118</ele>
        <time>2016-02-21T13:56:54.1Z</time>
      </trkpt>
      <trkpt lat="48.63935" lon="-2.42408">
        <ele>118</ele>
        <time>2016-02-21T13:56:57.1Z</time>
      </trkpt>
      <trkpt lat="48.63935" lon="-2.42408">
        <ele>118</ele>
        <time>2016-02-21T13:57:00.1Z</time>
      </trkpt>
      <trkpt lat="48.63935" lon="-2.42408">
        <ele>118</ele>
        <time>2016-02-21T13:57:02.1Z</time>
      </trkpt>
      <trkpt lat="48.63935" lon="-2.42408">
        <ele>118</ele>
        <time>2016-02-21T13:57:05.1Z</time>
      </trkpt>
      <trkpt lat="48.63935" lon="-2.42408">
        <ele>118</ele>
        <time>2016-02-21T13:57:07.1Z</time>
      </trkpt>
      <trkpt lat="48.63935" lon="-2.42406">
        <ele>118</ele>
        <time>2016-02-21T13:57:10.1Z</time>
      </trkpt>
      <trkpt lat="48.63934" lon="-2.42402">
        <ele>117</ele>
        <time>2016-02-21T13:57:13.1Z</time>
      </trkpt>
      <trkpt lat="48.63934" lon="-2.42398">
        <ele>117</ele>
        <time>2016-02-21T13:57:15.1Z</time>
      </trkpt>
      <trkpt lat="48.63934" lon="-2.42391">
        <ele>117</ele>
        <time>2016-02-21T13:57:18.1Z</time>
      </trkpt>
      <trkpt lat="48.63934" lon="-2.42387">
        <ele>117</ele>
        <time>2016-02-21T13:57:20.1Z</time>
      </trkpt>
      <trkpt lat="48.63935" lon="-2.4238">
        <ele>117</ele>
        <time>2016-02-21T13:57:23.1Z</time>
      </trkpt>
      <trkpt lat="48.63934" lon="-2.42377">
        <ele>117</ele>
        <time>2016-02-21T13:57:25.1Z</time>
      </trkpt>
      <trkpt lat="48.63934" lon="-2.42371">
        <ele>117</ele>
        <time>2016-02-21T13:57:28.1Z</time>
      </trkpt>
      <trkpt lat="48.63934" lon="-2.42366">
        <ele>118</ele>
        <time>2016-02-21T13:57:31.1Z</time>
      </trkpt>
      <trkpt lat="48.63934" lon="-2.42362">
        <ele>118</ele>
        <time>2016-02-21T13:57:33.1Z</time>
      </trkpt>
      <trkpt lat="48.63936" lon="-2.42357">
        <ele>119</ele>
        <time>2016-02-21T13:57:36.1Z</time>
      </trkpt>
      <trkpt lat="48.63937" lon="-2.42354">
        <ele>119</ele>
        <time>2016-02-21T13:57:38.1Z</time>
      </trkpt>
      <trkpt lat="48.63937" lon="-2.42349">
        <ele>119</ele>
        <time>2016-02-21T13:57:41.1Z</time>
      </trkpt>
      <trkpt lat="48.63937" lon="-2.42348">
        <ele>119</ele>
        <time>2016-02-21T13:57:45.1Z</time>
      </trkpt>
      <trkpt lat="48.63937" lon="-2.42348">
        <ele>119</ele>
        <time>2016-02-21T13:57:47.1Z</time>
      </trkpt>
      <trkpt lat="48.63938" lon="-2.42346">
        <ele>119</ele>
        <time>2016-02-21T13:57:50.1Z</time>
      </trkpt>
      <trkpt lat="48.63939" lon="-2.42343">
        <ele>119</ele>
        <time>2016-02-21T13:57:52.1Z</time>
      </trkpt>
      <trkpt lat="48.63939" lon="-2.42339">
        <ele>119</ele>
        <time>2016-02-21T13:57:55.1Z</time>
      </trkpt>
      <trkpt lat="48.63938" lon="-2.42336">
        <ele>119</ele>
        <time>2016-02-21T13:57:57.1Z</time>
      </trkpt>
      <trkpt lat="48.63938" lon="-2.42334">
        <ele>119</ele>
        <time>2016-02-21T13:58:00.1Z</time>
      </trkpt>
      <trkpt lat="48.63938" lon="-2.42333">
        <ele>119</ele>
        <time>2016-02-21T13:58:02.1Z</time>
      </trkpt>
      <trkpt lat="48.63938" lon="-2.42329">
        <ele>118</ele>
        <time>2016-02-21T13:58:05.1Z</time>
      </trkpt>
      <trkpt lat="48.63937" lon="-2.42324">
        <ele>118</ele>
        <time>2016-02-21T13:58:07.1Z</time>
      </trkpt>
      <trkpt lat="48.63933" lon="-2.42315">
        <ele>119</ele>
        <time>2016-02-21T13:58:10.1Z</time>
      </trkpt>
      <trkpt lat="48.63931" lon="-2.42309">
        <ele>119</ele>
        <time>2016-02-21T13:58:13.1Z</time>
      </trkpt>
      <trkpt lat="48.6393" lon="-2.42308">
        <ele>119</ele>
        <time>2016-02-21T13:58:15.1Z</time>
      </trkpt>
      <trkpt lat="48.63929" lon="-2.42303">
        <ele>119</ele>
        <time>2016-02-21T13:58:18.1Z</time>
      </trkpt>
      <trkpt lat="48.63927" lon="-2.423">
        <ele>119</ele>
        <time>2016-02-21T13:58:20.1Z</time>
      </trkpt>
      <trkpt lat="48.63926" lon="-2.42299">
        <ele>119</ele>
        <time>2016-02-21T13:58:23.1Z</time>
      </trkpt>
      <trkpt lat="48.63925" lon="-2.42297">
        <ele>119</ele>
        <time>2016-02-21T13:58:25.1Z</time>
      </trkpt>
      <trkpt lat="48.63924" lon="-2.42296">
        <ele>119</ele>
        <time>2016-02-21T13:58:28.1Z</time>
      </trkpt>
      <trkpt lat="48.63922" lon="-2.42291">
        <ele>119</ele>
        <time>2016-02-21T13:58:31.1Z</time>
      </trkpt>
      <trkpt lat="48.63921" lon="-2.42287">
        <ele>119</ele>
        <time>2016-02-21T13:58:33.1Z</time>
      </trkpt>
      <trkpt lat="48.63919" lon="-2.42282">
        <ele>120</ele>
        <time>2016-02-21T13:58:36.1Z</time>
      </trkpt>
      <trkpt lat="48.63918" lon="-2.42279">
        <ele>120</ele>
        <time>2016-02-21T13:58:38.1Z</time>
      </trkpt>
      <trkpt lat="48.63916" lon="-2.42273">
        <ele>119</ele>
        <time>2016-02-21T13:58:41.1Z</time>
      </trkpt>
      <trkpt lat="48.63914" lon="-2.4227">
        <ele>120</ele>
        <time>2016-02-21T13:58:43.1Z</time>
      </trkpt>
      <trkpt lat="48.63911" lon="-2.42265">
        <ele>119</ele>
        <time>2016-02-21T13:58:46.1Z</time>
      </trkpt>
      <trkpt lat="48.63911" lon="-2.42262">
        <ele>119</ele>
        <time>2016-02-21T13:58:48.1Z</time>
      </trkpt>
      <trkpt lat="48.63909" lon="-2.42256">
        <ele>119</ele>
        <time>2016-02-21T13:58:51.1Z</time>
      </trkpt>
      <trkpt lat="48.63907" lon="-2.42252">
        <ele>120</ele>
        <time>2016-02-21T13:58:54.1Z</time>
      </trkpt>
      <trkpt lat="48.63905" lon="-2.42249">
        <ele>120</ele>
        <time>2016-02-21T13:58:57.1Z</time>
      </trkpt>
      <trkpt lat="48.63901" lon="-2.42246">
        <ele>120</ele>
        <time>2016-02-21T13:59:00.1Z</time>
      </trkpt>
      <trkpt lat="48.63899" lon="-2.42243">
        <ele>121</ele>
        <time>2016-02-21T13:59:03.1Z</time>
      </trkpt>
      <trkpt lat="48.63899" lon="-2.42243">
        <ele>121</ele>
        <time>2016-02-21T13:59:06.1Z</time>
      </trkpt>
      <trkpt lat="48.639" lon="-2.42238">
        <ele>121</ele>
        <time>2016-02-21T13:59:09.1Z</time>
      </trkpt>
      <trkpt lat="48.63898" lon="-2.42235">
        <ele>121</ele>
        <time>2016-02-21T13:59:11.1Z</time>
      </trkpt>
      <trkpt lat="48.63897" lon="-2.42235">
        <ele>121</ele>
        <time>2016-02-21T13:59:14.1Z</time>
      </trkpt>
      <trkpt lat="48.63896" lon="-2.42233">
        <ele>121</ele>
        <time>2016-02-21T13:59:16.1Z</time>
      </trkpt>
      <trkpt lat="48.63897" lon="-2.42229">
        <ele>121</ele>
        <time>2016-02-21T13:59:19.1Z</time>
      </trkpt>
      <trkpt lat="48.63897" lon="-2.42226">
        <ele>121</ele>
        <time>2016-02-21T13:59:22.1Z</time>
      </trkpt>
      <trkpt lat="48.63898" lon="-2.42224">
        <ele>121</ele>
        <time>2016-02-21T13:59:25.1Z</time>
      </trkpt>
      <trkpt lat="48.63898" lon="-2.42224">
        <ele>121</ele>
        <time>2016-02-21T13:59:27.1Z</time>
      </trkpt>
      <trkpt lat="48.63898" lon="-2.42221">
        <ele>121</ele>
        <time>2016-02-21T13:59:30.1Z</time>
      </trkpt>
      <trkpt lat="48.63895" lon="-2.4222">
        <ele>121</ele>
        <time>2016-02-21T13:59:33.1Z</time>
      </trkpt>
      <trkpt lat="48.63892" lon="-2.4222">
        <ele>121</ele>
        <time>2016-02-21T13:59:35.1Z</time>
      </trkpt>
      <trkpt lat="48.63888" lon="-2.42219">
        <ele>120</ele>
        <time>2016-02-21T13:59:38.1Z</time>
      </trkpt>
      <trkpt lat="48.63884" lon="-2.42218">
        <ele>120</ele>
        <time>2016-02-21T13:59:40.1Z</time>
      </trkpt>
      <trkpt lat="48.6388" lon="-2.42214">
        <ele>120</ele>
        <time>2016-02-21T13:59:42.1Z</time>
      </trkpt>
      <trkpt lat="48.63874" lon="-2.42211">
        <ele>120</ele>
        <time>2016-02-21T13:59:45.1Z</time>
      </trkpt>
      <trkpt lat="48.63872" lon="-2.42212">
        <ele>121</ele>
        <time>2016-02-21T13:59:48.1Z</time>
      </trkpt>
      <trkpt lat="48.6387" lon="-2.42212">
        <ele>121</ele>
        <time>2016-02-21T13:59:50.1Z</time>
      </trkpt>
      <trkpt lat="48.63869" lon="-2.42212">
        <ele>121</ele>
        <time>2016-02-21T13:59:52.1Z</time>
      </trkpt>
      <trkpt lat="48.6387" lon="-2.42213">
        <ele>121</ele>
        <time>2016-02-21T13:59:55.1Z</time>
      </trkpt>
      <trkpt lat="48.63872" lon="-2.42212">
        <ele>121</ele>
        <time>2016-02-21T13:59:57.1Z</time>
      </trkpt>
      <trkpt lat="48.63875" lon="-2.42211">
        <ele>121</ele>
        <time>2016-02-21T14:00:00.1Z</time>
      </trkpt>
      <trkpt lat="48.63876" lon="-2.42208">
        <ele>121</ele>
        <time>2016-02-21T14:00:02.1Z</time>
      </trkpt>
      <trkpt lat="48.63876" lon="-2.42205">
        <ele>120</ele>
        <time>2016-02-21T14:00:05.1Z</time>
      </trkpt>
      <trkpt lat="48.63874" lon="-2.42202">
        <ele>120</ele>
        <time>2016-02-21T14:00:08.1Z</time>
      </trkpt>
      <trkpt lat="48.63872" lon="-2.42201">
        <ele>121</ele>
        <time>2016-02-21T14:00:11.1Z</time>
      </trkpt>
      <trkpt lat="48.63869" lon="-2.42199">
        <ele>120</ele>
        <time>2016-02-21T14:00:14.1Z</time>
      </trkpt>
      <trkpt lat="48.63866" lon="-2.42197">
        <ele>120</ele>
        <time>2016-02-21T14:00:17.1Z</time>
      </trkpt>
      <trkpt lat="48.63863" lon="-2.42196">
        <ele>119</ele>
        <time>2016-02-21T14:00:19.1Z</time>
      </trkpt>
      <trkpt lat="48.63861" lon="-2.42194">
        <ele>120</ele>
        <time>2016-02-21T14:00:22.1Z</time>
      </trkpt>
      <trkpt lat="48.63858" lon="-2.42192">
        <ele>120</ele>
        <time>2016-02-21T14:00:25.1Z</time>
      </trkpt>
      <trkpt lat="48.63856" lon="-2.4219">
        <ele>120</ele>
        <time>2016-02-21T14:00:27.1Z</time>
      </trkpt>
      <trkpt lat="48.63853" lon="-2.42187">
        <ele>120</ele>
        <time>2016-02-21T14:00:30.1Z</time>
      </trkpt>
      <trkpt lat="48.63851" lon="-2.42185">
        <ele>120</ele>
        <time>2016-02-21T14:00:32.1Z</time>
      </trkpt>
      <trkpt lat="48.63849" lon="-2.42184">
        <ele>120</ele>
        <time>2016-02-21T14:00:34.1Z</time>
      </trkpt>
      <trkpt lat="48.63847" lon="-2.42183">
        <ele>120</ele>
        <time>2016-02-21T14:00:37.1Z</time>
      </trkpt>
      <trkpt lat="48.63844" lon="-2.4218">
        <ele>120</ele>
        <time>2016-02-21T14:00:40.1Z</time>
      </trkpt>
      <trkpt lat="48.63843" lon="-2.4218">
        <ele>120</ele>
        <time>2016-02-21T14:00:42.1Z</time>
      </trkpt>
      <trkpt lat="48.6384" lon="-2.42178">
        <ele>120</ele>
        <time>2016-02-21T14:00:45.1Z</time>
      </trkpt>
      <trkpt lat="48.63837" lon="-2.42176">
        <ele>120</ele>
        <time>2016-02-21T14:00:48.1Z</time>
      </trkpt>
      <trkpt lat="48.63833" lon="-2.42176">
        <ele>120</ele>
        <time>2016-02-21T14:00:51.1Z</time>
      </trkpt>
      <trkpt lat="48.6383" lon="-2.42175">
        <ele>120</ele>
        <time>2016-02-21T14:00:54.1Z</time>
      </trkpt>
      <trkpt lat="48.63826" lon="-2.42173">
        <ele>120</ele>
        <time>2016-02-21T14:00:57.1Z</time>
      </trkpt>
      <trkpt lat="48.63824" lon="-2.42172">
        <ele>119</ele>
        <time>2016-02-21T14:00:59.1Z</time>
      </trkpt>
      <trkpt lat="48.63821" lon="-2.4217">
        <ele>119</ele>
        <time>2016-02-21T14:01:02.1Z</time>
      </trkpt>
      <trkpt lat="48.63819" lon="-2.42171">
        <ele>119</ele>
        <time>2016-02-21T14:01:05.1Z</time>
      </trkpt>
      <trkpt lat="48.63817" lon="-2.4217">
        <ele>119</ele>
        <time>2016-02-21T14:01:07.1Z</time>
      </trkpt>
      <trkpt lat="48.63814" lon="-2.42169">
        <ele>119</ele>
        <time>2016-02-21T14:01:10.1Z</time>
      </trkpt>
      <trkpt lat="48.63811" lon="-2.42169">
        <ele>119</ele>
        <time>2016-02-21T14:01:12.1Z</time>
      </trkpt>
      <trkpt lat="48.63808" lon="-2.42169">
        <ele>119</ele>
        <time>2016-02-21T14:01:15.1Z</time>
      </trkpt>
      <trkpt lat="48.63805" lon="-2.42169">
        <ele>119</ele>
        <time>2016-02-21T14:01:18.1Z</time>
      </trkpt>
      <trkpt lat="48.63802" lon="-2.42168">
        <ele>119</ele>
        <time>2016-02-21T14:01:21.1Z</time>
      </trkpt>
      <trkpt lat="48.63799" lon="-2.42169">
        <ele>120</ele>
        <time>2016-02-21T14:01:24.1Z</time>
      </trkpt>
      <trkpt lat="48.63796" lon="-2.42169">
        <ele>120</ele>
        <time>2016-02-21T14:01:27.1Z</time>
      </trkpt>
      <trkpt lat="48.63793" lon="-2.4217">
        <ele>120</ele>
        <time>2016-02-21T14:01:30.1Z</time>
      </trkpt>
      <trkpt lat="48.6379" lon="-2.42171">
        <ele>120</ele>
        <time>2016-02-21T14:01:33.1Z</time>
      </trkpt>
      <trkpt lat="48.63788" lon="-2.42172">
        <ele>119</ele>
        <time>2016-02-21T14:01:35.1Z</time>
      </trkpt>
      <trkpt lat="48.63785" lon="-2.42173">
        <ele>119</ele>
        <time>2016-02-21T14:01:38.1Z</time>
      </trkpt>
      <trkpt lat="48.63782" lon="-2.42174">
        <ele>119</ele>
        <time>2016-02-21T14:01:41.1Z</time>
      </trkpt>
      <trkpt lat="48.63779" lon="-2.42175">
        <ele>120</ele>
        <time>2016-02-21T14:01:44.1Z</time>
      </trkpt>
      <trkpt lat="48.63776" lon="-2.42176">
        <ele>120</ele>
        <time>2016-02-21T14:01:46.1Z</time>
      </trkpt>
      <trkpt lat="48.63773" lon="-2.42176">
        <ele>120</ele>
        <time>2016-02-21T14:01:49.1Z</time>
      </trkpt>
      <trkpt lat="48.6377" lon="-2.42176">
        <ele>120</ele>
        <time>2016-02-21T14:01:51.1Z</time>
      </trkpt>
      <trkpt lat="48.63767" lon="-2.42177">
        <ele>120</ele>
        <time>2016-02-21T14:01:54.1Z</time>
      </trkpt>
      <trkpt lat="48.63764" lon="-2.42178">
        <ele>120</ele>
        <time>2016-02-21T14:01:57.1Z</time>
      </trkpt>
      <trkpt lat="48.63762" lon="-2.42178">
        <ele>120</ele>
        <time>2016-02-21T14:01:59.1Z</time>
      </trkpt>
      <trkpt lat="48.63759" lon="-2.42179">
        <ele>120</ele>
        <time>2016-02-21T14:02:02.1Z</time>
      </trkpt>
      <trkpt lat="48.63757" lon="-2.4218">
        <ele>120</ele>
        <time>2016-02-21T14:02:04.1Z</time>
      </trkpt>
      <trkpt lat="48.63754" lon="-2.42181">
        <ele>120</ele>
        <time>2016-02-21T14:02:07.1Z</time>
      </trkpt>
      <trkpt lat="48.63752" lon="-2.42182">
        <ele>120</ele>
        <time>2016-02-21T14:02:09.1Z</time>
      </trkpt>
      <trkpt lat="48.63749" lon="-2.42184">
        <ele>120</ele>
        <time>2016-02-21T14:02:12.1Z</time>
      </trkpt>
      <trkpt lat="48.63746" lon="-2.42184">
        <ele>120</ele>
        <time>2016-02-21T14:02:15.1Z</time>
      </trkpt>
      <trkpt lat="48.63745" lon="-2.42184">
        <ele>120</ele>
        <time>2016-02-21T14:02:17.1Z</time>
      </trkpt>
      <trkpt lat="48.63744" lon="-2.42184">
        <ele>120</ele>
        <time>2016-02-21T14:02:20.1Z</time>
      </trkpt>
      <trkpt lat="48.63742" lon="-2.42185">
        <ele>120</ele>
        <time>2016-02-21T14:02:23.1Z</time>
      </trkpt>
      <trkpt lat="48.6374" lon="-2.42185">
        <ele>119</ele>
        <time>2016-02-21T14:02:25.1Z</time>
      </trkpt>
      <trkpt lat="48.63738" lon="-2.42182">
        <ele>119</ele>
        <time>2016-02-21T14:02:28.1Z</time>
      </trkpt>
      <trkpt lat="48.63736" lon="-2.42181">
        <ele>119</ele>
        <time>2016-02-21T14:02:31.1Z</time>
      </trkpt>
      <trkpt lat="48.63735" lon="-2.42182">
        <ele>119</ele>
        <time>2016-02-21T14:02:33.1Z</time>
      </trkpt>
      <trkpt lat="48.63734" lon="-2.42181">
        <ele>119</ele>
        <time>2016-02-21T14:02:35.1Z</time>
      </trkpt>
      <trkpt lat="48.63734" lon="-2.42178">
        <ele>119</ele>
        <time>2016-02-21T14:02:38.1Z</time>
      </trkpt>
      <trkpt lat="48.63734" lon="-2.42175">
        <ele>118</ele>
        <time>2016-02-21T14:02:41.1Z</time>
      </trkpt>
      <trkpt lat="48.63735" lon="-2.42173">
        <ele>118</ele>
        <time>2016-02-21T14:02:44.1Z</time>
      </trkpt>
      <trkpt lat="48.63735" lon="-2.42171">
        <ele>118</ele>
        <time>2016-02-21T14:02:46.1Z</time>
      </trkpt>
      <trkpt lat="48.63736" lon="-2.42169">
        <ele>118</ele>
        <time>2016-02-21T14:02:49.1Z</time>
      </trkpt>
      <trkpt lat="48.63737" lon="-2.42166">
        <ele>117</ele>
        <time>2016-02-21T14:02:52.1Z</time>
      </trkpt>
      <trkpt lat="48.63738" lon="-2.42164">
        <ele>116</ele>
        <time>2016-02-21T14:02:54.1Z</time>
      </trkpt>
      <trkpt lat="48.63739" lon="-2.42162">
        <ele>116</ele>
        <time>2016-02-21T14:02:56.1Z</time>
      </trkpt>
      <trkpt lat="48.63739" lon="-2.4216">
        <ele>115</ele>
        <time>2016-02-21T14:02:59.1Z</time>
      </trkpt>
      <trkpt lat="48.63741" lon="-2.42158">
        <ele>115</ele>
        <time>2016-02-21T14:03:01.1Z</time>
      </trkpt>
      <trkpt lat="48.63743" lon="-2.42156">
        <ele>114</ele>
        <time>2016-02-21T14:03:04.1Z</time>
      </trkpt>
      <trkpt lat="48.63744" lon="-2.42154">
        <ele>113</ele>
        <time>2016-02-21T14:03:06.1Z</time>
      </trkpt>
      <trkpt lat="48.63745" lon="-2.42152">
        <ele>113</ele>
        <time>2016-02-21T14:03:09.1Z</time>
      </trkpt>
      <trkpt lat="48.63745" lon="-2.42151">
        <ele>113</ele>
        <time>2016-02-21T14:03:12.1Z</time>
      </trkpt>
      <trkpt lat="48.63745" lon="-2.42151">
        <ele>113</ele>
        <time>2016-02-21T14:03:15.1Z</time>
      </trkpt>
      <trkpt lat="48.63747" lon="-2.42149">
        <ele>112</ele>
        <time>2016-02-21T14:03:18.1Z</time>
      </trkpt>
      <trkpt lat="48.6375" lon="-2.42145">
        <ele>112</ele>
        <time>2016-02-21T14:03:21.1Z</time>
      </trkpt>
      <trkpt lat="48.63753" lon="-2.42142">
        <ele>111</ele>
        <time>2016-02-21T14:03:24.1Z</time>
      </trkpt>
      <trkpt lat="48.63756" lon="-2.42139">
        <ele>111</ele>
        <time>2016-02-21T14:03:27.1Z</time>
      </trkpt>
      <trkpt lat="48.63758" lon="-2.42137">
        <ele>111</ele>
        <time>2016-02-21T14:03:29.1Z</time>
      </trkpt>
      <trkpt lat="48.6376" lon="-2.42133">
        <ele>110</ele>
        <time>2016-02-21T14:03:32.1Z</time>
      </trkpt>
      <trkpt lat="48.63763" lon="-2.4213">
        <ele>110</ele>
        <time>2016-02-21T14:03:35.1Z</time>
      </trkpt>
      <trkpt lat="48.63765" lon="-2.42126">
        <ele>110</ele>
        <time>2016-02-21T14:03:38.1Z</time>
      </trkpt>
      <trkpt lat="48.63766" lon="-2.42123">
        <ele>109</ele>
        <time>2016-02-21T14:03:41.1Z</time>
      </trkpt>
      <trkpt lat="48.63767" lon="-2.42121">
        <ele>109</ele>
        <time>2016-02-21T14:03:43.1Z</time>
      </trkpt>
      <trkpt lat="48.63768" lon="-2.42118">
        <ele>109</ele>
        <time>2016-02-21T14:03:46.1Z</time>
      </trkpt>
      <trkpt lat="48.6377" lon="-2.42116">
        <ele>108</ele>
        <time>2016-02-21T14:03:49.1Z</time>
      </trkpt>
      <trkpt lat="48.63771" lon="-2.42115">
        <ele>108</ele>
        <time>2016-02-21T14:03:52.1Z</time>
      </trkpt>
      <trkpt lat="48.63771" lon="-2.42114">
        <ele>108</ele>
        <time>2016-02-21T14:03:54.1Z</time>
      </trkpt>
      <trkpt lat="48.63772" lon="-2.42113">
        <ele>108</ele>
        <time>2016-02-21T14:03:57.1Z</time>
      </trkpt>
      <trkpt lat="48.63772" lon="-2.42112">
        <ele>108</ele>
        <time>2016-02-21T14:03:59.1Z</time>
      </trkpt>
      <trkpt lat="48.63773" lon="-2.42111">
        <ele>108</ele>
        <time>2016-02-21T14:04:02.1Z</time>
      </trkpt>
      <trkpt lat="48.63773" lon="-2.42109">
        <ele>108</ele>
        <time>2016-02-21T14:04:04.1Z</time>
      </trkpt>
      <trkpt lat="48.63774" lon="-2.42107">
        <ele>108</ele>
        <time>2016-02-21T14:04:07.1Z</time>
      </trkpt>
      <trkpt lat="48.63775" lon="-2.42105">
        <ele>108</ele>
        <time>2016-02-21T14:04:09.1Z</time>
      </trkpt>
      <trkpt lat="48.63775" lon="-2.42105">
        <ele>108</ele>
        <time>2016-02-21T14:04:12.1Z</time>
      </trkpt>
      <trkpt lat="48.63775" lon="-2.42105">
        <ele>108</ele>
        <time>2016-02-21T14:04:15.1Z</time>
      </trkpt>
      <trkpt lat="48.63776" lon="-2.42104">
        <ele>108</ele>
        <time>2016-02-21T14:04:17.1Z</time>
      </trkpt>
      <trkpt lat="48.63776" lon="-2.42104">
        <ele>108</ele>
        <time>2016-02-21T14:04:20.1Z</time>
      </trkpt>
      <trkpt lat="48.63776" lon="-2.42103">
        <ele>108</ele>
        <time>2016-02-21T14:04:22.1Z</time>
      </trkpt>
      <trkpt lat="48.63777" lon="-2.42102">
        <ele>108</ele>
        <time>2016-02-21T14:04:26.1Z</time>
      </trkpt>
      <trkpt lat="48.63776" lon="-2.42102">
        <ele>108</ele>
        <time>2016-02-21T14:04:29.1Z</time>
      </trkpt>
      <trkpt lat="48.63776" lon="-2.42101">
        <ele>108</ele>
        <time>2016-02-21T14:04:32.1Z</time>
      </trkpt>
      <trkpt lat="48.63776" lon="-2.421">
        <ele>108</ele>
        <time>2016-02-21T14:04:35.1Z</time>
      </trkpt>
      <trkpt lat="48.63775" lon="-2.42099">
        <ele>108</ele>
        <time>2016-02-21T14:04:37.1Z</time>
      </trkpt>
      <trkpt lat="48.63775" lon="-2.42098">
        <ele>109</ele>
        <time>2016-02-21T14:04:40.1Z</time>
      </trkpt>
      <trkpt lat="48.63775" lon="-2.42096">
        <ele>110</ele>
        <time>2016-02-21T14:04:43.1Z</time>
      </trkpt>
      <trkpt lat="48.63775" lon="-2.42095">
        <ele>110</ele>
        <time>2016-02-21T14:04:45.1Z</time>
      </trkpt>
      <trkpt lat="48.63774" lon="-2.42095">
        <ele>111</ele>
        <time>2016-02-21T14:04:48.1Z</time>
      </trkpt>
      <trkpt lat="48.63774" lon="-2.42092">
        <ele>111</ele>
        <time>2016-02-21T14:04:51.1Z</time>
      </trkpt>
      <trkpt lat="48.63774" lon="-2.4209">
        <ele>111</ele>
        <time>2016-02-21T14:04:53.1Z</time>
      </trkpt>
      <trkpt lat="48.63774" lon="-2.42087">
        <ele>112</ele>
        <time>2016-02-21T14:04:56.1Z</time>
      </trkpt>
      <trkpt lat="48.63774" lon="-2.42085">
        <ele>112</ele>
        <time>2016-02-21T14:04:58.1Z</time>
      </trkpt>
      <trkpt lat="48.63775" lon="-2.42083">
        <ele>113</ele>
        <time>2016-02-21T14:05:02.1Z</time>
      </trkpt>
      <trkpt lat="48.63775" lon="-2.42082">
        <ele>113</ele>
        <time>2016-02-21T14:05:05.1Z</time>
      </trkpt>
      <trkpt lat="48.63776" lon="-2.4208">
        <ele>113</ele>
        <time>2016-02-21T14:05:07.1Z</time>
      </trkpt>
      <trkpt lat="48.63777" lon="-2.42075">
        <ele>113</ele>
        <time>2016-02-21T14:05:10.1Z</time>
      </trkpt>
      <trkpt lat="48.63778" lon="-2.42071">
        <ele>112</ele>
        <time>2016-02-21T14:05:13.1Z</time>
      </trkpt>
      <trkpt lat="48.63777" lon="-2.4207">
        <ele>112</ele>
        <time>2016-02-21T14:05:15.1Z</time>
      </trkpt>
      <trkpt lat="48.63777" lon="-2.42069">
        <ele>112</ele>
        <time>2016-02-21T14:05:18.1Z</time>
      </trkpt>
      <trkpt lat="48.63777" lon="-2.42068">
        <ele>112</ele>
        <time>2016-02-21T14:05:20.1Z</time>
      </trkpt>
      <trkpt lat="48.63777" lon="-2.42065">
        <ele>111</ele>
        <time>2016-02-21T14:05:23.1Z</time>
      </trkpt>
      <trkpt lat="48.63777" lon="-2.42064">
        <ele>111</ele>
        <time>2016-02-21T14:05:25.1Z</time>
      </trkpt>
      <trkpt lat="48.63777" lon="-2.42062">
        <ele>112</ele>
        <time>2016-02-21T14:05:28.1Z</time>
      </trkpt>
      <trkpt lat="48.63777" lon="-2.42061">
        <ele>112</ele>
        <time>2016-02-21T14:05:30.1Z</time>
      </trkpt>
      <trkpt lat="48.63777" lon="-2.42059">
        <ele>112</ele>
        <time>2016-02-21T14:05:32.1Z</time>
      </trkpt>
      <trkpt lat="48.63779" lon="-2.42057">
        <ele>112</ele>
        <time>2016-02-21T14:05:35.1Z</time>
      </trkpt>
      <trkpt lat="48.63779" lon="-2.42056">
        <ele>112</ele>
        <time>2016-02-21T14:05:37.1Z</time>
      </trkpt>
      <trkpt lat="48.63779" lon="-2.42057">
        <ele>111</ele>
        <time>2016-02-21T14:05:39.1Z</time>
      </trkpt>
      <trkpt lat="48.63779" lon="-2.42058">
        <ele>111</ele>
        <time>2016-02-21T14:05:42.1Z</time>
      </trkpt>
      <trkpt lat="48.63778" lon="-2.42057">
        <ele>111</ele>
        <time>2016-02-21T14:05:45.1Z</time>
      </trkpt>
      <trkpt lat="48.63777" lon="-2.42059">
        <ele>112</ele>
        <time>2016-02-21T14:05:47.1Z</time>
      </trkpt>
      <trkpt lat="48.63777" lon="-2.4206">
        <ele>112</ele>
        <time>2016-02-21T14:05:50.1Z</time>
      </trkpt>
      <trkpt lat="48.63777" lon="-2.42062">
        <ele>112</ele>
        <time>2016-02-21T14:05:52.1Z</time>
      </trkpt>
      <trkpt lat="48.63778" lon="-2.42064">
        <ele>112</ele>
        <time>2016-02-21T14:05:55.1Z</time>
      </trkpt>
      <trkpt lat="48.63779" lon="-2.42062">
        <ele>112</ele>
        <time>2016-02-21T14:05:58.1Z</time>
      </trkpt>
      <trkpt lat="48.63779" lon="-2.42061">
        <ele>112</ele>
        <time>2016-02-21T14:06:00.1Z</time>
      </trkpt>
      <trkpt lat="48.6378" lon="-2.42061">
        <ele>111</ele>
        <time>2016-02-21T14:06:03.1Z</time>
      </trkpt>
      <trkpt lat="48.6378" lon="-2.42061">
        <ele>110</ele>
        <time>2016-02-21T14:06:07.1Z</time>
      </trkpt>
      <trkpt lat="48.63781" lon="-2.4206">
        <ele>110</ele>
        <time>2016-02-21T14:06:10.1Z</time>
      </trkpt>
      <trkpt lat="48.63781" lon="-2.4206">
        <ele>110</ele>
        <time>2016-02-21T14:06:14.1Z</time>
      </trkpt>
      <trkpt lat="48.63781" lon="-2.4206">
        <ele>110</ele>
        <time>2016-02-21T14:06:16.1Z</time>
      </trkpt>
      <trkpt lat="48.63781" lon="-2.42059">
        <ele>110</ele>
        <time>2016-02-21T14:06:18.1Z</time>
      </trkpt>
      <trkpt lat="48.63781" lon="-2.42058">
        <ele>110</ele>
        <time>2016-02-21T14:06:20.1Z</time>
      </trkpt>
      <trkpt lat="48.63781" lon="-2.42058">
        <ele>110</ele>
        <time>2016-02-21T14:06:24.1Z</time>
      </trkpt>
      <trkpt lat="48.63781" lon="-2.42058">
        <ele>110</ele>
        <time>2016-02-21T14:06:26.1Z</time>
      </trkpt>
      <trkpt lat="48.63781" lon="-2.42058">
        <ele>109</ele>
        <time>2016-02-21T14:06:29.1Z</time>
      </trkpt>
      <trkpt lat="48.63781" lon="-2.42058">
        <ele>109</ele>
        <time>2016-02-21T14:06:31.1Z</time>
      </trkpt>
      <trkpt lat="48.63781" lon="-2.42058">
        <ele>109</ele>
        <time>2016-02-21T14:06:35.1Z</time>
      </trkpt>
      <trkpt lat="48.63782" lon="-2.42058">
        <ele>109</ele>
        <time>2016-02-21T14:06:39.1Z</time>
      </trkpt>
      <trkpt lat="48.63782" lon="-2.42057">
        <ele>109</ele>
        <time>2016-02-21T14:06:42.1Z</time>
      </trkpt>
      <trkpt lat="48.63782" lon="-2.42057">
        <ele>109</ele>
        <time>2016-02-21T14:06:44.1Z</time>
      </trkpt>
      <trkpt lat="48.63783" lon="-2.42057">
        <ele>109</ele>
        <time>2016-02-21T14:06:49.1Z</time>
      </trkpt>
      <trkpt lat="48.63783" lon="-2.42057">
        <ele>109</ele>
        <time>2016-02-21T14:06:52.1Z</time>
      </trkpt>
      <trkpt lat="48.63784" lon="-2.42057">
        <ele>108</ele>
        <time>2016-02-21T14:06:55.1Z</time>
      </trkpt>
      <trkpt lat="48.63784" lon="-2.42056">
        <ele>108</ele>
        <time>2016-02-21T14:06:57.1Z</time>
      </trkpt>
      <trkpt lat="48.63784" lon="-2.42056">
        <ele>108</ele>
        <time>2016-02-21T14:07:00.1Z</time>
      </trkpt>
      <trkpt lat="48.63785" lon="-2.42056">
        <ele>108</ele>
        <time>2016-02-21T14:07:02.1Z</time>
      </trkpt>
      <trkpt lat="48.63786" lon="-2.42056">
        <ele>107</ele>
        <time>2016-02-21T14:07:05.1Z</time>
      </trkpt>
      <trkpt lat="48.63786" lon="-2.42056">
        <ele>107</ele>
        <time>2016-02-21T14:07:08.1Z</time>
      </trkpt>
      <trkpt lat="48.63788" lon="-2.42055">
        <ele>106</ele>
        <time>2016-02-21T14:07:11.1Z</time>
      </trkpt>
      <trkpt lat="48.63788" lon="-2.42054">
        <ele>106</ele>
        <time>2016-02-21T14:07:14.1Z</time>
      </trkpt>
      <trkpt lat="48.6379" lon="-2.42055">
        <ele>106</ele>
        <time>2016-02-21T14:07:17.1Z</time>
      </trkpt>
      <trkpt lat="48.63791" lon="-2.42054">
        <ele>105</ele>
        <time>2016-02-21T14:07:20.1Z</time>
      </trkpt>
      <trkpt lat="48.63791" lon="-2.42054">
        <ele>105</ele>
        <time>2016-02-21T14:07:22.1Z</time>
      </trkpt>
      <trkpt lat="48.63792" lon="-2.42053">
        <ele>104</ele>
        <time>2016-02-21T14:07:25.1Z</time>
      </trkpt>
      <trkpt lat="48.63792" lon="-2.42052">
        <ele>104</ele>
        <time>2016-02-21T14:07:27.1Z</time>
      </trkpt>
      <trkpt lat="48.63792" lon="-2.4205">
        <ele>104</ele>
        <time>2016-02-21T14:07:30.1Z</time>
      </trkpt>
      <trkpt lat="48.63792" lon="-2.42048">
        <ele>104</ele>
        <time>2016-02-21T14:07:33.1Z</time>
      </trkpt>
      <trkpt lat="48.63792" lon="-2.42047">
        <ele>104</ele>
        <time>2016-02-21T14:07:35.1Z</time>
      </trkpt>
      <trkpt lat="48.63793" lon="-2.42044">
        <ele>104</ele>
        <time>2016-02-21T14:07:38.1Z</time>
      </trkpt>
      <trkpt lat="48.63794" lon="-2.42042">
        <ele>104</ele>
        <time>2016-02-21T14:07:41.1Z</time>
      </trkpt>
      <trkpt lat="48.63795" lon="-2.4204">
        <ele>104</ele>
        <time>2016-02-21T14:07:43.1Z</time>
      </trkpt>
      <trkpt lat="48.63795" lon="-2.42039">
        <ele>104</ele>
        <time>2016-02-21T14:07:46.1Z</time>
      </trkpt>
      <trkpt lat="48.63796" lon="-2.42038">
        <ele>104</ele>
        <time>2016-02-21T14:07:48.1Z</time>
      </trkpt>
      <trkpt lat="48.63795" lon="-2.42037">
        <ele>104</ele>
        <time>2016-02-21T14:07:51.1Z</time>
      </trkpt>
      <trkpt lat="48.63796" lon="-2.42036">
        <ele>104</ele>
        <time>2016-02-21T14:07:53.1Z</time>
      </trkpt>
      <trkpt lat="48.63796" lon="-2.42033">
        <ele>103</ele>
        <time>2016-02-21T14:07:56.1Z</time>
      </trkpt>
      <trkpt lat="48.63795" lon="-2.4203">
        <ele>103</ele>
        <time>2016-02-21T14:07:59.1Z</time>
      </trkpt>
      <trkpt lat="48.63794" lon="-2.42028">
        <ele>103</ele>
        <time>2016-02-21T14:08:02.1Z</time>
      </trkpt>
      <trkpt lat="48.63794" lon="-2.42026">
        <ele>102</ele>
        <time>2016-02-21T14:08:05.1Z</time>
      </trkpt>
      <trkpt lat="48.63793" lon="-2.42026">
        <ele>103</ele>
        <time>2016-02-21T14:08:07.1Z</time>
      </trkpt>
      <trkpt lat="48.63794" lon="-2.42024">
        <ele>102</ele>
        <time>2016-02-21T14:08:10.1Z</time>
      </trkpt>
      <trkpt lat="48.63793" lon="-2.42021">
        <ele>102</ele>
        <time>2016-02-21T14:08:12.1Z</time>
      </trkpt>
      <trkpt lat="48.63792" lon="-2.4202">
        <ele>101</ele>
        <time>2016-02-21T14:08:15.1Z</time>
      </trkpt>
      <trkpt lat="48.63792" lon="-2.42018">
        <ele>101</ele>
        <time>2016-02-21T14:08:17.1Z</time>
      </trkpt>
      <trkpt lat="48.63792" lon="-2.42016">
        <ele>100</ele>
        <time>2016-02-21T14:08:20.1Z</time>
      </trkpt>
      <trkpt lat="48.63792" lon="-2.42014">
        <ele>100</ele>
        <time>2016-02-21T14:08:22.1Z</time>
      </trkpt>
      <trkpt lat="48.63791" lon="-2.42011">
        <ele>100</ele>
        <time>2016-02-21T14:08:24.1Z</time>
      </trkpt>
      <trkpt lat="48.63792" lon="-2.42009">
        <ele>100</ele>
        <time>2016-02-21T14:08:27.1Z</time>
      </trkpt>
      <trkpt lat="48.63791" lon="-2.42007">
        <ele>100</ele>
        <time>2016-02-21T14:08:30.1Z</time>
      </trkpt>
      <trkpt lat="48.63791" lon="-2.42005">
        <ele>99</ele>
        <time>2016-02-21T14:08:32.1Z</time>
      </trkpt>
      <trkpt lat="48.6379" lon="-2.42002">
        <ele>99</ele>
        <time>2016-02-21T14:08:35.1Z</time>
      </trkpt>
      <trkpt lat="48.63788" lon="-2.41998">
        <ele>99</ele>
        <time>2016-02-21T14:08:38.1Z</time>
      </trkpt>
      <trkpt lat="48.63786" lon="-2.41995">
        <ele>98</ele>
        <time>2016-02-21T14:08:40.1Z</time>
      </trkpt>
      <trkpt lat="48.63786" lon="-2.41993">
        <ele>98</ele>
        <time>2016-02-21T14:08:43.1Z</time>
      </trkpt>
      <trkpt lat="48.63784" lon="-2.41992">
        <ele>97</ele>
        <time>2016-02-21T14:08:46.1Z</time>
      </trkpt>
      <trkpt lat="48.63784" lon="-2.4199">
        <ele>98</ele>
        <time>2016-02-21T14:08:49.1Z</time>
      </trkpt>
      <trkpt lat="48.63783" lon="-2.41986">
        <ele>97</ele>
        <time>2016-02-21T14:08:52.1Z</time>
      </trkpt>
      <trkpt lat="48.63781" lon="-2.41981">
        <ele>97</ele>
        <time>2016-02-21T14:08:55.1Z</time>
      </trkpt>
      <trkpt lat="48.6378" lon="-2.41978">
        <ele>96</ele>
        <time>2016-02-21T14:08:58.1Z</time>
      </trkpt>
      <trkpt lat="48.63779" lon="-2.41975">
        <ele>95</ele>
        <time>2016-02-21T14:09:00.1Z</time>
      </trkpt>
      <trkpt lat="48.63779" lon="-2.41972">
        <ele>95</ele>
        <time>2016-02-21T14:09:02.1Z</time>
      </trkpt>
      <trkpt lat="48.63778" lon="-2.41969">
        <ele>95</ele>
        <time>2016-02-21T14:09:05.1Z</time>
      </trkpt>
      <trkpt lat="48.63779" lon="-2.41966">
        <ele>94</ele>
        <time>2016-02-21T14:09:08.1Z</time>
      </trkpt>
      <trkpt lat="48.63779" lon="-2.41962">
        <ele>94</ele>
        <time>2016-02-21T14:09:11.1Z</time>
      </trkpt>
      <trkpt lat="48.63778" lon="-2.41961">
        <ele>93</ele>
        <time>2016-02-21T14:09:13.1Z</time>
      </trkpt>
      <trkpt lat="48.63777" lon="-2.41958">
        <ele>93</ele>
        <time>2016-02-21T14:09:16.1Z</time>
      </trkpt>
      <trkpt lat="48.63777" lon="-2.41955">
        <ele>93</ele>
        <time>2016-02-21T14:09:19.1Z</time>
      </trkpt>
      <trkpt lat="48.63777" lon="-2.41953">
        <ele>93</ele>
        <time>2016-02-21T14:09:21.1Z</time>
      </trkpt>
      <trkpt lat="48.63776" lon="-2.4195">
        <ele>92</ele>
        <time>2016-02-21T14:09:24.1Z</time>
      </trkpt>
      <trkpt lat="48.63776" lon="-2.41947">
        <ele>92</ele>
        <time>2016-02-21T14:09:27.1Z</time>
      </trkpt>
      <trkpt lat="48.63776" lon="-2.41945">
        <ele>92</ele>
        <time>2016-02-21T14:09:30.1Z</time>
      </trkpt>
      <trkpt lat="48.63776" lon="-2.41943">
        <ele>92</ele>
        <time>2016-02-21T14:09:32.1Z</time>
      </trkpt>
      <trkpt lat="48.63774" lon="-2.41939">
        <ele>91</ele>
        <time>2016-02-21T14:09:35.1Z</time>
      </trkpt>
      <trkpt lat="48.63773" lon="-2.41937">
        <ele>91</ele>
        <time>2016-02-21T14:09:37.1Z</time>
      </trkpt>
      <trkpt lat="48.63771" lon="-2.41933">
        <ele>90</ele>
        <time>2016-02-21T14:09:40.1Z</time>
      </trkpt>
      <trkpt lat="48.6377" lon="-2.41929">
        <ele>90</ele>
        <time>2016-02-21T14:09:43.1Z</time>
      </trkpt>
      <trkpt lat="48.6377" lon="-2.41926">
        <ele>89</ele>
        <time>2016-02-21T14:09:45.1Z</time>
      </trkpt>
      <trkpt lat="48.63768" lon="-2.41922">
        <ele>89</ele>
        <time>2016-02-21T14:09:48.1Z</time>
      </trkpt>
      <trkpt lat="48.63767" lon="-2.41921">
        <ele>89</ele>
        <time>2016-02-21T14:09:50.1Z</time>
      </trkpt>
      <trkpt lat="48.63765" lon="-2.41918">
        <ele>89</ele>
        <time>2016-02-21T14:09:53.1Z</time>
      </trkpt>
      <trkpt lat="48.63763" lon="-2.41914">
        <ele>88</ele>
        <time>2016-02-21T14:09:56.1Z</time>
      </trkpt>
      <trkpt lat="48.63762" lon="-2.41911">
        <ele>88</ele>
        <time>2016-02-21T14:09:58.1Z</time>
      </trkpt>
      <trkpt lat="48.63761" lon="-2.41906">
        <ele>87</ele>
        <time>2016-02-21T14:10:01.1Z</time>
      </trkpt>
      <trkpt lat="48.6376" lon="-2.41902">
        <ele>87</ele>
        <time>2016-02-21T14:10:04.1Z</time>
      </trkpt>
      <trkpt lat="48.6376" lon="-2.41898">
        <ele>87</ele>
        <time>2016-02-21T14:10:06.1Z</time>
      </trkpt>
      <trkpt lat="48.63759" lon="-2.41895">
        <ele>87</ele>
        <time>2016-02-21T14:10:09.1Z</time>
      </trkpt>
      <trkpt lat="48.63757" lon="-2.41892">
        <ele>87</ele>
        <time>2016-02-21T14:10:11.1Z</time>
      </trkpt>
      <trkpt lat="48.63755" lon="-2.41888">
        <ele>86</ele>
        <time>2016-02-21T14:10:14.1Z</time>
      </trkpt>
      <trkpt lat="48.63752" lon="-2.41882">
        <ele>86</ele>
        <time>2016-02-21T14:10:17.1Z</time>
      </trkpt>
      <trkpt lat="48.63751" lon="-2.41878">
        <ele>86</ele>
        <time>2016-02-21T14:10:20.1Z</time>
      </trkpt>
      <trkpt lat="48.6375" lon="-2.41875">
        <ele>85</ele>
        <time>2016-02-21T14:10:22.1Z</time>
      </trkpt>
      <trkpt lat="48.63749" lon="-2.41869">
        <ele>85</ele>
        <time>2016-02-21T14:10:25.1Z</time>
      </trkpt>
      <trkpt lat="48.63747" lon="-2.41863">
        <ele>85</ele>
        <time>2016-02-21T14:10:28.1Z</time>
      </trkpt>
      <trkpt lat="48.63744" lon="-2.41857">
        <ele>84</ele>
        <time>2016-02-21T14:10:31.1Z</time>
      </trkpt>
      <trkpt lat="48.63743" lon="-2.41853">
        <ele>84</ele>
        <time>2016-02-21T14:10:33.1Z</time>
      </trkpt>
      <trkpt lat="48.63741" lon="-2.41847">
        <ele>84</ele>
        <time>2016-02-21T14:10:36.1Z</time>
      </trkpt>
      <trkpt lat="48.63739" lon="-2.41842">
        <ele>83</ele>
        <time>2016-02-21T14:10:39.1Z</time>
      </trkpt>
      <trkpt lat="48.63737" lon="-2.41835">
        <ele>83</ele>
        <time>2016-02-21T14:10:42.1Z</time>
      </trkpt>
      <trkpt lat="48.63736" lon="-2.41831">
        <ele>83</ele>
        <time>2016-02-21T14:10:44.1Z</time>
      </trkpt>
      <trkpt lat="48.63733" lon="-2.41827">
        <ele>83</ele>
        <time>2016-02-21T14:10:47.1Z</time>
      </trkpt>
      <trkpt lat="48.63732" lon="-2.41823">
        <ele>83</ele>
        <time>2016-02-21T14:10:49.1Z</time>
      </trkpt>
      <trkpt lat="48.6373" lon="-2.41819">
        <ele>82</ele>
        <time>2016-02-21T14:10:51.1Z</time>
      </trkpt>
      <trkpt lat="48.63728" lon="-2.41816">
        <ele>82</ele>
        <time>2016-02-21T14:10:53.1Z</time>
      </trkpt>
      <trkpt lat="48.63725" lon="-2.4181">
        <ele>81</ele>
        <time>2016-02-21T14:10:56.1Z</time>
      </trkpt>
      <trkpt lat="48.63724" lon="-2.41806">
        <ele>81</ele>
        <time>2016-02-21T14:10:58.1Z</time>
      </trkpt>
      <trkpt lat="48.63722" lon="-2.41801">
        <ele>81</ele>
        <time>2016-02-21T14:11:01.1Z</time>
      </trkpt>
      <trkpt lat="48.63719" lon="-2.41797">
        <ele>81</ele>
        <time>2016-02-21T14:11:04.1Z</time>
      </trkpt>
      <trkpt lat="48.63718" lon="-2.41793">
        <ele>81</ele>
        <time>2016-02-21T14:11:06.1Z</time>
      </trkpt>
      <trkpt lat="48.63716" lon="-2.4179">
        <ele>81</ele>
        <time>2016-02-21T14:11:08.1Z</time>
      </trkpt>
      <trkpt lat="48.63714" lon="-2.41785">
        <ele>80</ele>
        <time>2016-02-21T14:11:11.1Z</time>
      </trkpt>
      <trkpt lat="48.63712" lon="-2.41782">
        <ele>80</ele>
        <time>2016-02-21T14:11:13.1Z</time>
      </trkpt>
      <trkpt lat="48.63708" lon="-2.41777">
        <ele>79</ele>
        <time>2016-02-21T14:11:16.1Z</time>
      </trkpt>
      <trkpt lat="48.63707" lon="-2.41775">
        <ele>80</ele>
        <time>2016-02-21T14:11:18.1Z</time>
      </trkpt>
      <trkpt lat="48.63705" lon="-2.4177">
        <ele>79</ele>
        <time>2016-02-21T14:11:21.1Z</time>
      </trkpt>
      <trkpt lat="48.63703" lon="-2.41766">
        <ele>79</ele>
        <time>2016-02-21T14:11:23.1Z</time>
      </trkpt>
      <trkpt lat="48.637" lon="-2.41761">
        <ele>79</ele>
        <time>2016-02-21T14:11:26.1Z</time>
      </trkpt>
      <trkpt lat="48.63697" lon="-2.41756">
        <ele>78</ele>
        <time>2016-02-21T14:11:29.1Z</time>
      </trkpt>
      <trkpt lat="48.63694" lon="-2.41751">
        <ele>78</ele>
        <time>2016-02-21T14:11:32.1Z</time>
      </trkpt>
      <trkpt lat="48.63694" lon="-2.41749">
        <ele>78</ele>
        <time>2016-02-21T14:11:34.1Z</time>
      </trkpt>
      <trkpt lat="48.63692" lon="-2.41746">
        <ele>78</ele>
        <time>2016-02-21T14:11:36.1Z</time>
      </trkpt>
      <trkpt lat="48.63689" lon="-2.41744">
        <ele>78</ele>
        <time>2016-02-21T14:11:39.1Z</time>
      </trkpt>
      <trkpt lat="48.63686" lon="-2.4174">
        <ele>78</ele>
        <time>2016-02-21T14:11:42.1Z</time>
      </trkpt>
      <trkpt lat="48.63683" lon="-2.41737">
        <ele>77</ele>
        <time>2016-02-21T14:11:45.1Z</time>
      </trkpt>
      <trkpt lat="48.63681" lon="-2.41734">
        <ele>77</ele>
        <time>2016-02-21T14:11:47.1Z</time>
      </trkpt>
      <trkpt lat="48.63679" lon="-2.41732">
        <ele>77</ele>
        <time>2016-02-21T14:11:49.1Z</time>
      </trkpt>
      <trkpt lat="48.63676" lon="-2.41728">
        <ele>76</ele>
        <time>2016-02-21T14:11:52.1Z</time>
      </trkpt>
      <trkpt lat="48.63673" lon="-2.41724">
        <ele>76</ele>
        <time>2016-02-21T14:11:54.1Z</time>
      </trkpt>
      <trkpt lat="48.63673" lon="-2.41722">
        <ele>76</ele>
        <time>2016-02-21T14:11:57.1Z</time>
      </trkpt>
      <trkpt lat="48.63672" lon="-2.41718">
        <ele>76</ele>
        <time>2016-02-21T14:12:00.1Z</time>
      </trkpt>
      <trkpt lat="48.6367" lon="-2.41714">
        <ele>76</ele>
        <time>2016-02-21T14:12:03.1Z</time>
      </trkpt>
      <trkpt lat="48.63668" lon="-2.4171">
        <ele>75</ele>
        <time>2016-02-21T14:12:06.1Z</time>
      </trkpt>
      <trkpt lat="48.63666" lon="-2.41706">
        <ele>75</ele>
        <time>2016-02-21T14:12:08.1Z</time>
      </trkpt>
      <trkpt lat="48.63665" lon="-2.41704">
        <ele>75</ele>
        <time>2016-02-21T14:12:11.1Z</time>
      </trkpt>
      <trkpt lat="48.63663" lon="-2.41701">
        <ele>74</ele>
        <time>2016-02-21T14:12:13.1Z</time>
      </trkpt>
      <trkpt lat="48.6366" lon="-2.41698">
        <ele>74</ele>
        <time>2016-02-21T14:12:16.1Z</time>
      </trkpt>
      <trkpt lat="48.63658" lon="-2.41695">
        <ele>74</ele>
        <time>2016-02-21T14:12:18.1Z</time>
      </trkpt>
      <trkpt lat="48.63656" lon="-2.41691">
        <ele>74</ele>
        <time>2016-02-21T14:12:20.1Z</time>
      </trkpt>
      <trkpt lat="48.63655" lon="-2.41689">
        <ele>74</ele>
        <time>2016-02-21T14:12:23.1Z</time>
      </trkpt>
      <trkpt lat="48.63654" lon="-2.41688">
        <ele>74</ele>
        <time>2016-02-21T14:12:25.1Z</time>
      </trkpt>
      <trkpt lat="48.63653" lon="-2.41687">
        <ele>74</ele>
        <time>2016-02-21T14:12:28.1Z</time>
      </trkpt>
      <trkpt lat="48.63652" lon="-2.41687">
        <ele>73</ele>
        <time>2016-02-21T14:12:31.1Z</time>
      </trkpt>
      <trkpt lat="48.63651" lon="-2.41687">
        <ele>73</ele>
        <time>2016-02-21T14:12:33.1Z</time>
      </trkpt>
      <trkpt lat="48.6365" lon="-2.41686">
        <ele>73</ele>
        <time>2016-02-21T14:12:35.1Z</time>
      </trkpt>
      <trkpt lat="48.63649" lon="-2.41684">
        <ele>73</ele>
        <time>2016-02-21T14:12:38.1Z</time>
      </trkpt>
      <trkpt lat="48.63649" lon="-2.41684">
        <ele>73</ele>
        <time>2016-02-21T14:12:40.1Z</time>
      </trkpt>
      <trkpt lat="48.63647" lon="-2.41684">
        <ele>73</ele>
        <time>2016-02-21T14:12:43.1Z</time>
      </trkpt>
      <trkpt lat="48.63645" lon="-2.41684">
        <ele>73</ele>
        <time>2016-02-21T14:12:45.1Z</time>
      </trkpt>
      <trkpt lat="48.63644" lon="-2.41685">
        <ele>73</ele>
        <time>2016-02-21T14:12:47.1Z</time>
      </trkpt>
      <trkpt lat="48.63641" lon="-2.41685">
        <ele>74</ele>
        <time>2016-02-21T14:12:50.1Z</time>
      </trkpt>
      <trkpt lat="48.6364" lon="-2.41686">
        <ele>73</ele>
        <time>2016-02-21T14:12:53.1Z</time>
      </trkpt>
      <trkpt lat="48.63638" lon="-2.41689">
        <ele>73</ele>
        <time>2016-02-21T14:12:56.1Z</time>
      </trkpt>
      <trkpt lat="48.63635" lon="-2.41692">
        <ele>72</ele>
        <time>2016-02-21T14:12:59.1Z</time>
      </trkpt>
      <trkpt lat="48.63633" lon="-2.41695">
        <ele>72</ele>
        <time>2016-02-21T14:13:02.1Z</time>
      </trkpt>
      <trkpt lat="48.63632" lon="-2.41697">
        <ele>72</ele>
        <time>2016-02-21T14:13:04.1Z</time>
      </trkpt>
      <trkpt lat="48.6363" lon="-2.41698">
        <ele>72</ele>
        <time>2016-02-21T14:13:06.1Z</time>
      </trkpt>
      <trkpt lat="48.63628" lon="-2.417">
        <ele>73</ele>
        <time>2016-02-21T14:13:09.1Z</time>
      </trkpt>
      <trkpt lat="48.63627" lon="-2.41702">
        <ele>72</ele>
        <time>2016-02-21T14:13:11.1Z</time>
      </trkpt>
      <trkpt lat="48.63625" lon="-2.41706">
        <ele>72</ele>
        <time>2016-02-21T14:13:14.1Z</time>
      </trkpt>
      <trkpt lat="48.63623" lon="-2.41709">
        <ele>72</ele>
        <time>2016-02-21T14:13:16.1Z</time>
      </trkpt>
      <trkpt lat="48.63621" lon="-2.41711">
        <ele>72</ele>
        <time>2016-02-21T14:13:18.1Z</time>
      </trkpt>
      <trkpt lat="48.63619" lon="-2.41715">
        <ele>72</ele>
        <time>2016-02-21T14:13:21.1Z</time>
      </trkpt>
      <trkpt lat="48.63617" lon="-2.41719">
        <ele>72</ele>
        <time>2016-02-21T14:13:23.1Z</time>
      </trkpt>
      <trkpt lat="48.63615" lon="-2.41722">
        <ele>72</ele>
        <time>2016-02-21T14:13:25.1Z</time>
      </trkpt>
      <trkpt lat="48.63613" lon="-2.41724">
        <ele>71</ele>
        <time>2016-02-21T14:13:28.1Z</time>
      </trkpt>
      <trkpt lat="48.63611" lon="-2.41726">
        <ele>71</ele>
        <time>2016-02-21T14:13:31.1Z</time>
      </trkpt>
      <trkpt lat="48.63608" lon="-2.41729">
        <ele>71</ele>
        <time>2016-02-21T14:13:34.1Z</time>
      </trkpt>
      <trkpt lat="48.63605" lon="-2.41732">
        <ele>71</ele>
        <time>2016-02-21T14:13:36.1Z</time>
      </trkpt>
      <trkpt lat="48.63602" lon="-2.41734">
        <ele>71</ele>
        <time>2016-02-21T14:13:39.1Z</time>
      </trkpt>
      <trkpt lat="48.63599" lon="-2.41738">
        <ele>71</ele>
        <time>2016-02-21T14:13:42.1Z</time>
      </trkpt>
      <trkpt lat="48.63597" lon="-2.4174">
        <ele>71</ele>
        <time>2016-02-21T14:13:44.1Z</time>
      </trkpt>
      <trkpt lat="48.63595" lon="-2.41743">
        <ele>71</ele>
        <time>2016-02-21T14:13:46.1Z</time>
      </trkpt>
      <trkpt lat="48.63593" lon="-2.41745">
        <ele>71</ele>
        <time>2016-02-21T14:13:49.1Z</time>
      </trkpt>
      <trkpt lat="48.6359" lon="-2.41749">
        <ele>71</ele>
        <time>2016-02-21T14:13:51.1Z</time>
      </trkpt>
      <trkpt lat="48.63587" lon="-2.41751">
        <ele>71</ele>
        <time>2016-02-21T14:13:54.1Z</time>
      </trkpt>
      <trkpt lat="48.63585" lon="-2.41754">
        <ele>70</ele>
        <time>2016-02-21T14:13:56.1Z</time>
      </trkpt>
      <trkpt lat="48.63583" lon="-2.41756">
        <ele>70</ele>
        <time>2016-02-21T14:13:59.1Z</time>
      </trkpt>
      <trkpt lat="48.6358" lon="-2.4176">
        <ele>70</ele>
        <time>2016-02-21T14:14:02.1Z</time>
      </trkpt>
      <trkpt lat="48.63578" lon="-2.41764">
        <ele>70</ele>
        <time>2016-02-21T14:14:05.1Z</time>
      </trkpt>
      <trkpt lat="48.63575" lon="-2.41768">
        <ele>70</ele>
        <time>2016-02-21T14:14:07.1Z</time>
      </trkpt>
      <trkpt lat="48.63574" lon="-2.41771">
        <ele>70</ele>
        <time>2016-02-21T14:14:10.1Z</time>
      </trkpt>
      <trkpt lat="48.63572" lon="-2.41774">
        <ele>71</ele>
        <time>2016-02-21T14:14:12.1Z</time>
      </trkpt>
      <trkpt lat="48.6357" lon="-2.41777">
        <ele>71</ele>
        <time>2016-02-21T14:14:15.1Z</time>
      </trkpt>
      <trkpt lat="48.63568" lon="-2.41781">
        <ele>71</ele>
        <time>2016-02-21T14:14:18.1Z</time>
      </trkpt>
      <trkpt lat="48.63565" lon="-2.41785">
        <ele>71</ele>
        <time>2016-02-21T14:14:21.1Z</time>
      </trkpt>
      <trkpt lat="48.63563" lon="-2.41788">
        <ele>71</ele>
        <time>2016-02-21T14:14:23.1Z</time>
      </trkpt>
      <trkpt lat="48.63561" lon="-2.4179">
        <ele>72</ele>
        <time>2016-02-21T14:14:26.1Z</time>
      </trkpt>
      <trkpt lat="48.63558" lon="-2.41793">
        <ele>71</ele>
        <time>2016-02-21T14:14:28.1Z</time>
      </trkpt>
      <trkpt lat="48.63556" lon="-2.41794">
        <ele>72</ele>
        <time>2016-02-21T14:14:31.1Z</time>
      </trkpt>
      <trkpt lat="48.63553" lon="-2.41797">
        <ele>72</ele>
        <time>2016-02-21T14:14:34.1Z</time>
      </trkpt>
      <trkpt lat="48.63551" lon="-2.41801">
        <ele>71</ele>
        <time>2016-02-21T14:14:37.1Z</time>
      </trkpt>
      <trkpt lat="48.6355" lon="-2.41804">
        <ele>71</ele>
        <time>2016-02-21T14:14:39.1Z</time>
      </trkpt>
      <trkpt lat="48.63547" lon="-2.41807">
        <ele>71</ele>
        <time>2016-02-21T14:14:42.1Z</time>
      </trkpt>
      <trkpt lat="48.63545" lon="-2.41811">
        <ele>71</ele>
        <time>2016-02-21T14:14:45.1Z</time>
      </trkpt>
      <trkpt lat="48.63543" lon="-2.41815">
        <ele>71</ele>
        <time>2016-02-21T14:14:48.1Z</time>
      </trkpt>
      <trkpt lat="48.63541" lon="-2.41818">
        <ele>71</ele>
        <time>2016-02-21T14:14:50.1Z</time>
      </trkpt>
      <trkpt lat="48.63539" lon="-2.41821">
        <ele>71</ele>
        <time>2016-02-21T14:14:53.1Z</time>
      </trkpt>
      <trkpt lat="48.63537" lon="-2.41825">
        <ele>72</ele>
        <time>2016-02-21T14:14:55.1Z</time>
      </trkpt>
      <trkpt lat="48.63536" lon="-2.41828">
        <ele>72</ele>
        <time>2016-02-21T14:14:58.1Z</time>
      </trkpt>
      <trkpt lat="48.63534" lon="-2.41829">
        <ele>72</ele>
        <time>2016-02-21T14:15:00.1Z</time>
      </trkpt>
      <trkpt lat="48.63532" lon="-2.41833">
        <ele>71</ele>
        <time>2016-02-21T14:15:03.1Z</time>
      </trkpt>
      <trkpt lat="48.6353" lon="-2.41837">
        <ele>71</ele>
        <time>2016-02-21T14:15:06.1Z</time>
      </trkpt>
      <trkpt lat="48.63528" lon="-2.4184">
        <ele>71</ele>
        <time>2016-02-21T14:15:09.1Z</time>
      </trkpt>
      <trkpt lat="48.63525" lon="-2.41843">
        <ele>71</ele>
        <time>2016-02-21T14:15:12.1Z</time>
      </trkpt>
      <trkpt lat="48.63522" lon="-2.41846">
        <ele>71</ele>
        <time>2016-02-21T14:15:14.1Z</time>
      </trkpt>
      <trkpt lat="48.63521" lon="-2.41848">
        <ele>71</ele>
        <time>2016-02-21T14:15:17.1Z</time>
      </trkpt>
      <trkpt lat="48.63519" lon="-2.4185">
        <ele>71</ele>
        <time>2016-02-21T14:15:19.1Z</time>
      </trkpt>
      <trkpt lat="48.63517" lon="-2.41852">
        <ele>71</ele>
        <time>2016-02-21T14:15:21.1Z</time>
      </trkpt>
      <trkpt lat="48.63514" lon="-2.41855">
        <ele>71</ele>
        <time>2016-02-21T14:15:24.1Z</time>
      </trkpt>
      <trkpt lat="48.63512" lon="-2.41859">
        <ele>71</ele>
        <time>2016-02-21T14:15:27.1Z</time>
      </trkpt>
      <trkpt lat="48.6351" lon="-2.41862">
        <ele>72</ele>
        <time>2016-02-21T14:15:30.1Z</time>
      </trkpt>
      <trkpt lat="48.63507" lon="-2.41865">
        <ele>71</ele>
        <time>2016-02-21T14:15:33.1Z</time>
      </trkpt>
      <trkpt lat="48.63504" lon="-2.41868">
        <ele>71</ele>
        <time>2016-02-21T14:15:36.1Z</time>
      </trkpt>
      <trkpt lat="48.63502" lon="-2.41871">
        <ele>71</ele>
        <time>2016-02-21T14:15:39.1Z</time>
      </trkpt>
      <trkpt lat="48.635" lon="-2.41873">
        <ele>72</ele>
        <time>2016-02-21T14:15:41.1Z</time>
      </trkpt>
      <trkpt lat="48.63498" lon="-2.41876">
        <ele>72</ele>
        <time>2016-02-21T14:15:44.1Z</time>
      </trkpt>
      <trkpt lat="48.63495" lon="-2.41879">
        <ele>72</ele>
        <time>2016-02-21T14:15:46.1Z</time>
      </trkpt>
      <trkpt lat="48.63493" lon="-2.41881">
        <ele>72</ele>
        <time>2016-02-21T14:15:49.1Z</time>
      </trkpt>
      <trkpt lat="48.63491" lon="-2.41883">
        <ele>72</ele>
        <time>2016-02-21T14:15:51.1Z</time>
      </trkpt>
      <trkpt lat="48.63488" lon="-2.41886">
        <ele>72</ele>
        <time>2016-02-21T14:15:53.1Z</time>
      </trkpt>
      <trkpt lat="48.63487" lon="-2.41888">
        <ele>72</ele>
        <time>2016-02-21T14:15:56.1Z</time>
      </trkpt>
      <trkpt lat="48.63485" lon="-2.4189">
        <ele>72</ele>
        <time>2016-02-21T14:15:58.1Z</time>
      </trkpt>
      <trkpt lat="48.63482" lon="-2.41894">
        <ele>72</ele>
        <time>2016-02-21T14:16:00.1Z</time>
      </trkpt>
      <trkpt lat="48.6348" lon="-2.41896">
        <ele>72</ele>
        <time>2016-02-21T14:16:03.1Z</time>
      </trkpt>
      <trkpt lat="48.63477" lon="-2.41898">
        <ele>72</ele>
        <time>2016-02-21T14:16:06.1Z</time>
      </trkpt>
      <trkpt lat="48.63475" lon="-2.41901">
        <ele>72</ele>
        <time>2016-02-21T14:16:08.1Z</time>
      </trkpt>
      <trkpt lat="48.63472" lon="-2.41903">
        <ele>72</ele>
        <time>2016-02-21T14:16:11.1Z</time>
      </trkpt>
      <trkpt lat="48.6347" lon="-2.41906">
        <ele>72</ele>
        <time>2016-02-21T14:16:13.1Z</time>
      </trkpt>
      <trkpt lat="48.63468" lon="-2.41908">
        <ele>72</ele>
        <time>2016-02-21T14:16:16.1Z</time>
      </trkpt>
      <trkpt lat="48.63465" lon="-2.41911">
        <ele>71</ele>
        <time>2016-02-21T14:16:19.1Z</time>
      </trkpt>
      <trkpt lat="48.63462" lon="-2.41914">
        <ele>71</ele>
        <time>2016-02-21T14:16:22.1Z</time>
      </trkpt>
      <trkpt lat="48.6346" lon="-2.41917">
        <ele>71</ele>
        <time>2016-02-21T14:16:25.1Z</time>
      </trkpt>
      <trkpt lat="48.63457" lon="-2.4192">
        <ele>71</ele>
        <time>2016-02-21T14:16:27.1Z</time>
      </trkpt>
      <trkpt lat="48.63456" lon="-2.41922">
        <ele>71</ele>
        <time>2016-02-21T14:16:30.1Z</time>
      </trkpt>
      <trkpt lat="48.63454" lon="-2.41924">
        <ele>71</ele>
        <time>2016-02-21T14:16:32.1Z</time>
      </trkpt>
      <trkpt lat="48.63452" lon="-2.41927">
        <ele>71</ele>
        <time>2016-02-21T14:16:34.1Z</time>
      </trkpt>
      <trkpt lat="48.6345" lon="-2.4193">
        <ele>72</ele>
        <time>2016-02-21T14:16:36.1Z</time>
      </trkpt>
      <trkpt lat="48.63448" lon="-2.41933">
        <ele>72</ele>
        <time>2016-02-21T14:16:39.1Z</time>
      </trkpt>
      <trkpt lat="48.63447" lon="-2.41936">
        <ele>72</ele>
        <time>2016-02-21T14:16:41.1Z</time>
      </trkpt>
      <trkpt lat="48.63446" lon="-2.41939">
        <ele>72</ele>
        <time>2016-02-21T14:16:44.1Z</time>
      </trkpt>
      <trkpt lat="48.63444" lon="-2.41943">
        <ele>71</ele>
        <time>2016-02-21T14:16:47.1Z</time>
      </trkpt>
      <trkpt lat="48.63442" lon="-2.41947">
        <ele>71</ele>
        <time>2016-02-21T14:16:50.1Z</time>
      </trkpt>
      <trkpt lat="48.6344" lon="-2.41951">
        <ele>71</ele>
        <time>2016-02-21T14:16:52.1Z</time>
      </trkpt>
      <trkpt lat="48.63439" lon="-2.41953">
        <ele>71</ele>
        <time>2016-02-21T14:16:55.1Z</time>
      </trkpt>
      <trkpt lat="48.63437" lon="-2.41958">
        <ele>72</ele>
        <time>2016-02-21T14:16:57.1Z</time>
      </trkpt>
      <trkpt lat="48.63436" lon="-2.41962">
        <ele>72</ele>
        <time>2016-02-21T14:17:00.1Z</time>
      </trkpt>
      <trkpt lat="48.63435" lon="-2.41964">
        <ele>72</ele>
        <time>2016-02-21T14:17:03.1Z</time>
      </trkpt>
      <trkpt lat="48.63434" lon="-2.41968">
        <ele>72</ele>
        <time>2016-02-21T14:17:06.1Z</time>
      </trkpt>
      <trkpt lat="48.63433" lon="-2.41973">
        <ele>72</ele>
        <time>2016-02-21T14:17:09.1Z</time>
      </trkpt>
      <trkpt lat="48.63432" lon="-2.41978">
        <ele>72</ele>
        <time>2016-02-21T14:17:11.1Z</time>
      </trkpt>
      <trkpt lat="48.63432" lon="-2.41982">
        <ele>71</ele>
        <time>2016-02-21T14:17:13.1Z</time>
      </trkpt>
      <trkpt lat="48.63431" lon="-2.41985">
        <ele>72</ele>
        <time>2016-02-21T14:17:16.1Z</time>
      </trkpt>
      <trkpt lat="48.6343" lon="-2.41988">
        <ele>72</ele>
        <time>2016-02-21T14:17:19.1Z</time>
      </trkpt>
      <trkpt lat="48.63429" lon="-2.41992">
        <ele>72</ele>
        <time>2016-02-21T14:17:22.1Z</time>
      </trkpt>
      <trkpt lat="48.63428" lon="-2.41995">
        <ele>72</ele>
        <time>2016-02-21T14:17:24.1Z</time>
      </trkpt>
      <trkpt lat="48.63427" lon="-2.41999">
        <ele>72</ele>
        <time>2016-02-21T14:17:27.1Z</time>
      </trkpt>
      <trkpt lat="48.63425" lon="-2.42002">
        <ele>72</ele>
        <time>2016-02-21T14:17:29.1Z</time>
      </trkpt>
      <trkpt lat="48.63424" lon="-2.42004">
        <ele>72</ele>
        <time>2016-02-21T14:17:32.1Z</time>
      </trkpt>
      <trkpt lat="48.63422" lon="-2.42008">
        <ele>73</ele>
        <time>2016-02-21T14:17:34.1Z</time>
      </trkpt>
      <trkpt lat="48.63421" lon="-2.4201">
        <ele>72</ele>
        <time>2016-02-21T14:17:36.1Z</time>
      </trkpt>
      <trkpt lat="48.63419" lon="-2.42013">
        <ele>73</ele>
        <time>2016-02-21T14:17:39.1Z</time>
      </trkpt>
      <trkpt lat="48.63417" lon="-2.42015">
        <ele>72</ele>
        <time>2016-02-21T14:17:42.1Z</time>
      </trkpt>
      <trkpt lat="48.63415" lon="-2.42019">
        <ele>73</ele>
        <time>2016-02-21T14:17:44.1Z</time>
      </trkpt>
      <trkpt lat="48.63413" lon="-2.4202">
        <ele>73</ele>
        <time>2016-02-21T14:17:47.1Z</time>
      </trkpt>
      <trkpt lat="48.63412" lon="-2.42022">
        <ele>73</ele>
        <time>2016-02-21T14:17:49.1Z</time>
      </trkpt>
      <trkpt lat="48.6341" lon="-2.42025">
        <ele>73</ele>
        <time>2016-02-21T14:17:52.1Z</time>
      </trkpt>
      <trkpt lat="48.63408" lon="-2.42029">
        <ele>74</ele>
        <time>2016-02-21T14:17:54.1Z</time>
      </trkpt>
      <trkpt lat="48.63406" lon="-2.42031">
        <ele>74</ele>
        <time>2016-02-21T14:17:57.1Z</time>
      </trkpt>
      <trkpt lat="48.63404" lon="-2.42034">
        <ele>74</ele>
        <time>2016-02-21T14:17:59.1Z</time>
      </trkpt>
      <trkpt lat="48.63401" lon="-2.42036">
        <ele>74</ele>
        <time>2016-02-21T14:18:02.1Z</time>
      </trkpt>
      <trkpt lat="48.634" lon="-2.42037">
        <ele>74</ele>
        <time>2016-02-21T14:18:05.1Z</time>
      </trkpt>
      <trkpt lat="48.63397" lon="-2.4204">
        <ele>74</ele>
        <time>2016-02-21T14:18:07.1Z</time>
      </trkpt>
      <trkpt lat="48.63396" lon="-2.42042">
        <ele>74</ele>
        <time>2016-02-21T14:18:10.1Z</time>
      </trkpt>
      <trkpt lat="48.63393" lon="-2.42044">
        <ele>74</ele>
        <time>2016-02-21T14:18:12.1Z</time>
      </trkpt>
      <trkpt lat="48.63391" lon="-2.42046">
        <ele>74</ele>
        <time>2016-02-21T14:18:14.1Z</time>
      </trkpt>
      <trkpt lat="48.63388" lon="-2.42048">
        <ele>74</ele>
        <time>2016-02-21T14:18:18.1Z</time>
      </trkpt>
      <trkpt lat="48.63386" lon="-2.42049">
        <ele>75</ele>
        <time>2016-02-21T14:18:20.1Z</time>
      </trkpt>
      <trkpt lat="48.63383" lon="-2.42051">
        <ele>75</ele>
        <time>2016-02-21T14:18:22.1Z</time>
      </trkpt>
      <trkpt lat="48.6338" lon="-2.42053">
        <ele>75</ele>
        <time>2016-02-21T14:18:26.1Z</time>
      </trkpt>
      <trkpt lat="48.63378" lon="-2.42056">
        <ele>75</ele>
        <time>2016-02-21T14:18:29.1Z</time>
      </trkpt>
      <trkpt lat="48.63375" lon="-2.42058">
        <ele>75</ele>
        <time>2016-02-21T14:18:32.1Z</time>
      </trkpt>
      <trkpt lat="48.63373" lon="-2.4206">
        <ele>75</ele>
        <time>2016-02-21T14:18:35.1Z</time>
      </trkpt>
      <trkpt lat="48.63371" lon="-2.42062">
        <ele>75</ele>
        <time>2016-02-21T14:18:38.1Z</time>
      </trkpt>
      <trkpt lat="48.63368" lon="-2.42063">
        <ele>76</ele>
        <time>2016-02-21T14:18:40.1Z</time>
      </trkpt>
      <trkpt lat="48.63366" lon="-2.42063">
        <ele>77</ele>
        <time>2016-02-21T14:18:43.1Z</time>
      </trkpt>
      <trkpt lat="48.63364" lon="-2.42063">
        <ele>77</ele>
        <time>2016-02-21T14:18:46.1Z</time>
      </trkpt>
      <trkpt lat="48.63363" lon="-2.42062">
        <ele>78</ele>
        <time>2016-02-21T14:18:48.1Z</time>
      </trkpt>
      <trkpt lat="48.63363" lon="-2.42062">
        <ele>79</ele>
        <time>2016-02-21T14:18:51.1Z</time>
      </trkpt>
      <trkpt lat="48.63361" lon="-2.42061">
        <ele>79</ele>
        <time>2016-02-21T14:18:53.1Z</time>
      </trkpt>
      <trkpt lat="48.63361" lon="-2.42064">
        <ele>79</ele>
        <time>2016-02-21T14:18:55.1Z</time>
      </trkpt>
      <trkpt lat="48.63362" lon="-2.42066">
        <ele>80</ele>
        <time>2016-02-21T14:18:57.1Z</time>
      </trkpt>
      <trkpt lat="48.63362" lon="-2.42068">
        <ele>80</ele>
        <time>2016-02-21T14:18:59.1Z</time>
      </trkpt>
      <trkpt lat="48.63362" lon="-2.42068">
        <ele>80</ele>
        <time>2016-02-21T14:19:02.1Z</time>
      </trkpt>
      <trkpt lat="48.63362" lon="-2.42068">
        <ele>80</ele>
        <time>2016-02-21T14:19:05.1Z</time>
      </trkpt>
      <trkpt lat="48.63362" lon="-2.42068">
        <ele>80</ele>
        <time>2016-02-21T14:19:07.1Z</time>
      </trkpt>
      <trkpt lat="48.63361" lon="-2.42069">
        <ele>80</ele>
        <time>2016-02-21T14:19:11.1Z</time>
      </trkpt>
      <trkpt lat="48.63361" lon="-2.4207">
        <ele>80</ele>
        <time>2016-02-21T14:19:15.1Z</time>
      </trkpt>
      <trkpt lat="48.6336" lon="-2.42071">
        <ele>80</ele>
        <time>2016-02-21T14:19:18.1Z</time>
      </trkpt>
      <trkpt lat="48.6336" lon="-2.42071">
        <ele>81</ele>
        <time>2016-02-21T14:19:20.1Z</time>
      </trkpt>
      <trkpt lat="48.6336" lon="-2.4207">
        <ele>81</ele>
        <time>2016-02-21T14:19:23.1Z</time>
      </trkpt>
      <trkpt lat="48.6336" lon="-2.42068">
        <ele>81</ele>
        <time>2016-02-21T14:19:25.1Z</time>
      </trkpt>
      <trkpt lat="48.63362" lon="-2.42069">
        <ele>80</ele>
        <time>2016-02-21T14:19:29.1Z</time>
      </trkpt>
      <trkpt lat="48.63364" lon="-2.42069">
        <ele>79</ele>
        <time>2016-02-21T14:19:32.1Z</time>
      </trkpt>
      <trkpt lat="48.63362" lon="-2.4207">
        <ele>79</ele>
        <time>2016-02-21T14:19:34.1Z</time>
      </trkpt>
      <trkpt lat="48.63359" lon="-2.4207">
        <ele>77</ele>
        <time>2016-02-21T14:19:37.1Z</time>
      </trkpt>
      <trkpt lat="48.63357" lon="-2.4207">
        <ele>77</ele>
        <time>2016-02-21T14:19:40.1Z</time>
      </trkpt>
      <trkpt lat="48.63354" lon="-2.42072">
        <ele>77</ele>
        <time>2016-02-21T14:19:42.1Z</time>
      </trkpt>
      <trkpt lat="48.63351" lon="-2.42072">
        <ele>77</ele>
        <time>2016-02-21T14:19:44.1Z</time>
      </trkpt>
      <trkpt lat="48.63349" lon="-2.42073">
        <ele>77</ele>
        <time>2016-02-21T14:19:47.1Z</time>
      </trkpt>
      <trkpt lat="48.63345" lon="-2.42074">
        <ele>78</ele>
        <time>2016-02-21T14:19:49.1Z</time>
      </trkpt>
      <trkpt lat="48.63342" lon="-2.42075">
        <ele>78</ele>
        <time>2016-02-21T14:19:51.1Z</time>
      </trkpt>
      <trkpt lat="48.6334" lon="-2.42076">
        <ele>78</ele>
        <time>2016-02-21T14:19:54.1Z</time>
      </trkpt>
      <trkpt lat="48.63336" lon="-2.42078">
        <ele>79</ele>
        <time>2016-02-21T14:19:56.1Z</time>
      </trkpt>
      <trkpt lat="48.63333" lon="-2.42081">
        <ele>79</ele>
        <time>2016-02-21T14:19:59.1Z</time>
      </trkpt>
      <trkpt lat="48.63331" lon="-2.42084">
        <ele>79</ele>
        <time>2016-02-21T14:20:01.1Z</time>
      </trkpt>
      <trkpt lat="48.6333" lon="-2.42086">
        <ele>79</ele>
        <time>2016-02-21T14:20:03.1Z</time>
      </trkpt>
      <trkpt lat="48.63327" lon="-2.42088">
        <ele>79</ele>
        <time>2016-02-21T14:20:05.1Z</time>
      </trkpt>
      <trkpt lat="48.63325" lon="-2.42089">
        <ele>79</ele>
        <time>2016-02-21T14:20:07.1Z</time>
      </trkpt>
      <trkpt lat="48.63322" lon="-2.42092">
        <ele>79</ele>
        <time>2016-02-21T14:20:10.1Z</time>
      </trkpt>
      <trkpt lat="48.63321" lon="-2.42093">
        <ele>79</ele>
        <time>2016-02-21T14:20:12.1Z</time>
      </trkpt>
      <trkpt lat="48.63318" lon="-2.42096">
        <ele>80</ele>
        <time>2016-02-21T14:20:15.1Z</time>
      </trkpt>
      <trkpt lat="48.63316" lon="-2.42098">
        <ele>80</ele>
        <time>2016-02-21T14:20:18.1Z</time>
      </trkpt>
      <trkpt lat="48.63315" lon="-2.42101">
        <ele>80</ele>
        <time>2016-02-21T14:20:20.1Z</time>
      </trkpt>
      <trkpt lat="48.63312" lon="-2.42103">
        <ele>81</ele>
        <time>2016-02-21T14:20:23.1Z</time>
      </trkpt>
      <trkpt lat="48.63309" lon="-2.42106">
        <ele>81</ele>
        <time>2016-02-21T14:20:26.1Z</time>
      </trkpt>
      <trkpt lat="48.63307" lon="-2.42107">
        <ele>81</ele>
        <time>2016-02-21T14:20:29.1Z</time>
      </trkpt>
      <trkpt lat="48.63304" lon="-2.42107">
        <ele>81</ele>
        <time>2016-02-21T14:20:31.1Z</time>
      </trkpt>
      <trkpt lat="48.63302" lon="-2.42108">
        <ele>82</ele>
        <time>2016-02-21T14:20:33.1Z</time>
      </trkpt>
      <trkpt lat="48.63299" lon="-2.42109">
        <ele>82</ele>
        <time>2016-02-21T14:20:36.1Z</time>
      </trkpt>
      <trkpt lat="48.63297" lon="-2.42111">
        <ele>82</ele>
        <time>2016-02-21T14:20:38.1Z</time>
      </trkpt>
      <trkpt lat="48.63294" lon="-2.42113">
        <ele>82</ele>
        <time>2016-02-21T14:20:41.1Z</time>
      </trkpt>
      <trkpt lat="48.63294" lon="-2.42116">
        <ele>83</ele>
        <time>2016-02-21T14:20:43.1Z</time>
      </trkpt>
      <trkpt lat="48.63294" lon="-2.42118">
        <ele>83</ele>
        <time>2016-02-21T14:20:45.1Z</time>
      </trkpt>
      <trkpt lat="48.63293" lon="-2.4212">
        <ele>83</ele>
        <time>2016-02-21T14:20:47.1Z</time>
      </trkpt>
      <trkpt lat="48.63292" lon="-2.42123">
        <ele>84</ele>
        <time>2016-02-21T14:20:50.1Z</time>
      </trkpt>
      <trkpt lat="48.6329" lon="-2.42126">
        <ele>84</ele>
        <time>2016-02-21T14:20:53.1Z</time>
      </trkpt>
      <trkpt lat="48.6329" lon="-2.42128">
        <ele>84</ele>
        <time>2016-02-21T14:20:55.1Z</time>
      </trkpt>
      <trkpt lat="48.63287" lon="-2.42129">
        <ele>84</ele>
        <time>2016-02-21T14:20:58.1Z</time>
      </trkpt>
      <trkpt lat="48.63286" lon="-2.4213">
        <ele>84</ele>
        <time>2016-02-21T14:21:00.1Z</time>
      </trkpt>
      <trkpt lat="48.63284" lon="-2.42132">
        <ele>85</ele>
        <time>2016-02-21T14:21:03.1Z</time>
      </trkpt>
      <trkpt lat="48.63283" lon="-2.42133">
        <ele>85</ele>
        <time>2016-02-21T14:21:06.1Z</time>
      </trkpt>
      <trkpt lat="48.63282" lon="-2.42135">
        <ele>85</ele>
        <time>2016-02-21T14:21:08.1Z</time>
      </trkpt>
      <trkpt lat="48.63281" lon="-2.42137">
        <ele>85</ele>
        <time>2016-02-21T14:21:11.1Z</time>
      </trkpt>
      <trkpt lat="48.63279" lon="-2.42139">
        <ele>86</ele>
        <time>2016-02-21T14:21:14.1Z</time>
      </trkpt>
      <trkpt lat="48.63278" lon="-2.4214">
        <ele>87</ele>
        <time>2016-02-21T14:21:17.1Z</time>
      </trkpt>
      <trkpt lat="48.63276" lon="-2.42141">
        <ele>87</ele>
        <time>2016-02-21T14:21:19.1Z</time>
      </trkpt>
      <trkpt lat="48.63276" lon="-2.42144">
        <ele>88</ele>
        <time>2016-02-21T14:21:22.1Z</time>
      </trkpt>
      <trkpt lat="48.63275" lon="-2.42146">
        <ele>88</ele>
        <time>2016-02-21T14:21:24.1Z</time>
      </trkpt>
      <trkpt lat="48.63274" lon="-2.42149">
        <ele>89</ele>
        <time>2016-02-21T14:21:27.1Z</time>
      </trkpt>
      <trkpt lat="48.63271" lon="-2.42151">
        <ele>89</ele>
        <time>2016-02-21T14:21:30.1Z</time>
      </trkpt>
      <trkpt lat="48.63271" lon="-2.42153">
        <ele>89</ele>
        <time>2016-02-21T14:21:32.1Z</time>
      </trkpt>
      <trkpt lat="48.63269" lon="-2.42154">
        <ele>90</ele>
        <time>2016-02-21T14:21:34.1Z</time>
      </trkpt>
      <trkpt lat="48.63267" lon="-2.42157">
        <ele>90</ele>
        <time>2016-02-21T14:21:37.1Z</time>
      </trkpt>
      <trkpt lat="48.63267" lon="-2.42158">
        <ele>90</ele>
        <time>2016-02-21T14:21:39.1Z</time>
      </trkpt>
      <trkpt lat="48.63265" lon="-2.42161">
        <ele>91</ele>
        <time>2016-02-21T14:21:43.1Z</time>
      </trkpt>
      <trkpt lat="48.63264" lon="-2.42164">
        <ele>91</ele>
        <time>2016-02-21T14:21:45.1Z</time>
      </trkpt>
      <trkpt lat="48.63263" lon="-2.42166">
        <ele>92</ele>
        <time>2016-02-21T14:21:47.1Z</time>
      </trkpt>
      <trkpt lat="48.63261" lon="-2.42167">
        <ele>92</ele>
        <time>2016-02-21T14:21:50.1Z</time>
      </trkpt>
      <trkpt lat="48.6326" lon="-2.42169">
        <ele>93</ele>
        <time>2016-02-21T14:21:53.1Z</time>
      </trkpt>
      <trkpt lat="48.6326" lon="-2.42171">
        <ele>93</ele>
        <time>2016-02-21T14:21:56.1Z</time>
      </trkpt>
      <trkpt lat="48.63259" lon="-2.42173">
        <ele>93</ele>
        <time>2016-02-21T14:21:58.1Z</time>
      </trkpt>
      <trkpt lat="48.63259" lon="-2.42176">
        <ele>93</ele>
        <time>2016-02-21T14:22:01.1Z</time>
      </trkpt>
      <trkpt lat="48.63258" lon="-2.42177">
        <ele>93</ele>
        <time>2016-02-21T14:22:04.1Z</time>
      </trkpt>
      <trkpt lat="48.63258" lon="-2.42179">
        <ele>94</ele>
        <time>2016-02-21T14:22:06.1Z</time>
      </trkpt>
      <trkpt lat="48.63258" lon="-2.42181">
        <ele>94</ele>
        <time>2016-02-21T14:22:09.1Z</time>
      </trkpt>
      <trkpt lat="48.63257" lon="-2.42183">
        <ele>94</ele>
        <time>2016-02-21T14:22:11.1Z</time>
      </trkpt>
      <trkpt lat="48.63257" lon="-2.42184">
        <ele>95</ele>
        <time>2016-02-21T14:22:13.1Z</time>
      </trkpt>
      <trkpt lat="48.63258" lon="-2.42186">
        <ele>95</ele>
        <time>2016-02-21T14:22:16.1Z</time>
      </trkpt>
      <trkpt lat="48.63257" lon="-2.42188">
        <ele>95</ele>
        <time>2016-02-21T14:22:19.1Z</time>
      </trkpt>
      <trkpt lat="48.63257" lon="-2.42189">
        <ele>96</ele>
        <time>2016-02-21T14:22:21.1Z</time>
      </trkpt>
      <trkpt lat="48.63258" lon="-2.42192">
        <ele>96</ele>
        <time>2016-02-21T14:22:24.1Z</time>
      </trkpt>
      <trkpt lat="48.63258" lon="-2.42194">
        <ele>96</ele>
        <time>2016-02-21T14:22:26.1Z</time>
      </trkpt>
      <trkpt lat="48.63259" lon="-2.42198">
        <ele>97</ele>
        <time>2016-02-21T14:22:29.1Z</time>
      </trkpt>
      <trkpt lat="48.6326" lon="-2.422">
        <ele>97</ele>
        <time>2016-02-21T14:22:31.1Z</time>
      </trkpt>
      <trkpt lat="48.6326" lon="-2.42201">
        <ele>97</ele>
        <time>2016-02-21T14:22:34.1Z</time>
      </trkpt>
      <trkpt lat="48.6326" lon="-2.42206">
        <ele>98</ele>
        <time>2016-02-21T14:22:36.1Z</time>
      </trkpt>
      <trkpt lat="48.63259" lon="-2.42209">
        <ele>98</ele>
        <time>2016-02-21T14:22:39.1Z</time>
      </trkpt>
      <trkpt lat="48.63259" lon="-2.42213">
        <ele>98</ele>
        <time>2016-02-21T14:22:42.1Z</time>
      </trkpt>
      <trkpt lat="48.63258" lon="-2.42216">
        <ele>98</ele>
        <time>2016-02-21T14:22:45.1Z</time>
      </trkpt>
      <trkpt lat="48.63258" lon="-2.4222">
        <ele>99</ele>
        <time>2016-02-21T14:22:47.1Z</time>
      </trkpt>
      <trkpt lat="48.63259" lon="-2.42222">
        <ele>99</ele>
        <time>2016-02-21T14:22:50.1Z</time>
      </trkpt>
      <trkpt lat="48.6326" lon="-2.42226">
        <ele>99</ele>
        <time>2016-02-21T14:22:53.1Z</time>
      </trkpt>
      <trkpt lat="48.6326" lon="-2.4223">
        <ele>100</ele>
        <time>2016-02-21T14:22:56.1Z</time>
      </trkpt>
      <trkpt lat="48.6326" lon="-2.42232">
        <ele>100</ele>
        <time>2016-02-21T14:22:58.1Z</time>
      </trkpt>
      <trkpt lat="48.6326" lon="-2.42234">
        <ele>100</ele>
        <time>2016-02-21T14:23:01.1Z</time>
      </trkpt>
      <trkpt lat="48.63259" lon="-2.42236">
        <ele>100</ele>
        <time>2016-02-21T14:23:03.1Z</time>
      </trkpt>
      <trkpt lat="48.63258" lon="-2.42239">
        <ele>100</ele>
        <time>2016-02-21T14:23:06.1Z</time>
      </trkpt>
      <trkpt lat="48.63257" lon="-2.42241">
        <ele>101</ele>
        <time>2016-02-21T14:23:09.1Z</time>
      </trkpt>
      <trkpt lat="48.63256" lon="-2.42244">
        <ele>101</ele>
        <time>2016-02-21T14:23:11.1Z</time>
      </trkpt>
      <trkpt lat="48.63255" lon="-2.42247">
        <ele>102</ele>
        <time>2016-02-21T14:23:14.1Z</time>
      </trkpt>
      <trkpt lat="48.63255" lon="-2.42249">
        <ele>102</ele>
        <time>2016-02-21T14:23:16.1Z</time>
      </trkpt>
      <trkpt lat="48.63254" lon="-2.42251">
        <ele>102</ele>
        <time>2016-02-21T14:23:18.1Z</time>
      </trkpt>
      <trkpt lat="48.63253" lon="-2.42254">
        <ele>103</ele>
        <time>2016-02-21T14:23:21.1Z</time>
      </trkpt>
      <trkpt lat="48.63252" lon="-2.42256">
        <ele>103</ele>
        <time>2016-02-21T14:23:23.1Z</time>
      </trkpt>
      <trkpt lat="48.6325" lon="-2.42259">
        <ele>103</ele>
        <time>2016-02-21T14:23:26.1Z</time>
      </trkpt>
      <trkpt lat="48.63248" lon="-2.42262">
        <ele>103</ele>
        <time>2016-02-21T14:23:29.1Z</time>
      </trkpt>
      <trkpt lat="48.63247" lon="-2.42266">
        <ele>104</ele>
        <time>2016-02-21T14:23:32.1Z</time>
      </trkpt>
      <trkpt lat="48.63247" lon="-2.42268">
        <ele>104</ele>
        <time>2016-02-21T14:23:35.1Z</time>
      </trkpt>
      <trkpt lat="48.63245" lon="-2.42271">
        <ele>104</ele>
        <time>2016-02-21T14:23:38.1Z</time>
      </trkpt>
      <trkpt lat="48.63244" lon="-2.42273">
        <ele>105</ele>
        <time>2016-02-21T14:23:40.1Z</time>
      </trkpt>
      <trkpt lat="48.63242" lon="-2.42277">
        <ele>105</ele>
        <time>2016-02-21T14:23:43.1Z</time>
      </trkpt>
      <trkpt lat="48.63241" lon="-2.4228">
        <ele>105</ele>
        <time>2016-02-21T14:23:45.1Z</time>
      </trkpt>
      <trkpt lat="48.6324" lon="-2.42283">
        <ele>105</ele>
        <time>2016-02-21T14:23:47.1Z</time>
      </trkpt>
      <trkpt lat="48.63237" lon="-2.42286">
        <ele>105</ele>
        <time>2016-02-21T14:23:50.1Z</time>
      </trkpt>
      <trkpt lat="48.63234" lon="-2.42289">
        <ele>106</ele>
        <time>2016-02-21T14:23:53.1Z</time>
      </trkpt>
      <trkpt lat="48.63232" lon="-2.42292">
        <ele>106</ele>
        <time>2016-02-21T14:23:56.1Z</time>
      </trkpt>
      <trkpt lat="48.63231" lon="-2.42294">
        <ele>106</ele>
        <time>2016-02-21T14:23:58.1Z</time>
      </trkpt>
      <trkpt lat="48.63229" lon="-2.42297">
        <ele>106</ele>
        <time>2016-02-21T14:24:01.1Z</time>
      </trkpt>
      <trkpt lat="48.63227" lon="-2.42301">
        <ele>106</ele>
        <time>2016-02-21T14:24:04.1Z</time>
      </trkpt>
      <trkpt lat="48.63224" lon="-2.42303">
        <ele>107</ele>
        <time>2016-02-21T14:24:07.1Z</time>
      </trkpt>
      <trkpt lat="48.63222" lon="-2.42306">
        <ele>107</ele>
        <time>2016-02-21T14:24:10.1Z</time>
      </trkpt>
      <trkpt lat="48.63219" lon="-2.42308">
        <ele>107</ele>
        <time>2016-02-21T14:24:13.1Z</time>
      </trkpt>
      <trkpt lat="48.63216" lon="-2.42309">
        <ele>107</ele>
        <time>2016-02-21T14:24:15.1Z</time>
      </trkpt>
      <trkpt lat="48.63213" lon="-2.42312">
        <ele>107</ele>
        <time>2016-02-21T14:24:18.1Z</time>
      </trkpt>
      <trkpt lat="48.63212" lon="-2.42313">
        <ele>108</ele>
        <time>2016-02-21T14:24:20.1Z</time>
      </trkpt>
      <trkpt lat="48.63211" lon="-2.42314">
        <ele>108</ele>
        <time>2016-02-21T14:24:22.1Z</time>
      </trkpt>
      <trkpt lat="48.6321" lon="-2.42315">
        <ele>108</ele>
        <time>2016-02-21T14:24:25.1Z</time>
      </trkpt>
      <trkpt lat="48.6321" lon="-2.42315">
        <ele>108</ele>
        <time>2016-02-21T14:24:27.1Z</time>
      </trkpt>
      <trkpt lat="48.63209" lon="-2.42316">
        <ele>108</ele>
        <time>2016-02-21T14:24:30.1Z</time>
      </trkpt>
      <trkpt lat="48.63209" lon="-2.42315">
        <ele>108</ele>
        <time>2016-02-21T14:24:32.1Z</time>
      </trkpt>
      <trkpt lat="48.63207" lon="-2.42315">
        <ele>108</ele>
        <time>2016-02-21T14:24:35.1Z</time>
      </trkpt>
      <trkpt lat="48.63206" lon="-2.42315">
        <ele>108</ele>
        <time>2016-02-21T14:24:38.1Z</time>
      </trkpt>
      <trkpt lat="48.63206" lon="-2.42315">
        <ele>108</ele>
        <time>2016-02-21T14:24:41.1Z</time>
      </trkpt>
      <trkpt lat="48.63206" lon="-2.42316">
        <ele>108</ele>
        <time>2016-02-21T14:24:43.1Z</time>
      </trkpt>
      <trkpt lat="48.63205" lon="-2.42316">
        <ele>108</ele>
        <time>2016-02-21T14:24:46.1Z</time>
      </trkpt>
      <trkpt lat="48.63205" lon="-2.42316">
        <ele>109</ele>
        <time>2016-02-21T14:24:48.1Z</time>
      </trkpt>
      <trkpt lat="48.63205" lon="-2.42317">
        <ele>109</ele>
        <time>2016-02-21T14:24:51.1Z</time>
      </trkpt>
      <trkpt lat="48.63204" lon="-2.42317">
        <ele>109</ele>
        <time>2016-02-21T14:24:54.1Z</time>
      </trkpt>
      <trkpt lat="48.63203" lon="-2.42319">
        <ele>109</ele>
        <time>2016-02-21T14:24:57.1Z</time>
      </trkpt>
      <trkpt lat="48.63203" lon="-2.4232">
        <ele>109</ele>
        <time>2016-02-21T14:25:00.1Z</time>
      </trkpt>
      <trkpt lat="48.63203" lon="-2.42319">
        <ele>108</ele>
        <time>2016-02-21T14:25:02.1Z</time>
      </trkpt>
      <trkpt lat="48.63203" lon="-2.42319">
        <ele>108</ele>
        <time>2016-02-21T14:25:05.1Z</time>
      </trkpt>
      <trkpt lat="48.63203" lon="-2.42319">
        <ele>108</ele>
        <time>2016-02-21T14:25:07.1Z</time>
      </trkpt>
      <trkpt lat="48.63202" lon="-2.42319">
        <ele>108</ele>
        <time>2016-02-21T14:25:10.1Z</time>
      </trkpt>
      <trkpt lat="48.63201" lon="-2.42319">
        <ele>108</ele>
        <time>2016-02-21T14:25:13.1Z</time>
      </trkpt>
      <trkpt lat="48.63201" lon="-2.4232">
        <ele>108</ele>
        <time>2016-02-21T14:25:16.1Z</time>
      </trkpt>
      <trkpt lat="48.63202" lon="-2.42322">
        <ele>108</ele>
        <time>2016-02-21T14:25:19.1Z</time>
      </trkpt>
      <trkpt lat="48.63202" lon="-2.42323">
        <ele>108</ele>
        <time>2016-02-21T14:25:21.1Z</time>
      </trkpt>
      <trkpt lat="48.63203" lon="-2.42324">
        <ele>108</ele>
        <time>2016-02-21T14:25:24.1Z</time>
      </trkpt>
      <trkpt lat="48.63203" lon="-2.42325">
        <ele>108</ele>
        <time>2016-02-21T14:25:26.1Z</time>
      </trkpt>
      <trkpt lat="48.63203" lon="-2.42325">
        <ele>108</ele>
        <time>2016-02-21T14:25:28.1Z</time>
      </trkpt>
      <trkpt lat="48.63203" lon="-2.42326">
        <ele>108</ele>
        <time>2016-02-21T14:25:32.1Z</time>
      </trkpt>
      <trkpt lat="48.63204" lon="-2.42327">
        <ele>108</ele>
        <time>2016-02-21T14:25:35.1Z</time>
      </trkpt>
      <trkpt lat="48.63204" lon="-2.42327">
        <ele>108</ele>
        <time>2016-02-21T14:25:37.1Z</time>
      </trkpt>
      <trkpt lat="48.63205" lon="-2.42328">
        <ele>108</ele>
        <time>2016-02-21T14:25:40.1Z</time>
      </trkpt>
      <trkpt lat="48.63205" lon="-2.42329">
        <ele>108</ele>
        <time>2016-02-21T14:25:43.1Z</time>
      </trkpt>
      <trkpt lat="48.63206" lon="-2.42329">
        <ele>108</ele>
        <time>2016-02-21T14:25:45.1Z</time>
      </trkpt>
      <trkpt lat="48.63206" lon="-2.42329">
        <ele>108</ele>
        <time>2016-02-21T14:25:48.1Z</time>
      </trkpt>
      <trkpt lat="48.63207" lon="-2.4233">
        <ele>108</ele>
        <time>2016-02-21T14:25:50.1Z</time>
      </trkpt>
      <trkpt lat="48.63208" lon="-2.42331">
        <ele>108</ele>
        <time>2016-02-21T14:25:53.1Z</time>
      </trkpt>
      <trkpt lat="48.63209" lon="-2.42332">
        <ele>108</ele>
        <time>2016-02-21T14:25:56.1Z</time>
      </trkpt>
      <trkpt lat="48.63209" lon="-2.42332">
        <ele>108</ele>
        <time>2016-02-21T14:25:58.1Z</time>
      </trkpt>
      <trkpt lat="48.6321" lon="-2.42334">
        <ele>108</ele>
        <time>2016-02-21T14:26:01.1Z</time>
      </trkpt>
      <trkpt lat="48.6321" lon="-2.42336">
        <ele>108</ele>
        <time>2016-02-21T14:26:04.1Z</time>
      </trkpt>
      <trkpt lat="48.63211" lon="-2.4234">
        <ele>108</ele>
        <time>2016-02-21T14:26:07.1Z</time>
      </trkpt>
      <trkpt lat="48.63212" lon="-2.4234">
        <ele>108</ele>
        <time>2016-02-21T14:26:09.1Z</time>
      </trkpt>
      <trkpt lat="48.63212" lon="-2.42338">
        <ele>108</ele>
        <time>2016-02-21T14:26:12.1Z</time>
      </trkpt>
      <trkpt lat="48.63212" lon="-2.42337">
        <ele>107</ele>
        <time>2016-02-21T14:26:16.1Z</time>
      </trkpt>
      <trkpt lat="48.63212" lon="-2.42337">
        <ele>108</ele>
        <time>2016-02-21T14:26:18.1Z</time>
      </trkpt>
      <trkpt lat="48.63211" lon="-2.42335">
        <ele>108</ele>
        <time>2016-02-21T14:26:20.1Z</time>
      </trkpt>
      <trkpt lat="48.63211" lon="-2.42333">
        <ele>108</ele>
        <time>2016-02-21T14:26:23.1Z</time>
      </trkpt>
      <trkpt lat="48.63211" lon="-2.42332">
        <ele>108</ele>
        <time>2016-02-21T14:26:25.1Z</time>
      </trkpt>
      <trkpt lat="48.6321" lon="-2.42331">
        <ele>108</ele>
        <time>2016-02-21T14:26:27.1Z</time>
      </trkpt>
      <trkpt lat="48.63209" lon="-2.42331">
        <ele>108</ele>
        <time>2016-02-21T14:26:30.1Z</time>
      </trkpt>
      <trkpt lat="48.63209" lon="-2.4233">
        <ele>108</ele>
        <time>2016-02-21T14:26:33.1Z</time>
      </trkpt>
      <trkpt lat="48.63209" lon="-2.4233">
        <ele>108</ele>
        <time>2016-02-21T14:26:36.1Z</time>
      </trkpt>
      <trkpt lat="48.63209" lon="-2.4233">
        <ele>108</ele>
        <time>2016-02-21T14:26:38.1Z</time>
      </trkpt>
      <trkpt lat="48.63208" lon="-2.42329">
        <ele>108</ele>
        <time>2016-02-21T14:26:41.1Z</time>
      </trkpt>
      <trkpt lat="48.63208" lon="-2.42329">
        <ele>108</ele>
        <time>2016-02-21T14:26:44.1Z</time>
      </trkpt>
      <trkpt lat="48.63208" lon="-2.42328">
        <ele>108</ele>
        <time>2016-02-21T14:26:46.1Z</time>
      </trkpt>
      <trkpt lat="48.63208" lon="-2.42327">
        <ele>108</ele>
        <time>2016-02-21T14:26:49.1Z</time>
      </trkpt>
      <trkpt lat="48.63209" lon="-2.42326">
        <ele>108</ele>
        <time>2016-02-21T14:26:51.1Z</time>
      </trkpt>
      <trkpt lat="48.63209" lon="-2.42326">
        <ele>108</ele>
        <time>2016-02-21T14:26:54.1Z</time>
      </trkpt>
      <trkpt lat="48.6321" lon="-2.42326">
        <ele>108</ele>
        <time>2016-02-21T14:26:57.1Z</time>
      </trkpt>
      <trkpt lat="48.6321" lon="-2.42325">
        <ele>108</ele>
        <time>2016-02-21T14:27:00.1Z</time>
      </trkpt>
      <trkpt lat="48.6321" lon="-2.42325">
        <ele>108</ele>
        <time>2016-02-21T14:27:07.1Z</time>
      </trkpt>
      <trkpt lat="48.63209" lon="-2.42324">
        <ele>108</ele>
        <time>2016-02-21T14:27:10.1Z</time>
      </trkpt>
      <trkpt lat="48.63209" lon="-2.42324">
        <ele>108</ele>
        <time>2016-02-21T14:27:13.1Z</time>
      </trkpt>
      <trkpt lat="48.63209" lon="-2.42324">
        <ele>108</ele>
        <time>2016-02-21T14:27:17.1Z</time>
      </trkpt>
      <trkpt lat="48.63208" lon="-2.42324">
        <ele>108</ele>
        <time>2016-02-21T14:27:19.1Z</time>
      </trkpt>
      <trkpt lat="48.63208" lon="-2.42324">
        <ele>108</ele>
        <time>2016-02-21T14:27:23.1Z</time>
      </trkpt>
      <trkpt lat="48.63208" lon="-2.42324">
        <ele>107</ele>
        <time>2016-02-21T14:27:25.1Z</time>
      </trkpt>
      <trkpt lat="48.63208" lon="-2.42324">
        <ele>107</ele>
        <time>2016-02-21T14:27:29.1Z</time>
      </trkpt>
      <trkpt lat="48.63208" lon="-2.42324">
        <ele>107</ele>
        <time>2016-02-21T14:27:32.1Z</time>
      </trkpt>
      <trkpt lat="48.63208" lon="-2.42325">
        <ele>107</ele>
        <time>2016-02-21T14:27:34.1Z</time>
      </trkpt>
      <trkpt lat="48.63208" lon="-2.42326">
        <ele>108</ele>
        <time>2016-02-21T14:27:36.1Z</time>
      </trkpt>
      <trkpt lat="48.63208" lon="-2.42329">
        <ele>108</ele>
        <time>2016-02-21T14:27:39.1Z</time>
      </trkpt>
      <trkpt lat="48.63209" lon="-2.42333">
        <ele>108</ele>
        <time>2016-02-21T14:27:42.1Z</time>
      </trkpt>
      <trkpt lat="48.63209" lon="-2.42337">
        <ele>108</ele>
        <time>2016-02-21T14:27:45.1Z</time>
      </trkpt>
      <trkpt lat="48.63208" lon="-2.42342">
        <ele>108</ele>
        <time>2016-02-21T14:27:48.1Z</time>
      </trkpt>
      <trkpt lat="48.63206" lon="-2.42344">
        <ele>108</ele>
        <time>2016-02-21T14:27:50.1Z</time>
      </trkpt>
      <trkpt lat="48.63205" lon="-2.4235">
        <ele>108</ele>
        <time>2016-02-21T14:27:53.1Z</time>
      </trkpt>
      <trkpt lat="48.63203" lon="-2.42354">
        <ele>108</ele>
        <time>2016-02-21T14:27:56.1Z</time>
      </trkpt>
      <trkpt lat="48.63201" lon="-2.42359">
        <ele>108</ele>
        <time>2016-02-21T14:27:59.1Z</time>
      </trkpt>
      <trkpt lat="48.63198" lon="-2.42363">
        <ele>108</ele>
        <time>2016-02-21T14:28:02.1Z</time>
      </trkpt>
      <trkpt lat="48.63197" lon="-2.42366">
        <ele>108</ele>
        <time>2016-02-21T14:28:04.1Z</time>
      </trkpt>
      <trkpt lat="48.63195" lon="-2.42369">
        <ele>108</ele>
        <time>2016-02-21T14:28:06.1Z</time>
      </trkpt>
      <trkpt lat="48.63193" lon="-2.42373">
        <ele>108</ele>
        <time>2016-02-21T14:28:09.1Z</time>
      </trkpt>
      <trkpt lat="48.63191" lon="-2.42377">
        <ele>108</ele>
        <time>2016-02-21T14:28:12.1Z</time>
      </trkpt>
      <trkpt lat="48.6319" lon="-2.4238">
        <ele>108</ele>
        <time>2016-02-21T14:28:14.1Z</time>
      </trkpt>
      <trkpt lat="48.63187" lon="-2.42384">
        <ele>108</ele>
        <time>2016-02-21T14:28:17.1Z</time>
      </trkpt>
      <trkpt lat="48.63185" lon="-2.42388">
        <ele>108</ele>
        <time>2016-02-21T14:28:20.1Z</time>
      </trkpt>
      <trkpt lat="48.63183" lon="-2.4239">
        <ele>108</ele>
        <time>2016-02-21T14:28:22.1Z</time>
      </trkpt>
      <trkpt lat="48.63181" lon="-2.42395">
        <ele>108</ele>
        <time>2016-02-21T14:28:25.1Z</time>
      </trkpt>
      <trkpt lat="48.63179" lon="-2.42399">
        <ele>108</ele>
        <time>2016-02-21T14:28:28.1Z</time>
      </trkpt>
      <trkpt lat="48.63177" lon="-2.42403">
        <ele>108</ele>
        <time>2016-02-21T14:28:31.1Z</time>
      </trkpt>
      <trkpt lat="48.63175" lon="-2.42406">
        <ele>108</ele>
        <time>2016-02-21T14:28:33.1Z</time>
      </trkpt>
      <trkpt lat="48.63173" lon="-2.4241">
        <ele>108</ele>
        <time>2016-02-21T14:28:36.1Z</time>
      </trkpt>
      <trkpt lat="48.63172" lon="-2.42413">
        <ele>109</ele>
        <time>2016-02-21T14:28:38.1Z</time>
      </trkpt>
      <trkpt lat="48.6317" lon="-2.42417">
        <ele>109</ele>
        <time>2016-02-21T14:28:41.1Z</time>
      </trkpt>
      <trkpt lat="48.63168" lon="-2.42421">
        <ele>109</ele>
        <time>2016-02-21T14:28:44.1Z</time>
      </trkpt>
      <trkpt lat="48.63166" lon="-2.42425">
        <ele>109</ele>
        <time>2016-02-21T14:28:47.1Z</time>
      </trkpt>
      <trkpt lat="48.63164" lon="-2.4243">
        <ele>110</ele>
        <time>2016-02-21T14:28:50.1Z</time>
      </trkpt>
      <trkpt lat="48.63162" lon="-2.42434">
        <ele>110</ele>
        <time>2016-02-21T14:28:53.1Z</time>
      </trkpt>
      <trkpt lat="48.6316" lon="-2.42438">
        <ele>110</ele>
        <time>2016-02-21T14:28:56.1Z</time>
      </trkpt>
      <trkpt lat="48.63158" lon="-2.42443">
        <ele>110</ele>
        <time>2016-02-21T14:28:59.1Z</time>
      </trkpt>
      <trkpt lat="48.63157" lon="-2.42445">
        <ele>110</ele>
        <time>2016-02-21T14:29:01.1Z</time>
      </trkpt>
      <trkpt lat="48.63155" lon="-2.42449">
        <ele>110</ele>
        <time>2016-02-21T14:29:04.1Z</time>
      </trkpt>
      <trkpt lat="48.63152" lon="-2.42453">
        <ele>110</ele>
        <time>2016-02-21T14:29:07.1Z</time>
      </trkpt>
      <trkpt lat="48.6315" lon="-2.42457">
        <ele>111</ele>
        <time>2016-02-21T14:29:10.1Z</time>
      </trkpt>
      <trkpt lat="48.63149" lon="-2.4246">
        <ele>111</ele>
        <time>2016-02-21T14:29:12.1Z</time>
      </trkpt>
      <trkpt lat="48.63147" lon="-2.42464">
        <ele>111</ele>
        <time>2016-02-21T14:29:15.1Z</time>
      </trkpt>
      <trkpt lat="48.63146" lon="-2.42467">
        <ele>111</ele>
        <time>2016-02-21T14:29:18.1Z</time>
      </trkpt>
      <trkpt lat="48.63144" lon="-2.42471">
        <ele>111</ele>
        <time>2016-02-21T14:29:20.1Z</time>
      </trkpt>
      <trkpt lat="48.63142" lon="-2.42475">
        <ele>111</ele>
        <time>2016-02-21T14:29:23.1Z</time>
      </trkpt>
      <trkpt lat="48.6314" lon="-2.42478">
        <ele>111</ele>
        <time>2016-02-21T14:29:25.1Z</time>
      </trkpt>
      <trkpt lat="48.63139" lon="-2.4248">
        <ele>111</ele>
        <time>2016-02-21T14:29:27.1Z</time>
      </trkpt>
      <trkpt lat="48.63138" lon="-2.42483">
        <ele>111</ele>
        <time>2016-02-21T14:29:29.1Z</time>
      </trkpt>
      <trkpt lat="48.63137" lon="-2.42486">
        <ele>111</ele>
        <time>2016-02-21T14:29:31.1Z</time>
      </trkpt>
      <trkpt lat="48.63134" lon="-2.4249">
        <ele>111</ele>
        <time>2016-02-21T14:29:34.1Z</time>
      </trkpt>
      <trkpt lat="48.63132" lon="-2.42494">
        <ele>111</ele>
        <time>2016-02-21T14:29:37.1Z</time>
      </trkpt>
      <trkpt lat="48.63131" lon="-2.42497">
        <ele>111</ele>
        <time>2016-02-21T14:29:39.1Z</time>
      </trkpt>
      <trkpt lat="48.6313" lon="-2.42499">
        <ele>112</ele>
        <time>2016-02-21T14:29:41.1Z</time>
      </trkpt>
      <trkpt lat="48.63128" lon="-2.42504">
        <ele>112</ele>
        <time>2016-02-21T14:29:44.1Z</time>
      </trkpt>
      <trkpt lat="48.63126" lon="-2.42507">
        <ele>112</ele>
        <time>2016-02-21T14:29:46.1Z</time>
      </trkpt>
      <trkpt lat="48.63124" lon="-2.42511">
        <ele>112</ele>
        <time>2016-02-21T14:29:49.1Z</time>
      </trkpt>
      <trkpt lat="48.63123" lon="-2.42513">
        <ele>113</ele>
        <time>2016-02-21T14:29:51.1Z</time>
      </trkpt>
      <trkpt lat="48.63121" lon="-2.42518">
        <ele>113</ele>
        <time>2016-02-21T14:29:54.1Z</time>
      </trkpt>
      <trkpt lat="48.63119" lon="-2.42522">
        <ele>113</ele>
        <time>2016-02-21T14:29:57.1Z</time>
      </trkpt>
      <trkpt lat="48.63118" lon="-2.42525">
        <ele>113</ele>
        <time>2016-02-21T14:29:59.1Z</time>
      </trkpt>
      <trkpt lat="48.63116" lon="-2.42529">
        <ele>113</ele>
        <time>2016-02-21T14:30:01.1Z</time>
      </trkpt>
      <trkpt lat="48.63115" lon="-2.42533">
        <ele>113</ele>
        <time>2016-02-21T14:30:04.1Z</time>
      </trkpt>
      <trkpt lat="48.63113" lon="-2.42536">
        <ele>114</ele>
        <time>2016-02-21T14:30:07.1Z</time>
      </trkpt>
      <trkpt lat="48.63111" lon="-2.42541">
        <ele>114</ele>
        <time>2016-02-21T14:30:10.1Z</time>
      </trkpt>
      <trkpt lat="48.63109" lon="-2.42544">
        <ele>113</ele>
        <time>2016-02-21T14:30:13.1Z</time>
      </trkpt>
      <trkpt lat="48.63107" lon="-2.42549">
        <ele>113</ele>
        <time>2016-02-21T14:30:16.1Z</time>
      </trkpt>
      <trkpt lat="48.63106" lon="-2.42551">
        <ele>113</ele>
        <time>2016-02-21T14:30:18.1Z</time>
      </trkpt>
      <trkpt lat="48.63103" lon="-2.42555">
        <ele>113</ele>
        <time>2016-02-21T14:30:21.1Z</time>
      </trkpt>
      <trkpt lat="48.63102" lon="-2.42558">
        <ele>114</ele>
        <time>2016-02-21T14:30:23.1Z</time>
      </trkpt>
      <trkpt lat="48.631" lon="-2.42563">
        <ele>113</ele>
        <time>2016-02-21T14:30:26.1Z</time>
      </trkpt>
      <trkpt lat="48.63099" lon="-2.42565">
        <ele>114</ele>
        <time>2016-02-21T14:30:28.1Z</time>
      </trkpt>
      <trkpt lat="48.63097" lon="-2.4257">
        <ele>114</ele>
        <time>2016-02-21T14:30:31.1Z</time>
      </trkpt>
      <trkpt lat="48.63094" lon="-2.42574">
        <ele>114</ele>
        <time>2016-02-21T14:30:34.1Z</time>
      </trkpt>
      <trkpt lat="48.63093" lon="-2.42577">
        <ele>114</ele>
        <time>2016-02-21T14:30:36.1Z</time>
      </trkpt>
      <trkpt lat="48.63091" lon="-2.42581">
        <ele>114</ele>
        <time>2016-02-21T14:30:39.1Z</time>
      </trkpt>
      <trkpt lat="48.63089" lon="-2.42583">
        <ele>114</ele>
        <time>2016-02-21T14:30:41.1Z</time>
      </trkpt>
      <trkpt lat="48.63088" lon="-2.42586">
        <ele>114</ele>
        <time>2016-02-21T14:30:43.1Z</time>
      </trkpt>
      <trkpt lat="48.63086" lon="-2.42591">
        <ele>114</ele>
        <time>2016-02-21T14:30:46.1Z</time>
      </trkpt>
      <trkpt lat="48.63085" lon="-2.42595">
        <ele>115</ele>
        <time>2016-02-21T14:30:49.1Z</time>
      </trkpt>
      <trkpt lat="48.63084" lon="-2.42598">
        <ele>115</ele>
        <time>2016-02-21T14:30:51.1Z</time>
      </trkpt>
      <trkpt lat="48.63085" lon="-2.42599">
        <ele>115</ele>
        <time>2016-02-21T14:30:54.1Z</time>
      </trkpt>
      <trkpt lat="48.63084" lon="-2.426">
        <ele>115</ele>
        <time>2016-02-21T14:30:56.1Z</time>
      </trkpt>
      <trkpt lat="48.63085" lon="-2.42601">
        <ele>115</ele>
        <time>2016-02-21T14:30:59.1Z</time>
      </trkpt>
      <trkpt lat="48.63084" lon="-2.42601">
        <ele>115</ele>
        <time>2016-02-21T14:31:01.1Z</time>
      </trkpt>
      <trkpt lat="48.63084" lon="-2.42601">
        <ele>115</ele>
        <time>2016-02-21T14:31:06.1Z</time>
      </trkpt>
      <trkpt lat="48.63084" lon="-2.42602">
        <ele>115</ele>
        <time>2016-02-21T14:31:08.1Z</time>
      </trkpt>
      <trkpt lat="48.63085" lon="-2.42603">
        <ele>115</ele>
        <time>2016-02-21T14:31:10.1Z</time>
      </trkpt>
      <trkpt lat="48.63084" lon="-2.42603">
        <ele>115</ele>
        <time>2016-02-21T14:31:13.1Z</time>
      </trkpt>
      <trkpt lat="48.63084" lon="-2.42602">
        <ele>116</ele>
        <time>2016-02-21T14:31:15.1Z</time>
      </trkpt>
      <trkpt lat="48.63081" lon="-2.42604">
        <ele>116</ele>
        <time>2016-02-21T14:31:17.1Z</time>
      </trkpt>
      <trkpt lat="48.63078" lon="-2.42609">
        <ele>115</ele>
        <time>2016-02-21T14:31:20.1Z</time>
      </trkpt>
      <trkpt lat="48.63076" lon="-2.42612">
        <ele>115</ele>
        <time>2016-02-21T14:31:22.1Z</time>
      </trkpt>
      <trkpt lat="48.63075" lon="-2.42616">
        <ele>115</ele>
        <time>2016-02-21T14:31:24.1Z</time>
      </trkpt>
      <trkpt lat="48.63072" lon="-2.42621">
        <ele>115</ele>
        <time>2016-02-21T14:31:27.1Z</time>
      </trkpt>
      <trkpt lat="48.6307" lon="-2.42624">
        <ele>115</ele>
        <time>2016-02-21T14:31:29.1Z</time>
      </trkpt>
      <trkpt lat="48.63067" lon="-2.42628">
        <ele>115</ele>
        <time>2016-02-21T14:31:32.1Z</time>
      </trkpt>
      <trkpt lat="48.63064" lon="-2.42634">
        <ele>115</ele>
        <time>2016-02-21T14:31:35.1Z</time>
      </trkpt>
      <trkpt lat="48.63062" lon="-2.42636">
        <ele>115</ele>
        <time>2016-02-21T14:31:37.1Z</time>
      </trkpt>
      <trkpt lat="48.6306" lon="-2.4264">
        <ele>115</ele>
        <time>2016-02-21T14:31:40.1Z</time>
      </trkpt>
      <trkpt lat="48.63057" lon="-2.42645">
        <ele>116</ele>
        <time>2016-02-21T14:31:43.1Z</time>
      </trkpt>
      <trkpt lat="48.63055" lon="-2.4265">
        <ele>115</ele>
        <time>2016-02-21T14:31:46.1Z</time>
      </trkpt>
      <trkpt lat="48.63052" lon="-2.42653">
        <ele>116</ele>
        <time>2016-02-21T14:31:49.1Z</time>
      </trkpt>
      <trkpt lat="48.63049" lon="-2.42657">
        <ele>116</ele>
        <time>2016-02-21T14:31:52.1Z</time>
      </trkpt>
      <trkpt lat="48.63048" lon="-2.4266">
        <ele>117</ele>
        <time>2016-02-21T14:31:55.1Z</time>
      </trkpt>
      <trkpt lat="48.63045" lon="-2.42665">
        <ele>117</ele>
        <time>2016-02-21T14:31:57.1Z</time>
      </trkpt>
      <trkpt lat="48.63044" lon="-2.42668">
        <ele>117</ele>
        <time>2016-02-21T14:31:59.1Z</time>
      </trkpt>
      <trkpt lat="48.63041" lon="-2.42674">
        <ele>117</ele>
        <time>2016-02-21T14:32:02.1Z</time>
      </trkpt>
      <trkpt lat="48.63039" lon="-2.42677">
        <ele>117</ele>
        <time>2016-02-21T14:32:04.1Z</time>
      </trkpt>
      <trkpt lat="48.63036" lon="-2.42682">
        <ele>117</ele>
        <time>2016-02-21T14:32:07.1Z</time>
      </trkpt>
      <trkpt lat="48.63035" lon="-2.42685">
        <ele>117</ele>
        <time>2016-02-21T14:32:09.1Z</time>
      </trkpt>
      <trkpt lat="48.63033" lon="-2.4269">
        <ele>117</ele>
        <time>2016-02-21T14:32:12.1Z</time>
      </trkpt>
      <trkpt lat="48.63031" lon="-2.42695">
        <ele>117</ele>
        <time>2016-02-21T14:32:15.1Z</time>
      </trkpt>
      <trkpt lat="48.63029" lon="-2.42697">
        <ele>117</ele>
        <time>2016-02-21T14:32:17.1Z</time>
      </trkpt>
      <trkpt lat="48.63026" lon="-2.42701">
        <ele>117</ele>
        <time>2016-02-21T14:32:20.1Z</time>
      </trkpt>
      <trkpt lat="48.63025" lon="-2.42705">
        <ele>117</ele>
        <time>2016-02-21T14:32:23.1Z</time>
      </trkpt>
      <trkpt lat="48.63023" lon="-2.42709">
        <ele>117</ele>
        <time>2016-02-21T14:32:25.1Z</time>
      </trkpt>
      <trkpt lat="48.63021" lon="-2.42712">
        <ele>117</ele>
        <time>2016-02-21T14:32:27.1Z</time>
      </trkpt>
      <trkpt lat="48.63019" lon="-2.42717">
        <ele>118</ele>
        <time>2016-02-21T14:32:30.1Z</time>
      </trkpt>
      <trkpt lat="48.63017" lon="-2.42722">
        <ele>118</ele>
        <time>2016-02-21T14:32:33.1Z</time>
      </trkpt>
      <trkpt lat="48.63015" lon="-2.42726">
        <ele>118</ele>
        <time>2016-02-21T14:32:36.1Z</time>
      </trkpt>
      <trkpt lat="48.63013" lon="-2.42729">
        <ele>118</ele>
        <time>2016-02-21T14:32:38.1Z</time>
      </trkpt>
      <trkpt lat="48.63012" lon="-2.42734">
        <ele>119</ele>
        <time>2016-02-21T14:32:41.1Z</time>
      </trkpt>
      <trkpt lat="48.6301" lon="-2.42739">
        <ele>119</ele>
        <time>2016-02-21T14:32:44.1Z</time>
      </trkpt>
      <trkpt lat="48.63009" lon="-2.42743">
        <ele>119</ele>
        <time>2016-02-21T14:32:47.1Z</time>
      </trkpt>
      <trkpt lat="48.63007" lon="-2.42748">
        <ele>119</ele>
        <time>2016-02-21T14:32:50.1Z</time>
      </trkpt>
      <trkpt lat="48.63005" lon="-2.4275">
        <ele>119</ele>
        <time>2016-02-21T14:32:52.1Z</time>
      </trkpt>
      <trkpt lat="48.63003" lon="-2.42755">
        <ele>119</ele>
        <time>2016-02-21T14:32:55.1Z</time>
      </trkpt>
      <trkpt lat="48.63001" lon="-2.42759">
        <ele>119</ele>
        <time>2016-02-21T14:32:58.1Z</time>
      </trkpt>
      <trkpt lat="48.63" lon="-2.42762">
        <ele>119</ele>
        <time>2016-02-21T14:33:00.1Z</time>
      </trkpt>
      <trkpt lat="48.62998" lon="-2.42766">
        <ele>119</ele>
        <time>2016-02-21T14:33:03.1Z</time>
      </trkpt>
      <trkpt lat="48.62996" lon="-2.42769">
        <ele>119</ele>
        <time>2016-02-21T14:33:05.1Z</time>
      </trkpt>
      <trkpt lat="48.62994" lon="-2.42773">
        <ele>120</ele>
        <time>2016-02-21T14:33:08.1Z</time>
      </trkpt>
      <trkpt lat="48.62992" lon="-2.42777">
        <ele>120</ele>
        <time>2016-02-21T14:33:11.1Z</time>
      </trkpt>
      <trkpt lat="48.6299" lon="-2.42781">
        <ele>120</ele>
        <time>2016-02-21T14:33:14.1Z</time>
      </trkpt>
      <trkpt lat="48.62988" lon="-2.42785">
        <ele>120</ele>
        <time>2016-02-21T14:33:17.1Z</time>
      </trkpt>
      <trkpt lat="48.62986" lon="-2.42789">
        <ele>120</ele>
        <time>2016-02-21T14:33:20.1Z</time>
      </trkpt>
      <trkpt lat="48.62983" lon="-2.42793">
        <ele>120</ele>
        <time>2016-02-21T14:33:23.1Z</time>
      </trkpt>
      <trkpt lat="48.62982" lon="-2.42796">
        <ele>120</ele>
        <time>2016-02-21T14:33:25.1Z</time>
      </trkpt>
      <trkpt lat="48.62981" lon="-2.42799">
        <ele>120</ele>
        <time>2016-02-21T14:33:27.1Z</time>
      </trkpt>
      <trkpt lat="48.62979" lon="-2.42804">
        <ele>121</ele>
        <time>2016-02-21T14:33:30.1Z</time>
      </trkpt>
      <trkpt lat="48.62979" lon="-2.42808">
        <ele>121</ele>
        <time>2016-02-21T14:33:32.1Z</time>
      </trkpt>
      <trkpt lat="48.6298" lon="-2.42813">
        <ele>121</ele>
        <time>2016-02-21T14:33:35.1Z</time>
      </trkpt>
      <trkpt lat="48.62983" lon="-2.42817">
        <ele>121</ele>
        <time>2016-02-21T14:33:38.1Z</time>
      </trkpt>
      <trkpt lat="48.62986" lon="-2.4282">
        <ele>121</ele>
        <time>2016-02-21T14:33:41.1Z</time>
      </trkpt>
      <trkpt lat="48.62988" lon="-2.42823">
        <ele>121</ele>
        <time>2016-02-21T14:33:43.1Z</time>
      </trkpt>
      <trkpt lat="48.62991" lon="-2.42826">
        <ele>121</ele>
        <time>2016-02-21T14:33:46.1Z</time>
      </trkpt>
      <trkpt lat="48.62994" lon="-2.42829">
        <ele>122</ele>
        <time>2016-02-21T14:33:49.1Z</time>
      </trkpt>
      <trkpt lat="48.62997" lon="-2.42832">
        <ele>121</ele>
        <time>2016-02-21T14:33:52.1Z</time>
      </trkpt>
      <trkpt lat="48.62999" lon="-2.42836">
        <ele>121</ele>
        <time>2016-02-21T14:33:55.1Z</time>
      </trkpt>
      <trkpt lat="48.63001" lon="-2.42838">
        <ele>121</ele>
        <time>2016-02-21T14:33:57.1Z</time>
      </trkpt>
      <trkpt lat="48.63004" lon="-2.42841">
        <ele>122</ele>
        <time>2016-02-21T14:34:00.1Z</time>
      </trkpt>
      <trkpt lat="48.63006" lon="-2.42843">
        <ele>122</ele>
        <time>2016-02-21T14:34:02.1Z</time>
      </trkpt>
      <trkpt lat="48.63009" lon="-2.42847">
        <ele>122</ele>
        <time>2016-02-21T14:34:05.1Z</time>
      </trkpt>
      <trkpt lat="48.63011" lon="-2.42848">
        <ele>122</ele>
        <time>2016-02-21T14:34:07.1Z</time>
      </trkpt>
      <trkpt lat="48.63014" lon="-2.42851">
        <ele>122</ele>
        <time>2016-02-21T14:34:10.1Z</time>
      </trkpt>
      <trkpt lat="48.63017" lon="-2.42855">
        <ele>122</ele>
        <time>2016-02-21T14:34:13.1Z</time>
      </trkpt>
      <trkpt lat="48.63018" lon="-2.42857">
        <ele>122</ele>
        <time>2016-02-21T14:34:15.1Z</time>
      </trkpt>
      <trkpt lat="48.63021" lon="-2.42861">
        <ele>121</ele>
        <time>2016-02-21T14:34:18.1Z</time>
      </trkpt>
      <trkpt lat="48.63023" lon="-2.42863">
        <ele>121</ele>
        <time>2016-02-21T14:34:20.1Z</time>
      </trkpt>
      <trkpt lat="48.63025" lon="-2.42867">
        <ele>121</ele>
        <time>2016-02-21T14:34:23.1Z</time>
      </trkpt>
      <trkpt lat="48.63027" lon="-2.42869">
        <ele>121</ele>
        <time>2016-02-21T14:34:25.1Z</time>
      </trkpt>
      <trkpt lat="48.6303" lon="-2.42873">
        <ele>121</ele>
        <time>2016-02-21T14:34:28.1Z</time>
      </trkpt>
      <trkpt lat="48.63033" lon="-2.42876">
        <ele>121</ele>
        <time>2016-02-21T14:34:31.1Z</time>
      </trkpt>
      <trkpt lat="48.63034" lon="-2.42879">
        <ele>121</ele>
        <time>2016-02-21T14:34:33.1Z</time>
      </trkpt>
      <trkpt lat="48.63037" lon="-2.42882">
        <ele>121</ele>
        <time>2016-02-21T14:34:36.1Z</time>
      </trkpt>
      <trkpt lat="48.63039" lon="-2.42885">
        <ele>121</ele>
        <time>2016-02-21T14:34:38.1Z</time>
      </trkpt>
      <trkpt lat="48.63041" lon="-2.42888">
        <ele>121</ele>
        <time>2016-02-21T14:34:41.1Z</time>
      </trkpt>
      <trkpt lat="48.63044" lon="-2.42892">
        <ele>121</ele>
        <time>2016-02-21T14:34:44.1Z</time>
      </trkpt>
      <trkpt lat="48.63045" lon="-2.42894">
        <ele>120</ele>
        <time>2016-02-21T14:34:46.1Z</time>
      </trkpt>
      <trkpt lat="48.63048" lon="-2.42898">
        <ele>120</ele>
        <time>2016-02-21T14:34:49.1Z</time>
      </trkpt>
      <trkpt lat="48.63049" lon="-2.429">
        <ele>120</ele>
        <time>2016-02-21T14:34:51.1Z</time>
      </trkpt>
      <trkpt lat="48.63052" lon="-2.42904">
        <ele>120</ele>
        <time>2016-02-21T14:34:54.1Z</time>
      </trkpt>
      <trkpt lat="48.63054" lon="-2.42906">
        <ele>120</ele>
        <time>2016-02-21T14:34:56.1Z</time>
      </trkpt>
      <trkpt lat="48.63057" lon="-2.4291">
        <ele>120</ele>
        <time>2016-02-21T14:34:59.1Z</time>
      </trkpt>
      <trkpt lat="48.6306" lon="-2.42913">
        <ele>120</ele>
        <time>2016-02-21T14:35:02.1Z</time>
      </trkpt>
      <trkpt lat="48.63061" lon="-2.42915">
        <ele>120</ele>
        <time>2016-02-21T14:35:04.1Z</time>
      </trkpt>
      <trkpt lat="48.63064" lon="-2.42919">
        <ele>120</ele>
        <time>2016-02-21T14:35:07.1Z</time>
      </trkpt>
      <trkpt lat="48.63066" lon="-2.42921">
        <ele>120</ele>
        <time>2016-02-21T14:35:09.1Z</time>
      </trkpt>
      <trkpt lat="48.63069" lon="-2.42924">
        <ele>119</ele>
        <time>2016-02-21T14:35:12.1Z</time>
      </trkpt>
      <trkpt lat="48.63071" lon="-2.42927">
        <ele>119</ele>
        <time>2016-02-21T14:35:14.1Z</time>
      </trkpt>
      <trkpt lat="48.63073" lon="-2.42929">
        <ele>119</ele>
        <time>2016-02-21T14:35:16.1Z</time>
      </trkpt>
      <trkpt lat="48.63075" lon="-2.42933">
        <ele>119</ele>
        <time>2016-02-21T14:35:19.1Z</time>
      </trkpt>
      <trkpt lat="48.63077" lon="-2.42935">
        <ele>119</ele>
        <time>2016-02-21T14:35:21.1Z</time>
      </trkpt>
      <trkpt lat="48.6308" lon="-2.42939">
        <ele>119</ele>
        <time>2016-02-21T14:35:24.1Z</time>
      </trkpt>
      <trkpt lat="48.63083" lon="-2.42942">
        <ele>119</ele>
        <time>2016-02-21T14:35:27.1Z</time>
      </trkpt>
      <trkpt lat="48.63086" lon="-2.42945">
        <ele>119</ele>
        <time>2016-02-21T14:35:29.1Z</time>
      </trkpt>
      <trkpt lat="48.63089" lon="-2.42948">
        <ele>119</ele>
        <time>2016-02-21T14:35:32.1Z</time>
      </trkpt>
      <trkpt lat="48.63092" lon="-2.42951">
        <ele>119</ele>
        <time>2016-02-21T14:35:35.1Z</time>
      </trkpt>
      <trkpt lat="48.63095" lon="-2.42954">
        <ele>119</ele>
        <time>2016-02-21T14:35:38.1Z</time>
      </trkpt>
      <trkpt lat="48.63098" lon="-2.42957">
        <ele>119</ele>
        <time>2016-02-21T14:35:41.1Z</time>
      </trkpt>
      <trkpt lat="48.631" lon="-2.42958">
        <ele>119</ele>
        <time>2016-02-21T14:35:43.1Z</time>
      </trkpt>
      <trkpt lat="48.63103" lon="-2.42962">
        <ele>119</ele>
        <time>2016-02-21T14:35:46.1Z</time>
      </trkpt>
      <trkpt lat="48.63107" lon="-2.42964">
        <ele>118</ele>
        <time>2016-02-21T14:35:49.1Z</time>
      </trkpt>
      <trkpt lat="48.6311" lon="-2.42967">
        <ele>118</ele>
        <time>2016-02-21T14:35:52.1Z</time>
      </trkpt>
      <trkpt lat="48.63112" lon="-2.42969">
        <ele>118</ele>
        <time>2016-02-21T14:35:54.1Z</time>
      </trkpt>
      <trkpt lat="48.63114" lon="-2.42971">
        <ele>118</ele>
        <time>2016-02-21T14:35:56.1Z</time>
      </trkpt>
      <trkpt lat="48.63117" lon="-2.42974">
        <ele>119</ele>
        <time>2016-02-21T14:35:59.1Z</time>
      </trkpt>
      <trkpt lat="48.63119" lon="-2.42976">
        <ele>119</ele>
        <time>2016-02-21T14:36:01.1Z</time>
      </trkpt>
      <trkpt lat="48.63121" lon="-2.4298">
        <ele>119</ele>
        <time>2016-02-21T14:36:04.1Z</time>
      </trkpt>
      <trkpt lat="48.63124" lon="-2.42981">
        <ele>119</ele>
        <time>2016-02-21T14:36:06.1Z</time>
      </trkpt>
      <trkpt lat="48.63126" lon="-2.42984">
        <ele>119</ele>
        <time>2016-02-21T14:36:09.1Z</time>
      </trkpt>
      <trkpt lat="48.63128" lon="-2.42986">
        <ele>118</ele>
        <time>2016-02-21T14:36:11.1Z</time>
      </trkpt>
      <trkpt lat="48.63131" lon="-2.42989">
        <ele>118</ele>
        <time>2016-02-21T14:36:14.1Z</time>
      </trkpt>
      <trkpt lat="48.63133" lon="-2.42993">
        <ele>119</ele>
        <time>2016-02-21T14:36:17.1Z</time>
      </trkpt>
      <trkpt lat="48.63136" lon="-2.42997">
        <ele>119</ele>
        <time>2016-02-21T14:36:20.1Z</time>
      </trkpt>
      <trkpt lat="48.63138" lon="-2.43002">
        <ele>119</ele>
        <time>2016-02-21T14:36:23.1Z</time>
      </trkpt>
      <trkpt lat="48.63139" lon="-2.43005">
        <ele>118</ele>
        <time>2016-02-21T14:36:25.1Z</time>
      </trkpt>
      <trkpt lat="48.63139" lon="-2.43008">
        <ele>118</ele>
        <time>2016-02-21T14:36:27.1Z</time>
      </trkpt>
      <trkpt lat="48.6314" lon="-2.43012">
        <ele>118</ele>
        <time>2016-02-21T14:36:29.1Z</time>
      </trkpt>
      <trkpt lat="48.63141" lon="-2.43017">
        <ele>118</ele>
        <time>2016-02-21T14:36:32.1Z</time>
      </trkpt>
      <trkpt lat="48.63141" lon="-2.4302">
        <ele>118</ele>
        <time>2016-02-21T14:36:34.1Z</time>
      </trkpt>
      <trkpt lat="48.63142" lon="-2.43024">
        <ele>119</ele>
        <time>2016-02-21T14:36:37.1Z</time>
      </trkpt>
      <trkpt lat="48.63142" lon="-2.43029">
        <ele>118</ele>
        <time>2016-02-21T14:36:40.1Z</time>
      </trkpt>
      <trkpt lat="48.63142" lon="-2.43032">
        <ele>119</ele>
        <time>2016-02-21T14:36:42.1Z</time>
      </trkpt>
      <trkpt lat="48.63143" lon="-2.43037">
        <ele>118</ele>
        <time>2016-02-21T14:36:45.1Z</time>
      </trkpt>
      <trkpt lat="48.63143" lon="-2.43042">
        <ele>118</ele>
        <time>2016-02-21T14:36:48.1Z</time>
      </trkpt>
      <trkpt lat="48.63144" lon="-2.43045">
        <ele>118</ele>
        <time>2016-02-21T14:36:50.1Z</time>
      </trkpt>
      <trkpt lat="48.63145" lon="-2.4305">
        <ele>118</ele>
        <time>2016-02-21T14:36:53.1Z</time>
      </trkpt>
      <trkpt lat="48.63145" lon="-2.43055">
        <ele>118</ele>
        <time>2016-02-21T14:36:56.1Z</time>
      </trkpt>
      <trkpt lat="48.63147" lon="-2.43058">
        <ele>118</ele>
        <time>2016-02-21T14:36:59.1Z</time>
      </trkpt>
      <trkpt lat="48.63145" lon="-2.43063">
        <ele>118</ele>
        <time>2016-02-21T14:37:01.1Z</time>
      </trkpt>
      <trkpt lat="48.63146" lon="-2.43067">
        <ele>118</ele>
        <time>2016-02-21T14:37:03.1Z</time>
      </trkpt>
      <trkpt lat="48.63149" lon="-2.4307">
        <ele>118</ele>
        <time>2016-02-21T14:37:06.1Z</time>
      </trkpt>
      <trkpt lat="48.6315" lon="-2.43073">
        <ele>118</ele>
        <time>2016-02-21T14:37:08.1Z</time>
      </trkpt>
      <trkpt lat="48.63153" lon="-2.43076">
        <ele>118</ele>
        <time>2016-02-21T14:37:11.1Z</time>
      </trkpt>
      <trkpt lat="48.63155" lon="-2.43078">
        <ele>118</ele>
        <time>2016-02-21T14:37:13.1Z</time>
      </trkpt>
      <trkpt lat="48.63157" lon="-2.43081">
        <ele>117</ele>
        <time>2016-02-21T14:37:16.1Z</time>
      </trkpt>
      <trkpt lat="48.63159" lon="-2.43082">
        <ele>117</ele>
        <time>2016-02-21T14:37:18.1Z</time>
      </trkpt>
      <trkpt lat="48.63162" lon="-2.43085">
        <ele>116</ele>
        <time>2016-02-21T14:37:21.1Z</time>
      </trkpt>
      <trkpt lat="48.63165" lon="-2.43087">
        <ele>116</ele>
        <time>2016-02-21T14:37:24.1Z</time>
      </trkpt>
      <trkpt lat="48.63168" lon="-2.4309">
        <ele>116</ele>
        <time>2016-02-21T14:37:27.1Z</time>
      </trkpt>
      <trkpt lat="48.63171" lon="-2.43092">
        <ele>116</ele>
        <time>2016-02-21T14:37:30.1Z</time>
      </trkpt>
      <trkpt lat="48.63175" lon="-2.43095">
        <ele>115</ele>
        <time>2016-02-21T14:37:33.1Z</time>
      </trkpt>
      <trkpt lat="48.63176" lon="-2.43097">
        <ele>116</ele>
        <time>2016-02-21T14:37:35.1Z</time>
      </trkpt>
      <trkpt lat="48.63178" lon="-2.43098">
        <ele>116</ele>
        <time>2016-02-21T14:37:37.1Z</time>
      </trkpt>
      <trkpt lat="48.6318" lon="-2.431">
        <ele>116</ele>
        <time>2016-02-21T14:37:40.1Z</time>
      </trkpt>
      <trkpt lat="48.63182" lon="-2.43102">
        <ele>116</ele>
        <time>2016-02-21T14:37:42.1Z</time>
      </trkpt>
      <trkpt lat="48.63184" lon="-2.43104">
        <ele>116</ele>
        <time>2016-02-21T14:37:44.1Z</time>
      </trkpt>
      <trkpt lat="48.63187" lon="-2.43106">
        <ele>115</ele>
        <time>2016-02-21T14:37:47.1Z</time>
      </trkpt>
      <trkpt lat="48.63189" lon="-2.43108">
        <ele>115</ele>
        <time>2016-02-21T14:37:49.1Z</time>
      </trkpt>
      <trkpt lat="48.63192" lon="-2.43112">
        <ele>115</ele>
        <time>2016-02-21T14:37:52.1Z</time>
      </trkpt>
      <trkpt lat="48.63195" lon="-2.43116">
        <ele>115</ele>
        <time>2016-02-21T14:37:55.1Z</time>
      </trkpt>
      <trkpt lat="48.63197" lon="-2.43119">
        <ele>115</ele>
        <time>2016-02-21T14:37:58.1Z</time>
      </trkpt>
      <trkpt lat="48.632" lon="-2.43123">
        <ele>115</ele>
        <time>2016-02-21T14:38:01.1Z</time>
      </trkpt>
      <trkpt lat="48.63202" lon="-2.43127">
        <ele>115</ele>
        <time>2016-02-21T14:38:03.1Z</time>
      </trkpt>
      <trkpt lat="48.63204" lon="-2.4313">
        <ele>115</ele>
        <time>2016-02-21T14:38:06.1Z</time>
      </trkpt>
      <trkpt lat="48.63206" lon="-2.43134">
        <ele>115</ele>
        <time>2016-02-21T14:38:09.1Z</time>
      </trkpt>
      <trkpt lat="48.63208" lon="-2.43136">
        <ele>115</ele>
        <time>2016-02-21T14:38:11.1Z</time>
      </trkpt>
      <trkpt lat="48.6321" lon="-2.43141">
        <ele>115</ele>
        <time>2016-02-21T14:38:14.1Z</time>
      </trkpt>
      <trkpt lat="48.63211" lon="-2.43146">
        <ele>115</ele>
        <time>2016-02-21T14:38:17.1Z</time>
      </trkpt>
      <trkpt lat="48.63213" lon="-2.43151">
        <ele>114</ele>
        <time>2016-02-21T14:38:20.1Z</time>
      </trkpt>
      <trkpt lat="48.63216" lon="-2.43155">
        <ele>114</ele>
        <time>2016-02-21T14:38:23.1Z</time>
      </trkpt>
      <trkpt lat="48.63219" lon="-2.4316">
        <ele>114</ele>
        <time>2016-02-21T14:38:26.1Z</time>
      </trkpt>
      <trkpt lat="48.63221" lon="-2.43165">
        <ele>114</ele>
        <time>2016-02-21T14:38:29.1Z</time>
      </trkpt>
      <trkpt lat="48.63224" lon="-2.43169">
        <ele>114</ele>
        <time>2016-02-21T14:38:32.1Z</time>
      </trkpt>
      <trkpt lat="48.63226" lon="-2.43173">
        <ele>114</ele>
        <time>2016-02-21T14:38:35.1Z</time>
      </trkpt>
      <trkpt lat="48.63228" lon="-2.43177">
        <ele>114</ele>
        <time>2016-02-21T14:38:38.1Z</time>
      </trkpt>
      <trkpt lat="48.63231" lon="-2.4318">
        <ele>114</ele>
        <time>2016-02-21T14:38:41.1Z</time>
      </trkpt>
      <trkpt lat="48.63234" lon="-2.43183">
        <ele>113</ele>
        <time>2016-02-21T14:38:44.1Z</time>
      </trkpt>
      <trkpt lat="48.63236" lon="-2.43185">
        <ele>113</ele>
        <time>2016-02-21T14:38:46.1Z</time>
      </trkpt>
      <trkpt lat="48.63238" lon="-2.43189">
        <ele>113</ele>
        <time>2016-02-21T14:38:49.1Z</time>
      </trkpt>
      <trkpt lat="48.6324" lon="-2.43191">
        <ele>113</ele>
        <time>2016-02-21T14:38:51.1Z</time>
      </trkpt>
      <trkpt lat="48.63243" lon="-2.43195">
        <ele>113</ele>
        <time>2016-02-21T14:38:54.1Z</time>
      </trkpt>
      <trkpt lat="48.63245" lon="-2.43198">
        <ele>113</ele>
        <time>2016-02-21T14:38:56.1Z</time>
      </trkpt>
      <trkpt lat="48.63246" lon="-2.43201">
        <ele>112</ele>
        <time>2016-02-21T14:38:59.1Z</time>
      </trkpt>
      <trkpt lat="48.63249" lon="-2.43207">
        <ele>112</ele>
        <time>2016-02-21T14:39:02.1Z</time>
      </trkpt>
      <trkpt lat="48.63251" lon="-2.43212">
        <ele>112</ele>
        <time>2016-02-21T14:39:05.1Z</time>
      </trkpt>
      <trkpt lat="48.63252" lon="-2.43215">
        <ele>112</ele>
        <time>2016-02-21T14:39:07.1Z</time>
      </trkpt>
      <trkpt lat="48.63253" lon="-2.43221">
        <ele>112</ele>
        <time>2016-02-21T14:39:10.1Z</time>
      </trkpt>
      <trkpt lat="48.63254" lon="-2.43225">
        <ele>112</ele>
        <time>2016-02-21T14:39:12.1Z</time>
      </trkpt>
      <trkpt lat="48.63255" lon="-2.43229">
        <ele>112</ele>
        <time>2016-02-21T14:39:15.1Z</time>
      </trkpt>
      <trkpt lat="48.63255" lon="-2.43232">
        <ele>112</ele>
        <time>2016-02-21T14:39:17.1Z</time>
      </trkpt>
      <trkpt lat="48.63257" lon="-2.43237">
        <ele>112</ele>
        <time>2016-02-21T14:39:20.1Z</time>
      </trkpt>
      <trkpt lat="48.63258" lon="-2.4324">
        <ele>112</ele>
        <time>2016-02-21T14:39:22.1Z</time>
      </trkpt>
      <trkpt lat="48.63259" lon="-2.43245">
        <ele>112</ele>
        <time>2016-02-21T14:39:25.1Z</time>
      </trkpt>
      <trkpt lat="48.6326" lon="-2.43249">
        <ele>112</ele>
        <time>2016-02-21T14:39:27.1Z</time>
      </trkpt>
      <trkpt lat="48.63261" lon="-2.43254">
        <ele>112</ele>
        <time>2016-02-21T14:39:30.1Z</time>
      </trkpt>
      <trkpt lat="48.63261" lon="-2.43258">
        <ele>112</ele>
        <time>2016-02-21T14:39:32.1Z</time>
      </trkpt>
      <trkpt lat="48.63262" lon="-2.43263">
        <ele>112</ele>
        <time>2016-02-21T14:39:35.1Z</time>
      </trkpt>
      <trkpt lat="48.63262" lon="-2.43268">
        <ele>112</ele>
        <time>2016-02-21T14:39:38.1Z</time>
      </trkpt>
      <trkpt lat="48.63262" lon="-2.43272">
        <ele>112</ele>
        <time>2016-02-21T14:39:41.1Z</time>
      </trkpt>
      <trkpt lat="48.63261" lon="-2.43276">
        <ele>112</ele>
        <time>2016-02-21T14:39:43.1Z</time>
      </trkpt>
      <trkpt lat="48.63261" lon="-2.43279">
        <ele>112</ele>
        <time>2016-02-21T14:39:45.1Z</time>
      </trkpt>
      <trkpt lat="48.63259" lon="-2.43284">
        <ele>112</ele>
        <time>2016-02-21T14:39:48.1Z</time>
      </trkpt>
      <trkpt lat="48.63258" lon="-2.43287">
        <ele>112</ele>
        <time>2016-02-21T14:39:50.1Z</time>
      </trkpt>
      <trkpt lat="48.63256" lon="-2.43291">
        <ele>112</ele>
        <time>2016-02-21T14:39:53.1Z</time>
      </trkpt>
      <trkpt lat="48.63255" lon="-2.43296">
        <ele>112</ele>
        <time>2016-02-21T14:39:56.1Z</time>
      </trkpt>
      <trkpt lat="48.63255" lon="-2.43299">
        <ele>112</ele>
        <time>2016-02-21T14:39:58.1Z</time>
      </trkpt>
      <trkpt lat="48.63254" lon="-2.43302">
        <ele>112</ele>
        <time>2016-02-21T14:40:00.1Z</time>
      </trkpt>
      <trkpt lat="48.63253" lon="-2.43305">
        <ele>112</ele>
        <time>2016-02-21T14:40:03.1Z</time>
      </trkpt>
      <trkpt lat="48.63253" lon="-2.43309">
        <ele>113</ele>
        <time>2016-02-21T14:40:06.1Z</time>
      </trkpt>
      <trkpt lat="48.63251" lon="-2.43312">
        <ele>113</ele>
        <time>2016-02-21T14:40:08.1Z</time>
      </trkpt>
      <trkpt lat="48.6325" lon="-2.43317">
        <ele>113</ele>
        <time>2016-02-21T14:40:11.1Z</time>
      </trkpt>
      <trkpt lat="48.6325" lon="-2.4332">
        <ele>113</ele>
        <time>2016-02-21T14:40:13.1Z</time>
      </trkpt>
      <trkpt lat="48.63249" lon="-2.43323">
        <ele>113</ele>
        <time>2016-02-21T14:40:15.1Z</time>
      </trkpt>
      <trkpt lat="48.63248" lon="-2.43328">
        <ele>113</ele>
        <time>2016-02-21T14:40:18.1Z</time>
      </trkpt>
      <trkpt lat="48.63247" lon="-2.4333">
        <ele>113</ele>
        <time>2016-02-21T14:40:21.1Z</time>
      </trkpt>
      <trkpt lat="48.63246" lon="-2.43334">
        <ele>113</ele>
        <time>2016-02-21T14:40:24.1Z</time>
      </trkpt>
      <trkpt lat="48.63246" lon="-2.43339">
        <ele>113</ele>
        <time>2016-02-21T14:40:27.1Z</time>
      </trkpt>
      <trkpt lat="48.63245" lon="-2.43342">
        <ele>113</ele>
        <time>2016-02-21T14:40:29.1Z</time>
      </trkpt>
      <trkpt lat="48.63245" lon="-2.43348">
        <ele>113</ele>
        <time>2016-02-21T14:40:32.1Z</time>
      </trkpt>
      <trkpt lat="48.63245" lon="-2.43351">
        <ele>113</ele>
        <time>2016-02-21T14:40:34.1Z</time>
      </trkpt>
      <trkpt lat="48.63244" lon="-2.43356">
        <ele>113</ele>
        <time>2016-02-21T14:40:37.1Z</time>
      </trkpt>
      <trkpt lat="48.63243" lon="-2.43362">
        <ele>113</ele>
        <time>2016-02-21T14:40:40.1Z</time>
      </trkpt>
      <trkpt lat="48.63243" lon="-2.43367">
        <ele>113</ele>
        <time>2016-02-21T14:40:43.1Z</time>
      </trkpt>
      <trkpt lat="48.63242" lon="-2.43373">
        <ele>114</ele>
        <time>2016-02-21T14:40:46.1Z</time>
      </trkpt>
      <trkpt lat="48.63241" lon="-2.43378">
        <ele>114</ele>
        <time>2016-02-21T14:40:49.1Z</time>
      </trkpt>
      <trkpt lat="48.63241" lon="-2.43384">
        <ele>114</ele>
        <time>2016-02-21T14:40:52.1Z</time>
      </trkpt>
      <trkpt lat="48.6324" lon="-2.4339">
        <ele>114</ele>
        <time>2016-02-21T14:40:55.1Z</time>
      </trkpt>
      <trkpt lat="48.63239" lon="-2.43395">
        <ele>114</ele>
        <time>2016-02-21T14:40:58.1Z</time>
      </trkpt>
      <trkpt lat="48.63239" lon="-2.43399">
        <ele>114</ele>
        <time>2016-02-21T14:41:00.1Z</time>
      </trkpt>
      <trkpt lat="48.63238" lon="-2.43404">
        <ele>114</ele>
        <time>2016-02-21T14:41:03.1Z</time>
      </trkpt>
      <trkpt lat="48.63237" lon="-2.43409">
        <ele>114</ele>
        <time>2016-02-21T14:41:06.1Z</time>
      </trkpt>
      <trkpt lat="48.63236" lon="-2.43414">
        <ele>114</ele>
        <time>2016-02-21T14:41:09.1Z</time>
      </trkpt>
      <trkpt lat="48.63235" lon="-2.43417">
        <ele>114</ele>
        <time>2016-02-21T14:41:11.1Z</time>
      </trkpt>
      <trkpt lat="48.63235" lon="-2.4342">
        <ele>114</ele>
        <time>2016-02-21T14:41:13.1Z</time>
      </trkpt>
      <trkpt lat="48.63234" lon="-2.43425">
        <ele>114</ele>
        <time>2016-02-21T14:41:16.1Z</time>
      </trkpt>
      <trkpt lat="48.63234" lon="-2.43427">
        <ele>114</ele>
        <time>2016-02-21T14:41:18.1Z</time>
      </trkpt>
      <trkpt lat="48.63234" lon="-2.43431">
        <ele>114</ele>
        <time>2016-02-21T14:41:20.1Z</time>
      </trkpt>
      <trkpt lat="48.63233" lon="-2.43436">
        <ele>114</ele>
        <time>2016-02-21T14:41:23.1Z</time>
      </trkpt>
      <trkpt lat="48.63232" lon="-2.43441">
        <ele>114</ele>
        <time>2016-02-21T14:41:26.1Z</time>
      </trkpt>
      <trkpt lat="48.63232" lon="-2.43444">
        <ele>114</ele>
        <time>2016-02-21T14:41:28.1Z</time>
      </trkpt>
      <trkpt lat="48.63231" lon="-2.43448">
        <ele>114</ele>
        <time>2016-02-21T14:41:31.1Z</time>
      </trkpt>
      <trkpt lat="48.6323" lon="-2.43451">
        <ele>114</ele>
        <time>2016-02-21T14:41:33.1Z</time>
      </trkpt>
      <trkpt lat="48.63229" lon="-2.43455">
        <ele>114</ele>
        <time>2016-02-21T14:41:35.1Z</time>
      </trkpt>
      <trkpt lat="48.63229" lon="-2.43459">
        <ele>114</ele>
        <time>2016-02-21T14:41:38.1Z</time>
      </trkpt>
      <trkpt lat="48.63229" lon="-2.43462">
        <ele>114</ele>
        <time>2016-02-21T14:41:41.1Z</time>
      </trkpt>
      <trkpt lat="48.63229" lon="-2.43466">
        <ele>114</ele>
        <time>2016-02-21T14:41:43.1Z</time>
      </trkpt>
      <trkpt lat="48.63228" lon="-2.4347">
        <ele>114</ele>
        <time>2016-02-21T14:41:46.1Z</time>
      </trkpt>
      <trkpt lat="48.63227" lon="-2.43473">
        <ele>114</ele>
        <time>2016-02-21T14:41:48.1Z</time>
      </trkpt>
      <trkpt lat="48.63227" lon="-2.43475">
        <ele>114</ele>
        <time>2016-02-21T14:41:50.1Z</time>
      </trkpt>
      <trkpt lat="48.63226" lon="-2.43479">
        <ele>114</ele>
        <time>2016-02-21T14:41:53.1Z</time>
      </trkpt>
      <trkpt lat="48.63226" lon="-2.43482">
        <ele>114</ele>
        <time>2016-02-21T14:41:55.1Z</time>
      </trkpt>
      <trkpt lat="48.63225" lon="-2.43488">
        <ele>114</ele>
        <time>2016-02-21T14:41:58.1Z</time>
      </trkpt>
      <trkpt lat="48.63224" lon="-2.43493">
        <ele>114</ele>
        <time>2016-02-21T14:42:01.1Z</time>
      </trkpt>
      <trkpt lat="48.63224" lon="-2.435">
        <ele>114</ele>
        <time>2016-02-21T14:42:04.1Z</time>
      </trkpt>
      <trkpt lat="48.63223" lon="-2.43506">
        <ele>114</ele>
        <time>2016-02-21T14:42:07.1Z</time>
      </trkpt>
      <trkpt lat="48.63223" lon="-2.4351">
        <ele>115</ele>
        <time>2016-02-21T14:42:09.1Z</time>
      </trkpt>
      <trkpt lat="48.63222" lon="-2.43514">
        <ele>115</ele>
        <time>2016-02-21T14:42:11.1Z</time>
      </trkpt>
      <trkpt lat="48.63221" lon="-2.4352">
        <ele>115</ele>
        <time>2016-02-21T14:42:14.1Z</time>
      </trkpt>
      <trkpt lat="48.63221" lon="-2.43525">
        <ele>115</ele>
        <time>2016-02-21T14:42:17.1Z</time>
      </trkpt>
      <trkpt lat="48.6322" lon="-2.4353">
        <ele>115</ele>
        <time>2016-02-21T14:42:20.1Z</time>
      </trkpt>
      <trkpt lat="48.6322" lon="-2.43534">
        <ele>115</ele>
        <time>2016-02-21T14:42:23.1Z</time>
      </trkpt>
      <trkpt lat="48.63219" lon="-2.4354">
        <ele>115</ele>
        <time>2016-02-21T14:42:26.1Z</time>
      </trkpt>
      <trkpt lat="48.63218" lon="-2.43545">
        <ele>115</ele>
        <time>2016-02-21T14:42:29.1Z</time>
      </trkpt>
      <trkpt lat="48.63218" lon="-2.43551">
        <ele>116</ele>
        <time>2016-02-21T14:42:32.1Z</time>
      </trkpt>
      <trkpt lat="48.63216" lon="-2.43557">
        <ele>116</ele>
        <time>2016-02-21T14:42:35.1Z</time>
      </trkpt>
      <trkpt lat="48.63216" lon="-2.43562">
        <ele>116</ele>
        <time>2016-02-21T14:42:38.1Z</time>
      </trkpt>
      <trkpt lat="48.63216" lon="-2.43565">
        <ele>116</ele>
        <time>2016-02-21T14:42:40.1Z</time>
      </trkpt>
      <trkpt lat="48.63216" lon="-2.43571">
        <ele>116</ele>
        <time>2016-02-21T14:42:43.1Z</time>
      </trkpt>
      <trkpt lat="48.63215" lon="-2.43574">
        <ele>116</ele>
        <time>2016-02-21T14:42:45.1Z</time>
      </trkpt>
      <trkpt lat="48.63214" lon="-2.43577">
        <ele>117</ele>
        <time>2016-02-21T14:42:47.1Z</time>
      </trkpt>
      <trkpt lat="48.63214" lon="-2.43582">
        <ele>117</ele>
        <time>2016-02-21T14:42:50.1Z</time>
      </trkpt>
      <trkpt lat="48.63214" lon="-2.43585">
        <ele>116</ele>
        <time>2016-02-21T14:42:52.1Z</time>
      </trkpt>
      <trkpt lat="48.63214" lon="-2.4359">
        <ele>116</ele>
        <time>2016-02-21T14:42:55.1Z</time>
      </trkpt>
      <trkpt lat="48.63214" lon="-2.43595">
        <ele>116</ele>
        <time>2016-02-21T14:42:58.1Z</time>
      </trkpt>
      <trkpt lat="48.63213" lon="-2.43598">
        <ele>117</ele>
        <time>2016-02-21T14:43:00.1Z</time>
      </trkpt>
      <trkpt lat="48.63212" lon="-2.43604">
        <ele>117</ele>
        <time>2016-02-21T14:43:03.1Z</time>
      </trkpt>
      <trkpt lat="48.63211" lon="-2.43609">
        <ele>117</ele>
        <time>2016-02-21T14:43:06.1Z</time>
      </trkpt>
      <trkpt lat="48.63211" lon="-2.43613">
        <ele>117</ele>
        <time>2016-02-21T14:43:08.1Z</time>
      </trkpt>
      <trkpt lat="48.63211" lon="-2.43618">
        <ele>117</ele>
        <time>2016-02-21T14:43:11.1Z</time>
      </trkpt>
      <trkpt lat="48.6321" lon="-2.43623">
        <ele>117</ele>
        <time>2016-02-21T14:43:14.1Z</time>
      </trkpt>
      <trkpt lat="48.6321" lon="-2.43627">
        <ele>117</ele>
        <time>2016-02-21T14:43:16.1Z</time>
      </trkpt>
      <trkpt lat="48.63209" lon="-2.43631">
        <ele>117</ele>
        <time>2016-02-21T14:43:18.1Z</time>
      </trkpt>
      <trkpt lat="48.63209" lon="-2.43636">
        <ele>117</ele>
        <time>2016-02-21T14:43:21.1Z</time>
      </trkpt>
      <trkpt lat="48.63209" lon="-2.43638">
        <ele>117</ele>
        <time>2016-02-21T14:43:23.1Z</time>
      </trkpt>
      <trkpt lat="48.63208" lon="-2.43644">
        <ele>117</ele>
        <time>2016-02-21T14:43:26.1Z</time>
      </trkpt>
      <trkpt lat="48.63208" lon="-2.43649">
        <ele>117</ele>
        <time>2016-02-21T14:43:29.1Z</time>
      </trkpt>
      <trkpt lat="48.63207" lon="-2.43653">
        <ele>117</ele>
        <time>2016-02-21T14:43:31.1Z</time>
      </trkpt>
      <trkpt lat="48.63206" lon="-2.43659">
        <ele>117</ele>
        <time>2016-02-21T14:43:34.1Z</time>
      </trkpt>
      <trkpt lat="48.63205" lon="-2.43665">
        <ele>117</ele>
        <time>2016-02-21T14:43:37.1Z</time>
      </trkpt>
      <trkpt lat="48.63203" lon="-2.43671">
        <ele>117</ele>
        <time>2016-02-21T14:43:40.1Z</time>
      </trkpt>
      <trkpt lat="48.63203" lon="-2.43677">
        <ele>117</ele>
        <time>2016-02-21T14:43:43.1Z</time>
      </trkpt>
      <trkpt lat="48.63202" lon="-2.43681">
        <ele>117</ele>
        <time>2016-02-21T14:43:45.1Z</time>
      </trkpt>
      <trkpt lat="48.63201" lon="-2.43687">
        <ele>117</ele>
        <time>2016-02-21T14:43:48.1Z</time>
      </trkpt>
      <trkpt lat="48.632" lon="-2.4369">
        <ele>118</ele>
        <time>2016-02-21T14:43:50.1Z</time>
      </trkpt>
      <trkpt lat="48.632" lon="-2.43697">
        <ele>118</ele>
        <time>2016-02-21T14:43:53.1Z</time>
      </trkpt>
      <trkpt lat="48.63198" lon="-2.43702">
        <ele>118</ele>
        <time>2016-02-21T14:43:56.1Z</time>
      </trkpt>
      <trkpt lat="48.63198" lon="-2.43705">
        <ele>117</ele>
        <time>2016-02-21T14:43:58.1Z</time>
      </trkpt>
      <trkpt lat="48.63197" lon="-2.43709">
        <ele>117</ele>
        <time>2016-02-21T14:44:01.1Z</time>
      </trkpt>
      <trkpt lat="48.63197" lon="-2.43712">
        <ele>118</ele>
        <time>2016-02-21T14:44:03.1Z</time>
      </trkpt>
      <trkpt lat="48.63196" lon="-2.43718">
        <ele>118</ele>
        <time>2016-02-21T14:44:06.1Z</time>
      </trkpt>
      <trkpt lat="48.63196" lon="-2.43721">
        <ele>118</ele>
        <time>2016-02-21T14:44:08.1Z</time>
      </trkpt>
      <trkpt lat="48.63196" lon="-2.43724">
        <ele>118</ele>
        <time>2016-02-21T14:44:10.1Z</time>
      </trkpt>
      <trkpt lat="48.63195" lon="-2.4373">
        <ele>118</ele>
        <time>2016-02-21T14:44:13.1Z</time>
      </trkpt>
      <trkpt lat="48.63195" lon="-2.43735">
        <ele>118</ele>
        <time>2016-02-21T14:44:16.1Z</time>
      </trkpt>
      <trkpt lat="48.63194" lon="-2.4374">
        <ele>118</ele>
        <time>2016-02-21T14:44:19.1Z</time>
      </trkpt>
      <trkpt lat="48.63193" lon="-2.43743">
        <ele>118</ele>
        <time>2016-02-21T14:44:21.1Z</time>
      </trkpt>
      <trkpt lat="48.63191" lon="-2.43748">
        <ele>118</ele>
        <time>2016-02-21T14:44:24.1Z</time>
      </trkpt>
      <trkpt lat="48.6319" lon="-2.43754">
        <ele>118</ele>
        <time>2016-02-21T14:44:27.1Z</time>
      </trkpt>
      <trkpt lat="48.63189" lon="-2.43756">
        <ele>118</ele>
        <time>2016-02-21T14:44:29.1Z</time>
      </trkpt>
      <trkpt lat="48.63188" lon="-2.43761">
        <ele>118</ele>
        <time>2016-02-21T14:44:32.1Z</time>
      </trkpt>
      <trkpt lat="48.63188" lon="-2.43765">
        <ele>118</ele>
        <time>2016-02-21T14:44:34.1Z</time>
      </trkpt>
      <trkpt lat="48.63188" lon="-2.4377">
        <ele>118</ele>
        <time>2016-02-21T14:44:37.1Z</time>
      </trkpt>
      <trkpt lat="48.63188" lon="-2.43776">
        <ele>118</ele>
        <time>2016-02-21T14:44:40.1Z</time>
      </trkpt>
      <trkpt lat="48.63187" lon="-2.43781">
        <ele>118</ele>
        <time>2016-02-21T14:44:43.1Z</time>
      </trkpt>
      <trkpt lat="48.63187" lon="-2.43784">
        <ele>118</ele>
        <time>2016-02-21T14:44:45.1Z</time>
      </trkpt>
      <trkpt lat="48.63187" lon="-2.43788">
        <ele>118</ele>
        <time>2016-02-21T14:44:48.1Z</time>
      </trkpt>
      <trkpt lat="48.63187" lon="-2.43791">
        <ele>118</ele>
        <time>2016-02-21T14:44:50.1Z</time>
      </trkpt>
      <trkpt lat="48.63186" lon="-2.43796">
        <ele>119</ele>
        <time>2016-02-21T14:44:53.1Z</time>
      </trkpt>
      <trkpt lat="48.63185" lon="-2.43801">
        <ele>119</ele>
        <time>2016-02-21T14:44:56.1Z</time>
      </trkpt>
      <trkpt lat="48.63183" lon="-2.43807">
        <ele>119</ele>
        <time>2016-02-21T14:44:59.1Z</time>
      </trkpt>
      <trkpt lat="48.63183" lon="-2.43811">
        <ele>119</ele>
        <time>2016-02-21T14:45:01.1Z</time>
      </trkpt>
      <trkpt lat="48.63182" lon="-2.43817">
        <ele>119</ele>
        <time>2016-02-21T14:45:04.1Z</time>
      </trkpt>
      <trkpt lat="48.63181" lon="-2.43823">
        <ele>119</ele>
        <time>2016-02-21T14:45:07.1Z</time>
      </trkpt>
      <trkpt lat="48.63181" lon="-2.43829">
        <ele>119</ele>
        <time>2016-02-21T14:45:10.1Z</time>
      </trkpt>
      <trkpt lat="48.6318" lon="-2.43832">
        <ele>119</ele>
        <time>2016-02-21T14:45:12.1Z</time>
      </trkpt>
      <trkpt lat="48.6318" lon="-2.43838">
        <ele>119</ele>
        <time>2016-02-21T14:45:15.1Z</time>
      </trkpt>
      <trkpt lat="48.63181" lon="-2.43842">
        <ele>119</ele>
        <time>2016-02-21T14:45:17.1Z</time>
      </trkpt>
      <trkpt lat="48.6318" lon="-2.43847">
        <ele>119</ele>
        <time>2016-02-21T14:45:20.1Z</time>
      </trkpt>
      <trkpt lat="48.6318" lon="-2.43851">
        <ele>119</ele>
        <time>2016-02-21T14:45:22.1Z</time>
      </trkpt>
      <trkpt lat="48.63179" lon="-2.43857">
        <ele>119</ele>
        <time>2016-02-21T14:45:25.1Z</time>
      </trkpt>
      <trkpt lat="48.63179" lon="-2.43861">
        <ele>119</ele>
        <time>2016-02-21T14:45:27.1Z</time>
      </trkpt>
      <trkpt lat="48.63179" lon="-2.43867">
        <ele>119</ele>
        <time>2016-02-21T14:45:30.1Z</time>
      </trkpt>
      <trkpt lat="48.63179" lon="-2.43872">
        <ele>119</ele>
        <time>2016-02-21T14:45:33.1Z</time>
      </trkpt>
      <trkpt lat="48.63179" lon="-2.43876">
        <ele>119</ele>
        <time>2016-02-21T14:45:35.1Z</time>
      </trkpt>
      <trkpt lat="48.63178" lon="-2.4388">
        <ele>119</ele>
        <time>2016-02-21T14:45:37.1Z</time>
      </trkpt>
      <trkpt lat="48.63178" lon="-2.43885">
        <ele>119</ele>
        <time>2016-02-21T14:45:40.1Z</time>
      </trkpt>
      <trkpt lat="48.63177" lon="-2.43891">
        <ele>119</ele>
        <time>2016-02-21T14:45:43.1Z</time>
      </trkpt>
      <trkpt lat="48.63177" lon="-2.43894">
        <ele>119</ele>
        <time>2016-02-21T14:45:45.1Z</time>
      </trkpt>
      <trkpt lat="48.63176" lon="-2.439">
        <ele>119</ele>
        <time>2016-02-21T14:45:48.1Z</time>
      </trkpt>
      <trkpt lat="48.63176" lon="-2.43903">
        <ele>119</ele>
        <time>2016-02-21T14:45:50.1Z</time>
      </trkpt>
      <trkpt lat="48.63175" lon="-2.43908">
        <ele>119</ele>
        <time>2016-02-21T14:45:53.1Z</time>
      </trkpt>
      <trkpt lat="48.63174" lon="-2.43914">
        <ele>119</ele>
        <time>2016-02-21T14:45:56.1Z</time>
      </trkpt>
      <trkpt lat="48.63174" lon="-2.43917">
        <ele>119</ele>
        <time>2016-02-21T14:45:58.1Z</time>
      </trkpt>
      <trkpt lat="48.63173" lon="-2.43923">
        <ele>119</ele>
        <time>2016-02-21T14:46:01.1Z</time>
      </trkpt>
      <trkpt lat="48.63173" lon="-2.43926">
        <ele>120</ele>
        <time>2016-02-21T14:46:03.1Z</time>
      </trkpt>
      <trkpt lat="48.63173" lon="-2.43932">
        <ele>120</ele>
        <time>2016-02-21T14:46:06.1Z</time>
      </trkpt>
      <trkpt lat="48.63172" lon="-2.43937">
        <ele>119</ele>
        <time>2016-02-21T14:46:09.1Z</time>
      </trkpt>
      <trkpt lat="48.63172" lon="-2.43942">
        <ele>119</ele>
        <time>2016-02-21T14:46:12.1Z</time>
      </trkpt>
      <trkpt lat="48.63171" lon="-2.43948">
        <ele>120</ele>
        <time>2016-02-21T14:46:15.1Z</time>
      </trkpt>
      <trkpt lat="48.63171" lon="-2.43951">
        <ele>120</ele>
        <time>2016-02-21T14:46:17.1Z</time>
      </trkpt>
      <trkpt lat="48.6317" lon="-2.43956">
        <ele>120</ele>
        <time>2016-02-21T14:46:20.1Z</time>
      </trkpt>
      <trkpt lat="48.6317" lon="-2.43962">
        <ele>120</ele>
        <time>2016-02-21T14:46:23.1Z</time>
      </trkpt>
      <trkpt lat="48.63169" lon="-2.43966">
        <ele>120</ele>
        <time>2016-02-21T14:46:25.1Z</time>
      </trkpt>
      <trkpt lat="48.63168" lon="-2.43971">
        <ele>120</ele>
        <time>2016-02-21T14:46:28.1Z</time>
      </trkpt>
      <trkpt lat="48.63167" lon="-2.43976">
        <ele>120</ele>
        <time>2016-02-21T14:46:31.1Z</time>
      </trkpt>
      <trkpt lat="48.63167" lon="-2.43982">
        <ele>120</ele>
        <time>2016-02-21T14:46:34.1Z</time>
      </trkpt>
      <trkpt lat="48.63166" lon="-2.43988">
        <ele>120</ele>
        <time>2016-02-21T14:46:37.1Z</time>
      </trkpt>
      <trkpt lat="48.63166" lon="-2.43991">
        <ele>120</ele>
        <time>2016-02-21T14:46:39.1Z</time>
      </trkpt>
      <trkpt lat="48.63166" lon="-2.43995">
        <ele>120</ele>
        <time>2016-02-21T14:46:41.1Z</time>
      </trkpt>
      <trkpt lat="48.63165" lon="-2.44001">
        <ele>120</ele>
        <time>2016-02-21T14:46:44.1Z</time>
      </trkpt>
      <trkpt lat="48.63165" lon="-2.44006">
        <ele>120</ele>
        <time>2016-02-21T14:46:47.1Z</time>
      </trkpt>
      <trkpt lat="48.63165" lon="-2.4401">
        <ele>120</ele>
        <time>2016-02-21T14:46:49.1Z</time>
      </trkpt>
      <trkpt lat="48.63164" lon="-2.44016">
        <ele>119</ele>
        <time>2016-02-21T14:46:52.1Z</time>
      </trkpt>
      <trkpt lat="48.63163" lon="-2.44021">
        <ele>119</ele>
        <time>2016-02-21T14:46:55.1Z</time>
      </trkpt>
      <trkpt lat="48.63162" lon="-2.44024">
        <ele>119</ele>
        <time>2016-02-21T14:46:57.1Z</time>
      </trkpt>
      <trkpt lat="48.63161" lon="-2.4403">
        <ele>119</ele>
        <time>2016-02-21T14:47:00.1Z</time>
      </trkpt>
      <trkpt lat="48.6316" lon="-2.44033">
        <ele>119</ele>
        <time>2016-02-21T14:47:02.1Z</time>
      </trkpt>
      <trkpt lat="48.63159" lon="-2.44039">
        <ele>119</ele>
        <time>2016-02-21T14:47:05.1Z</time>
      </trkpt>
      <trkpt lat="48.63159" lon="-2.44043">
        <ele>119</ele>
        <time>2016-02-21T14:47:07.1Z</time>
      </trkpt>
      <trkpt lat="48.63158" lon="-2.44048">
        <ele>119</ele>
        <time>2016-02-21T14:47:10.1Z</time>
      </trkpt>
      <trkpt lat="48.63158" lon="-2.44052">
        <ele>119</ele>
        <time>2016-02-21T14:47:12.1Z</time>
      </trkpt>
      <trkpt lat="48.63157" lon="-2.44057">
        <ele>119</ele>
        <time>2016-02-21T14:47:15.1Z</time>
      </trkpt>
      <trkpt lat="48.63156" lon="-2.44063">
        <ele>119</ele>
        <time>2016-02-21T14:47:18.1Z</time>
      </trkpt>
      <trkpt lat="48.63156" lon="-2.44068">
        <ele>119</ele>
        <time>2016-02-21T14:47:20.1Z</time>
      </trkpt>
      <trkpt lat="48.63155" lon="-2.44073">
        <ele>118</ele>
        <time>2016-02-21T14:47:23.1Z</time>
      </trkpt>
      <trkpt lat="48.63154" lon="-2.44078">
        <ele>118</ele>
        <time>2016-02-21T14:47:26.1Z</time>
      </trkpt>
      <trkpt lat="48.63153" lon="-2.44084">
        <ele>118</ele>
        <time>2016-02-21T14:47:29.1Z</time>
      </trkpt>
      <trkpt lat="48.63152" lon="-2.44088">
        <ele>119</ele>
        <time>2016-02-21T14:47:31.1Z</time>
      </trkpt>
      <trkpt lat="48.63152" lon="-2.44093">
        <ele>118</ele>
        <time>2016-02-21T14:47:34.1Z</time>
      </trkpt>
      <trkpt lat="48.63151" lon="-2.44097">
        <ele>118</ele>
        <time>2016-02-21T14:47:36.1Z</time>
      </trkpt>
      <trkpt lat="48.63151" lon="-2.44102">
        <ele>118</ele>
        <time>2016-02-21T14:47:39.1Z</time>
      </trkpt>
      <trkpt lat="48.6315" lon="-2.44108">
        <ele>118</ele>
        <time>2016-02-21T14:47:42.1Z</time>
      </trkpt>
      <trkpt lat="48.6315" lon="-2.44111">
        <ele>118</ele>
        <time>2016-02-21T14:47:44.1Z</time>
      </trkpt>
      <trkpt lat="48.63149" lon="-2.44116">
        <ele>118</ele>
        <time>2016-02-21T14:47:47.1Z</time>
      </trkpt>
      <trkpt lat="48.63149" lon="-2.44122">
        <ele>118</ele>
        <time>2016-02-21T14:47:50.1Z</time>
      </trkpt>
      <trkpt lat="48.63148" lon="-2.44127">
        <ele>118</ele>
        <time>2016-02-21T14:47:53.1Z</time>
      </trkpt>
      <trkpt lat="48.63148" lon="-2.44132">
        <ele>118</ele>
        <time>2016-02-21T14:47:56.1Z</time>
      </trkpt>
      <trkpt lat="48.63147" lon="-2.44135">
        <ele>118</ele>
        <time>2016-02-21T14:47:58.1Z</time>
      </trkpt>
      <trkpt lat="48.63147" lon="-2.44139">
        <ele>118</ele>
        <time>2016-02-21T14:48:00.1Z</time>
      </trkpt>
      <trkpt lat="48.63146" lon="-2.44145">
        <ele>118</ele>
        <time>2016-02-21T14:48:03.1Z</time>
      </trkpt>
      <trkpt lat="48.63146" lon="-2.44148">
        <ele>117</ele>
        <time>2016-02-21T14:48:05.1Z</time>
      </trkpt>
      <trkpt lat="48.63146" lon="-2.44152">
        <ele>117</ele>
        <time>2016-02-21T14:48:07.1Z</time>
      </trkpt>
      <trkpt lat="48.63145" lon="-2.44157">
        <ele>117</ele>
        <time>2016-02-21T14:48:10.1Z</time>
      </trkpt>
      <trkpt lat="48.63145" lon="-2.44163">
        <ele>117</ele>
        <time>2016-02-21T14:48:13.1Z</time>
      </trkpt>
      <trkpt lat="48.63145" lon="-2.44166">
        <ele>117</ele>
        <time>2016-02-21T14:48:15.1Z</time>
      </trkpt>
      <trkpt lat="48.63144" lon="-2.44168">
        <ele>118</ele>
        <time>2016-02-21T14:48:17.1Z</time>
      </trkpt>
      <trkpt lat="48.63143" lon="-2.4417">
        <ele>118</ele>
        <time>2016-02-21T14:48:19.1Z</time>
      </trkpt>
      <trkpt lat="48.63142" lon="-2.4417">
        <ele>118</ele>
        <time>2016-02-21T14:48:22.1Z</time>
      </trkpt>
      <trkpt lat="48.63142" lon="-2.4417">
        <ele>118</ele>
        <time>2016-02-21T14:48:24.1Z</time>
      </trkpt>
      <trkpt lat="48.63143" lon="-2.44171">
        <ele>118</ele>
        <time>2016-02-21T14:48:27.1Z</time>
      </trkpt>
      <trkpt lat="48.63144" lon="-2.44175">
        <ele>118</ele>
        <time>2016-02-21T14:48:30.1Z</time>
      </trkpt>
      <trkpt lat="48.63143" lon="-2.44179">
        <ele>118</ele>
        <time>2016-02-21T14:48:32.1Z</time>
      </trkpt>
      <trkpt lat="48.63142" lon="-2.44185">
        <ele>118</ele>
        <time>2016-02-21T14:48:35.1Z</time>
      </trkpt>
      <trkpt lat="48.63142" lon="-2.44188">
        <ele>117</ele>
        <time>2016-02-21T14:48:37.1Z</time>
      </trkpt>
      <trkpt lat="48.63141" lon="-2.44194">
        <ele>117</ele>
        <time>2016-02-21T14:48:40.1Z</time>
      </trkpt>
      <trkpt lat="48.6314" lon="-2.44198">
        <ele>117</ele>
        <time>2016-02-21T14:48:42.1Z</time>
      </trkpt>
      <trkpt lat="48.63139" lon="-2.44204">
        <ele>117</ele>
        <time>2016-02-21T14:48:45.1Z</time>
      </trkpt>
      <trkpt lat="48.63139" lon="-2.44208">
        <ele>117</ele>
        <time>2016-02-21T14:48:47.1Z</time>
      </trkpt>
      <trkpt lat="48.63138" lon="-2.44214">
        <ele>117</ele>
        <time>2016-02-21T14:48:50.1Z</time>
      </trkpt>
      <trkpt lat="48.63138" lon="-2.44217">
        <ele>117</ele>
        <time>2016-02-21T14:48:52.1Z</time>
      </trkpt>
      <trkpt lat="48.63137" lon="-2.44221">
        <ele>117</ele>
        <time>2016-02-21T14:48:54.1Z</time>
      </trkpt>
      <trkpt lat="48.63136" lon="-2.44227">
        <ele>117</ele>
        <time>2016-02-21T14:48:57.1Z</time>
      </trkpt>
      <trkpt lat="48.63134" lon="-2.44232">
        <ele>117</ele>
        <time>2016-02-21T14:49:00.1Z</time>
      </trkpt>
      <trkpt lat="48.63133" lon="-2.44238">
        <ele>117</ele>
        <time>2016-02-21T14:49:03.1Z</time>
      </trkpt>
      <trkpt lat="48.63132" lon="-2.44242">
        <ele>117</ele>
        <time>2016-02-21T14:49:05.1Z</time>
      </trkpt>
      <trkpt lat="48.63132" lon="-2.44249">
        <ele>117</ele>
        <time>2016-02-21T14:49:08.1Z</time>
      </trkpt>
      <trkpt lat="48.63131" lon="-2.44255">
        <ele>117</ele>
        <time>2016-02-21T14:49:11.1Z</time>
      </trkpt>
      <trkpt lat="48.63131" lon="-2.44261">
        <ele>117</ele>
        <time>2016-02-21T14:49:14.1Z</time>
      </trkpt>
      <trkpt lat="48.6313" lon="-2.44267">
        <ele>117</ele>
        <time>2016-02-21T14:49:17.1Z</time>
      </trkpt>
      <trkpt lat="48.63129" lon="-2.44272">
        <ele>117</ele>
        <time>2016-02-21T14:49:20.1Z</time>
      </trkpt>
      <trkpt lat="48.63127" lon="-2.44278">
        <ele>117</ele>
        <time>2016-02-21T14:49:23.1Z</time>
      </trkpt>
      <trkpt lat="48.63125" lon="-2.44283">
        <ele>117</ele>
        <time>2016-02-21T14:49:26.1Z</time>
      </trkpt>
      <trkpt lat="48.63124" lon="-2.44285">
        <ele>117</ele>
        <time>2016-02-21T14:49:28.1Z</time>
      </trkpt>
      <trkpt lat="48.63124" lon="-2.44289">
        <ele>117</ele>
        <time>2016-02-21T14:49:31.1Z</time>
      </trkpt>
      <trkpt lat="48.63124" lon="-2.44291">
        <ele>117</ele>
        <time>2016-02-21T14:49:34.1Z</time>
      </trkpt>
      <trkpt lat="48.63124" lon="-2.44291">
        <ele>117</ele>
        <time>2016-02-21T14:49:36.1Z</time>
      </trkpt>
      <trkpt lat="48.63124" lon="-2.44291">
        <ele>117</ele>
        <time>2016-02-21T14:49:38.1Z</time>
      </trkpt>
      <trkpt lat="48.63125" lon="-2.44291">
        <ele>117</ele>
        <time>2016-02-21T14:49:41.1Z</time>
      </trkpt>
      <trkpt lat="48.63126" lon="-2.44294">
        <ele>117</ele>
        <time>2016-02-21T14:49:43.1Z</time>
      </trkpt>
      <trkpt lat="48.63126" lon="-2.44301">
        <ele>117</ele>
        <time>2016-02-21T14:49:46.1Z</time>
      </trkpt>
      <trkpt lat="48.63125" lon="-2.44304">
        <ele>117</ele>
        <time>2016-02-21T14:49:48.1Z</time>
      </trkpt>
      <trkpt lat="48.63124" lon="-2.44311">
        <ele>116</ele>
        <time>2016-02-21T14:49:51.1Z</time>
      </trkpt>
      <trkpt lat="48.63124" lon="-2.44318">
        <ele>116</ele>
        <time>2016-02-21T14:49:54.1Z</time>
      </trkpt>
      <trkpt lat="48.63123" lon="-2.44322">
        <ele>116</ele>
        <time>2016-02-21T14:49:56.1Z</time>
      </trkpt>
      <trkpt lat="48.63123" lon="-2.44325">
        <ele>116</ele>
        <time>2016-02-21T14:49:58.1Z</time>
      </trkpt>
      <trkpt lat="48.63122" lon="-2.44332">
        <ele>116</ele>
        <time>2016-02-21T14:50:01.1Z</time>
      </trkpt>
      <trkpt lat="48.63122" lon="-2.44337">
        <ele>117</ele>
        <time>2016-02-21T14:50:04.1Z</time>
      </trkpt>
      <trkpt lat="48.63121" lon="-2.44341">
        <ele>116</ele>
        <time>2016-02-21T14:50:06.1Z</time>
      </trkpt>
      <trkpt lat="48.6312" lon="-2.44345">
        <ele>116</ele>
        <time>2016-02-21T14:50:08.1Z</time>
      </trkpt>
      <trkpt lat="48.6312" lon="-2.44351">
        <ele>116</ele>
        <time>2016-02-21T14:50:11.1Z</time>
      </trkpt>
      <trkpt lat="48.63119" lon="-2.44355">
        <ele>116</ele>
        <time>2016-02-21T14:50:13.1Z</time>
      </trkpt>
      <trkpt lat="48.63118" lon="-2.4436">
        <ele>116</ele>
        <time>2016-02-21T14:50:16.1Z</time>
      </trkpt>
      <trkpt lat="48.63118" lon="-2.44363">
        <ele>116</ele>
        <time>2016-02-21T14:50:18.1Z</time>
      </trkpt>
      <trkpt lat="48.63117" lon="-2.44369">
        <ele>115</ele>
        <time>2016-02-21T14:50:21.1Z</time>
      </trkpt>
      <trkpt lat="48.63117" lon="-2.44373">
        <ele>115</ele>
        <time>2016-02-21T14:50:23.1Z</time>
      </trkpt>
      <trkpt lat="48.63116" lon="-2.44378">
        <ele>115</ele>
        <time>2016-02-21T14:50:26.1Z</time>
      </trkpt>
      <trkpt lat="48.63115" lon="-2.44382">
        <ele>116</ele>
        <time>2016-02-21T14:50:28.1Z</time>
      </trkpt>
      <trkpt lat="48.63114" lon="-2.44388">
        <ele>116</ele>
        <time>2016-02-21T14:50:31.1Z</time>
      </trkpt>
      <trkpt lat="48.63113" lon="-2.44393">
        <ele>115</ele>
        <time>2016-02-21T14:50:34.1Z</time>
      </trkpt>
      <trkpt lat="48.63113" lon="-2.44398">
        <ele>115</ele>
        <time>2016-02-21T14:50:37.1Z</time>
      </trkpt>
      <trkpt lat="48.63112" lon="-2.44402">
        <ele>115</ele>
        <time>2016-02-21T14:50:39.1Z</time>
      </trkpt>
      <trkpt lat="48.63111" lon="-2.44408">
        <ele>115</ele>
        <time>2016-02-21T14:50:42.1Z</time>
      </trkpt>
      <trkpt lat="48.63111" lon="-2.44413">
        <ele>115</ele>
        <time>2016-02-21T14:50:45.1Z</time>
      </trkpt>
      <trkpt lat="48.6311" lon="-2.44417">
        <ele>115</ele>
        <time>2016-02-21T14:50:47.1Z</time>
      </trkpt>
      <trkpt lat="48.6311" lon="-2.44423">
        <ele>114</ele>
        <time>2016-02-21T14:50:50.1Z</time>
      </trkpt>
      <trkpt lat="48.63109" lon="-2.44426">
        <ele>114</ele>
        <time>2016-02-21T14:50:52.1Z</time>
      </trkpt>
      <trkpt lat="48.63109" lon="-2.44429">
        <ele>114</ele>
        <time>2016-02-21T14:50:54.1Z</time>
      </trkpt>
      <trkpt lat="48.63108" lon="-2.44434">
        <ele>114</ele>
        <time>2016-02-21T14:50:57.1Z</time>
      </trkpt>
      <trkpt lat="48.63108" lon="-2.44438">
        <ele>114</ele>
        <time>2016-02-21T14:50:59.1Z</time>
      </trkpt>
      <trkpt lat="48.63108" lon="-2.44443">
        <ele>114</ele>
        <time>2016-02-21T14:51:02.1Z</time>
      </trkpt>
      <trkpt lat="48.63107" lon="-2.44447">
        <ele>113</ele>
        <time>2016-02-21T14:51:04.1Z</time>
      </trkpt>
      <trkpt lat="48.63107" lon="-2.44453">
        <ele>114</ele>
        <time>2016-02-21T14:51:07.1Z</time>
      </trkpt>
      <trkpt lat="48.63106" lon="-2.44457">
        <ele>114</ele>
        <time>2016-02-21T14:51:09.1Z</time>
      </trkpt>
      <trkpt lat="48.63106" lon="-2.44463">
        <ele>114</ele>
        <time>2016-02-21T14:51:12.1Z</time>
      </trkpt>
      <trkpt lat="48.63105" lon="-2.44468">
        <ele>113</ele>
        <time>2016-02-21T14:51:15.1Z</time>
      </trkpt>
      <trkpt lat="48.63105" lon="-2.44472">
        <ele>113</ele>
        <time>2016-02-21T14:51:17.1Z</time>
      </trkpt>
      <trkpt lat="48.63104" lon="-2.44478">
        <ele>113</ele>
        <time>2016-02-21T14:51:20.1Z</time>
      </trkpt>
      <trkpt lat="48.63103" lon="-2.44482">
        <ele>113</ele>
        <time>2016-02-21T14:51:22.1Z</time>
      </trkpt>
      <trkpt lat="48.63103" lon="-2.44486">
        <ele>113</ele>
        <time>2016-02-21T14:51:24.1Z</time>
      </trkpt>
      <trkpt lat="48.63102" lon="-2.4449">
        <ele>113</ele>
        <time>2016-02-21T14:51:27.1Z</time>
      </trkpt>
      <trkpt lat="48.63101" lon="-2.44495">
        <ele>112</ele>
        <time>2016-02-21T14:51:30.1Z</time>
      </trkpt>
      <trkpt lat="48.631" lon="-2.44499">
        <ele>112</ele>
        <time>2016-02-21T14:51:32.1Z</time>
      </trkpt>
      <trkpt lat="48.631" lon="-2.44504">
        <ele>112</ele>
        <time>2016-02-21T14:51:35.1Z</time>
      </trkpt>
      <trkpt lat="48.631" lon="-2.44508">
        <ele>112</ele>
        <time>2016-02-21T14:51:37.1Z</time>
      </trkpt>
      <trkpt lat="48.63101" lon="-2.44512">
        <ele>112</ele>
        <time>2016-02-21T14:51:39.1Z</time>
      </trkpt>
      <trkpt lat="48.63104" lon="-2.44515">
        <ele>112</ele>
        <time>2016-02-21T14:51:42.1Z</time>
      </trkpt>
      <trkpt lat="48.63107" lon="-2.44516">
        <ele>112</ele>
        <time>2016-02-21T14:51:44.1Z</time>
      </trkpt>
      <trkpt lat="48.63111" lon="-2.44517">
        <ele>111</ele>
        <time>2016-02-21T14:51:47.1Z</time>
      </trkpt>
      <trkpt lat="48.63115" lon="-2.44518">
        <ele>111</ele>
        <time>2016-02-21T14:51:50.1Z</time>
      </trkpt>
      <trkpt lat="48.63117" lon="-2.44519">
        <ele>111</ele>
        <time>2016-02-21T14:51:52.1Z</time>
      </trkpt>
      <trkpt lat="48.63121" lon="-2.44519">
        <ele>111</ele>
        <time>2016-02-21T14:51:55.1Z</time>
      </trkpt>
      <trkpt lat="48.63123" lon="-2.4452">
        <ele>111</ele>
        <time>2016-02-21T14:51:57.1Z</time>
      </trkpt>
      <trkpt lat="48.63128" lon="-2.44521">
        <ele>111</ele>
        <time>2016-02-21T14:52:00.1Z</time>
      </trkpt>
      <trkpt lat="48.63131" lon="-2.44521">
        <ele>111</ele>
        <time>2016-02-21T14:52:02.1Z</time>
      </trkpt>
      <trkpt lat="48.63134" lon="-2.44521">
        <ele>112</ele>
        <time>2016-02-21T14:52:05.1Z</time>
      </trkpt>
      <trkpt lat="48.63139" lon="-2.44521">
        <ele>112</ele>
        <time>2016-02-21T14:52:08.1Z</time>
      </trkpt>
      <trkpt lat="48.63142" lon="-2.4452">
        <ele>111</ele>
        <time>2016-02-21T14:52:11.1Z</time>
      </trkpt>
      <trkpt lat="48.63146" lon="-2.44519">
        <ele>112</ele>
        <time>2016-02-21T14:52:14.1Z</time>
      </trkpt>
      <trkpt lat="48.63148" lon="-2.44517">
        <ele>112</ele>
        <time>2016-02-21T14:52:17.1Z</time>
      </trkpt>
      <trkpt lat="48.63151" lon="-2.44515">
        <ele>112</ele>
        <time>2016-02-21T14:52:20.1Z</time>
      </trkpt>
      <trkpt lat="48.63153" lon="-2.44513">
        <ele>111</ele>
        <time>2016-02-21T14:52:23.1Z</time>
      </trkpt>
      <trkpt lat="48.63157" lon="-2.44511">
        <ele>112</ele>
        <time>2016-02-21T14:52:26.1Z</time>
      </trkpt>
      <trkpt lat="48.6316" lon="-2.4451">
        <ele>112</ele>
        <time>2016-02-21T14:52:29.1Z</time>
      </trkpt>
      <trkpt lat="48.63162" lon="-2.44508">
        <ele>111</ele>
        <time>2016-02-21T14:52:31.1Z</time>
      </trkpt>
      <trkpt lat="48.63165" lon="-2.44506">
        <ele>111</ele>
        <time>2016-02-21T14:52:34.1Z</time>
      </trkpt>
      <trkpt lat="48.63167" lon="-2.44504">
        <ele>111</ele>
        <time>2016-02-21T14:52:36.1Z</time>
      </trkpt>
      <trkpt lat="48.6317" lon="-2.44501">
        <ele>111</ele>
        <time>2016-02-21T14:52:39.1Z</time>
      </trkpt>
      <trkpt lat="48.63173" lon="-2.44498">
        <ele>111</ele>
        <time>2016-02-21T14:52:42.1Z</time>
      </trkpt>
      <trkpt lat="48.63175" lon="-2.44496">
        <ele>111</ele>
        <time>2016-02-21T14:52:45.1Z</time>
      </trkpt>
      <trkpt lat="48.63176" lon="-2.44495">
        <ele>112</ele>
        <time>2016-02-21T14:52:47.1Z</time>
      </trkpt>
      <trkpt lat="48.63177" lon="-2.44494">
        <ele>112</ele>
        <time>2016-02-21T14:52:51.1Z</time>
      </trkpt>
      <trkpt lat="48.63177" lon="-2.44493">
        <ele>113</ele>
        <time>2016-02-21T14:52:53.1Z</time>
      </trkpt>
      <trkpt lat="48.63178" lon="-2.44492">
        <ele>113</ele>
        <time>2016-02-21T14:52:56.1Z</time>
      </trkpt>
      <trkpt lat="48.63178" lon="-2.44491">
        <ele>113</ele>
        <time>2016-02-21T14:52:58.1Z</time>
      </trkpt>
      <trkpt lat="48.63177" lon="-2.44489">
        <ele>113</ele>
        <time>2016-02-21T14:53:01.1Z</time>
      </trkpt>
      <trkpt lat="48.63176" lon="-2.44487">
        <ele>113</ele>
        <time>2016-02-21T14:53:03.1Z</time>
      </trkpt>
      <trkpt lat="48.63174" lon="-2.44486">
        <ele>113</ele>
        <time>2016-02-21T14:53:05.1Z</time>
      </trkpt>
      <trkpt lat="48.63173" lon="-2.44484">
        <ele>113</ele>
        <time>2016-02-21T14:53:07.1Z</time>
      </trkpt>
      <trkpt lat="48.63172" lon="-2.44483">
        <ele>113</ele>
        <time>2016-02-21T14:53:09.1Z</time>
      </trkpt>
      <trkpt lat="48.63171" lon="-2.44481">
        <ele>114</ele>
        <time>2016-02-21T14:53:11.1Z</time>
      </trkpt>
      <trkpt lat="48.63169" lon="-2.44478">
        <ele>114</ele>
        <time>2016-02-21T14:53:14.1Z</time>
      </trkpt>
      <trkpt lat="48.63168" lon="-2.44477">
        <ele>114</ele>
        <time>2016-02-21T14:53:16.1Z</time>
      </trkpt>
      <trkpt lat="48.63167" lon="-2.44475">
        <ele>115</ele>
        <time>2016-02-21T14:53:18.1Z</time>
      </trkpt>
      <trkpt lat="48.63166" lon="-2.44473">
        <ele>115</ele>
        <time>2016-02-21T14:53:20.1Z</time>
      </trkpt>
      <trkpt lat="48.63165" lon="-2.44468">
        <ele>115</ele>
        <time>2016-02-21T14:53:23.1Z</time>
      </trkpt>
      <trkpt lat="48.63163" lon="-2.44467">
        <ele>115</ele>
        <time>2016-02-21T14:53:25.1Z</time>
      </trkpt>
      <trkpt lat="48.63162" lon="-2.44464">
        <ele>116</ele>
        <time>2016-02-21T14:53:28.1Z</time>
      </trkpt>
      <trkpt lat="48.6316" lon="-2.44463">
        <ele>116</ele>
        <time>2016-02-21T14:53:31.1Z</time>
      </trkpt>
      <trkpt lat="48.63159" lon="-2.44461">
        <ele>116</ele>
        <time>2016-02-21T14:53:33.1Z</time>
      </trkpt>
      <trkpt lat="48.63158" lon="-2.44458">
        <ele>116</ele>
        <time>2016-02-21T14:53:35.1Z</time>
      </trkpt>
      <trkpt lat="48.63158" lon="-2.44455">
        <ele>117</ele>
        <time>2016-02-21T14:53:38.1Z</time>
      </trkpt>
      <trkpt lat="48.63158" lon="-2.44458">
        <ele>117</ele>
        <time>2016-02-21T14:53:41.1Z</time>
      </trkpt>
      <trkpt lat="48.63158" lon="-2.44461">
        <ele>117</ele>
        <time>2016-02-21T14:53:43.1Z</time>
      </trkpt>
      <trkpt lat="48.63159" lon="-2.44462">
        <ele>117</ele>
        <time>2016-02-21T14:53:46.1Z</time>
      </trkpt>
      <trkpt lat="48.63159" lon="-2.44463">
        <ele>116</ele>
        <time>2016-02-21T14:53:50.1Z</time>
      </trkpt>
      <trkpt lat="48.6316" lon="-2.44464">
        <ele>116</ele>
        <time>2016-02-21T14:53:53.1Z</time>
      </trkpt>
      <trkpt lat="48.63162" lon="-2.44466">
        <ele>116</ele>
        <time>2016-02-21T14:53:56.1Z</time>
      </trkpt>
      <trkpt lat="48.63164" lon="-2.4447">
        <ele>116</ele>
        <time>2016-02-21T14:53:59.1Z</time>
      </trkpt>
      <trkpt lat="48.63165" lon="-2.44472">
        <ele>116</ele>
        <time>2016-02-21T14:54:01.1Z</time>
      </trkpt>
      <trkpt lat="48.63166" lon="-2.44474">
        <ele>115</ele>
        <time>2016-02-21T14:54:04.1Z</time>
      </trkpt>
      <trkpt lat="48.63168" lon="-2.44477">
        <ele>114</ele>
        <time>2016-02-21T14:54:07.1Z</time>
      </trkpt>
      <trkpt lat="48.6317" lon="-2.4448">
        <ele>114</ele>
        <time>2016-02-21T14:54:09.1Z</time>
      </trkpt>
      <trkpt lat="48.63172" lon="-2.44482">
        <ele>114</ele>
        <time>2016-02-21T14:54:12.1Z</time>
      </trkpt>
      <trkpt lat="48.63174" lon="-2.44485">
        <ele>113</ele>
        <time>2016-02-21T14:54:14.1Z</time>
      </trkpt>
      <trkpt lat="48.63175" lon="-2.44488">
        <ele>113</ele>
        <time>2016-02-21T14:54:17.1Z</time>
      </trkpt>
      <trkpt lat="48.63176" lon="-2.4449">
        <ele>113</ele>
        <time>2016-02-21T14:54:19.1Z</time>
      </trkpt>
      <trkpt lat="48.63179" lon="-2.44492">
        <ele>113</ele>
        <time>2016-02-21T14:54:22.1Z</time>
      </trkpt>
      <trkpt lat="48.6318" lon="-2.44491">
        <ele>113</ele>
        <time>2016-02-21T14:54:24.1Z</time>
      </trkpt>
      <trkpt lat="48.6318" lon="-2.44492">
        <ele>113</ele>
        <time>2016-02-21T14:54:26.1Z</time>
      </trkpt>
      <trkpt lat="48.63181" lon="-2.44492">
        <ele>113</ele>
        <time>2016-02-21T14:54:31.1Z</time>
      </trkpt>
      <trkpt lat="48.63181" lon="-2.44492">
        <ele>113</ele>
        <time>2016-02-21T14:54:34.1Z</time>
      </trkpt>
      <trkpt lat="48.63183" lon="-2.44491">
        <ele>113</ele>
        <time>2016-02-21T14:54:37.1Z</time>
      </trkpt>
      <trkpt lat="48.63184" lon="-2.44491">
        <ele>113</ele>
        <time>2016-02-21T14:54:39.1Z</time>
      </trkpt>
      <trkpt lat="48.63184" lon="-2.44491">
        <ele>113</ele>
        <time>2016-02-21T14:54:41.1Z</time>
      </trkpt>
      <trkpt lat="48.63184" lon="-2.44491">
        <ele>112</ele>
        <time>2016-02-21T14:54:44.1Z</time>
      </trkpt>
      <trkpt lat="48.63186" lon="-2.44488">
        <ele>113</ele>
        <time>2016-02-21T14:54:47.1Z</time>
      </trkpt>
      <trkpt lat="48.63188" lon="-2.44487">
        <ele>113</ele>
        <time>2016-02-21T14:54:49.1Z</time>
      </trkpt>
      <trkpt lat="48.6319" lon="-2.44485">
        <ele>113</ele>
        <time>2016-02-21T14:54:52.1Z</time>
      </trkpt>
      <trkpt lat="48.63192" lon="-2.44484">
        <ele>113</ele>
        <time>2016-02-21T14:54:54.1Z</time>
      </trkpt>
      <trkpt lat="48.63194" lon="-2.44483">
        <ele>113</ele>
        <time>2016-02-21T14:54:56.1Z</time>
      </trkpt>
      <trkpt lat="48.63197" lon="-2.44481">
        <ele>113</ele>
        <time>2016-02-21T14:54:59.1Z</time>
      </trkpt>
      <trkpt lat="48.63198" lon="-2.4448">
        <ele>113</ele>
        <time>2016-02-21T14:55:01.1Z</time>
      </trkpt>
      <trkpt lat="48.632" lon="-2.44479">
        <ele>114</ele>
        <time>2016-02-21T14:55:03.1Z</time>
      </trkpt>
      <trkpt lat="48.63202" lon="-2.44478">
        <ele>114</ele>
        <time>2016-02-21T14:55:05.1Z</time>
      </trkpt>
      <trkpt lat="48.63205" lon="-2.44476">
        <ele>114</ele>
        <time>2016-02-21T14:55:08.1Z</time>
      </trkpt>
      <trkpt lat="48.63208" lon="-2.44475">
        <ele>114</ele>
        <time>2016-02-21T14:55:11.1Z</time>
      </trkpt>
      <trkpt lat="48.63209" lon="-2.44474">
        <ele>114</ele>
        <time>2016-02-21T14:55:13.1Z</time>
      </trkpt>
      <trkpt lat="48.63212" lon="-2.44472">
        <ele>114</ele>
        <time>2016-02-21T14:55:16.1Z</time>
      </trkpt>
      <trkpt lat="48.63214" lon="-2.44472">
        <ele>114</ele>
        <time>2016-02-21T14:55:19.1Z</time>
      </trkpt>
      <trkpt lat="48.63216" lon="-2.44471">
        <ele>114</ele>
        <time>2016-02-21T14:55:21.1Z</time>
      </trkpt>
      <trkpt lat="48.63218" lon="-2.44471">
        <ele>114</ele>
        <time>2016-02-21T14:55:24.1Z</time>
      </trkpt>
      <trkpt lat="48.63221" lon="-2.44471">
        <ele>114</ele>
        <time>2016-02-21T14:55:27.1Z</time>
      </trkpt>
      <trkpt lat="48.63223" lon="-2.44471">
        <ele>114</ele>
        <time>2016-02-21T14:55:29.1Z</time>
      </trkpt>
      <trkpt lat="48.63226" lon="-2.44473">
        <ele>114</ele>
        <time>2016-02-21T14:55:32.1Z</time>
      </trkpt>
      <trkpt lat="48.63228" lon="-2.44473">
        <ele>114</ele>
        <time>2016-02-21T14:55:34.1Z</time>
      </trkpt>
      <trkpt lat="48.6323" lon="-2.44474">
        <ele>113</ele>
        <time>2016-02-21T14:55:36.1Z</time>
      </trkpt>
      <trkpt lat="48.63232" lon="-2.44477">
        <ele>113</ele>
        <time>2016-02-21T14:55:39.1Z</time>
      </trkpt>
      <trkpt lat="48.63234" lon="-2.44478">
        <ele>113</ele>
        <time>2016-02-21T14:55:41.1Z</time>
      </trkpt>
      <trkpt lat="48.63236" lon="-2.4448">
        <ele>113</ele>
        <time>2016-02-21T14:55:43.1Z</time>
      </trkpt>
      <trkpt lat="48.6324" lon="-2.44481">
        <ele>113</ele>
        <time>2016-02-21T14:55:46.1Z</time>
      </trkpt>
      <trkpt lat="48.63241" lon="-2.44483">
        <ele>113</ele>
        <time>2016-02-21T14:55:48.1Z</time>
      </trkpt>
      <trkpt lat="48.63244" lon="-2.44484">
        <ele>112</ele>
        <time>2016-02-21T14:55:51.1Z</time>
      </trkpt>
      <trkpt lat="48.63246" lon="-2.44486">
        <ele>112</ele>
        <time>2016-02-21T14:55:53.1Z</time>
      </trkpt>
      <trkpt lat="48.63249" lon="-2.44488">
        <ele>112</ele>
        <time>2016-02-21T14:55:56.1Z</time>
      </trkpt>
      <trkpt lat="48.63251" lon="-2.4449">
        <ele>112</ele>
        <time>2016-02-21T14:55:58.1Z</time>
      </trkpt>
      <trkpt lat="48.63255" lon="-2.44491">
        <ele>113</ele>
        <time>2016-02-21T14:56:01.1Z</time>
      </trkpt>
      <trkpt lat="48.63258" lon="-2.44489">
        <ele>112</ele>
        <time>2016-02-21T14:56:04.1Z</time>
      </trkpt>
      <trkpt lat="48.63261" lon="-2.44487">
        <ele>112</ele>
        <time>2016-02-21T14:56:07.1Z</time>
      </trkpt>
      <trkpt lat="48.63262" lon="-2.44484">
        <ele>112</ele>
        <time>2016-02-21T14:56:09.1Z</time>
      </trkpt>
      <trkpt lat="48.63263" lon="-2.44481">
        <ele>112</ele>
        <time>2016-02-21T14:56:11.1Z</time>
      </trkpt>
      <trkpt lat="48.63264" lon="-2.44479">
        <ele>112</ele>
        <time>2016-02-21T14:56:13.1Z</time>
      </trkpt>
      <trkpt lat="48.63266" lon="-2.44475">
        <ele>112</ele>
        <time>2016-02-21T14:56:16.1Z</time>
      </trkpt>
      <trkpt lat="48.63266" lon="-2.44471">
        <ele>112</ele>
        <time>2016-02-21T14:56:19.1Z</time>
      </trkpt>
      <trkpt lat="48.63268" lon="-2.44467">
        <ele>112</ele>
        <time>2016-02-21T14:56:22.1Z</time>
      </trkpt>
      <trkpt lat="48.6327" lon="-2.44464">
        <ele>112</ele>
        <time>2016-02-21T14:56:25.1Z</time>
      </trkpt>
      <trkpt lat="48.63271" lon="-2.44461">
        <ele>112</ele>
        <time>2016-02-21T14:56:27.1Z</time>
      </trkpt>
      <trkpt lat="48.63272" lon="-2.44458">
        <ele>112</ele>
        <time>2016-02-21T14:56:29.1Z</time>
      </trkpt>
      <trkpt lat="48.63273" lon="-2.44455">
        <ele>112</ele>
        <time>2016-02-21T14:56:32.1Z</time>
      </trkpt>
      <trkpt lat="48.63274" lon="-2.44454">
        <ele>112</ele>
        <time>2016-02-21T14:56:35.1Z</time>
      </trkpt>
      <trkpt lat="48.63276" lon="-2.44455">
        <ele>112</ele>
        <time>2016-02-21T14:56:38.1Z</time>
      </trkpt>
      <trkpt lat="48.63278" lon="-2.44458">
        <ele>112</ele>
        <time>2016-02-21T14:56:41.1Z</time>
      </trkpt>
      <trkpt lat="48.6328" lon="-2.4446">
        <ele>112</ele>
        <time>2016-02-21T14:56:44.1Z</time>
      </trkpt>
      <trkpt lat="48.63283" lon="-2.44463">
        <ele>111</ele>
        <time>2016-02-21T14:56:47.1Z</time>
      </trkpt>
      <trkpt lat="48.63285" lon="-2.44465">
        <ele>111</ele>
        <time>2016-02-21T14:56:50.1Z</time>
      </trkpt>
      <trkpt lat="48.63288" lon="-2.44467">
        <ele>111</ele>
        <time>2016-02-21T14:56:53.1Z</time>
      </trkpt>
      <trkpt lat="48.6329" lon="-2.44469">
        <ele>111</ele>
        <time>2016-02-21T14:56:55.1Z</time>
      </trkpt>
      <trkpt lat="48.63292" lon="-2.44472">
        <ele>111</ele>
        <time>2016-02-21T14:56:58.1Z</time>
      </trkpt>
      <trkpt lat="48.63293" lon="-2.44474">
        <ele>110</ele>
        <time>2016-02-21T14:57:01.1Z</time>
      </trkpt>
      <trkpt lat="48.63295" lon="-2.44476">
        <ele>110</ele>
        <time>2016-02-21T14:57:03.1Z</time>
      </trkpt>
      <trkpt lat="48.63297" lon="-2.44477">
        <ele>110</ele>
        <time>2016-02-21T14:57:06.1Z</time>
      </trkpt>
      <trkpt lat="48.633" lon="-2.44478">
        <ele>110</ele>
        <time>2016-02-21T14:57:09.1Z</time>
      </trkpt>
      <trkpt lat="48.63302" lon="-2.44479">
        <ele>110</ele>
        <time>2016-02-21T14:57:11.1Z</time>
      </trkpt>
      <trkpt lat="48.63304" lon="-2.44479">
        <ele>110</ele>
        <time>2016-02-21T14:57:13.1Z</time>
      </trkpt>
      <trkpt lat="48.63308" lon="-2.44478">
        <ele>111</ele>
        <time>2016-02-21T14:57:16.1Z</time>
      </trkpt>
      <trkpt lat="48.6331" lon="-2.44478">
        <ele>111</ele>
        <time>2016-02-21T14:57:18.1Z</time>
      </trkpt>
      <trkpt lat="48.63313" lon="-2.44477">
        <ele>110</ele>
        <time>2016-02-21T14:57:20.1Z</time>
      </trkpt>
      <trkpt lat="48.63316" lon="-2.44477">
        <ele>110</ele>
        <time>2016-02-21T14:57:22.1Z</time>
      </trkpt>
      <trkpt lat="48.63319" lon="-2.44477">
        <ele>110</ele>
        <time>2016-02-21T14:57:25.1Z</time>
      </trkpt>
      <trkpt lat="48.63324" lon="-2.44478">
        <ele>110</ele>
        <time>2016-02-21T14:57:28.1Z</time>
      </trkpt>
      <trkpt lat="48.63326" lon="-2.44478">
        <ele>110</ele>
        <time>2016-02-21T14:57:30.1Z</time>
      </trkpt>
      <trkpt lat="48.63329" lon="-2.44479">
        <ele>110</ele>
        <time>2016-02-21T14:57:33.1Z</time>
      </trkpt>
      <trkpt lat="48.63333" lon="-2.44479">
        <ele>110</ele>
        <time>2016-02-21T14:57:36.1Z</time>
      </trkpt>
      <trkpt lat="48.63336" lon="-2.44481">
        <ele>110</ele>
        <time>2016-02-21T14:57:39.1Z</time>
      </trkpt>
      <trkpt lat="48.63339" lon="-2.44482">
        <ele>110</ele>
        <time>2016-02-21T14:57:41.1Z</time>
      </trkpt>
      <trkpt lat="48.63341" lon="-2.44484">
        <ele>110</ele>
        <time>2016-02-21T14:57:43.1Z</time>
      </trkpt>
      <trkpt lat="48.63345" lon="-2.44487">
        <ele>110</ele>
        <time>2016-02-21T14:57:46.1Z</time>
      </trkpt>
      <trkpt lat="48.63346" lon="-2.44489">
        <ele>109</ele>
        <time>2016-02-21T14:57:48.1Z</time>
      </trkpt>
      <trkpt lat="48.6335" lon="-2.44491">
        <ele>109</ele>
        <time>2016-02-21T14:57:51.1Z</time>
      </trkpt>
      <trkpt lat="48.63353" lon="-2.44494">
        <ele>109</ele>
        <time>2016-02-21T14:57:54.1Z</time>
      </trkpt>
      <trkpt lat="48.63354" lon="-2.44496">
        <ele>108</ele>
        <time>2016-02-21T14:57:56.1Z</time>
      </trkpt>
      <trkpt lat="48.63355" lon="-2.44498">
        <ele>108</ele>
        <time>2016-02-21T14:57:58.1Z</time>
      </trkpt>
      <trkpt lat="48.63356" lon="-2.44501">
        <ele>108</ele>
        <time>2016-02-21T14:58:00.1Z</time>
      </trkpt>
      <trkpt lat="48.63357" lon="-2.44504">
        <ele>108</ele>
        <time>2016-02-21T14:58:02.1Z</time>
      </trkpt>
      <trkpt lat="48.63358" lon="-2.44508">
        <ele>108</ele>
        <time>2016-02-21T14:58:04.1Z</time>
      </trkpt>
      <trkpt lat="48.63358" lon="-2.44513">
        <ele>108</ele>
        <time>2016-02-21T14:58:07.1Z</time>
      </trkpt>
      <trkpt lat="48.63358" lon="-2.44516">
        <ele>108</ele>
        <time>2016-02-21T14:58:09.1Z</time>
      </trkpt>
      <trkpt lat="48.63356" lon="-2.44521">
        <ele>108</ele>
        <time>2016-02-21T14:58:12.1Z</time>
      </trkpt>
      <trkpt lat="48.63355" lon="-2.44524">
        <ele>108</ele>
        <time>2016-02-21T14:58:14.1Z</time>
      </trkpt>
      <trkpt lat="48.63353" lon="-2.44528">
        <ele>107</ele>
        <time>2016-02-21T14:58:17.1Z</time>
      </trkpt>
      <trkpt lat="48.63352" lon="-2.4453">
        <ele>107</ele>
        <time>2016-02-21T14:58:19.1Z</time>
      </trkpt>
      <trkpt lat="48.63351" lon="-2.44534">
        <ele>107</ele>
        <time>2016-02-21T14:58:22.1Z</time>
      </trkpt>
      <trkpt lat="48.6335" lon="-2.44537">
        <ele>107</ele>
        <time>2016-02-21T14:58:24.1Z</time>
      </trkpt>
      <trkpt lat="48.63348" lon="-2.4454">
        <ele>107</ele>
        <time>2016-02-21T14:58:26.1Z</time>
      </trkpt>
      <trkpt lat="48.63347" lon="-2.44544">
        <ele>107</ele>
        <time>2016-02-21T14:58:29.1Z</time>
      </trkpt>
      <trkpt lat="48.63345" lon="-2.44549">
        <ele>107</ele>
        <time>2016-02-21T14:58:32.1Z</time>
      </trkpt>
      <trkpt lat="48.63345" lon="-2.44553">
        <ele>107</ele>
        <time>2016-02-21T14:58:35.1Z</time>
      </trkpt>
      <trkpt lat="48.63346" lon="-2.44556">
        <ele>107</ele>
        <time>2016-02-21T14:58:37.1Z</time>
      </trkpt>
      <trkpt lat="48.63348" lon="-2.44559">
        <ele>107</ele>
        <time>2016-02-21T14:58:39.1Z</time>
      </trkpt>
      <trkpt lat="48.63349" lon="-2.44561">
        <ele>107</ele>
        <time>2016-02-21T14:58:41.1Z</time>
      </trkpt>
      <trkpt lat="48.63351" lon="-2.44564">
        <ele>107</ele>
        <time>2016-02-21T14:58:43.1Z</time>
      </trkpt>
      <trkpt lat="48.63353" lon="-2.44566">
        <ele>107</ele>
        <time>2016-02-21T14:58:45.1Z</time>
      </trkpt>
      <trkpt lat="48.63354" lon="-2.44569">
        <ele>106</ele>
        <time>2016-02-21T14:58:47.1Z</time>
      </trkpt>
      <trkpt lat="48.63357" lon="-2.44572">
        <ele>106</ele>
        <time>2016-02-21T14:58:50.1Z</time>
      </trkpt>
      <trkpt lat="48.63359" lon="-2.44575">
        <ele>106</ele>
        <time>2016-02-21T14:58:52.1Z</time>
      </trkpt>
      <trkpt lat="48.63361" lon="-2.44577">
        <ele>106</ele>
        <time>2016-02-21T14:58:54.1Z</time>
      </trkpt>
      <trkpt lat="48.63362" lon="-2.44579">
        <ele>106</ele>
        <time>2016-02-21T14:58:56.1Z</time>
      </trkpt>
      <trkpt lat="48.63364" lon="-2.44581">
        <ele>106</ele>
        <time>2016-02-21T14:58:58.1Z</time>
      </trkpt>
      <trkpt lat="48.63366" lon="-2.44583">
        <ele>106</ele>
        <time>2016-02-21T14:59:00.1Z</time>
      </trkpt>
      <trkpt lat="48.63368" lon="-2.44585">
        <ele>106</ele>
        <time>2016-02-21T14:59:02.1Z</time>
      </trkpt>
      <trkpt lat="48.63371" lon="-2.44588">
        <ele>106</ele>
        <time>2016-02-21T14:59:05.1Z</time>
      </trkpt>
      <trkpt lat="48.63374" lon="-2.4459">
        <ele>106</ele>
        <time>2016-02-21T14:59:07.1Z</time>
      </trkpt>
      <trkpt lat="48.63376" lon="-2.44594">
        <ele>106</ele>
        <time>2016-02-21T14:59:10.1Z</time>
      </trkpt>
      <trkpt lat="48.63379" lon="-2.44597">
        <ele>106</ele>
        <time>2016-02-21T14:59:13.1Z</time>
      </trkpt>
      <trkpt lat="48.63381" lon="-2.44599">
        <ele>106</ele>
        <time>2016-02-21T14:59:15.1Z</time>
      </trkpt>
      <trkpt lat="48.63383" lon="-2.44601">
        <ele>106</ele>
        <time>2016-02-21T14:59:18.1Z</time>
      </trkpt>
      <trkpt lat="48.63385" lon="-2.44603">
        <ele>105</ele>
        <time>2016-02-21T14:59:20.1Z</time>
      </trkpt>
      <trkpt lat="48.63387" lon="-2.44605">
        <ele>105</ele>
        <time>2016-02-21T14:59:22.1Z</time>
      </trkpt>
      <trkpt lat="48.6339" lon="-2.44608">
        <ele>105</ele>
        <time>2016-02-21T14:59:25.1Z</time>
      </trkpt>
      <trkpt lat="48.63392" lon="-2.44611">
        <ele>105</ele>
        <time>2016-02-21T14:59:27.1Z</time>
      </trkpt>
      <trkpt lat="48.63395" lon="-2.44614">
        <ele>105</ele>
        <time>2016-02-21T14:59:30.1Z</time>
      </trkpt>
      <trkpt lat="48.63398" lon="-2.44617">
        <ele>105</ele>
        <time>2016-02-21T14:59:33.1Z</time>
      </trkpt>
      <trkpt lat="48.63399" lon="-2.44619">
        <ele>105</ele>
        <time>2016-02-21T14:59:35.1Z</time>
      </trkpt>
      <trkpt lat="48.63402" lon="-2.44621">
        <ele>104</ele>
        <time>2016-02-21T14:59:38.1Z</time>
      </trkpt>
      <trkpt lat="48.63405" lon="-2.44625">
        <ele>104</ele>
        <time>2016-02-21T14:59:41.1Z</time>
      </trkpt>
      <trkpt lat="48.63408" lon="-2.44629">
        <ele>104</ele>
        <time>2016-02-21T14:59:44.1Z</time>
      </trkpt>
      <trkpt lat="48.6341" lon="-2.4463">
        <ele>104</ele>
        <time>2016-02-21T14:59:46.1Z</time>
      </trkpt>
      <trkpt lat="48.63412" lon="-2.44633">
        <ele>104</ele>
        <time>2016-02-21T14:59:49.1Z</time>
      </trkpt>
      <trkpt lat="48.63415" lon="-2.44636">
        <ele>104</ele>
        <time>2016-02-21T14:59:52.1Z</time>
      </trkpt>
      <trkpt lat="48.63418" lon="-2.44639">
        <ele>104</ele>
        <time>2016-02-21T14:59:55.1Z</time>
      </trkpt>
      <trkpt lat="48.6342" lon="-2.4464">
        <ele>104</ele>
        <time>2016-02-21T14:59:57.1Z</time>
      </trkpt>
      <trkpt lat="48.63423" lon="-2.44641">
        <ele>104</ele>
        <time>2016-02-21T15:00:00.1Z</time>
      </trkpt>
      <trkpt lat="48.63427" lon="-2.44642">
        <ele>104</ele>
        <time>2016-02-21T15:00:03.1Z</time>
      </trkpt>
      <trkpt lat="48.63428" lon="-2.44642">
        <ele>104</ele>
        <time>2016-02-21T15:00:05.1Z</time>
      </trkpt>
      <trkpt lat="48.63432" lon="-2.44643">
        <ele>105</ele>
        <time>2016-02-21T15:00:08.1Z</time>
      </trkpt>
      <trkpt lat="48.63435" lon="-2.44645">
        <ele>105</ele>
        <time>2016-02-21T15:00:11.1Z</time>
      </trkpt>
      <trkpt lat="48.63437" lon="-2.44645">
        <ele>105</ele>
        <time>2016-02-21T15:00:13.1Z</time>
      </trkpt>
      <trkpt lat="48.6344" lon="-2.44646">
        <ele>105</ele>
        <time>2016-02-21T15:00:16.1Z</time>
      </trkpt>
      <trkpt lat="48.63443" lon="-2.44647">
        <ele>105</ele>
        <time>2016-02-21T15:00:18.1Z</time>
      </trkpt>
      <trkpt lat="48.63446" lon="-2.44647">
        <ele>105</ele>
        <time>2016-02-21T15:00:21.1Z</time>
      </trkpt>
      <trkpt lat="48.63449" lon="-2.44647">
        <ele>105</ele>
        <time>2016-02-21T15:00:24.1Z</time>
      </trkpt>
      <trkpt lat="48.63453" lon="-2.44648">
        <ele>105</ele>
        <time>2016-02-21T15:00:27.1Z</time>
      </trkpt>
      <trkpt lat="48.63456" lon="-2.44648">
        <ele>105</ele>
        <time>2016-02-21T15:00:30.1Z</time>
      </trkpt>
      <trkpt lat="48.63459" lon="-2.44649">
        <ele>105</ele>
        <time>2016-02-21T15:00:33.1Z</time>
      </trkpt>
      <trkpt lat="48.63462" lon="-2.44649">
        <ele>106</ele>
        <time>2016-02-21T15:00:36.1Z</time>
      </trkpt>
      <trkpt lat="48.63465" lon="-2.44649">
        <ele>106</ele>
        <time>2016-02-21T15:00:39.1Z</time>
      </trkpt>
      <trkpt lat="48.63467" lon="-2.44649">
        <ele>106</ele>
        <time>2016-02-21T15:00:41.1Z</time>
      </trkpt>
      <trkpt lat="48.6347" lon="-2.4465">
        <ele>106</ele>
        <time>2016-02-21T15:00:44.1Z</time>
      </trkpt>
      <trkpt lat="48.63473" lon="-2.4465">
        <ele>106</ele>
        <time>2016-02-21T15:00:47.1Z</time>
      </trkpt>
      <trkpt lat="48.63476" lon="-2.4465">
        <ele>106</ele>
        <time>2016-02-21T15:00:50.1Z</time>
      </trkpt>
      <trkpt lat="48.6348" lon="-2.44651">
        <ele>106</ele>
        <time>2016-02-21T15:00:53.1Z</time>
      </trkpt>
      <trkpt lat="48.63483" lon="-2.4465">
        <ele>106</ele>
        <time>2016-02-21T15:00:56.1Z</time>
      </trkpt>
      <trkpt lat="48.63485" lon="-2.4465">
        <ele>106</ele>
        <time>2016-02-21T15:00:58.1Z</time>
      </trkpt>
      <trkpt lat="48.63488" lon="-2.44651">
        <ele>107</ele>
        <time>2016-02-21T15:01:01.1Z</time>
      </trkpt>
      <trkpt lat="48.6349" lon="-2.44651">
        <ele>107</ele>
        <time>2016-02-21T15:01:03.1Z</time>
      </trkpt>
      <trkpt lat="48.63493" lon="-2.44651">
        <ele>107</ele>
        <time>2016-02-21T15:01:06.1Z</time>
      </trkpt>
      <trkpt lat="48.63496" lon="-2.44651">
        <ele>107</ele>
        <time>2016-02-21T15:01:09.1Z</time>
      </trkpt>
      <trkpt lat="48.63499" lon="-2.4465">
        <ele>107</ele>
        <time>2016-02-21T15:01:11.1Z</time>
      </trkpt>
      <trkpt lat="48.63501" lon="-2.4465">
        <ele>107</ele>
        <time>2016-02-21T15:01:13.1Z</time>
      </trkpt>
      <trkpt lat="48.63504" lon="-2.44649">
        <ele>107</ele>
        <time>2016-02-21T15:01:15.1Z</time>
      </trkpt>
      <trkpt lat="48.63507" lon="-2.44649">
        <ele>108</ele>
        <time>2016-02-21T15:01:18.1Z</time>
      </trkpt>
      <trkpt lat="48.63509" lon="-2.44648">
        <ele>108</ele>
        <time>2016-02-21T15:01:20.1Z</time>
      </trkpt>
      <trkpt lat="48.63512" lon="-2.44648">
        <ele>108</ele>
        <time>2016-02-21T15:01:23.1Z</time>
      </trkpt>
      <trkpt lat="48.63514" lon="-2.44647">
        <ele>108</ele>
        <time>2016-02-21T15:01:25.1Z</time>
      </trkpt>
      <trkpt lat="48.63517" lon="-2.44644">
        <ele>108</ele>
        <time>2016-02-21T15:01:28.1Z</time>
      </trkpt>
      <trkpt lat="48.63519" lon="-2.44642">
        <ele>109</ele>
        <time>2016-02-21T15:01:30.1Z</time>
      </trkpt>
      <trkpt lat="48.63521" lon="-2.44639">
        <ele>109</ele>
        <time>2016-02-21T15:01:32.1Z</time>
      </trkpt>
      <trkpt lat="48.63523" lon="-2.44635">
        <ele>109</ele>
        <time>2016-02-21T15:01:35.1Z</time>
      </trkpt>
      <trkpt lat="48.63525" lon="-2.44631">
        <ele>109</ele>
        <time>2016-02-21T15:01:38.1Z</time>
      </trkpt>
      <trkpt lat="48.63526" lon="-2.44628">
        <ele>109</ele>
        <time>2016-02-21T15:01:40.1Z</time>
      </trkpt>
      <trkpt lat="48.63527" lon="-2.44624">
        <ele>110</ele>
        <time>2016-02-21T15:01:42.1Z</time>
      </trkpt>
      <trkpt lat="48.63529" lon="-2.4462">
        <ele>110</ele>
        <time>2016-02-21T15:01:45.1Z</time>
      </trkpt>
      <trkpt lat="48.63531" lon="-2.44616">
        <ele>109</ele>
        <time>2016-02-21T15:01:48.1Z</time>
      </trkpt>
      <trkpt lat="48.63534" lon="-2.44613">
        <ele>109</ele>
        <time>2016-02-21T15:01:51.1Z</time>
      </trkpt>
      <trkpt lat="48.63536" lon="-2.44608">
        <ele>110</ele>
        <time>2016-02-21T15:01:54.1Z</time>
      </trkpt>
      <trkpt lat="48.63537" lon="-2.44603">
        <ele>110</ele>
        <time>2016-02-21T15:01:57.1Z</time>
      </trkpt>
      <trkpt lat="48.63538" lon="-2.44599">
        <ele>109</ele>
        <time>2016-02-21T15:02:00.1Z</time>
      </trkpt>
      <trkpt lat="48.6354" lon="-2.44595">
        <ele>109</ele>
        <time>2016-02-21T15:02:03.1Z</time>
      </trkpt>
      <trkpt lat="48.63541" lon="-2.4459">
        <ele>110</ele>
        <time>2016-02-21T15:02:06.1Z</time>
      </trkpt>
      <trkpt lat="48.63542" lon="-2.44586">
        <ele>109</ele>
        <time>2016-02-21T15:02:08.1Z</time>
      </trkpt>
      <trkpt lat="48.63543" lon="-2.44582">
        <ele>109</ele>
        <time>2016-02-21T15:02:11.1Z</time>
      </trkpt>
      <trkpt lat="48.63545" lon="-2.44578">
        <ele>109</ele>
        <time>2016-02-21T15:02:14.1Z</time>
      </trkpt>
      <trkpt lat="48.63546" lon="-2.44573">
        <ele>109</ele>
        <time>2016-02-21T15:02:17.1Z</time>
      </trkpt>
      <trkpt lat="48.63546" lon="-2.4457">
        <ele>110</ele>
        <time>2016-02-21T15:02:19.1Z</time>
      </trkpt>
      <trkpt lat="48.63548" lon="-2.44566">
        <ele>110</ele>
        <time>2016-02-21T15:02:22.1Z</time>
      </trkpt>
      <trkpt lat="48.63549" lon="-2.44564">
        <ele>110</ele>
        <time>2016-02-21T15:02:24.1Z</time>
      </trkpt>
      <trkpt lat="48.6355" lon="-2.4456">
        <ele>110</ele>
        <time>2016-02-21T15:02:27.1Z</time>
      </trkpt>
      <trkpt lat="48.63551" lon="-2.44557">
        <ele>110</ele>
        <time>2016-02-21T15:02:29.1Z</time>
      </trkpt>
      <trkpt lat="48.63553" lon="-2.44554">
        <ele>110</ele>
        <time>2016-02-21T15:02:31.1Z</time>
      </trkpt>
      <trkpt lat="48.63556" lon="-2.44551">
        <ele>110</ele>
        <time>2016-02-21T15:02:34.1Z</time>
      </trkpt>
      <trkpt lat="48.63558" lon="-2.44548">
        <ele>110</ele>
        <time>2016-02-21T15:02:37.1Z</time>
      </trkpt>
      <trkpt lat="48.6356" lon="-2.44546">
        <ele>110</ele>
        <time>2016-02-21T15:02:39.1Z</time>
      </trkpt>
      <trkpt lat="48.63563" lon="-2.44545">
        <ele>110</ele>
        <time>2016-02-21T15:02:42.1Z</time>
      </trkpt>
      <trkpt lat="48.63565" lon="-2.44544">
        <ele>111</ele>
        <time>2016-02-21T15:02:44.1Z</time>
      </trkpt>
      <trkpt lat="48.63567" lon="-2.44543">
        <ele>111</ele>
        <time>2016-02-21T15:02:46.1Z</time>
      </trkpt>
      <trkpt lat="48.6357" lon="-2.44543">
        <ele>111</ele>
        <time>2016-02-21T15:02:49.1Z</time>
      </trkpt>
      <trkpt lat="48.63572" lon="-2.44542">
        <ele>111</ele>
        <time>2016-02-21T15:02:51.1Z</time>
      </trkpt>
      <trkpt lat="48.63574" lon="-2.44542">
        <ele>111</ele>
        <time>2016-02-21T15:02:53.1Z</time>
      </trkpt>
      <trkpt lat="48.63577" lon="-2.44543">
        <ele>111</ele>
        <time>2016-02-21T15:02:56.1Z</time>
      </trkpt>
      <trkpt lat="48.6358" lon="-2.44543">
        <ele>111</ele>
        <time>2016-02-21T15:02:59.1Z</time>
      </trkpt>
      <trkpt lat="48.63582" lon="-2.44544">
        <ele>111</ele>
        <time>2016-02-21T15:03:01.1Z</time>
      </trkpt>
      <trkpt lat="48.63584" lon="-2.44545">
        <ele>111</ele>
        <time>2016-02-21T15:03:03.1Z</time>
      </trkpt>
      <trkpt lat="48.63586" lon="-2.44546">
        <ele>111</ele>
        <time>2016-02-21T15:03:05.1Z</time>
      </trkpt>
      <trkpt lat="48.63588" lon="-2.44548">
        <ele>111</ele>
        <time>2016-02-21T15:03:08.1Z</time>
      </trkpt>
      <trkpt lat="48.63591" lon="-2.44549">
        <ele>112</ele>
        <time>2016-02-21T15:03:11.1Z</time>
      </trkpt>
      <trkpt lat="48.63594" lon="-2.4455">
        <ele>112</ele>
        <time>2016-02-21T15:03:14.1Z</time>
      </trkpt>
      <trkpt lat="48.63596" lon="-2.44552">
        <ele>112</ele>
        <time>2016-02-21T15:03:16.1Z</time>
      </trkpt>
      <trkpt lat="48.63598" lon="-2.44552">
        <ele>112</ele>
        <time>2016-02-21T15:03:18.1Z</time>
      </trkpt>
      <trkpt lat="48.636" lon="-2.44553">
        <ele>113</ele>
        <time>2016-02-21T15:03:20.1Z</time>
      </trkpt>
      <trkpt lat="48.63602" lon="-2.44555">
        <ele>113</ele>
        <time>2016-02-21T15:03:22.1Z</time>
      </trkpt>
      <trkpt lat="48.63604" lon="-2.44555">
        <ele>113</ele>
        <time>2016-02-21T15:03:24.1Z</time>
      </trkpt>
      <trkpt lat="48.63606" lon="-2.44557">
        <ele>113</ele>
        <time>2016-02-21T15:03:27.1Z</time>
      </trkpt>
      <trkpt lat="48.63608" lon="-2.44558">
        <ele>114</ele>
        <time>2016-02-21T15:03:29.1Z</time>
      </trkpt>
      <trkpt lat="48.6361" lon="-2.4456">
        <ele>114</ele>
        <time>2016-02-21T15:03:31.1Z</time>
      </trkpt>
      <trkpt lat="48.63613" lon="-2.44561">
        <ele>114</ele>
        <time>2016-02-21T15:03:34.1Z</time>
      </trkpt>
      <trkpt lat="48.63616" lon="-2.44562">
        <ele>114</ele>
        <time>2016-02-21T15:03:37.1Z</time>
      </trkpt>
      <trkpt lat="48.63617" lon="-2.44563">
        <ele>115</ele>
        <time>2016-02-21T15:03:39.1Z</time>
      </trkpt>
      <trkpt lat="48.63621" lon="-2.44564">
        <ele>115</ele>
        <time>2016-02-21T15:03:42.1Z</time>
      </trkpt>
      <trkpt lat="48.63624" lon="-2.44566">
        <ele>115</ele>
        <time>2016-02-21T15:03:45.1Z</time>
      </trkpt>
      <trkpt lat="48.63626" lon="-2.44566">
        <ele>115</ele>
        <time>2016-02-21T15:03:47.1Z</time>
      </trkpt>
      <trkpt lat="48.63629" lon="-2.44566">
        <ele>115</ele>
        <time>2016-02-21T15:03:50.1Z</time>
      </trkpt>
      <trkpt lat="48.63631" lon="-2.44567">
        <ele>115</ele>
        <time>2016-02-21T15:03:52.1Z</time>
      </trkpt>
      <trkpt lat="48.63633" lon="-2.44567">
        <ele>115</ele>
        <time>2016-02-21T15:03:54.1Z</time>
      </trkpt>
      <trkpt lat="48.63635" lon="-2.44569">
        <ele>116</ele>
        <time>2016-02-21T15:03:57.1Z</time>
      </trkpt>
      <trkpt lat="48.63638" lon="-2.4457">
        <ele>116</ele>
        <time>2016-02-21T15:04:00.1Z</time>
      </trkpt>
      <trkpt lat="48.6364" lon="-2.44572">
        <ele>116</ele>
        <time>2016-02-21T15:04:03.1Z</time>
      </trkpt>
      <trkpt lat="48.63642" lon="-2.44573">
        <ele>117</ele>
        <time>2016-02-21T15:04:05.1Z</time>
      </trkpt>
      <trkpt lat="48.63644" lon="-2.44573">
        <ele>117</ele>
        <time>2016-02-21T15:04:08.1Z</time>
      </trkpt>
      <trkpt lat="48.63646" lon="-2.44574">
        <ele>117</ele>
        <time>2016-02-21T15:04:11.1Z</time>
      </trkpt>
      <trkpt lat="48.63649" lon="-2.44576">
        <ele>118</ele>
        <time>2016-02-21T15:04:14.1Z</time>
      </trkpt>
      <trkpt lat="48.63652" lon="-2.44577">
        <ele>118</ele>
        <time>2016-02-21T15:04:17.1Z</time>
      </trkpt>
      <trkpt lat="48.63655" lon="-2.44578">
        <ele>118</ele>
        <time>2016-02-21T15:04:20.1Z</time>
      </trkpt>
      <trkpt lat="48.63657" lon="-2.44579">
        <ele>118</ele>
        <time>2016-02-21T15:04:22.1Z</time>
      </trkpt>
      <trkpt lat="48.63659" lon="-2.44581">
        <ele>119</ele>
        <time>2016-02-21T15:04:25.1Z</time>
      </trkpt>
      <trkpt lat="48.63662" lon="-2.44582">
        <ele>119</ele>
        <time>2016-02-21T15:04:28.1Z</time>
      </trkpt>
      <trkpt lat="48.63663" lon="-2.44583">
        <ele>119</ele>
        <time>2016-02-21T15:04:30.1Z</time>
      </trkpt>
      <trkpt lat="48.63666" lon="-2.44584">
        <ele>119</ele>
        <time>2016-02-21T15:04:33.1Z</time>
      </trkpt>
      <trkpt lat="48.63669" lon="-2.44585">
        <ele>119</ele>
        <time>2016-02-21T15:04:36.1Z</time>
      </trkpt>
      <trkpt lat="48.63671" lon="-2.44585">
        <ele>119</ele>
        <time>2016-02-21T15:04:38.1Z</time>
      </trkpt>
      <trkpt lat="48.63674" lon="-2.44587">
        <ele>119</ele>
        <time>2016-02-21T15:04:41.1Z</time>
      </trkpt>
      <trkpt lat="48.63677" lon="-2.44588">
        <ele>120</ele>
        <time>2016-02-21T15:04:44.1Z</time>
      </trkpt>
      <trkpt lat="48.63679" lon="-2.44589">
        <ele>120</ele>
        <time>2016-02-21T15:04:46.1Z</time>
      </trkpt>
      <trkpt lat="48.63683" lon="-2.44591">
        <ele>121</ele>
        <time>2016-02-21T15:04:49.1Z</time>
      </trkpt>
      <trkpt lat="48.63686" lon="-2.44592">
        <ele>121</ele>
        <time>2016-02-21T15:04:52.1Z</time>
      </trkpt>
      <trkpt lat="48.63688" lon="-2.44593">
        <ele>121</ele>
        <time>2016-02-21T15:04:54.1Z</time>
      </trkpt>
      <trkpt lat="48.63691" lon="-2.44595">
        <ele>121</ele>
        <time>2016-02-21T15:04:57.1Z</time>
      </trkpt>
      <trkpt lat="48.63693" lon="-2.44595">
        <ele>121</ele>
        <time>2016-02-21T15:04:59.1Z</time>
      </trkpt>
      <trkpt lat="48.63696" lon="-2.44596">
        <ele>121</ele>
        <time>2016-02-21T15:05:01.1Z</time>
      </trkpt>
      <trkpt lat="48.63699" lon="-2.44597">
        <ele>122</ele>
        <time>2016-02-21T15:05:04.1Z</time>
      </trkpt>
      <trkpt lat="48.63702" lon="-2.44597">
        <ele>122</ele>
        <time>2016-02-21T15:05:07.1Z</time>
      </trkpt>
      <trkpt lat="48.63704" lon="-2.44598">
        <ele>122</ele>
        <time>2016-02-21T15:05:09.1Z</time>
      </trkpt>
      <trkpt lat="48.63706" lon="-2.44599">
        <ele>122</ele>
        <time>2016-02-21T15:05:12.1Z</time>
      </trkpt>
      <trkpt lat="48.63707" lon="-2.44599">
        <ele>123</ele>
        <time>2016-02-21T15:05:14.1Z</time>
      </trkpt>
      <trkpt lat="48.63709" lon="-2.446">
        <ele>123</ele>
        <time>2016-02-21T15:05:17.1Z</time>
      </trkpt>
      <trkpt lat="48.6371" lon="-2.446">
        <ele>123</ele>
        <time>2016-02-21T15:05:20.1Z</time>
      </trkpt>
      <trkpt lat="48.63711" lon="-2.44601">
        <ele>123</ele>
        <time>2016-02-21T15:05:22.1Z</time>
      </trkpt>
      <trkpt lat="48.63712" lon="-2.446">
        <ele>123</ele>
        <time>2016-02-21T15:05:25.1Z</time>
      </trkpt>
      <trkpt lat="48.63712" lon="-2.446">
        <ele>123</ele>
        <time>2016-02-21T15:05:28.1Z</time>
      </trkpt>
      <trkpt lat="48.63712" lon="-2.446">
        <ele>123</ele>
        <time>2016-02-21T15:05:31.1Z</time>
      </trkpt>
      <trkpt lat="48.63712" lon="-2.446">
        <ele>123</ele>
        <time>2016-02-21T15:05:33.1Z</time>
      </trkpt>
      <trkpt lat="48.63713" lon="-2.446">
        <ele>123</ele>
        <time>2016-02-21T15:05:36.1Z</time>
      </trkpt>
      <trkpt lat="48.63713" lon="-2.44598">
        <ele>123</ele>
        <time>2016-02-21T15:05:39.1Z</time>
      </trkpt>
      <trkpt lat="48.63713" lon="-2.44597">
        <ele>123</ele>
        <time>2016-02-21T15:05:42.1Z</time>
      </trkpt>
      <trkpt lat="48.63713" lon="-2.44596">
        <ele>123</ele>
        <time>2016-02-21T15:05:45.1Z</time>
      </trkpt>
      <trkpt lat="48.63713" lon="-2.44596">
        <ele>123</ele>
        <time>2016-02-21T15:05:47.1Z</time>
      </trkpt>
      <trkpt lat="48.63712" lon="-2.44595">
        <ele>123</ele>
        <time>2016-02-21T15:05:50.1Z</time>
      </trkpt>
      <trkpt lat="48.63712" lon="-2.44595">
        <ele>123</ele>
        <time>2016-02-21T15:05:52.1Z</time>
      </trkpt>
      <trkpt lat="48.63712" lon="-2.44594">
        <ele>123</ele>
        <time>2016-02-21T15:05:56.1Z</time>
      </trkpt>
      <trkpt lat="48.63713" lon="-2.44593">
        <ele>123</ele>
        <time>2016-02-21T15:05:58.1Z</time>
      </trkpt>
      <trkpt lat="48.63714" lon="-2.44592">
        <ele>124</ele>
        <time>2016-02-21T15:06:01.1Z</time>
      </trkpt>
      <trkpt lat="48.63716" lon="-2.44591">
        <ele>125</ele>
        <time>2016-02-21T15:06:04.1Z</time>
      </trkpt>
      <trkpt lat="48.63718" lon="-2.44591">
        <ele>125</ele>
        <time>2016-02-21T15:06:07.1Z</time>
      </trkpt>
      <trkpt lat="48.63721" lon="-2.4459">
        <ele>126</ele>
        <time>2016-02-21T15:06:10.1Z</time>
      </trkpt>
      <trkpt lat="48.63723" lon="-2.44591">
        <ele>126</ele>
        <time>2016-02-21T15:06:13.1Z</time>
      </trkpt>
      <trkpt lat="48.63725" lon="-2.44593">
        <ele>126</ele>
        <time>2016-02-21T15:06:15.1Z</time>
      </trkpt>
      <trkpt lat="48.63728" lon="-2.44594">
        <ele>126</ele>
        <time>2016-02-21T15:06:18.1Z</time>
      </trkpt>
      <trkpt lat="48.63731" lon="-2.44595">
        <ele>127</ele>
        <time>2016-02-21T15:06:21.1Z</time>
      </trkpt>
      <trkpt lat="48.63733" lon="-2.44596">
        <ele>127</ele>
        <time>2016-02-21T15:06:23.1Z</time>
      </trkpt>
      <trkpt lat="48.63735" lon="-2.44597">
        <ele>128</ele>
        <time>2016-02-21T15:06:25.1Z</time>
      </trkpt>
      <trkpt lat="48.63738" lon="-2.44598">
        <ele>128</ele>
        <time>2016-02-21T15:06:28.1Z</time>
      </trkpt>
      <trkpt lat="48.6374" lon="-2.44599">
        <ele>128</ele>
        <time>2016-02-21T15:06:30.1Z</time>
      </trkpt>
      <trkpt lat="48.63744" lon="-2.446">
        <ele>128</ele>
        <time>2016-02-21T15:06:33.1Z</time>
      </trkpt>
      <trkpt lat="48.63747" lon="-2.44602">
        <ele>128</ele>
        <time>2016-02-21T15:06:36.1Z</time>
      </trkpt>
      <trkpt lat="48.63749" lon="-2.44603">
        <ele>129</ele>
        <time>2016-02-21T15:06:38.1Z</time>
      </trkpt>
      <trkpt lat="48.63752" lon="-2.44604">
        <ele>129</ele>
        <time>2016-02-21T15:06:40.1Z</time>
      </trkpt>
      <trkpt lat="48.63755" lon="-2.44605">
        <ele>130</ele>
        <time>2016-02-21T15:06:43.1Z</time>
      </trkpt>
      <trkpt lat="48.63758" lon="-2.44605">
        <ele>130</ele>
        <time>2016-02-21T15:06:46.1Z</time>
      </trkpt>
      <trkpt lat="48.63761" lon="-2.44606">
        <ele>130</ele>
        <time>2016-02-21T15:06:49.1Z</time>
      </trkpt>
      <trkpt lat="48.63764" lon="-2.44605">
        <ele>131</ele>
        <time>2016-02-21T15:06:52.1Z</time>
      </trkpt>
      <trkpt lat="48.63765" lon="-2.44606">
        <ele>131</ele>
        <time>2016-02-21T15:06:54.1Z</time>
      </trkpt>
      <trkpt lat="48.63768" lon="-2.44605">
        <ele>131</ele>
        <time>2016-02-21T15:06:57.1Z</time>
      </trkpt>
      <trkpt lat="48.63769" lon="-2.44605">
        <ele>131</ele>
        <time>2016-02-21T15:07:00.1Z</time>
      </trkpt>
      <trkpt lat="48.6377" lon="-2.44605">
        <ele>131</ele>
        <time>2016-02-21T15:07:02.1Z</time>
      </trkpt>
      <trkpt lat="48.63772" lon="-2.44605">
        <ele>131</ele>
        <time>2016-02-21T15:07:05.1Z</time>
      </trkpt>
      <trkpt lat="48.63774" lon="-2.44605">
        <ele>131</ele>
        <time>2016-02-21T15:07:08.1Z</time>
      </trkpt>
      <trkpt lat="48.63778" lon="-2.44605">
        <ele>130</ele>
        <time>2016-02-21T15:07:11.1Z</time>
      </trkpt>
      <trkpt lat="48.6378" lon="-2.44606">
        <ele>131</ele>
        <time>2016-02-21T15:07:13.1Z</time>
      </trkpt>
      <trkpt lat="48.63783" lon="-2.44607">
        <ele>131</ele>
        <time>2016-02-21T15:07:16.1Z</time>
      </trkpt>
      <trkpt lat="48.63785" lon="-2.44609">
        <ele>131</ele>
        <time>2016-02-21T15:07:19.1Z</time>
      </trkpt>
      <trkpt lat="48.63788" lon="-2.44611">
        <ele>131</ele>
        <time>2016-02-21T15:07:22.1Z</time>
      </trkpt>
      <trkpt lat="48.63791" lon="-2.44613">
        <ele>132</ele>
        <time>2016-02-21T15:07:25.1Z</time>
      </trkpt>
      <trkpt lat="48.63793" lon="-2.44613">
        <ele>132</ele>
        <time>2016-02-21T15:07:27.1Z</time>
      </trkpt>
      <trkpt lat="48.63796" lon="-2.44614">
        <ele>132</ele>
        <time>2016-02-21T15:07:30.1Z</time>
      </trkpt>
      <trkpt lat="48.63798" lon="-2.44615">
        <ele>133</ele>
        <time>2016-02-21T15:07:32.1Z</time>
      </trkpt>
      <trkpt lat="48.638" lon="-2.44615">
        <ele>133</ele>
        <time>2016-02-21T15:07:35.1Z</time>
      </trkpt>
      <trkpt lat="48.63804" lon="-2.44616">
        <ele>133</ele>
        <time>2016-02-21T15:07:38.1Z</time>
      </trkpt>
      <trkpt lat="48.63808" lon="-2.44616">
        <ele>133</ele>
        <time>2016-02-21T15:07:41.1Z</time>
      </trkpt>
      <trkpt lat="48.63809" lon="-2.44615">
        <ele>133</ele>
        <time>2016-02-21T15:07:43.1Z</time>
      </trkpt>
      <trkpt lat="48.63812" lon="-2.44615">
        <ele>133</ele>
        <time>2016-02-21T15:07:45.1Z</time>
      </trkpt>
      <trkpt lat="48.63815" lon="-2.44613">
        <ele>133</ele>
        <time>2016-02-21T15:07:48.1Z</time>
      </trkpt>
      <trkpt lat="48.63816" lon="-2.44611">
        <ele>133</ele>
        <time>2016-02-21T15:07:50.1Z</time>
      </trkpt>
      <trkpt lat="48.63817" lon="-2.44611">
        <ele>133</ele>
        <time>2016-02-21T15:07:53.1Z</time>
      </trkpt>
      <trkpt lat="48.63817" lon="-2.4461">
        <ele>133</ele>
        <time>2016-02-21T15:07:56.1Z</time>
      </trkpt>
      <trkpt lat="48.63817" lon="-2.44609">
        <ele>134</ele>
        <time>2016-02-21T15:07:59.1Z</time>
      </trkpt>
      <trkpt lat="48.63817" lon="-2.44608">
        <ele>134</ele>
        <time>2016-02-21T15:08:01.1Z</time>
      </trkpt>
      <trkpt lat="48.63818" lon="-2.44605">
        <ele>134</ele>
        <time>2016-02-21T15:08:04.1Z</time>
      </trkpt>
      <trkpt lat="48.63818" lon="-2.44603">
        <ele>134</ele>
        <time>2016-02-21T15:08:06.1Z</time>
      </trkpt>
      <trkpt lat="48.63817" lon="-2.44602">
        <ele>133</ele>
        <time>2016-02-21T15:08:09.1Z</time>
      </trkpt>
      <trkpt lat="48.63817" lon="-2.44602">
        <ele>133</ele>
        <time>2016-02-21T15:08:11.1Z</time>
      </trkpt>
      <trkpt lat="48.63816" lon="-2.44602">
        <ele>133</ele>
        <time>2016-02-21T15:08:14.1Z</time>
      </trkpt>
      <trkpt lat="48.63814" lon="-2.44601">
        <ele>133</ele>
        <time>2016-02-21T15:08:17.1Z</time>
      </trkpt>
      <trkpt lat="48.63812" lon="-2.44599">
        <ele>133</ele>
        <time>2016-02-21T15:08:20.1Z</time>
      </trkpt>
      <trkpt lat="48.63812" lon="-2.44599">
        <ele>133</ele>
        <time>2016-02-21T15:08:22.1Z</time>
      </trkpt>
      <trkpt lat="48.63812" lon="-2.44597">
        <ele>134</ele>
        <time>2016-02-21T15:08:25.1Z</time>
      </trkpt>
      <trkpt lat="48.63812" lon="-2.44594">
        <ele>133</ele>
        <time>2016-02-21T15:08:27.1Z</time>
      </trkpt>
      <trkpt lat="48.63813" lon="-2.44592">
        <ele>133</ele>
        <time>2016-02-21T15:08:29.1Z</time>
      </trkpt>
      <trkpt lat="48.63813" lon="-2.44587">
        <ele>133</ele>
        <time>2016-02-21T15:08:32.1Z</time>
      </trkpt>
      <trkpt lat="48.63814" lon="-2.44584">
        <ele>133</ele>
        <time>2016-02-21T15:08:35.1Z</time>
      </trkpt>
      <trkpt lat="48.63815" lon="-2.44582">
        <ele>134</ele>
        <time>2016-02-21T15:08:37.1Z</time>
      </trkpt>
      <trkpt lat="48.63815" lon="-2.44578">
        <ele>134</ele>
        <time>2016-02-21T15:08:40.1Z</time>
      </trkpt>
      <trkpt lat="48.63815" lon="-2.44575">
        <ele>133</ele>
        <time>2016-02-21T15:08:42.1Z</time>
      </trkpt>
      <trkpt lat="48.63815" lon="-2.44571">
        <ele>133</ele>
        <time>2016-02-21T15:08:45.1Z</time>
      </trkpt>
      <trkpt lat="48.63816" lon="-2.44569">
        <ele>134</ele>
        <time>2016-02-21T15:08:47.1Z</time>
      </trkpt>
      <trkpt lat="48.63817" lon="-2.44566">
        <ele>133</ele>
        <time>2016-02-21T15:08:49.1Z</time>
      </trkpt>
      <trkpt lat="48.63818" lon="-2.44562">
        <ele>133</ele>
        <time>2016-02-21T15:08:52.1Z</time>
      </trkpt>
      <trkpt lat="48.63819" lon="-2.44557">
        <ele>133</ele>
        <time>2016-02-21T15:08:55.1Z</time>
      </trkpt>
      <trkpt lat="48.6382" lon="-2.44553">
        <ele>133</ele>
        <time>2016-02-21T15:08:57.1Z</time>
      </trkpt>
      <trkpt lat="48.6382" lon="-2.4455">
        <ele>133</ele>
        <time>2016-02-21T15:08:59.1Z</time>
      </trkpt>
      <trkpt lat="48.63821" lon="-2.44546">
        <ele>133</ele>
        <time>2016-02-21T15:09:02.1Z</time>
      </trkpt>
      <trkpt lat="48.63821" lon="-2.44542">
        <ele>133</ele>
        <time>2016-02-21T15:09:04.1Z</time>
      </trkpt>
      <trkpt lat="48.63823" lon="-2.44538">
        <ele>133</ele>
        <time>2016-02-21T15:09:07.1Z</time>
      </trkpt>
      <trkpt lat="48.63823" lon="-2.44533">
        <ele>133</ele>
        <time>2016-02-21T15:09:10.1Z</time>
      </trkpt>
      <trkpt lat="48.63823" lon="-2.4453">
        <ele>133</ele>
        <time>2016-02-21T15:09:13.1Z</time>
      </trkpt>
      <trkpt lat="48.63825" lon="-2.44526">
        <ele>133</ele>
        <time>2016-02-21T15:09:16.1Z</time>
      </trkpt>
      <trkpt lat="48.63827" lon="-2.44523">
        <ele>133</ele>
        <time>2016-02-21T15:09:19.1Z</time>
      </trkpt>
      <trkpt lat="48.63829" lon="-2.44523">
        <ele>133</ele>
        <time>2016-02-21T15:09:21.1Z</time>
      </trkpt>
      <trkpt lat="48.63831" lon="-2.44523">
        <ele>133</ele>
        <time>2016-02-21T15:09:23.1Z</time>
      </trkpt>
      <trkpt lat="48.63835" lon="-2.44521">
        <ele>132</ele>
        <time>2016-02-21T15:09:26.1Z</time>
      </trkpt>
      <trkpt lat="48.63838" lon="-2.44521">
        <ele>132</ele>
        <time>2016-02-21T15:09:29.1Z</time>
      </trkpt>
      <trkpt lat="48.63841" lon="-2.44521">
        <ele>132</ele>
        <time>2016-02-21T15:09:31.1Z</time>
      </trkpt>
      <trkpt lat="48.63844" lon="-2.44521">
        <ele>131</ele>
        <time>2016-02-21T15:09:34.1Z</time>
      </trkpt>
      <trkpt lat="48.63846" lon="-2.44521">
        <ele>131</ele>
        <time>2016-02-21T15:09:36.1Z</time>
      </trkpt>
      <trkpt lat="48.63849" lon="-2.44521">
        <ele>131</ele>
        <time>2016-02-21T15:09:38.1Z</time>
      </trkpt>
      <trkpt lat="48.63852" lon="-2.44522">
        <ele>131</ele>
        <time>2016-02-21T15:09:41.1Z</time>
      </trkpt>
      <trkpt lat="48.63854" lon="-2.44522">
        <ele>131</ele>
        <time>2016-02-21T15:09:43.1Z</time>
      </trkpt>
      <trkpt lat="48.63856" lon="-2.44522">
        <ele>131</ele>
        <time>2016-02-21T15:09:46.1Z</time>
      </trkpt>
      <trkpt lat="48.63858" lon="-2.44522">
        <ele>130</ele>
        <time>2016-02-21T15:09:49.1Z</time>
      </trkpt>
      <trkpt lat="48.63861" lon="-2.44523">
        <ele>130</ele>
        <time>2016-02-21T15:09:52.1Z</time>
      </trkpt>
      <trkpt lat="48.63863" lon="-2.44524">
        <ele>130</ele>
        <time>2016-02-21T15:09:55.1Z</time>
      </trkpt>
      <trkpt lat="48.63865" lon="-2.44524">
        <ele>130</ele>
        <time>2016-02-21T15:09:57.1Z</time>
      </trkpt>
      <trkpt lat="48.63868" lon="-2.44525">
        <ele>130</ele>
        <time>2016-02-21T15:10:00.1Z</time>
      </trkpt>
      <trkpt lat="48.63871" lon="-2.44526">
        <ele>130</ele>
        <time>2016-02-21T15:10:03.1Z</time>
      </trkpt>
      <trkpt lat="48.63874" lon="-2.44526">
        <ele>129</ele>
        <time>2016-02-21T15:10:06.1Z</time>
      </trkpt>
      <trkpt lat="48.63876" lon="-2.44526">
        <ele>129</ele>
        <time>2016-02-21T15:10:08.1Z</time>
      </trkpt>
      <trkpt lat="48.63879" lon="-2.44526">
        <ele>129</ele>
        <time>2016-02-21T15:10:10.1Z</time>
      </trkpt>
      <trkpt lat="48.63882" lon="-2.44527">
        <ele>129</ele>
        <time>2016-02-21T15:10:12.1Z</time>
      </trkpt>
      <trkpt lat="48.63885" lon="-2.44526">
        <ele>129</ele>
        <time>2016-02-21T15:10:15.1Z</time>
      </trkpt>
      <trkpt lat="48.63887" lon="-2.44526">
        <ele>128</ele>
        <time>2016-02-21T15:10:17.1Z</time>
      </trkpt>
      <trkpt lat="48.63891" lon="-2.44526">
        <ele>128</ele>
        <time>2016-02-21T15:10:20.1Z</time>
      </trkpt>
      <trkpt lat="48.63893" lon="-2.44525">
        <ele>128</ele>
        <time>2016-02-21T15:10:22.1Z</time>
      </trkpt>
      <trkpt lat="48.63895" lon="-2.44526">
        <ele>128</ele>
        <time>2016-02-21T15:10:25.1Z</time>
      </trkpt>
      <trkpt lat="48.63897" lon="-2.44526">
        <ele>128</ele>
        <time>2016-02-21T15:10:27.1Z</time>
      </trkpt>
      <trkpt lat="48.639" lon="-2.44526">
        <ele>128</ele>
        <time>2016-02-21T15:10:30.1Z</time>
      </trkpt>
      <trkpt lat="48.63903" lon="-2.44525">
        <ele>128</ele>
        <time>2016-02-21T15:10:32.1Z</time>
      </trkpt>
      <trkpt lat="48.63906" lon="-2.44526">
        <ele>128</ele>
        <time>2016-02-21T15:10:35.1Z</time>
      </trkpt>
      <trkpt lat="48.63907" lon="-2.44526">
        <ele>128</ele>
        <time>2016-02-21T15:10:37.1Z</time>
      </trkpt>
      <trkpt lat="48.6391" lon="-2.44526">
        <ele>128</ele>
        <time>2016-02-21T15:10:40.1Z</time>
      </trkpt>
      <trkpt lat="48.63913" lon="-2.44527">
        <ele>128</ele>
        <time>2016-02-21T15:10:43.1Z</time>
      </trkpt>
      <trkpt lat="48.63916" lon="-2.44527">
        <ele>128</ele>
        <time>2016-02-21T15:10:46.1Z</time>
      </trkpt>
      <trkpt lat="48.63919" lon="-2.44528">
        <ele>127</ele>
        <time>2016-02-21T15:10:49.1Z</time>
      </trkpt>
      <trkpt lat="48.63921" lon="-2.4453">
        <ele>127</ele>
        <time>2016-02-21T15:10:52.1Z</time>
      </trkpt>
      <trkpt lat="48.63923" lon="-2.4453">
        <ele>127</ele>
        <time>2016-02-21T15:10:54.1Z</time>
      </trkpt>
      <trkpt lat="48.63924" lon="-2.44531">
        <ele>127</ele>
        <time>2016-02-21T15:10:56.1Z</time>
      </trkpt>
      <trkpt lat="48.63927" lon="-2.44531">
        <ele>127</ele>
        <time>2016-02-21T15:10:59.1Z</time>
      </trkpt>
      <trkpt lat="48.63929" lon="-2.44531">
        <ele>127</ele>
        <time>2016-02-21T15:11:01.1Z</time>
      </trkpt>
      <trkpt lat="48.63932" lon="-2.44531">
        <ele>127</ele>
        <time>2016-02-21T15:11:04.1Z</time>
      </trkpt>
      <trkpt lat="48.63935" lon="-2.4453">
        <ele>127</ele>
        <time>2016-02-21T15:11:06.1Z</time>
      </trkpt>
      <trkpt lat="48.6394" lon="-2.4453">
        <ele>127</ele>
        <time>2016-02-21T15:11:09.1Z</time>
      </trkpt>
      <trkpt lat="48.63942" lon="-2.44529">
        <ele>127</ele>
        <time>2016-02-21T15:11:11.1Z</time>
      </trkpt>
      <trkpt lat="48.63947" lon="-2.44529">
        <ele>126</ele>
        <time>2016-02-21T15:11:14.1Z</time>
      </trkpt>
      <trkpt lat="48.63951" lon="-2.44529">
        <ele>126</ele>
        <time>2016-02-21T15:11:17.1Z</time>
      </trkpt>
      <trkpt lat="48.63955" lon="-2.4453">
        <ele>126</ele>
        <time>2016-02-21T15:11:19.1Z</time>
      </trkpt>
      <trkpt lat="48.63958" lon="-2.4453">
        <ele>127</ele>
        <time>2016-02-21T15:11:22.1Z</time>
      </trkpt>
      <trkpt lat="48.6396" lon="-2.4453">
        <ele>126</ele>
        <time>2016-02-21T15:11:25.1Z</time>
      </trkpt>
      <trkpt lat="48.63962" lon="-2.44531">
        <ele>126</ele>
        <time>2016-02-21T15:11:28.1Z</time>
      </trkpt>
      <trkpt lat="48.63964" lon="-2.4453">
        <ele>126</ele>
        <time>2016-02-21T15:11:30.1Z</time>
      </trkpt>
      <trkpt lat="48.63967" lon="-2.4453">
        <ele>126</ele>
        <time>2016-02-21T15:11:33.1Z</time>
      </trkpt>
      <trkpt lat="48.6397" lon="-2.4453">
        <ele>126</ele>
        <time>2016-02-21T15:11:35.1Z</time>
      </trkpt>
      <trkpt lat="48.63974" lon="-2.4453">
        <ele>125</ele>
        <time>2016-02-21T15:11:38.1Z</time>
      </trkpt>
      <trkpt lat="48.63979" lon="-2.4453">
        <ele>125</ele>
        <time>2016-02-21T15:11:41.1Z</time>
      </trkpt>
      <trkpt lat="48.63982" lon="-2.44529">
        <ele>125</ele>
        <time>2016-02-21T15:11:43.1Z</time>
      </trkpt>
      <trkpt lat="48.63984" lon="-2.44529">
        <ele>125</ele>
        <time>2016-02-21T15:11:45.1Z</time>
      </trkpt>
      <trkpt lat="48.63987" lon="-2.44529">
        <ele>125</ele>
        <time>2016-02-21T15:11:48.1Z</time>
      </trkpt>
      <trkpt lat="48.63989" lon="-2.44529">
        <ele>125</ele>
        <time>2016-02-21T15:11:51.1Z</time>
      </trkpt>
      <trkpt lat="48.63991" lon="-2.44529">
        <ele>125</ele>
        <time>2016-02-21T15:11:53.1Z</time>
      </trkpt>
      <trkpt lat="48.63993" lon="-2.44529">
        <ele>125</ele>
        <time>2016-02-21T15:11:55.1Z</time>
      </trkpt>
      <trkpt lat="48.63996" lon="-2.44529">
        <ele>124</ele>
        <time>2016-02-21T15:11:58.1Z</time>
      </trkpt>
      <trkpt lat="48.64" lon="-2.44529">
        <ele>124</ele>
        <time>2016-02-21T15:12:01.1Z</time>
      </trkpt>
      <trkpt lat="48.64002" lon="-2.44529">
        <ele>124</ele>
        <time>2016-02-21T15:12:03.1Z</time>
      </trkpt>
      <trkpt lat="48.64004" lon="-2.44529">
        <ele>124</ele>
        <time>2016-02-21T15:12:05.1Z</time>
      </trkpt>
      <trkpt lat="48.64008" lon="-2.4453">
        <ele>124</ele>
        <time>2016-02-21T15:12:08.1Z</time>
      </trkpt>
      <trkpt lat="48.64011" lon="-2.4453">
        <ele>124</ele>
        <time>2016-02-21T15:12:10.1Z</time>
      </trkpt>
      <trkpt lat="48.64014" lon="-2.4453">
        <ele>124</ele>
        <time>2016-02-21T15:12:13.1Z</time>
      </trkpt>
      <trkpt lat="48.64018" lon="-2.44531">
        <ele>124</ele>
        <time>2016-02-21T15:12:16.1Z</time>
      </trkpt>
      <trkpt lat="48.64022" lon="-2.44531">
        <ele>123</ele>
        <time>2016-02-21T15:12:19.1Z</time>
      </trkpt>
      <trkpt lat="48.64027" lon="-2.44532">
        <ele>123</ele>
        <time>2016-02-21T15:12:22.1Z</time>
      </trkpt>
      <trkpt lat="48.64031" lon="-2.44532">
        <ele>123</ele>
        <time>2016-02-21T15:12:25.1Z</time>
      </trkpt>
      <trkpt lat="48.64034" lon="-2.44533">
        <ele>123</ele>
        <time>2016-02-21T15:12:28.1Z</time>
      </trkpt>
      <trkpt lat="48.64037" lon="-2.44533">
        <ele>123</ele>
        <time>2016-02-21T15:12:30.1Z</time>
      </trkpt>
      <trkpt lat="48.6404" lon="-2.44533">
        <ele>122</ele>
        <time>2016-02-21T15:12:33.1Z</time>
      </trkpt>
      <trkpt lat="48.64043" lon="-2.44532">
        <ele>122</ele>
        <time>2016-02-21T15:12:36.1Z</time>
      </trkpt>
      <trkpt lat="48.64046" lon="-2.44532">
        <ele>122</ele>
        <time>2016-02-21T15:12:39.1Z</time>
      </trkpt>
      <trkpt lat="48.64048" lon="-2.44532">
        <ele>122</ele>
        <time>2016-02-21T15:12:41.1Z</time>
      </trkpt>
      <trkpt lat="48.64052" lon="-2.44533">
        <ele>122</ele>
        <time>2016-02-21T15:12:44.1Z</time>
      </trkpt>
      <trkpt lat="48.64054" lon="-2.44533">
        <ele>122</ele>
        <time>2016-02-21T15:12:46.1Z</time>
      </trkpt>
      <trkpt lat="48.64057" lon="-2.44533">
        <ele>122</ele>
        <time>2016-02-21T15:12:48.1Z</time>
      </trkpt>
      <trkpt lat="48.6406" lon="-2.44535">
        <ele>122</ele>
        <time>2016-02-21T15:12:51.1Z</time>
      </trkpt>
      <trkpt lat="48.64063" lon="-2.44535">
        <ele>121</ele>
        <time>2016-02-21T15:12:54.1Z</time>
      </trkpt>
      <trkpt lat="48.64066" lon="-2.44535">
        <ele>121</ele>
        <time>2016-02-21T15:12:56.1Z</time>
      </trkpt>
      <trkpt lat="48.64069" lon="-2.44536">
        <ele>121</ele>
        <time>2016-02-21T15:12:59.1Z</time>
      </trkpt>
      <trkpt lat="48.64072" lon="-2.44536">
        <ele>121</ele>
        <time>2016-02-21T15:13:01.1Z</time>
      </trkpt>
      <trkpt lat="48.64076" lon="-2.44536">
        <ele>121</ele>
        <time>2016-02-21T15:13:04.1Z</time>
      </trkpt>
      <trkpt lat="48.6408" lon="-2.44537">
        <ele>120</ele>
        <time>2016-02-21T15:13:07.1Z</time>
      </trkpt>
      <trkpt lat="48.64083" lon="-2.44537">
        <ele>120</ele>
        <time>2016-02-21T15:13:09.1Z</time>
      </trkpt>
      <trkpt lat="48.64087" lon="-2.44537">
        <ele>121</ele>
        <time>2016-02-21T15:13:12.1Z</time>
      </trkpt>
      <trkpt lat="48.6409" lon="-2.44537">
        <ele>121</ele>
        <time>2016-02-21T15:13:15.1Z</time>
      </trkpt>
      <trkpt lat="48.64092" lon="-2.44537">
        <ele>121</ele>
        <time>2016-02-21T15:13:17.1Z</time>
      </trkpt>
      <trkpt lat="48.64096" lon="-2.44538">
        <ele>120</ele>
        <time>2016-02-21T15:13:20.1Z</time>
      </trkpt>
      <trkpt lat="48.64098" lon="-2.44538">
        <ele>120</ele>
        <time>2016-02-21T15:13:23.1Z</time>
      </trkpt>
      <trkpt lat="48.64101" lon="-2.44539">
        <ele>120</ele>
        <time>2016-02-21T15:13:26.1Z</time>
      </trkpt>
      <trkpt lat="48.64104" lon="-2.44541">
        <ele>120</ele>
        <time>2016-02-21T15:13:29.1Z</time>
      </trkpt>
      <trkpt lat="48.64108" lon="-2.44541">
        <ele>120</ele>
        <time>2016-02-21T15:13:32.1Z</time>
      </trkpt>
      <trkpt lat="48.64111" lon="-2.44542">
        <ele>120</ele>
        <time>2016-02-21T15:13:35.1Z</time>
      </trkpt>
      <trkpt lat="48.64113" lon="-2.44543">
        <ele>119</ele>
        <time>2016-02-21T15:13:37.1Z</time>
      </trkpt>
      <trkpt lat="48.64115" lon="-2.44543">
        <ele>119</ele>
        <time>2016-02-21T15:13:39.1Z</time>
      </trkpt>
      <trkpt lat="48.64119" lon="-2.44542">
        <ele>119</ele>
        <time>2016-02-21T15:13:42.1Z</time>
      </trkpt>
      <trkpt lat="48.64123" lon="-2.44542">
        <ele>119</ele>
        <time>2016-02-21T15:13:45.1Z</time>
      </trkpt>
      <trkpt lat="48.64126" lon="-2.44542">
        <ele>119</ele>
        <time>2016-02-21T15:13:47.1Z</time>
      </trkpt>
      <trkpt lat="48.6413" lon="-2.44542">
        <ele>118</ele>
        <time>2016-02-21T15:13:50.1Z</time>
      </trkpt>
      <trkpt lat="48.64133" lon="-2.44542">
        <ele>119</ele>
        <time>2016-02-21T15:13:52.1Z</time>
      </trkpt>
      <trkpt lat="48.64137" lon="-2.44542">
        <ele>119</ele>
        <time>2016-02-21T15:13:55.1Z</time>
      </trkpt>
      <trkpt lat="48.64139" lon="-2.44542">
        <ele>119</ele>
        <time>2016-02-21T15:13:57.1Z</time>
      </trkpt>
      <trkpt lat="48.64143" lon="-2.44542">
        <ele>118</ele>
        <time>2016-02-21T15:14:00.1Z</time>
      </trkpt>
      <trkpt lat="48.64146" lon="-2.44542">
        <ele>118</ele>
        <time>2016-02-21T15:14:03.1Z</time>
      </trkpt>
      <trkpt lat="48.64148" lon="-2.44543">
        <ele>117</ele>
        <time>2016-02-21T15:14:05.1Z</time>
      </trkpt>
      <trkpt lat="48.64151" lon="-2.44543">
        <ele>118</ele>
        <time>2016-02-21T15:14:08.1Z</time>
      </trkpt>
      <trkpt lat="48.64153" lon="-2.44543">
        <ele>117</ele>
        <time>2016-02-21T15:14:10.1Z</time>
      </trkpt>
      <trkpt lat="48.64157" lon="-2.44544">
        <ele>118</ele>
        <time>2016-02-21T15:14:13.1Z</time>
      </trkpt>
      <trkpt lat="48.64161" lon="-2.44545">
        <ele>118</ele>
        <time>2016-02-21T15:14:16.1Z</time>
      </trkpt>
      <trkpt lat="48.64163" lon="-2.44545">
        <ele>117</ele>
        <time>2016-02-21T15:14:18.1Z</time>
      </trkpt>
      <trkpt lat="48.64165" lon="-2.44544">
        <ele>117</ele>
        <time>2016-02-21T15:14:20.1Z</time>
      </trkpt>
      <trkpt lat="48.64169" lon="-2.44544">
        <ele>117</ele>
        <time>2016-02-21T15:14:23.1Z</time>
      </trkpt>
      <trkpt lat="48.64173" lon="-2.44545">
        <ele>117</ele>
        <time>2016-02-21T15:14:26.1Z</time>
      </trkpt>
      <trkpt lat="48.64177" lon="-2.44544">
        <ele>117</ele>
        <time>2016-02-21T15:14:29.1Z</time>
      </trkpt>
      <trkpt lat="48.6418" lon="-2.44545">
        <ele>117</ele>
        <time>2016-02-21T15:14:31.1Z</time>
      </trkpt>
      <trkpt lat="48.64184" lon="-2.44544">
        <ele>117</ele>
        <time>2016-02-21T15:14:34.1Z</time>
      </trkpt>
      <trkpt lat="48.64186" lon="-2.44544">
        <ele>116</ele>
        <time>2016-02-21T15:14:36.1Z</time>
      </trkpt>
      <trkpt lat="48.64189" lon="-2.44545">
        <ele>116</ele>
        <time>2016-02-21T15:14:39.1Z</time>
      </trkpt>
      <trkpt lat="48.64191" lon="-2.44545">
        <ele>116</ele>
        <time>2016-02-21T15:14:41.1Z</time>
      </trkpt>
      <trkpt lat="48.64195" lon="-2.44545">
        <ele>116</ele>
        <time>2016-02-21T15:14:44.1Z</time>
      </trkpt>
      <trkpt lat="48.64198" lon="-2.44546">
        <ele>116</ele>
        <time>2016-02-21T15:14:46.1Z</time>
      </trkpt>
      <trkpt lat="48.642" lon="-2.44546">
        <ele>116</ele>
        <time>2016-02-21T15:14:48.1Z</time>
      </trkpt>
      <trkpt lat="48.64202" lon="-2.44546">
        <ele>116</ele>
        <time>2016-02-21T15:14:50.1Z</time>
      </trkpt>
      <trkpt lat="48.64206" lon="-2.44546">
        <ele>116</ele>
        <time>2016-02-21T15:14:53.1Z</time>
      </trkpt>
      <trkpt lat="48.64209" lon="-2.44546">
        <ele>116</ele>
        <time>2016-02-21T15:14:56.1Z</time>
      </trkpt>
      <trkpt lat="48.64214" lon="-2.44546">
        <ele>116</ele>
        <time>2016-02-21T15:14:59.1Z</time>
      </trkpt>
      <trkpt lat="48.64216" lon="-2.44546">
        <ele>116</ele>
        <time>2016-02-21T15:15:01.1Z</time>
      </trkpt>
      <trkpt lat="48.64219" lon="-2.44546">
        <ele>116</ele>
        <time>2016-02-21T15:15:04.1Z</time>
      </trkpt>
      <trkpt lat="48.64222" lon="-2.44545">
        <ele>116</ele>
        <time>2016-02-21T15:15:07.1Z</time>
      </trkpt>
      <trkpt lat="48.64225" lon="-2.44545">
        <ele>115</ele>
        <time>2016-02-21T15:15:10.1Z</time>
      </trkpt>
      <trkpt lat="48.64228" lon="-2.44546">
        <ele>115</ele>
        <time>2016-02-21T15:15:13.1Z</time>
      </trkpt>
      <trkpt lat="48.6423" lon="-2.44545">
        <ele>114</ele>
        <time>2016-02-21T15:15:16.1Z</time>
      </trkpt>
      <trkpt lat="48.64232" lon="-2.44545">
        <ele>114</ele>
        <time>2016-02-21T15:15:19.1Z</time>
      </trkpt>
      <trkpt lat="48.64233" lon="-2.44545">
        <ele>114</ele>
        <time>2016-02-21T15:15:22.1Z</time>
      </trkpt>
      <trkpt lat="48.64235" lon="-2.44545">
        <ele>115</ele>
        <time>2016-02-21T15:15:25.1Z</time>
      </trkpt>
      <trkpt lat="48.64236" lon="-2.44545">
        <ele>115</ele>
        <time>2016-02-21T15:15:27.1Z</time>
      </trkpt>
      <trkpt lat="48.64237" lon="-2.44544">
        <ele>115</ele>
        <time>2016-02-21T15:15:29.1Z</time>
      </trkpt>
      <trkpt lat="48.64238" lon="-2.44544">
        <ele>115</ele>
        <time>2016-02-21T15:15:32.1Z</time>
      </trkpt>
      <trkpt lat="48.6424" lon="-2.44542">
        <ele>115</ele>
        <time>2016-02-21T15:15:35.1Z</time>
      </trkpt>
      <trkpt lat="48.64241" lon="-2.4454">
        <ele>115</ele>
        <time>2016-02-21T15:15:38.1Z</time>
      </trkpt>
      <trkpt lat="48.64241" lon="-2.4454">
        <ele>115</ele>
        <time>2016-02-21T15:15:40.1Z</time>
      </trkpt>
      <trkpt lat="48.64242" lon="-2.4454">
        <ele>115</ele>
        <time>2016-02-21T15:15:42.1Z</time>
      </trkpt>
      <trkpt lat="48.64242" lon="-2.4454">
        <ele>115</ele>
        <time>2016-02-21T15:15:44.1Z</time>
      </trkpt>
      <trkpt lat="48.64243" lon="-2.44541">
        <ele>115</ele>
        <time>2016-02-21T15:15:47.1Z</time>
      </trkpt>
      <trkpt lat="48.64244" lon="-2.44544">
        <ele>115</ele>
        <time>2016-02-21T15:15:50.1Z</time>
      </trkpt>
      <trkpt lat="48.64245" lon="-2.44546">
        <ele>115</ele>
        <time>2016-02-21T15:15:52.1Z</time>
      </trkpt>
      <trkpt lat="48.64245" lon="-2.44546">
        <ele>115</ele>
        <time>2016-02-21T15:15:55.1Z</time>
      </trkpt>
      <trkpt lat="48.64246" lon="-2.44546">
        <ele>114</ele>
        <time>2016-02-21T15:15:58.1Z</time>
      </trkpt>
      <trkpt lat="48.64248" lon="-2.44546">
        <ele>114</ele>
        <time>2016-02-21T15:16:01.1Z</time>
      </trkpt>
      <trkpt lat="48.6425" lon="-2.44546">
        <ele>114</ele>
        <time>2016-02-21T15:16:04.1Z</time>
      </trkpt>
      <trkpt lat="48.64252" lon="-2.44546">
        <ele>114</ele>
        <time>2016-02-21T15:16:07.1Z</time>
      </trkpt>
      <trkpt lat="48.64254" lon="-2.44546">
        <ele>114</ele>
        <time>2016-02-21T15:16:10.1Z</time>
      </trkpt>
      <trkpt lat="48.64256" lon="-2.44545">
        <ele>114</ele>
        <time>2016-02-21T15:16:12.1Z</time>
      </trkpt>
      <trkpt lat="48.64259" lon="-2.44545">
        <ele>114</ele>
        <time>2016-02-21T15:16:15.1Z</time>
      </trkpt>
      <trkpt lat="48.64261" lon="-2.44545">
        <ele>114</ele>
        <time>2016-02-21T15:16:17.1Z</time>
      </trkpt>
      <trkpt lat="48.64264" lon="-2.44545">
        <ele>114</ele>
        <time>2016-02-21T15:16:20.1Z</time>
      </trkpt>
      <trkpt lat="48.64266" lon="-2.44544">
        <ele>114</ele>
        <time>2016-02-21T15:16:22.1Z</time>
      </trkpt>
      <trkpt lat="48.64269" lon="-2.44544">
        <ele>113</ele>
        <time>2016-02-21T15:16:25.1Z</time>
      </trkpt>
      <trkpt lat="48.64271" lon="-2.44543">
        <ele>113</ele>
        <time>2016-02-21T15:16:27.1Z</time>
      </trkpt>
      <trkpt lat="48.64274" lon="-2.44543">
        <ele>113</ele>
        <time>2016-02-21T15:16:30.1Z</time>
      </trkpt>
      <trkpt lat="48.64276" lon="-2.44543">
        <ele>113</ele>
        <time>2016-02-21T15:16:32.1Z</time>
      </trkpt>
      <trkpt lat="48.64278" lon="-2.44542">
        <ele>113</ele>
        <time>2016-02-21T15:16:35.1Z</time>
      </trkpt>
      <trkpt lat="48.6428" lon="-2.44542">
        <ele>113</ele>
        <time>2016-02-21T15:16:37.1Z</time>
      </trkpt>
      <trkpt lat="48.64282" lon="-2.44541">
        <ele>113</ele>
        <time>2016-02-21T15:16:40.1Z</time>
      </trkpt>
      <trkpt lat="48.64284" lon="-2.44541">
        <ele>113</ele>
        <time>2016-02-21T15:16:42.1Z</time>
      </trkpt>
      <trkpt lat="48.64285" lon="-2.4454">
        <ele>113</ele>
        <time>2016-02-21T15:16:44.1Z</time>
      </trkpt>
      <trkpt lat="48.64288" lon="-2.44539">
        <ele>113</ele>
        <time>2016-02-21T15:16:47.1Z</time>
      </trkpt>
      <trkpt lat="48.6429" lon="-2.44539">
        <ele>113</ele>
        <time>2016-02-21T15:16:49.1Z</time>
      </trkpt>
      <trkpt lat="48.64294" lon="-2.44539">
        <ele>113</ele>
        <time>2016-02-21T15:16:52.1Z</time>
      </trkpt>
      <trkpt lat="48.64298" lon="-2.44538">
        <ele>112</ele>
        <time>2016-02-21T15:16:55.1Z</time>
      </trkpt>
      <trkpt lat="48.64301" lon="-2.44537">
        <ele>112</ele>
        <time>2016-02-21T15:16:58.1Z</time>
      </trkpt>
      <trkpt lat="48.64303" lon="-2.44537">
        <ele>112</ele>
        <time>2016-02-21T15:17:01.1Z</time>
      </trkpt>
      <trkpt lat="48.64305" lon="-2.44537">
        <ele>112</ele>
        <time>2016-02-21T15:17:03.1Z</time>
      </trkpt>
      <trkpt lat="48.64309" lon="-2.44537">
        <ele>112</ele>
        <time>2016-02-21T15:17:06.1Z</time>
      </trkpt>
      <trkpt lat="48.64311" lon="-2.44537">
        <ele>112</ele>
        <time>2016-02-21T15:17:08.1Z</time>
      </trkpt>
      <trkpt lat="48.64315" lon="-2.44536">
        <ele>112</ele>
        <time>2016-02-21T15:17:11.1Z</time>
      </trkpt>
      <trkpt lat="48.64318" lon="-2.44536">
        <ele>112</ele>
        <time>2016-02-21T15:17:14.1Z</time>
      </trkpt>
      <trkpt lat="48.64322" lon="-2.44534">
        <ele>112</ele>
        <time>2016-02-21T15:17:17.1Z</time>
      </trkpt>
      <trkpt lat="48.64326" lon="-2.44533">
        <ele>112</ele>
        <time>2016-02-21T15:17:20.1Z</time>
      </trkpt>
      <trkpt lat="48.6433" lon="-2.44532">
        <ele>112</ele>
        <time>2016-02-21T15:17:23.1Z</time>
      </trkpt>
      <trkpt lat="48.64333" lon="-2.44531">
        <ele>111</ele>
        <time>2016-02-21T15:17:26.1Z</time>
      </trkpt>
      <trkpt lat="48.64337" lon="-2.44531">
        <ele>111</ele>
        <time>2016-02-21T15:17:29.1Z</time>
      </trkpt>
      <trkpt lat="48.64341" lon="-2.4453">
        <ele>111</ele>
        <time>2016-02-21T15:17:32.1Z</time>
      </trkpt>
      <trkpt lat="48.64343" lon="-2.4453">
        <ele>111</ele>
        <time>2016-02-21T15:17:34.1Z</time>
      </trkpt>
      <trkpt lat="48.64347" lon="-2.44529">
        <ele>110</ele>
        <time>2016-02-21T15:17:37.1Z</time>
      </trkpt>
      <trkpt lat="48.6435" lon="-2.44528">
        <ele>110</ele>
        <time>2016-02-21T15:17:40.1Z</time>
      </trkpt>
      <trkpt lat="48.64352" lon="-2.44527">
        <ele>110</ele>
        <time>2016-02-21T15:17:42.1Z</time>
      </trkpt>
      <trkpt lat="48.64356" lon="-2.44526">
        <ele>110</ele>
        <time>2016-02-21T15:17:45.1Z</time>
      </trkpt>
      <trkpt lat="48.64358" lon="-2.44526">
        <ele>110</ele>
        <time>2016-02-21T15:17:47.1Z</time>
      </trkpt>
      <trkpt lat="48.64361" lon="-2.44525">
        <ele>110</ele>
        <time>2016-02-21T15:17:50.1Z</time>
      </trkpt>
      <trkpt lat="48.64362" lon="-2.44524">
        <ele>110</ele>
        <time>2016-02-21T15:17:52.1Z</time>
      </trkpt>
      <trkpt lat="48.64364" lon="-2.44524">
        <ele>110</ele>
        <time>2016-02-21T15:17:54.1Z</time>
      </trkpt>
      <trkpt lat="48.64366" lon="-2.44523">
        <ele>110</ele>
        <time>2016-02-21T15:17:56.1Z</time>
      </trkpt>
      <trkpt lat="48.64369" lon="-2.44523">
        <ele>109</ele>
        <time>2016-02-21T15:17:59.1Z</time>
      </trkpt>
      <trkpt lat="48.64372" lon="-2.44522">
        <ele>109</ele>
        <time>2016-02-21T15:18:02.1Z</time>
      </trkpt>
      <trkpt lat="48.64375" lon="-2.44522">
        <ele>109</ele>
        <time>2016-02-21T15:18:04.1Z</time>
      </trkpt>
      <trkpt lat="48.64377" lon="-2.44522">
        <ele>109</ele>
        <time>2016-02-21T15:18:07.1Z</time>
      </trkpt>
      <trkpt lat="48.6438" lon="-2.44522">
        <ele>109</ele>
        <time>2016-02-21T15:18:09.1Z</time>
      </trkpt>
      <trkpt lat="48.64383" lon="-2.44521">
        <ele>109</ele>
        <time>2016-02-21T15:18:11.1Z</time>
      </trkpt>
      <trkpt lat="48.64386" lon="-2.44521">
        <ele>109</ele>
        <time>2016-02-21T15:18:14.1Z</time>
      </trkpt>
      <trkpt lat="48.64389" lon="-2.4452">
        <ele>108</ele>
        <time>2016-02-21T15:18:17.1Z</time>
      </trkpt>
      <trkpt lat="48.64391" lon="-2.44521">
        <ele>108</ele>
        <time>2016-02-21T15:18:19.1Z</time>
      </trkpt>
      <trkpt lat="48.64394" lon="-2.4452">
        <ele>108</ele>
        <time>2016-02-21T15:18:22.1Z</time>
      </trkpt>
      <trkpt lat="48.64396" lon="-2.4452">
        <ele>108</ele>
        <time>2016-02-21T15:18:24.1Z</time>
      </trkpt>
      <trkpt lat="48.64399" lon="-2.4452">
        <ele>108</ele>
        <time>2016-02-21T15:18:26.1Z</time>
      </trkpt>
      <trkpt lat="48.64401" lon="-2.44519">
        <ele>108</ele>
        <time>2016-02-21T15:18:28.1Z</time>
      </trkpt>
      <trkpt lat="48.64405" lon="-2.44518">
        <ele>108</ele>
        <time>2016-02-21T15:18:31.1Z</time>
      </trkpt>
      <trkpt lat="48.64408" lon="-2.44518">
        <ele>108</ele>
        <time>2016-02-21T15:18:33.1Z</time>
      </trkpt>
      <trkpt lat="48.64412" lon="-2.44517">
        <ele>107</ele>
        <time>2016-02-21T15:18:36.1Z</time>
      </trkpt>
      <trkpt lat="48.64415" lon="-2.44516">
        <ele>108</ele>
        <time>2016-02-21T15:18:39.1Z</time>
      </trkpt>
      <trkpt lat="48.6442" lon="-2.44514">
        <ele>108</ele>
        <time>2016-02-21T15:18:42.1Z</time>
      </trkpt>
      <trkpt lat="48.64424" lon="-2.44514">
        <ele>107</ele>
        <time>2016-02-21T15:18:45.1Z</time>
      </trkpt>
      <trkpt lat="48.64427" lon="-2.44514">
        <ele>107</ele>
        <time>2016-02-21T15:18:48.1Z</time>
      </trkpt>
      <trkpt lat="48.64429" lon="-2.44514">
        <ele>107</ele>
        <time>2016-02-21T15:18:50.1Z</time>
      </trkpt>
      <trkpt lat="48.64432" lon="-2.44514">
        <ele>107</ele>
        <time>2016-02-21T15:18:53.1Z</time>
      </trkpt>
      <trkpt lat="48.64435" lon="-2.44513">
        <ele>107</ele>
        <time>2016-02-21T15:18:56.1Z</time>
      </trkpt>
      <trkpt lat="48.64437" lon="-2.44512">
        <ele>107</ele>
        <time>2016-02-21T15:18:58.1Z</time>
      </trkpt>
      <trkpt lat="48.64441" lon="-2.44511">
        <ele>106</ele>
        <time>2016-02-21T15:19:01.1Z</time>
      </trkpt>
      <trkpt lat="48.64445" lon="-2.4451">
        <ele>106</ele>
        <time>2016-02-21T15:19:04.1Z</time>
      </trkpt>
      <trkpt lat="48.64447" lon="-2.4451">
        <ele>106</ele>
        <time>2016-02-21T15:19:06.1Z</time>
      </trkpt>
      <trkpt lat="48.64451" lon="-2.44509">
        <ele>106</ele>
        <time>2016-02-21T15:19:09.1Z</time>
      </trkpt>
      <trkpt lat="48.64455" lon="-2.44508">
        <ele>106</ele>
        <time>2016-02-21T15:19:12.1Z</time>
      </trkpt>
      <trkpt lat="48.64458" lon="-2.44507">
        <ele>106</ele>
        <time>2016-02-21T15:19:15.1Z</time>
      </trkpt>
      <trkpt lat="48.64462" lon="-2.44506">
        <ele>106</ele>
        <time>2016-02-21T15:19:18.1Z</time>
      </trkpt>
      <trkpt lat="48.64465" lon="-2.44506">
        <ele>106</ele>
        <time>2016-02-21T15:19:20.1Z</time>
      </trkpt>
      <trkpt lat="48.64467" lon="-2.44506">
        <ele>105</ele>
        <time>2016-02-21T15:19:22.1Z</time>
      </trkpt>
      <trkpt lat="48.64472" lon="-2.44505">
        <ele>105</ele>
        <time>2016-02-21T15:19:25.1Z</time>
      </trkpt>
      <trkpt lat="48.64474" lon="-2.44505">
        <ele>105</ele>
        <time>2016-02-21T15:19:27.1Z</time>
      </trkpt>
      <trkpt lat="48.64479" lon="-2.44503">
        <ele>105</ele>
        <time>2016-02-21T15:19:30.1Z</time>
      </trkpt>
    </trkseg>
  </trk>
</gpx>